<?xml version="1.0" encoding="UTF-8" standalone="no" ?>
<gpx xmlns="http://www.topografix.com/GPX/1/1" xmlns:xsi="http://www.w3.org/2001/XMLSchema-instance" xsi:schemaLocation="http://www.topografix.com/GPX/1/1 http://www.topografix.com/GPX/1/1/gpx.xsd" version="1.1" creator="VisuGPX - https://www.visugpx.com">
  <metadata>
    <name>2018-02-23 Bike ride-Ambérieux-Rancé O 34km</name>
    <desc><![CDATA[2018-02-23 Bike ride-Ambérieux-Rancé O 34km]]></desc>
  </metadata>
  <wpt lat="45.92464" lon="4.73748">
    <ele>174</ele>
    <name><![CDATA[2018-02-23 10:44 (Start)]]></name>
  </wpt>
  <wpt lat="45.92453" lon="4.73705">
    <ele>174</ele>
    <name><![CDATA[2018-02-23 10:44 (End)]]></name>
  </wpt>
  <trk>
    <name><![CDATA[2018-02-23 10:44]]></name>
    <trkseg>
      <trkpt lat="45.92464" lon="4.73748">
        <ele>174</ele>
        <time>2018-02-23T09:44:24.156Z</time>
      </trkpt>
      <trkpt lat="45.92465" lon="4.73737">
        <ele>174</ele>
        <time>2018-02-23T09:44:34Z</time>
      </trkpt>
      <trkpt lat="45.92465" lon="4.73734">
        <ele>174</ele>
        <time>2018-02-23T09:44:35Z</time>
      </trkpt>
      <trkpt lat="45.92466" lon="4.73725">
        <ele>174</ele>
        <time>2018-02-23T09:44:42Z</time>
      </trkpt>
      <trkpt lat="45.92465" lon="4.73723">
        <ele>174</ele>
        <time>2018-02-23T09:44:43Z</time>
      </trkpt>
      <trkpt lat="45.92464" lon="4.73721">
        <ele>174</ele>
        <time>2018-02-23T09:44:44Z</time>
      </trkpt>
      <trkpt lat="45.92464" lon="4.73719">
        <ele>174</ele>
        <time>2018-02-23T09:44:45Z</time>
      </trkpt>
      <trkpt lat="45.92467" lon="4.73708">
        <ele>174</ele>
        <time>2018-02-23T09:44:53Z</time>
      </trkpt>
      <trkpt lat="45.92468" lon="4.73706">
        <ele>174</ele>
        <time>2018-02-23T09:44:54Z</time>
      </trkpt>
      <trkpt lat="45.92469" lon="4.73696">
        <ele>174</ele>
        <time>2018-02-23T09:44:58Z</time>
      </trkpt>
      <trkpt lat="45.92469" lon="4.73692">
        <ele>174</ele>
        <time>2018-02-23T09:44:59Z</time>
      </trkpt>
      <trkpt lat="45.9247" lon="4.73682">
        <ele>174</ele>
        <time>2018-02-23T09:45:02Z</time>
      </trkpt>
      <trkpt lat="45.9247" lon="4.73678">
        <ele>174</ele>
        <time>2018-02-23T09:45:03Z</time>
      </trkpt>
      <trkpt lat="45.92469" lon="4.73668">
        <ele>174</ele>
        <time>2018-02-23T09:45:06Z</time>
      </trkpt>
      <trkpt lat="45.92469" lon="4.73664">
        <ele>174</ele>
        <time>2018-02-23T09:45:07Z</time>
      </trkpt>
      <trkpt lat="45.92471" lon="4.73652">
        <ele>174</ele>
        <time>2018-02-23T09:45:10Z</time>
      </trkpt>
      <trkpt lat="45.92473" lon="4.73649">
        <ele>174</ele>
        <time>2018-02-23T09:45:11Z</time>
      </trkpt>
      <trkpt lat="45.92478" lon="4.73645">
        <ele>174</ele>
        <time>2018-02-23T09:45:13Z</time>
      </trkpt>
      <trkpt lat="45.92481" lon="4.73643">
        <ele>174</ele>
        <time>2018-02-23T09:45:14Z</time>
      </trkpt>
      <trkpt lat="45.92488" lon="4.73642">
        <ele>174</ele>
        <time>2018-02-23T09:45:16Z</time>
      </trkpt>
      <trkpt lat="45.92491" lon="4.73642">
        <ele>174</ele>
        <time>2018-02-23T09:45:17Z</time>
      </trkpt>
      <trkpt lat="45.925" lon="4.73641">
        <ele>174</ele>
        <time>2018-02-23T09:45:18Z</time>
      </trkpt>
      <trkpt lat="45.92506" lon="4.7364">
        <ele>174</ele>
        <time>2018-02-23T09:45:20Z</time>
      </trkpt>
      <trkpt lat="45.92511" lon="4.7364">
        <ele>174</ele>
        <time>2018-02-23T09:45:21Z</time>
      </trkpt>
      <trkpt lat="45.92519" lon="4.73639">
        <ele>173</ele>
        <time>2018-02-23T09:45:23Z</time>
      </trkpt>
      <trkpt lat="45.92525" lon="4.73639">
        <ele>173</ele>
        <time>2018-02-23T09:45:24Z</time>
      </trkpt>
      <trkpt lat="45.92533" lon="4.73639">
        <ele>173</ele>
        <time>2018-02-23T09:45:26Z</time>
      </trkpt>
      <trkpt lat="45.92537" lon="4.73639">
        <ele>173</ele>
        <time>2018-02-23T09:45:27Z</time>
      </trkpt>
      <trkpt lat="45.92545" lon="4.73637">
        <ele>173</ele>
        <time>2018-02-23T09:45:29Z</time>
      </trkpt>
      <trkpt lat="45.92549" lon="4.73636">
        <ele>173</ele>
        <time>2018-02-23T09:45:30Z</time>
      </trkpt>
      <trkpt lat="45.92557" lon="4.73636">
        <ele>173</ele>
        <time>2018-02-23T09:45:32Z</time>
      </trkpt>
      <trkpt lat="45.92561" lon="4.73634">
        <ele>173</ele>
        <time>2018-02-23T09:45:33Z</time>
      </trkpt>
      <trkpt lat="45.92569" lon="4.73632">
        <ele>173</ele>
        <time>2018-02-23T09:45:36Z</time>
      </trkpt>
      <trkpt lat="45.92575" lon="4.73629">
        <ele>173</ele>
        <time>2018-02-23T09:45:37Z</time>
      </trkpt>
      <trkpt lat="45.92581" lon="4.73626">
        <ele>173</ele>
        <time>2018-02-23T09:45:39Z</time>
      </trkpt>
      <trkpt lat="45.92586" lon="4.73625">
        <ele>172</ele>
        <time>2018-02-23T09:45:40Z</time>
      </trkpt>
      <trkpt lat="45.92593" lon="4.73623">
        <ele>173</ele>
        <time>2018-02-23T09:45:42Z</time>
      </trkpt>
      <trkpt lat="45.92597" lon="4.73624">
        <ele>173</ele>
        <time>2018-02-23T09:45:43Z</time>
      </trkpt>
      <trkpt lat="45.92605" lon="4.73626">
        <ele>173</ele>
        <time>2018-02-23T09:45:45Z</time>
      </trkpt>
      <trkpt lat="45.9261" lon="4.7363">
        <ele>173</ele>
        <time>2018-02-23T09:45:46Z</time>
      </trkpt>
      <trkpt lat="45.92615" lon="4.73635">
        <ele>173</ele>
        <time>2018-02-23T09:45:47Z</time>
      </trkpt>
      <trkpt lat="45.92616" lon="4.73641">
        <ele>173</ele>
        <time>2018-02-23T09:45:48Z</time>
      </trkpt>
      <trkpt lat="45.92619" lon="4.73646">
        <ele>173</ele>
        <time>2018-02-23T09:45:49Z</time>
      </trkpt>
      <trkpt lat="45.92622" lon="4.73653">
        <ele>173</ele>
        <time>2018-02-23T09:45:50Z</time>
      </trkpt>
      <trkpt lat="45.92624" lon="4.73658">
        <ele>173</ele>
        <time>2018-02-23T09:45:51Z</time>
      </trkpt>
      <trkpt lat="45.92627" lon="4.73664">
        <ele>173</ele>
        <time>2018-02-23T09:45:52Z</time>
      </trkpt>
      <trkpt lat="45.92632" lon="4.73674">
        <ele>173</ele>
        <time>2018-02-23T09:45:54Z</time>
      </trkpt>
      <trkpt lat="45.92635" lon="4.73679">
        <ele>173</ele>
        <time>2018-02-23T09:45:55Z</time>
      </trkpt>
      <trkpt lat="45.92637" lon="4.73683">
        <ele>173</ele>
        <time>2018-02-23T09:45:56Z</time>
      </trkpt>
      <trkpt lat="45.92643" lon="4.73688">
        <ele>173</ele>
        <time>2018-02-23T09:45:57Z</time>
      </trkpt>
      <trkpt lat="45.92645" lon="4.73693">
        <ele>173</ele>
        <time>2018-02-23T09:45:58Z</time>
      </trkpt>
      <trkpt lat="45.92649" lon="4.73697">
        <ele>173</ele>
        <time>2018-02-23T09:45:59Z</time>
      </trkpt>
      <trkpt lat="45.92653" lon="4.73699">
        <ele>173</ele>
        <time>2018-02-23T09:46:00Z</time>
      </trkpt>
      <trkpt lat="45.92658" lon="4.73702">
        <ele>173</ele>
        <time>2018-02-23T09:46:01Z</time>
      </trkpt>
      <trkpt lat="45.92662" lon="4.73705">
        <ele>173</ele>
        <time>2018-02-23T09:46:02Z</time>
      </trkpt>
      <trkpt lat="45.92668" lon="4.73706">
        <ele>174</ele>
        <time>2018-02-23T09:46:03Z</time>
      </trkpt>
      <trkpt lat="45.92675" lon="4.73709">
        <ele>174</ele>
        <time>2018-02-23T09:46:04Z</time>
      </trkpt>
      <trkpt lat="45.9268" lon="4.73711">
        <ele>173</ele>
        <time>2018-02-23T09:46:05Z</time>
      </trkpt>
      <trkpt lat="45.92685" lon="4.73712">
        <ele>173</ele>
        <time>2018-02-23T09:46:06Z</time>
      </trkpt>
      <trkpt lat="45.9269" lon="4.73714">
        <ele>173</ele>
        <time>2018-02-23T09:46:07Z</time>
      </trkpt>
      <trkpt lat="45.92693" lon="4.73717">
        <ele>173</ele>
        <time>2018-02-23T09:46:08Z</time>
      </trkpt>
      <trkpt lat="45.92698" lon="4.73718">
        <ele>173</ele>
        <time>2018-02-23T09:46:09Z</time>
      </trkpt>
      <trkpt lat="45.92704" lon="4.73718">
        <ele>173</ele>
        <time>2018-02-23T09:46:10Z</time>
      </trkpt>
      <trkpt lat="45.92708" lon="4.73719">
        <ele>173</ele>
        <time>2018-02-23T09:46:11Z</time>
      </trkpt>
      <trkpt lat="45.92714" lon="4.73719">
        <ele>173</ele>
        <time>2018-02-23T09:46:12Z</time>
      </trkpt>
      <trkpt lat="45.92719" lon="4.7372">
        <ele>173</ele>
        <time>2018-02-23T09:46:13Z</time>
      </trkpt>
      <trkpt lat="45.92724" lon="4.73721">
        <ele>173</ele>
        <time>2018-02-23T09:46:14Z</time>
      </trkpt>
      <trkpt lat="45.92728" lon="4.73722">
        <ele>173</ele>
        <time>2018-02-23T09:46:15Z</time>
      </trkpt>
      <trkpt lat="45.92734" lon="4.73723">
        <ele>173</ele>
        <time>2018-02-23T09:46:16Z</time>
      </trkpt>
      <trkpt lat="45.92739" lon="4.73724">
        <ele>173</ele>
        <time>2018-02-23T09:46:17Z</time>
      </trkpt>
      <trkpt lat="45.92744" lon="4.73725">
        <ele>173</ele>
        <time>2018-02-23T09:46:18Z</time>
      </trkpt>
      <trkpt lat="45.92749" lon="4.73726">
        <ele>173</ele>
        <time>2018-02-23T09:46:19Z</time>
      </trkpt>
      <trkpt lat="45.92758" lon="4.73729">
        <ele>172</ele>
        <time>2018-02-23T09:46:21Z</time>
      </trkpt>
      <trkpt lat="45.92761" lon="4.73732">
        <ele>172</ele>
        <time>2018-02-23T09:46:22Z</time>
      </trkpt>
      <trkpt lat="45.92769" lon="4.73732">
        <ele>172</ele>
        <time>2018-02-23T09:46:24Z</time>
      </trkpt>
      <trkpt lat="45.92771" lon="4.73733">
        <ele>172</ele>
        <time>2018-02-23T09:46:25Z</time>
      </trkpt>
      <trkpt lat="45.92777" lon="4.73741">
        <ele>172</ele>
        <time>2018-02-23T09:46:28Z</time>
      </trkpt>
      <trkpt lat="45.92784" lon="4.7375">
        <ele>172</ele>
        <time>2018-02-23T09:46:29Z</time>
      </trkpt>
      <trkpt lat="45.92789" lon="4.73757">
        <ele>173</ele>
        <time>2018-02-23T09:46:31Z</time>
      </trkpt>
      <trkpt lat="45.92793" lon="4.7376">
        <ele>173</ele>
        <time>2018-02-23T09:46:32Z</time>
      </trkpt>
      <trkpt lat="45.92798" lon="4.73765">
        <ele>173</ele>
        <time>2018-02-23T09:46:33Z</time>
      </trkpt>
      <trkpt lat="45.92803" lon="4.73768">
        <ele>173</ele>
        <time>2018-02-23T09:46:34Z</time>
      </trkpt>
      <trkpt lat="45.92807" lon="4.73771">
        <ele>173</ele>
        <time>2018-02-23T09:46:35Z</time>
      </trkpt>
      <trkpt lat="45.92811" lon="4.73774">
        <ele>173</ele>
        <time>2018-02-23T09:46:36Z</time>
      </trkpt>
      <trkpt lat="45.92816" lon="4.73775">
        <ele>173</ele>
        <time>2018-02-23T09:46:37Z</time>
      </trkpt>
      <trkpt lat="45.92821" lon="4.73779">
        <ele>173</ele>
        <time>2018-02-23T09:46:38Z</time>
      </trkpt>
      <trkpt lat="45.92826" lon="4.73781">
        <ele>173</ele>
        <time>2018-02-23T09:46:39Z</time>
      </trkpt>
      <trkpt lat="45.92831" lon="4.73784">
        <ele>173</ele>
        <time>2018-02-23T09:46:40Z</time>
      </trkpt>
      <trkpt lat="45.92836" lon="4.73788">
        <ele>173</ele>
        <time>2018-02-23T09:46:41Z</time>
      </trkpt>
      <trkpt lat="45.9284" lon="4.73791">
        <ele>173</ele>
        <time>2018-02-23T09:46:42Z</time>
      </trkpt>
      <trkpt lat="45.92847" lon="4.73799">
        <ele>173</ele>
        <time>2018-02-23T09:46:44Z</time>
      </trkpt>
      <trkpt lat="45.92848" lon="4.73801">
        <ele>173</ele>
        <time>2018-02-23T09:46:45Z</time>
      </trkpt>
      <trkpt lat="45.92852" lon="4.73812">
        <ele>173</ele>
        <time>2018-02-23T09:46:47Z</time>
      </trkpt>
      <trkpt lat="45.92854" lon="4.73817">
        <ele>173</ele>
        <time>2018-02-23T09:46:48Z</time>
      </trkpt>
      <trkpt lat="45.92858" lon="4.73829">
        <ele>173</ele>
        <time>2018-02-23T09:46:50Z</time>
      </trkpt>
      <trkpt lat="45.92859" lon="4.73835">
        <ele>173</ele>
        <time>2018-02-23T09:46:51Z</time>
      </trkpt>
      <trkpt lat="45.92861" lon="4.73841">
        <ele>173</ele>
        <time>2018-02-23T09:46:52Z</time>
      </trkpt>
      <trkpt lat="45.92862" lon="4.73848">
        <ele>173</ele>
        <time>2018-02-23T09:46:53Z</time>
      </trkpt>
      <trkpt lat="45.92865" lon="4.73856">
        <ele>173</ele>
        <time>2018-02-23T09:46:54Z</time>
      </trkpt>
      <trkpt lat="45.92866" lon="4.73861">
        <ele>173</ele>
        <time>2018-02-23T09:46:55Z</time>
      </trkpt>
      <trkpt lat="45.92868" lon="4.73869">
        <ele>173</ele>
        <time>2018-02-23T09:46:56Z</time>
      </trkpt>
      <trkpt lat="45.92867" lon="4.73876">
        <ele>173</ele>
        <time>2018-02-23T09:46:57Z</time>
      </trkpt>
      <trkpt lat="45.9287" lon="4.73882">
        <ele>173</ele>
        <time>2018-02-23T09:46:58Z</time>
      </trkpt>
      <trkpt lat="45.9287" lon="4.7389">
        <ele>173</ele>
        <time>2018-02-23T09:46:59Z</time>
      </trkpt>
      <trkpt lat="45.92871" lon="4.73897">
        <ele>173</ele>
        <time>2018-02-23T09:47:00Z</time>
      </trkpt>
      <trkpt lat="45.92874" lon="4.73904">
        <ele>173</ele>
        <time>2018-02-23T09:47:01Z</time>
      </trkpt>
      <trkpt lat="45.92873" lon="4.73912">
        <ele>173</ele>
        <time>2018-02-23T09:47:02Z</time>
      </trkpt>
      <trkpt lat="45.92877" lon="4.73919">
        <ele>172</ele>
        <time>2018-02-23T09:47:03Z</time>
      </trkpt>
      <trkpt lat="45.92877" lon="4.73925">
        <ele>172</ele>
        <time>2018-02-23T09:47:04Z</time>
      </trkpt>
      <trkpt lat="45.92877" lon="4.73932">
        <ele>172</ele>
        <time>2018-02-23T09:47:05Z</time>
      </trkpt>
      <trkpt lat="45.92879" lon="4.73941">
        <ele>172</ele>
        <time>2018-02-23T09:47:06Z</time>
      </trkpt>
      <trkpt lat="45.92878" lon="4.73947">
        <ele>172</ele>
        <time>2018-02-23T09:47:07Z</time>
      </trkpt>
      <trkpt lat="45.92879" lon="4.73954">
        <ele>172</ele>
        <time>2018-02-23T09:47:08Z</time>
      </trkpt>
      <trkpt lat="45.92884" lon="4.73962">
        <ele>172</ele>
        <time>2018-02-23T09:47:09Z</time>
      </trkpt>
      <trkpt lat="45.92881" lon="4.7397">
        <ele>172</ele>
        <time>2018-02-23T09:47:10Z</time>
      </trkpt>
      <trkpt lat="45.92882" lon="4.73977">
        <ele>172</ele>
        <time>2018-02-23T09:47:11Z</time>
      </trkpt>
      <trkpt lat="45.92881" lon="4.73989">
        <ele>172</ele>
        <time>2018-02-23T09:47:13Z</time>
      </trkpt>
      <trkpt lat="45.92879" lon="4.73995">
        <ele>172</ele>
        <time>2018-02-23T09:47:14Z</time>
      </trkpt>
      <trkpt lat="45.92876" lon="4.74006">
        <ele>172</ele>
        <time>2018-02-23T09:47:16Z</time>
      </trkpt>
      <trkpt lat="45.92875" lon="4.74012">
        <ele>172</ele>
        <time>2018-02-23T09:47:17Z</time>
      </trkpt>
      <trkpt lat="45.92875" lon="4.7402">
        <ele>172</ele>
        <time>2018-02-23T09:47:18Z</time>
      </trkpt>
      <trkpt lat="45.92876" lon="4.74027">
        <ele>172</ele>
        <time>2018-02-23T09:47:19Z</time>
      </trkpt>
      <trkpt lat="45.92874" lon="4.7404">
        <ele>172</ele>
        <time>2018-02-23T09:47:21Z</time>
      </trkpt>
      <trkpt lat="45.92872" lon="4.74046">
        <ele>172</ele>
        <time>2018-02-23T09:47:22Z</time>
      </trkpt>
      <trkpt lat="45.92867" lon="4.74051">
        <ele>172</ele>
        <time>2018-02-23T09:47:23Z</time>
      </trkpt>
      <trkpt lat="45.92864" lon="4.74056">
        <ele>172</ele>
        <time>2018-02-23T09:47:24Z</time>
      </trkpt>
      <trkpt lat="45.9286" lon="4.74062">
        <ele>172</ele>
        <time>2018-02-23T09:47:25Z</time>
      </trkpt>
      <trkpt lat="45.92856" lon="4.74068">
        <ele>172</ele>
        <time>2018-02-23T09:47:26Z</time>
      </trkpt>
      <trkpt lat="45.92852" lon="4.74073">
        <ele>172</ele>
        <time>2018-02-23T09:47:27Z</time>
      </trkpt>
      <trkpt lat="45.92848" lon="4.74078">
        <ele>172</ele>
        <time>2018-02-23T09:47:28Z</time>
      </trkpt>
      <trkpt lat="45.92844" lon="4.74083">
        <ele>171</ele>
        <time>2018-02-23T09:47:29Z</time>
      </trkpt>
      <trkpt lat="45.9284" lon="4.74088">
        <ele>171</ele>
        <time>2018-02-23T09:47:30Z</time>
      </trkpt>
      <trkpt lat="45.92835" lon="4.74093">
        <ele>171</ele>
        <time>2018-02-23T09:47:31Z</time>
      </trkpt>
      <trkpt lat="45.9283" lon="4.74099">
        <ele>171</ele>
        <time>2018-02-23T09:47:32Z</time>
      </trkpt>
      <trkpt lat="45.92825" lon="4.74104">
        <ele>171</ele>
        <time>2018-02-23T09:47:33Z</time>
      </trkpt>
      <trkpt lat="45.92822" lon="4.74109">
        <ele>171</ele>
        <time>2018-02-23T09:47:34Z</time>
      </trkpt>
      <trkpt lat="45.92817" lon="4.74114">
        <ele>172</ele>
        <time>2018-02-23T09:47:35Z</time>
      </trkpt>
      <trkpt lat="45.92814" lon="4.74118">
        <ele>172</ele>
        <time>2018-02-23T09:47:36Z</time>
      </trkpt>
      <trkpt lat="45.9281" lon="4.74123">
        <ele>172</ele>
        <time>2018-02-23T09:47:37Z</time>
      </trkpt>
      <trkpt lat="45.92804" lon="4.74127">
        <ele>172</ele>
        <time>2018-02-23T09:47:38Z</time>
      </trkpt>
      <trkpt lat="45.92801" lon="4.7413">
        <ele>172</ele>
        <time>2018-02-23T09:47:39Z</time>
      </trkpt>
      <trkpt lat="45.92796" lon="4.74135">
        <ele>172</ele>
        <time>2018-02-23T09:47:40Z</time>
      </trkpt>
      <trkpt lat="45.92791" lon="4.7414">
        <ele>172</ele>
        <time>2018-02-23T09:47:41Z</time>
      </trkpt>
      <trkpt lat="45.92788" lon="4.74145">
        <ele>172</ele>
        <time>2018-02-23T09:47:42Z</time>
      </trkpt>
      <trkpt lat="45.92784" lon="4.74149">
        <ele>172</ele>
        <time>2018-02-23T09:47:43Z</time>
      </trkpt>
      <trkpt lat="45.9278" lon="4.74154">
        <ele>172</ele>
        <time>2018-02-23T09:47:44Z</time>
      </trkpt>
      <trkpt lat="45.92775" lon="4.74158">
        <ele>172</ele>
        <time>2018-02-23T09:47:45Z</time>
      </trkpt>
      <trkpt lat="45.92769" lon="4.74162">
        <ele>172</ele>
        <time>2018-02-23T09:47:46Z</time>
      </trkpt>
      <trkpt lat="45.92764" lon="4.74167">
        <ele>172</ele>
        <time>2018-02-23T09:47:47Z</time>
      </trkpt>
      <trkpt lat="45.92759" lon="4.74171">
        <ele>172</ele>
        <time>2018-02-23T09:47:48Z</time>
      </trkpt>
      <trkpt lat="45.92751" lon="4.74177">
        <ele>172</ele>
        <time>2018-02-23T09:47:49Z</time>
      </trkpt>
      <trkpt lat="45.92748" lon="4.74183">
        <ele>172</ele>
        <time>2018-02-23T09:47:50Z</time>
      </trkpt>
      <trkpt lat="45.92743" lon="4.74189">
        <ele>172</ele>
        <time>2018-02-23T09:47:51Z</time>
      </trkpt>
      <trkpt lat="45.92738" lon="4.74196">
        <ele>171</ele>
        <time>2018-02-23T09:47:52Z</time>
      </trkpt>
      <trkpt lat="45.92734" lon="4.74201">
        <ele>171</ele>
        <time>2018-02-23T09:47:53Z</time>
      </trkpt>
      <trkpt lat="45.9273" lon="4.74207">
        <ele>171</ele>
        <time>2018-02-23T09:47:54Z</time>
      </trkpt>
      <trkpt lat="45.92726" lon="4.74214">
        <ele>171</ele>
        <time>2018-02-23T09:47:55Z</time>
      </trkpt>
      <trkpt lat="45.92722" lon="4.74219">
        <ele>171</ele>
        <time>2018-02-23T09:47:56Z</time>
      </trkpt>
      <trkpt lat="45.92719" lon="4.74224">
        <ele>171</ele>
        <time>2018-02-23T09:47:57Z</time>
      </trkpt>
      <trkpt lat="45.92715" lon="4.7423">
        <ele>171</ele>
        <time>2018-02-23T09:47:58Z</time>
      </trkpt>
      <trkpt lat="45.92712" lon="4.74236">
        <ele>171</ele>
        <time>2018-02-23T09:47:59Z</time>
      </trkpt>
      <trkpt lat="45.92708" lon="4.74241">
        <ele>171</ele>
        <time>2018-02-23T09:48:00Z</time>
      </trkpt>
      <trkpt lat="45.92704" lon="4.74247">
        <ele>171</ele>
        <time>2018-02-23T09:48:01Z</time>
      </trkpt>
      <trkpt lat="45.92699" lon="4.74253">
        <ele>171</ele>
        <time>2018-02-23T09:48:02Z</time>
      </trkpt>
      <trkpt lat="45.92695" lon="4.7426">
        <ele>171</ele>
        <time>2018-02-23T09:48:03Z</time>
      </trkpt>
      <trkpt lat="45.92691" lon="4.74266">
        <ele>171</ele>
        <time>2018-02-23T09:48:04Z</time>
      </trkpt>
      <trkpt lat="45.92686" lon="4.74273">
        <ele>171</ele>
        <time>2018-02-23T09:48:05Z</time>
      </trkpt>
      <trkpt lat="45.92682" lon="4.74279">
        <ele>171</ele>
        <time>2018-02-23T09:48:06Z</time>
      </trkpt>
      <trkpt lat="45.92678" lon="4.74286">
        <ele>171</ele>
        <time>2018-02-23T09:48:07Z</time>
      </trkpt>
      <trkpt lat="45.92674" lon="4.74292">
        <ele>171</ele>
        <time>2018-02-23T09:48:08Z</time>
      </trkpt>
      <trkpt lat="45.92671" lon="4.743">
        <ele>171</ele>
        <time>2018-02-23T09:48:09Z</time>
      </trkpt>
      <trkpt lat="45.92668" lon="4.74307">
        <ele>171</ele>
        <time>2018-02-23T09:48:10Z</time>
      </trkpt>
      <trkpt lat="45.92664" lon="4.74313">
        <ele>171</ele>
        <time>2018-02-23T09:48:11Z</time>
      </trkpt>
      <trkpt lat="45.9266" lon="4.74319">
        <ele>171</ele>
        <time>2018-02-23T09:48:12Z</time>
      </trkpt>
      <trkpt lat="45.92657" lon="4.74326">
        <ele>171</ele>
        <time>2018-02-23T09:48:13Z</time>
      </trkpt>
      <trkpt lat="45.92654" lon="4.74333">
        <ele>171</ele>
        <time>2018-02-23T09:48:14Z</time>
      </trkpt>
      <trkpt lat="45.92651" lon="4.74339">
        <ele>171</ele>
        <time>2018-02-23T09:48:15Z</time>
      </trkpt>
      <trkpt lat="45.92648" lon="4.74344">
        <ele>171</ele>
        <time>2018-02-23T09:48:16Z</time>
      </trkpt>
      <trkpt lat="45.92644" lon="4.74351">
        <ele>171</ele>
        <time>2018-02-23T09:48:17Z</time>
      </trkpt>
      <trkpt lat="45.92641" lon="4.74358">
        <ele>171</ele>
        <time>2018-02-23T09:48:18Z</time>
      </trkpt>
      <trkpt lat="45.92637" lon="4.74364">
        <ele>171</ele>
        <time>2018-02-23T09:48:19Z</time>
      </trkpt>
      <trkpt lat="45.92634" lon="4.74371">
        <ele>171</ele>
        <time>2018-02-23T09:48:20Z</time>
      </trkpt>
      <trkpt lat="45.9263" lon="4.74378">
        <ele>170</ele>
        <time>2018-02-23T09:48:21Z</time>
      </trkpt>
      <trkpt lat="45.92626" lon="4.74385">
        <ele>170</ele>
        <time>2018-02-23T09:48:22Z</time>
      </trkpt>
      <trkpt lat="45.92621" lon="4.74393">
        <ele>170</ele>
        <time>2018-02-23T09:48:23Z</time>
      </trkpt>
      <trkpt lat="45.92617" lon="4.744">
        <ele>170</ele>
        <time>2018-02-23T09:48:24Z</time>
      </trkpt>
      <trkpt lat="45.92612" lon="4.74406">
        <ele>170</ele>
        <time>2018-02-23T09:48:25Z</time>
      </trkpt>
      <trkpt lat="45.92606" lon="4.74414">
        <ele>170</ele>
        <time>2018-02-23T09:48:26Z</time>
      </trkpt>
      <trkpt lat="45.92602" lon="4.74421">
        <ele>170</ele>
        <time>2018-02-23T09:48:27Z</time>
      </trkpt>
      <trkpt lat="45.92598" lon="4.74428">
        <ele>170</ele>
        <time>2018-02-23T09:48:28Z</time>
      </trkpt>
      <trkpt lat="45.92594" lon="4.74435">
        <ele>170</ele>
        <time>2018-02-23T09:48:29Z</time>
      </trkpt>
      <trkpt lat="45.9259" lon="4.74442">
        <ele>170</ele>
        <time>2018-02-23T09:48:30Z</time>
      </trkpt>
      <trkpt lat="45.92586" lon="4.74449">
        <ele>170</ele>
        <time>2018-02-23T09:48:31Z</time>
      </trkpt>
      <trkpt lat="45.92582" lon="4.74457">
        <ele>170</ele>
        <time>2018-02-23T09:48:32Z</time>
      </trkpt>
      <trkpt lat="45.92579" lon="4.74463">
        <ele>170</ele>
        <time>2018-02-23T09:48:33Z</time>
      </trkpt>
      <trkpt lat="45.92575" lon="4.74471">
        <ele>170</ele>
        <time>2018-02-23T09:48:34Z</time>
      </trkpt>
      <trkpt lat="45.92571" lon="4.74477">
        <ele>170</ele>
        <time>2018-02-23T09:48:35Z</time>
      </trkpt>
      <trkpt lat="45.92567" lon="4.74484">
        <ele>170</ele>
        <time>2018-02-23T09:48:36Z</time>
      </trkpt>
      <trkpt lat="45.92564" lon="4.7449">
        <ele>170</ele>
        <time>2018-02-23T09:48:37Z</time>
      </trkpt>
      <trkpt lat="45.92561" lon="4.74497">
        <ele>170</ele>
        <time>2018-02-23T09:48:38Z</time>
      </trkpt>
      <trkpt lat="45.92557" lon="4.74504">
        <ele>170</ele>
        <time>2018-02-23T09:48:39Z</time>
      </trkpt>
      <trkpt lat="45.92553" lon="4.7451">
        <ele>170</ele>
        <time>2018-02-23T09:48:40Z</time>
      </trkpt>
      <trkpt lat="45.9255" lon="4.74516">
        <ele>170</ele>
        <time>2018-02-23T09:48:41Z</time>
      </trkpt>
      <trkpt lat="45.92546" lon="4.74523">
        <ele>170</ele>
        <time>2018-02-23T09:48:42Z</time>
      </trkpt>
      <trkpt lat="45.92543" lon="4.7453">
        <ele>170</ele>
        <time>2018-02-23T09:48:43Z</time>
      </trkpt>
      <trkpt lat="45.92539" lon="4.74536">
        <ele>171</ele>
        <time>2018-02-23T09:48:44Z</time>
      </trkpt>
      <trkpt lat="45.92534" lon="4.74542">
        <ele>171</ele>
        <time>2018-02-23T09:48:45Z</time>
      </trkpt>
      <trkpt lat="45.9253" lon="4.74549">
        <ele>171</ele>
        <time>2018-02-23T09:48:46Z</time>
      </trkpt>
      <trkpt lat="45.92526" lon="4.74555">
        <ele>171</ele>
        <time>2018-02-23T09:48:47Z</time>
      </trkpt>
      <trkpt lat="45.92522" lon="4.7456">
        <ele>171</ele>
        <time>2018-02-23T09:48:48Z</time>
      </trkpt>
      <trkpt lat="45.92519" lon="4.74566">
        <ele>171</ele>
        <time>2018-02-23T09:48:49Z</time>
      </trkpt>
      <trkpt lat="45.92514" lon="4.74573">
        <ele>171</ele>
        <time>2018-02-23T09:48:50Z</time>
      </trkpt>
      <trkpt lat="45.9251" lon="4.74578">
        <ele>171</ele>
        <time>2018-02-23T09:48:51Z</time>
      </trkpt>
      <trkpt lat="45.92503" lon="4.74583">
        <ele>171</ele>
        <time>2018-02-23T09:48:52Z</time>
      </trkpt>
      <trkpt lat="45.92496" lon="4.74587">
        <ele>171</ele>
        <time>2018-02-23T09:48:53Z</time>
      </trkpt>
      <trkpt lat="45.92491" lon="4.7459">
        <ele>171</ele>
        <time>2018-02-23T09:48:54Z</time>
      </trkpt>
      <trkpt lat="45.92486" lon="4.74596">
        <ele>171</ele>
        <time>2018-02-23T09:48:55Z</time>
      </trkpt>
      <trkpt lat="45.92482" lon="4.74601">
        <ele>171</ele>
        <time>2018-02-23T09:48:56Z</time>
      </trkpt>
      <trkpt lat="45.92478" lon="4.74606">
        <ele>171</ele>
        <time>2018-02-23T09:48:57Z</time>
      </trkpt>
      <trkpt lat="45.92474" lon="4.74613">
        <ele>171</ele>
        <time>2018-02-23T09:48:58Z</time>
      </trkpt>
      <trkpt lat="45.9247" lon="4.74619">
        <ele>171</ele>
        <time>2018-02-23T09:48:59Z</time>
      </trkpt>
      <trkpt lat="45.92466" lon="4.74625">
        <ele>171</ele>
        <time>2018-02-23T09:49:00Z</time>
      </trkpt>
      <trkpt lat="45.92462" lon="4.74631">
        <ele>171</ele>
        <time>2018-02-23T09:49:01Z</time>
      </trkpt>
      <trkpt lat="45.92457" lon="4.74638">
        <ele>171</ele>
        <time>2018-02-23T09:49:02Z</time>
      </trkpt>
      <trkpt lat="45.92453" lon="4.74644">
        <ele>171</ele>
        <time>2018-02-23T09:49:03Z</time>
      </trkpt>
      <trkpt lat="45.9245" lon="4.7465">
        <ele>171</ele>
        <time>2018-02-23T09:49:04Z</time>
      </trkpt>
      <trkpt lat="45.92446" lon="4.74657">
        <ele>171</ele>
        <time>2018-02-23T09:49:05Z</time>
      </trkpt>
      <trkpt lat="45.92443" lon="4.74663">
        <ele>171</ele>
        <time>2018-02-23T09:49:06Z</time>
      </trkpt>
      <trkpt lat="45.9244" lon="4.7467">
        <ele>171</ele>
        <time>2018-02-23T09:49:07Z</time>
      </trkpt>
      <trkpt lat="45.92437" lon="4.74677">
        <ele>171</ele>
        <time>2018-02-23T09:49:08Z</time>
      </trkpt>
      <trkpt lat="45.92433" lon="4.74684">
        <ele>171</ele>
        <time>2018-02-23T09:49:09Z</time>
      </trkpt>
      <trkpt lat="45.9243" lon="4.74691">
        <ele>171</ele>
        <time>2018-02-23T09:49:10Z</time>
      </trkpt>
      <trkpt lat="45.92426" lon="4.74699">
        <ele>171</ele>
        <time>2018-02-23T09:49:11Z</time>
      </trkpt>
      <trkpt lat="45.92423" lon="4.74706">
        <ele>171</ele>
        <time>2018-02-23T09:49:12Z</time>
      </trkpt>
      <trkpt lat="45.9242" lon="4.74714">
        <ele>171</ele>
        <time>2018-02-23T09:49:13Z</time>
      </trkpt>
      <trkpt lat="45.92418" lon="4.74722">
        <ele>171</ele>
        <time>2018-02-23T09:49:14Z</time>
      </trkpt>
      <trkpt lat="45.92416" lon="4.7473">
        <ele>171</ele>
        <time>2018-02-23T09:49:15Z</time>
      </trkpt>
      <trkpt lat="45.92415" lon="4.74739">
        <ele>172</ele>
        <time>2018-02-23T09:49:16Z</time>
      </trkpt>
      <trkpt lat="45.92413" lon="4.74746">
        <ele>172</ele>
        <time>2018-02-23T09:49:17Z</time>
      </trkpt>
      <trkpt lat="45.92411" lon="4.74754">
        <ele>172</ele>
        <time>2018-02-23T09:49:18Z</time>
      </trkpt>
      <trkpt lat="45.92409" lon="4.74763">
        <ele>172</ele>
        <time>2018-02-23T09:49:19Z</time>
      </trkpt>
      <trkpt lat="45.92408" lon="4.74772">
        <ele>171</ele>
        <time>2018-02-23T09:49:20Z</time>
      </trkpt>
      <trkpt lat="45.92406" lon="4.74781">
        <ele>171</ele>
        <time>2018-02-23T09:49:21Z</time>
      </trkpt>
      <trkpt lat="45.92405" lon="4.74789">
        <ele>171</ele>
        <time>2018-02-23T09:49:22Z</time>
      </trkpt>
      <trkpt lat="45.92403" lon="4.74798">
        <ele>171</ele>
        <time>2018-02-23T09:49:23Z</time>
      </trkpt>
      <trkpt lat="45.92402" lon="4.74808">
        <ele>171</ele>
        <time>2018-02-23T09:49:24Z</time>
      </trkpt>
      <trkpt lat="45.924" lon="4.74816">
        <ele>171</ele>
        <time>2018-02-23T09:49:25Z</time>
      </trkpt>
      <trkpt lat="45.92399" lon="4.74825">
        <ele>171</ele>
        <time>2018-02-23T09:49:26Z</time>
      </trkpt>
      <trkpt lat="45.92396" lon="4.74835">
        <ele>171</ele>
        <time>2018-02-23T09:49:27Z</time>
      </trkpt>
      <trkpt lat="45.92394" lon="4.74843">
        <ele>171</ele>
        <time>2018-02-23T09:49:28Z</time>
      </trkpt>
      <trkpt lat="45.92391" lon="4.74851">
        <ele>171</ele>
        <time>2018-02-23T09:49:29Z</time>
      </trkpt>
      <trkpt lat="45.92389" lon="4.74858">
        <ele>171</ele>
        <time>2018-02-23T09:49:30Z</time>
      </trkpt>
      <trkpt lat="45.92386" lon="4.74867">
        <ele>171</ele>
        <time>2018-02-23T09:49:31Z</time>
      </trkpt>
      <trkpt lat="45.92381" lon="4.74876">
        <ele>171</ele>
        <time>2018-02-23T09:49:32Z</time>
      </trkpt>
      <trkpt lat="45.92378" lon="4.74884">
        <ele>171</ele>
        <time>2018-02-23T09:49:33Z</time>
      </trkpt>
      <trkpt lat="45.92375" lon="4.74892">
        <ele>171</ele>
        <time>2018-02-23T09:49:34Z</time>
      </trkpt>
      <trkpt lat="45.92373" lon="4.749">
        <ele>171</ele>
        <time>2018-02-23T09:49:35Z</time>
      </trkpt>
      <trkpt lat="45.92368" lon="4.74908">
        <ele>171</ele>
        <time>2018-02-23T09:49:36Z</time>
      </trkpt>
      <trkpt lat="45.92364" lon="4.74917">
        <ele>171</ele>
        <time>2018-02-23T09:49:37Z</time>
      </trkpt>
      <trkpt lat="45.92362" lon="4.74924">
        <ele>170</ele>
        <time>2018-02-23T09:49:38Z</time>
      </trkpt>
      <trkpt lat="45.92359" lon="4.74932">
        <ele>170</ele>
        <time>2018-02-23T09:49:39Z</time>
      </trkpt>
      <trkpt lat="45.92357" lon="4.7494">
        <ele>170</ele>
        <time>2018-02-23T09:49:40Z</time>
      </trkpt>
      <trkpt lat="45.92354" lon="4.74947">
        <ele>170</ele>
        <time>2018-02-23T09:49:41Z</time>
      </trkpt>
      <trkpt lat="45.92352" lon="4.74955">
        <ele>170</ele>
        <time>2018-02-23T09:49:42Z</time>
      </trkpt>
      <trkpt lat="45.92349" lon="4.74962">
        <ele>170</ele>
        <time>2018-02-23T09:49:43Z</time>
      </trkpt>
      <trkpt lat="45.92347" lon="4.7497">
        <ele>170</ele>
        <time>2018-02-23T09:49:44Z</time>
      </trkpt>
      <trkpt lat="45.92345" lon="4.74976">
        <ele>170</ele>
        <time>2018-02-23T09:49:45Z</time>
      </trkpt>
      <trkpt lat="45.92342" lon="4.74982">
        <ele>170</ele>
        <time>2018-02-23T09:49:46Z</time>
      </trkpt>
      <trkpt lat="45.92339" lon="4.7499">
        <ele>170</ele>
        <time>2018-02-23T09:49:47Z</time>
      </trkpt>
      <trkpt lat="45.92337" lon="4.74995">
        <ele>170</ele>
        <time>2018-02-23T09:49:48Z</time>
      </trkpt>
      <trkpt lat="45.92334" lon="4.75002">
        <ele>170</ele>
        <time>2018-02-23T09:49:49Z</time>
      </trkpt>
      <trkpt lat="45.92332" lon="4.75009">
        <ele>171</ele>
        <time>2018-02-23T09:49:50Z</time>
      </trkpt>
      <trkpt lat="45.92329" lon="4.75015">
        <ele>171</ele>
        <time>2018-02-23T09:49:51Z</time>
      </trkpt>
      <trkpt lat="45.92326" lon="4.75022">
        <ele>171</ele>
        <time>2018-02-23T09:49:52Z</time>
      </trkpt>
      <trkpt lat="45.92323" lon="4.75028">
        <ele>171</ele>
        <time>2018-02-23T09:49:53Z</time>
      </trkpt>
      <trkpt lat="45.92322" lon="4.75035">
        <ele>171</ele>
        <time>2018-02-23T09:49:54Z</time>
      </trkpt>
      <trkpt lat="45.92319" lon="4.75042">
        <ele>172</ele>
        <time>2018-02-23T09:49:55Z</time>
      </trkpt>
      <trkpt lat="45.92315" lon="4.75047">
        <ele>172</ele>
        <time>2018-02-23T09:49:56Z</time>
      </trkpt>
      <trkpt lat="45.92313" lon="4.75054">
        <ele>172</ele>
        <time>2018-02-23T09:49:57Z</time>
      </trkpt>
      <trkpt lat="45.92307" lon="4.7506">
        <ele>172</ele>
        <time>2018-02-23T09:49:58Z</time>
      </trkpt>
      <trkpt lat="45.92303" lon="4.75065">
        <ele>172</ele>
        <time>2018-02-23T09:49:59Z</time>
      </trkpt>
      <trkpt lat="45.92296" lon="4.75069">
        <ele>172</ele>
        <time>2018-02-23T09:50:00Z</time>
      </trkpt>
      <trkpt lat="45.92293" lon="4.75073">
        <ele>172</ele>
        <time>2018-02-23T09:50:01Z</time>
      </trkpt>
      <trkpt lat="45.92289" lon="4.75078">
        <ele>172</ele>
        <time>2018-02-23T09:50:02Z</time>
      </trkpt>
      <trkpt lat="45.92285" lon="4.75083">
        <ele>173</ele>
        <time>2018-02-23T09:50:03Z</time>
      </trkpt>
      <trkpt lat="45.92278" lon="4.75088">
        <ele>173</ele>
        <time>2018-02-23T09:50:04Z</time>
      </trkpt>
      <trkpt lat="45.92275" lon="4.75092">
        <ele>173</ele>
        <time>2018-02-23T09:50:05Z</time>
      </trkpt>
      <trkpt lat="45.92271" lon="4.75097">
        <ele>173</ele>
        <time>2018-02-23T09:50:06Z</time>
      </trkpt>
      <trkpt lat="45.92267" lon="4.75101">
        <ele>173</ele>
        <time>2018-02-23T09:50:07Z</time>
      </trkpt>
      <trkpt lat="45.92263" lon="4.75106">
        <ele>174</ele>
        <time>2018-02-23T09:50:08Z</time>
      </trkpt>
      <trkpt lat="45.92259" lon="4.75111">
        <ele>174</ele>
        <time>2018-02-23T09:50:09Z</time>
      </trkpt>
      <trkpt lat="45.92255" lon="4.75116">
        <ele>174</ele>
        <time>2018-02-23T09:50:10Z</time>
      </trkpt>
      <trkpt lat="45.92251" lon="4.75121">
        <ele>174</ele>
        <time>2018-02-23T09:50:11Z</time>
      </trkpt>
      <trkpt lat="45.92248" lon="4.75126">
        <ele>174</ele>
        <time>2018-02-23T09:50:12Z</time>
      </trkpt>
      <trkpt lat="45.92242" lon="4.75135">
        <ele>174</ele>
        <time>2018-02-23T09:50:14Z</time>
      </trkpt>
      <trkpt lat="45.92238" lon="4.7514">
        <ele>174</ele>
        <time>2018-02-23T09:50:15Z</time>
      </trkpt>
      <trkpt lat="45.92237" lon="4.75146">
        <ele>174</ele>
        <time>2018-02-23T09:50:16Z</time>
      </trkpt>
      <trkpt lat="45.92233" lon="4.75152">
        <ele>174</ele>
        <time>2018-02-23T09:50:17Z</time>
      </trkpt>
      <trkpt lat="45.92229" lon="4.75158">
        <ele>174</ele>
        <time>2018-02-23T09:50:18Z</time>
      </trkpt>
      <trkpt lat="45.92226" lon="4.75165">
        <ele>174</ele>
        <time>2018-02-23T09:50:19Z</time>
      </trkpt>
      <trkpt lat="45.92224" lon="4.75171">
        <ele>175</ele>
        <time>2018-02-23T09:50:20Z</time>
      </trkpt>
      <trkpt lat="45.92221" lon="4.75178">
        <ele>175</ele>
        <time>2018-02-23T09:50:21Z</time>
      </trkpt>
      <trkpt lat="45.92219" lon="4.75186">
        <ele>175</ele>
        <time>2018-02-23T09:50:22Z</time>
      </trkpt>
      <trkpt lat="45.92217" lon="4.75193">
        <ele>175</ele>
        <time>2018-02-23T09:50:23Z</time>
      </trkpt>
      <trkpt lat="45.92216" lon="4.75199">
        <ele>175</ele>
        <time>2018-02-23T09:50:24Z</time>
      </trkpt>
      <trkpt lat="45.92214" lon="4.75206">
        <ele>175</ele>
        <time>2018-02-23T09:50:25Z</time>
      </trkpt>
      <trkpt lat="45.92213" lon="4.75212">
        <ele>175</ele>
        <time>2018-02-23T09:50:26Z</time>
      </trkpt>
      <trkpt lat="45.92213" lon="4.75219">
        <ele>175</ele>
        <time>2018-02-23T09:50:27Z</time>
      </trkpt>
      <trkpt lat="45.92212" lon="4.75226">
        <ele>175</ele>
        <time>2018-02-23T09:50:28Z</time>
      </trkpt>
      <trkpt lat="45.92212" lon="4.75232">
        <ele>175</ele>
        <time>2018-02-23T09:50:29Z</time>
      </trkpt>
      <trkpt lat="45.92212" lon="4.75244">
        <ele>175</ele>
        <time>2018-02-23T09:50:31Z</time>
      </trkpt>
      <trkpt lat="45.92211" lon="4.75251">
        <ele>175</ele>
        <time>2018-02-23T09:50:32Z</time>
      </trkpt>
      <trkpt lat="45.92211" lon="4.75257">
        <ele>175</ele>
        <time>2018-02-23T09:50:33Z</time>
      </trkpt>
      <trkpt lat="45.92211" lon="4.75265">
        <ele>176</ele>
        <time>2018-02-23T09:50:34Z</time>
      </trkpt>
      <trkpt lat="45.92211" lon="4.75272">
        <ele>176</ele>
        <time>2018-02-23T09:50:35Z</time>
      </trkpt>
      <trkpt lat="45.9221" lon="4.75278">
        <ele>176</ele>
        <time>2018-02-23T09:50:36Z</time>
      </trkpt>
      <trkpt lat="45.92209" lon="4.75286">
        <ele>176</ele>
        <time>2018-02-23T09:50:37Z</time>
      </trkpt>
      <trkpt lat="45.92209" lon="4.75292">
        <ele>176</ele>
        <time>2018-02-23T09:50:38Z</time>
      </trkpt>
      <trkpt lat="45.92208" lon="4.75298">
        <ele>176</ele>
        <time>2018-02-23T09:50:39Z</time>
      </trkpt>
      <trkpt lat="45.92209" lon="4.75305">
        <ele>176</ele>
        <time>2018-02-23T09:50:40Z</time>
      </trkpt>
      <trkpt lat="45.92209" lon="4.75312">
        <ele>176</ele>
        <time>2018-02-23T09:50:41Z</time>
      </trkpt>
      <trkpt lat="45.92208" lon="4.75319">
        <ele>176</ele>
        <time>2018-02-23T09:50:42Z</time>
      </trkpt>
      <trkpt lat="45.92208" lon="4.75326">
        <ele>176</ele>
        <time>2018-02-23T09:50:43Z</time>
      </trkpt>
      <trkpt lat="45.92206" lon="4.75332">
        <ele>176</ele>
        <time>2018-02-23T09:50:44Z</time>
      </trkpt>
      <trkpt lat="45.92205" lon="4.75345">
        <ele>177</ele>
        <time>2018-02-23T09:50:46Z</time>
      </trkpt>
      <trkpt lat="45.92203" lon="4.75351">
        <ele>177</ele>
        <time>2018-02-23T09:50:47Z</time>
      </trkpt>
      <trkpt lat="45.92201" lon="4.75358">
        <ele>177</ele>
        <time>2018-02-23T09:50:49Z</time>
      </trkpt>
      <trkpt lat="45.92199" lon="4.75366">
        <ele>177</ele>
        <time>2018-02-23T09:50:50Z</time>
      </trkpt>
      <trkpt lat="45.92197" lon="4.75372">
        <ele>177</ele>
        <time>2018-02-23T09:50:51Z</time>
      </trkpt>
      <trkpt lat="45.92194" lon="4.75378">
        <ele>177</ele>
        <time>2018-02-23T09:50:52Z</time>
      </trkpt>
      <trkpt lat="45.9219" lon="4.75386">
        <ele>177</ele>
        <time>2018-02-23T09:50:53Z</time>
      </trkpt>
      <trkpt lat="45.92188" lon="4.75393">
        <ele>177</ele>
        <time>2018-02-23T09:50:54Z</time>
      </trkpt>
      <trkpt lat="45.92185" lon="4.75399">
        <ele>177</ele>
        <time>2018-02-23T09:50:55Z</time>
      </trkpt>
      <trkpt lat="45.92181" lon="4.75404">
        <ele>177</ele>
        <time>2018-02-23T09:50:56Z</time>
      </trkpt>
      <trkpt lat="45.92179" lon="4.75411">
        <ele>177</ele>
        <time>2018-02-23T09:50:57Z</time>
      </trkpt>
      <trkpt lat="45.92177" lon="4.75419">
        <ele>177</ele>
        <time>2018-02-23T09:50:58Z</time>
      </trkpt>
      <trkpt lat="45.92175" lon="4.75425">
        <ele>177</ele>
        <time>2018-02-23T09:50:59Z</time>
      </trkpt>
      <trkpt lat="45.92172" lon="4.75432">
        <ele>177</ele>
        <time>2018-02-23T09:51:00Z</time>
      </trkpt>
      <trkpt lat="45.9217" lon="4.7544">
        <ele>177</ele>
        <time>2018-02-23T09:51:01Z</time>
      </trkpt>
      <trkpt lat="45.92167" lon="4.75447">
        <ele>176</ele>
        <time>2018-02-23T09:51:02Z</time>
      </trkpt>
      <trkpt lat="45.92163" lon="4.75454">
        <ele>176</ele>
        <time>2018-02-23T09:51:03Z</time>
      </trkpt>
      <trkpt lat="45.9216" lon="4.75461">
        <ele>176</ele>
        <time>2018-02-23T09:51:04Z</time>
      </trkpt>
      <trkpt lat="45.92157" lon="4.75467">
        <ele>176</ele>
        <time>2018-02-23T09:51:05Z</time>
      </trkpt>
      <trkpt lat="45.92154" lon="4.75475">
        <ele>176</ele>
        <time>2018-02-23T09:51:06Z</time>
      </trkpt>
      <trkpt lat="45.92151" lon="4.75481">
        <ele>176</ele>
        <time>2018-02-23T09:51:07Z</time>
      </trkpt>
      <trkpt lat="45.9215" lon="4.75488">
        <ele>176</ele>
        <time>2018-02-23T09:51:08Z</time>
      </trkpt>
      <trkpt lat="45.92147" lon="4.75495">
        <ele>175</ele>
        <time>2018-02-23T09:51:09Z</time>
      </trkpt>
      <trkpt lat="45.92143" lon="4.75502">
        <ele>175</ele>
        <time>2018-02-23T09:51:10Z</time>
      </trkpt>
      <trkpt lat="45.92141" lon="4.75509">
        <ele>174</ele>
        <time>2018-02-23T09:51:11Z</time>
      </trkpt>
      <trkpt lat="45.92137" lon="4.75515">
        <ele>174</ele>
        <time>2018-02-23T09:51:12Z</time>
      </trkpt>
      <trkpt lat="45.92134" lon="4.75521">
        <ele>174</ele>
        <time>2018-02-23T09:51:13Z</time>
      </trkpt>
      <trkpt lat="45.92132" lon="4.75527">
        <ele>174</ele>
        <time>2018-02-23T09:51:14Z</time>
      </trkpt>
      <trkpt lat="45.92129" lon="4.75534">
        <ele>174</ele>
        <time>2018-02-23T09:51:15Z</time>
      </trkpt>
      <trkpt lat="45.92126" lon="4.75541">
        <ele>174</ele>
        <time>2018-02-23T09:51:16Z</time>
      </trkpt>
      <trkpt lat="45.92122" lon="4.75546">
        <ele>174</ele>
        <time>2018-02-23T09:51:17Z</time>
      </trkpt>
      <trkpt lat="45.92121" lon="4.75554">
        <ele>174</ele>
        <time>2018-02-23T09:51:18Z</time>
      </trkpt>
      <trkpt lat="45.92118" lon="4.7556">
        <ele>174</ele>
        <time>2018-02-23T09:51:19Z</time>
      </trkpt>
      <trkpt lat="45.92115" lon="4.75567">
        <ele>174</ele>
        <time>2018-02-23T09:51:20Z</time>
      </trkpt>
      <trkpt lat="45.92114" lon="4.75574">
        <ele>174</ele>
        <time>2018-02-23T09:51:21Z</time>
      </trkpt>
      <trkpt lat="45.92113" lon="4.7558">
        <ele>174</ele>
        <time>2018-02-23T09:51:22Z</time>
      </trkpt>
      <trkpt lat="45.92115" lon="4.75586">
        <ele>174</ele>
        <time>2018-02-23T09:51:23Z</time>
      </trkpt>
      <trkpt lat="45.92118" lon="4.75592">
        <ele>174</ele>
        <time>2018-02-23T09:51:24Z</time>
      </trkpt>
      <trkpt lat="45.92123" lon="4.75597">
        <ele>174</ele>
        <time>2018-02-23T09:51:25Z</time>
      </trkpt>
      <trkpt lat="45.92128" lon="4.756">
        <ele>174</ele>
        <time>2018-02-23T09:51:26Z</time>
      </trkpt>
      <trkpt lat="45.92133" lon="4.75603">
        <ele>174</ele>
        <time>2018-02-23T09:51:27Z</time>
      </trkpt>
      <trkpt lat="45.92137" lon="4.75606">
        <ele>174</ele>
        <time>2018-02-23T09:51:28Z</time>
      </trkpt>
      <trkpt lat="45.92141" lon="4.7561">
        <ele>174</ele>
        <time>2018-02-23T09:51:29Z</time>
      </trkpt>
      <trkpt lat="45.92145" lon="4.75615">
        <ele>174</ele>
        <time>2018-02-23T09:51:30Z</time>
      </trkpt>
      <trkpt lat="45.92149" lon="4.75619">
        <ele>174</ele>
        <time>2018-02-23T09:51:31Z</time>
      </trkpt>
      <trkpt lat="45.92154" lon="4.75623">
        <ele>174</ele>
        <time>2018-02-23T09:51:32Z</time>
      </trkpt>
      <trkpt lat="45.92158" lon="4.75628">
        <ele>174</ele>
        <time>2018-02-23T09:51:33Z</time>
      </trkpt>
      <trkpt lat="45.92162" lon="4.75632">
        <ele>174</ele>
        <time>2018-02-23T09:51:34Z</time>
      </trkpt>
      <trkpt lat="45.92166" lon="4.75636">
        <ele>174</ele>
        <time>2018-02-23T09:51:35Z</time>
      </trkpt>
      <trkpt lat="45.9217" lon="4.75641">
        <ele>174</ele>
        <time>2018-02-23T09:51:36Z</time>
      </trkpt>
      <trkpt lat="45.92174" lon="4.75644">
        <ele>174</ele>
        <time>2018-02-23T09:51:37Z</time>
      </trkpt>
      <trkpt lat="45.92178" lon="4.75648">
        <ele>174</ele>
        <time>2018-02-23T09:51:38Z</time>
      </trkpt>
      <trkpt lat="45.92182" lon="4.75652">
        <ele>174</ele>
        <time>2018-02-23T09:51:39Z</time>
      </trkpt>
      <trkpt lat="45.92187" lon="4.75656">
        <ele>174</ele>
        <time>2018-02-23T09:51:40Z</time>
      </trkpt>
      <trkpt lat="45.92192" lon="4.7566">
        <ele>174</ele>
        <time>2018-02-23T09:51:41Z</time>
      </trkpt>
      <trkpt lat="45.92196" lon="4.75664">
        <ele>174</ele>
        <time>2018-02-23T09:51:42Z</time>
      </trkpt>
      <trkpt lat="45.92202" lon="4.75672">
        <ele>174</ele>
        <time>2018-02-23T09:51:44Z</time>
      </trkpt>
      <trkpt lat="45.92205" lon="4.75677">
        <ele>174</ele>
        <time>2018-02-23T09:51:45Z</time>
      </trkpt>
      <trkpt lat="45.92213" lon="4.75684">
        <ele>174</ele>
        <time>2018-02-23T09:51:47Z</time>
      </trkpt>
      <trkpt lat="45.92217" lon="4.75687">
        <ele>174</ele>
        <time>2018-02-23T09:51:48Z</time>
      </trkpt>
      <trkpt lat="45.92221" lon="4.75691">
        <ele>174</ele>
        <time>2018-02-23T09:51:49Z</time>
      </trkpt>
      <trkpt lat="45.92223" lon="4.75697">
        <ele>174</ele>
        <time>2018-02-23T09:51:50Z</time>
      </trkpt>
      <trkpt lat="45.92228" lon="4.75701">
        <ele>174</ele>
        <time>2018-02-23T09:51:51Z</time>
      </trkpt>
      <trkpt lat="45.92232" lon="4.75706">
        <ele>174</ele>
        <time>2018-02-23T09:51:52Z</time>
      </trkpt>
      <trkpt lat="45.92236" lon="4.75711">
        <ele>174</ele>
        <time>2018-02-23T09:51:53Z</time>
      </trkpt>
      <trkpt lat="45.92239" lon="4.75715">
        <ele>174</ele>
        <time>2018-02-23T09:51:54Z</time>
      </trkpt>
      <trkpt lat="45.92241" lon="4.75721">
        <ele>174</ele>
        <time>2018-02-23T09:51:55Z</time>
      </trkpt>
      <trkpt lat="45.92243" lon="4.75727">
        <ele>174</ele>
        <time>2018-02-23T09:51:56Z</time>
      </trkpt>
      <trkpt lat="45.92245" lon="4.75734">
        <ele>174</ele>
        <time>2018-02-23T09:51:57Z</time>
      </trkpt>
      <trkpt lat="45.92246" lon="4.75741">
        <ele>174</ele>
        <time>2018-02-23T09:51:58Z</time>
      </trkpt>
      <trkpt lat="45.92248" lon="4.75753">
        <ele>174</ele>
        <time>2018-02-23T09:52:00Z</time>
      </trkpt>
      <trkpt lat="45.92249" lon="4.75759">
        <ele>174</ele>
        <time>2018-02-23T09:52:01Z</time>
      </trkpt>
      <trkpt lat="45.92251" lon="4.75765">
        <ele>174</ele>
        <time>2018-02-23T09:52:02Z</time>
      </trkpt>
      <trkpt lat="45.92253" lon="4.75772">
        <ele>174</ele>
        <time>2018-02-23T09:52:03Z</time>
      </trkpt>
      <trkpt lat="45.92254" lon="4.75783">
        <ele>174</ele>
        <time>2018-02-23T09:52:05Z</time>
      </trkpt>
      <trkpt lat="45.92255" lon="4.7579">
        <ele>174</ele>
        <time>2018-02-23T09:52:06Z</time>
      </trkpt>
      <trkpt lat="45.92256" lon="4.75796">
        <ele>174</ele>
        <time>2018-02-23T09:52:07Z</time>
      </trkpt>
      <trkpt lat="45.92257" lon="4.75802">
        <ele>174</ele>
        <time>2018-02-23T09:52:08Z</time>
      </trkpt>
      <trkpt lat="45.9226" lon="4.75813">
        <ele>174</ele>
        <time>2018-02-23T09:52:10Z</time>
      </trkpt>
      <trkpt lat="45.92262" lon="4.75819">
        <ele>174</ele>
        <time>2018-02-23T09:52:11Z</time>
      </trkpt>
      <trkpt lat="45.92265" lon="4.75824">
        <ele>174</ele>
        <time>2018-02-23T09:52:12Z</time>
      </trkpt>
      <trkpt lat="45.92269" lon="4.75829">
        <ele>174</ele>
        <time>2018-02-23T09:52:13Z</time>
      </trkpt>
      <trkpt lat="45.92274" lon="4.75833">
        <ele>174</ele>
        <time>2018-02-23T09:52:14Z</time>
      </trkpt>
      <trkpt lat="45.92277" lon="4.75837">
        <ele>173</ele>
        <time>2018-02-23T09:52:15Z</time>
      </trkpt>
      <trkpt lat="45.92282" lon="4.7584">
        <ele>173</ele>
        <time>2018-02-23T09:52:16Z</time>
      </trkpt>
      <trkpt lat="45.92287" lon="4.75842">
        <ele>173</ele>
        <time>2018-02-23T09:52:17Z</time>
      </trkpt>
      <trkpt lat="45.92292" lon="4.75845">
        <ele>173</ele>
        <time>2018-02-23T09:52:18Z</time>
      </trkpt>
      <trkpt lat="45.92297" lon="4.75848">
        <ele>173</ele>
        <time>2018-02-23T09:52:19Z</time>
      </trkpt>
      <trkpt lat="45.92303" lon="4.75851">
        <ele>173</ele>
        <time>2018-02-23T09:52:20Z</time>
      </trkpt>
      <trkpt lat="45.92307" lon="4.75854">
        <ele>173</ele>
        <time>2018-02-23T09:52:21Z</time>
      </trkpt>
      <trkpt lat="45.92313" lon="4.75857">
        <ele>173</ele>
        <time>2018-02-23T09:52:22Z</time>
      </trkpt>
      <trkpt lat="45.92318" lon="4.75861">
        <ele>173</ele>
        <time>2018-02-23T09:52:23Z</time>
      </trkpt>
      <trkpt lat="45.92322" lon="4.75863">
        <ele>173</ele>
        <time>2018-02-23T09:52:24Z</time>
      </trkpt>
      <trkpt lat="45.92327" lon="4.75866">
        <ele>173</ele>
        <time>2018-02-23T09:52:25Z</time>
      </trkpt>
      <trkpt lat="45.92332" lon="4.75868">
        <ele>173</ele>
        <time>2018-02-23T09:52:26Z</time>
      </trkpt>
      <trkpt lat="45.92338" lon="4.7587">
        <ele>173</ele>
        <time>2018-02-23T09:52:27Z</time>
      </trkpt>
      <trkpt lat="45.92343" lon="4.75874">
        <ele>173</ele>
        <time>2018-02-23T09:52:28Z</time>
      </trkpt>
      <trkpt lat="45.92349" lon="4.75877">
        <ele>173</ele>
        <time>2018-02-23T09:52:29Z</time>
      </trkpt>
      <trkpt lat="45.92353" lon="4.7588">
        <ele>173</ele>
        <time>2018-02-23T09:52:30Z</time>
      </trkpt>
      <trkpt lat="45.92358" lon="4.75884">
        <ele>173</ele>
        <time>2018-02-23T09:52:31Z</time>
      </trkpt>
      <trkpt lat="45.92363" lon="4.75887">
        <ele>173</ele>
        <time>2018-02-23T09:52:32Z</time>
      </trkpt>
      <trkpt lat="45.92368" lon="4.7589">
        <ele>173</ele>
        <time>2018-02-23T09:52:33Z</time>
      </trkpt>
      <trkpt lat="45.92373" lon="4.75893">
        <ele>173</ele>
        <time>2018-02-23T09:52:34Z</time>
      </trkpt>
      <trkpt lat="45.92377" lon="4.75896">
        <ele>173</ele>
        <time>2018-02-23T09:52:35Z</time>
      </trkpt>
      <trkpt lat="45.92382" lon="4.75899">
        <ele>173</ele>
        <time>2018-02-23T09:52:36Z</time>
      </trkpt>
      <trkpt lat="45.92388" lon="4.75902">
        <ele>173</ele>
        <time>2018-02-23T09:52:37Z</time>
      </trkpt>
      <trkpt lat="45.92392" lon="4.75907">
        <ele>173</ele>
        <time>2018-02-23T09:52:38Z</time>
      </trkpt>
      <trkpt lat="45.92397" lon="4.7591">
        <ele>173</ele>
        <time>2018-02-23T09:52:39Z</time>
      </trkpt>
      <trkpt lat="45.92401" lon="4.75914">
        <ele>172</ele>
        <time>2018-02-23T09:52:40Z</time>
      </trkpt>
      <trkpt lat="45.92406" lon="4.75918">
        <ele>172</ele>
        <time>2018-02-23T09:52:41Z</time>
      </trkpt>
      <trkpt lat="45.9241" lon="4.75921">
        <ele>172</ele>
        <time>2018-02-23T09:52:42Z</time>
      </trkpt>
      <trkpt lat="45.92414" lon="4.75923">
        <ele>172</ele>
        <time>2018-02-23T09:52:43Z</time>
      </trkpt>
      <trkpt lat="45.92419" lon="4.75926">
        <ele>172</ele>
        <time>2018-02-23T09:52:44Z</time>
      </trkpt>
      <trkpt lat="45.92423" lon="4.75929">
        <ele>172</ele>
        <time>2018-02-23T09:52:45Z</time>
      </trkpt>
      <trkpt lat="45.9243" lon="4.75935">
        <ele>172</ele>
        <time>2018-02-23T09:52:47Z</time>
      </trkpt>
      <trkpt lat="45.92434" lon="4.75937">
        <ele>172</ele>
        <time>2018-02-23T09:52:48Z</time>
      </trkpt>
      <trkpt lat="45.92441" lon="4.75943">
        <ele>172</ele>
        <time>2018-02-23T09:52:50Z</time>
      </trkpt>
      <trkpt lat="45.92444" lon="4.75946">
        <ele>172</ele>
        <time>2018-02-23T09:52:51Z</time>
      </trkpt>
      <trkpt lat="45.92451" lon="4.75951">
        <ele>172</ele>
        <time>2018-02-23T09:52:53Z</time>
      </trkpt>
      <trkpt lat="45.92456" lon="4.75953">
        <ele>172</ele>
        <time>2018-02-23T09:52:54Z</time>
      </trkpt>
      <trkpt lat="45.92462" lon="4.75959">
        <ele>172</ele>
        <time>2018-02-23T09:52:56Z</time>
      </trkpt>
      <trkpt lat="45.92466" lon="4.75962">
        <ele>172</ele>
        <time>2018-02-23T09:52:57Z</time>
      </trkpt>
      <trkpt lat="45.92474" lon="4.75966">
        <ele>172</ele>
        <time>2018-02-23T09:52:59Z</time>
      </trkpt>
      <trkpt lat="45.92477" lon="4.75969">
        <ele>172</ele>
        <time>2018-02-23T09:53:00Z</time>
      </trkpt>
      <trkpt lat="45.92485" lon="4.75975">
        <ele>172</ele>
        <time>2018-02-23T09:53:02Z</time>
      </trkpt>
      <trkpt lat="45.92488" lon="4.75978">
        <ele>172</ele>
        <time>2018-02-23T09:53:03Z</time>
      </trkpt>
      <trkpt lat="45.92495" lon="4.75984">
        <ele>172</ele>
        <time>2018-02-23T09:53:05Z</time>
      </trkpt>
      <trkpt lat="45.92499" lon="4.75987">
        <ele>172</ele>
        <time>2018-02-23T09:53:06Z</time>
      </trkpt>
      <trkpt lat="45.92506" lon="4.75992">
        <ele>172</ele>
        <time>2018-02-23T09:53:08Z</time>
      </trkpt>
      <trkpt lat="45.92509" lon="4.75994">
        <ele>172</ele>
        <time>2018-02-23T09:53:09Z</time>
      </trkpt>
      <trkpt lat="45.92517" lon="4.75999">
        <ele>172</ele>
        <time>2018-02-23T09:53:11Z</time>
      </trkpt>
      <trkpt lat="45.92521" lon="4.76001">
        <ele>172</ele>
        <time>2018-02-23T09:53:12Z</time>
      </trkpt>
      <trkpt lat="45.92528" lon="4.76007">
        <ele>172</ele>
        <time>2018-02-23T09:53:14Z</time>
      </trkpt>
      <trkpt lat="45.92531" lon="4.76009">
        <ele>172</ele>
        <time>2018-02-23T09:53:15Z</time>
      </trkpt>
      <trkpt lat="45.92538" lon="4.76015">
        <ele>172</ele>
        <time>2018-02-23T09:53:17Z</time>
      </trkpt>
      <trkpt lat="45.92542" lon="4.76018">
        <ele>172</ele>
        <time>2018-02-23T09:53:18Z</time>
      </trkpt>
      <trkpt lat="45.92549" lon="4.76023">
        <ele>172</ele>
        <time>2018-02-23T09:53:20Z</time>
      </trkpt>
      <trkpt lat="45.92553" lon="4.76025">
        <ele>172</ele>
        <time>2018-02-23T09:53:21Z</time>
      </trkpt>
      <trkpt lat="45.9256" lon="4.76031">
        <ele>172</ele>
        <time>2018-02-23T09:53:23Z</time>
      </trkpt>
      <trkpt lat="45.92563" lon="4.76033">
        <ele>172</ele>
        <time>2018-02-23T09:53:24Z</time>
      </trkpt>
      <trkpt lat="45.92571" lon="4.76039">
        <ele>172</ele>
        <time>2018-02-23T09:53:26Z</time>
      </trkpt>
      <trkpt lat="45.92575" lon="4.76042">
        <ele>171</ele>
        <time>2018-02-23T09:53:27Z</time>
      </trkpt>
      <trkpt lat="45.92579" lon="4.76046">
        <ele>171</ele>
        <time>2018-02-23T09:53:28Z</time>
      </trkpt>
      <trkpt lat="45.92583" lon="4.76049">
        <ele>171</ele>
        <time>2018-02-23T09:53:29Z</time>
      </trkpt>
      <trkpt lat="45.92588" lon="4.76052">
        <ele>171</ele>
        <time>2018-02-23T09:53:30Z</time>
      </trkpt>
      <trkpt lat="45.92592" lon="4.76056">
        <ele>171</ele>
        <time>2018-02-23T09:53:31Z</time>
      </trkpt>
      <trkpt lat="45.92597" lon="4.76059">
        <ele>171</ele>
        <time>2018-02-23T09:53:32Z</time>
      </trkpt>
      <trkpt lat="45.92601" lon="4.76063">
        <ele>171</ele>
        <time>2018-02-23T09:53:33Z</time>
      </trkpt>
      <trkpt lat="45.92606" lon="4.76066">
        <ele>171</ele>
        <time>2018-02-23T09:53:34Z</time>
      </trkpt>
      <trkpt lat="45.9261" lon="4.76069">
        <ele>171</ele>
        <time>2018-02-23T09:53:35Z</time>
      </trkpt>
      <trkpt lat="45.92615" lon="4.76071">
        <ele>171</ele>
        <time>2018-02-23T09:53:36Z</time>
      </trkpt>
      <trkpt lat="45.9262" lon="4.76074">
        <ele>171</ele>
        <time>2018-02-23T09:53:37Z</time>
      </trkpt>
      <trkpt lat="45.92625" lon="4.76078">
        <ele>170</ele>
        <time>2018-02-23T09:53:38Z</time>
      </trkpt>
      <trkpt lat="45.9263" lon="4.76081">
        <ele>170</ele>
        <time>2018-02-23T09:53:39Z</time>
      </trkpt>
      <trkpt lat="45.92635" lon="4.76084">
        <ele>170</ele>
        <time>2018-02-23T09:53:40Z</time>
      </trkpt>
      <trkpt lat="45.92639" lon="4.76088">
        <ele>170</ele>
        <time>2018-02-23T09:53:41Z</time>
      </trkpt>
      <trkpt lat="45.92645" lon="4.76092">
        <ele>170</ele>
        <time>2018-02-23T09:53:42Z</time>
      </trkpt>
      <trkpt lat="45.9265" lon="4.76096">
        <ele>170</ele>
        <time>2018-02-23T09:53:43Z</time>
      </trkpt>
      <trkpt lat="45.92655" lon="4.761">
        <ele>170</ele>
        <time>2018-02-23T09:53:44Z</time>
      </trkpt>
      <trkpt lat="45.9266" lon="4.76104">
        <ele>170</ele>
        <time>2018-02-23T09:53:45Z</time>
      </trkpt>
      <trkpt lat="45.92666" lon="4.76107">
        <ele>170</ele>
        <time>2018-02-23T09:53:46Z</time>
      </trkpt>
      <trkpt lat="45.92671" lon="4.76111">
        <ele>169</ele>
        <time>2018-02-23T09:53:47Z</time>
      </trkpt>
      <trkpt lat="45.92676" lon="4.76115">
        <ele>169</ele>
        <time>2018-02-23T09:53:48Z</time>
      </trkpt>
      <trkpt lat="45.92682" lon="4.76119">
        <ele>169</ele>
        <time>2018-02-23T09:53:49Z</time>
      </trkpt>
      <trkpt lat="45.92687" lon="4.76122">
        <ele>169</ele>
        <time>2018-02-23T09:53:50Z</time>
      </trkpt>
      <trkpt lat="45.92693" lon="4.76125">
        <ele>169</ele>
        <time>2018-02-23T09:53:51Z</time>
      </trkpt>
      <trkpt lat="45.92698" lon="4.76128">
        <ele>169</ele>
        <time>2018-02-23T09:53:52Z</time>
      </trkpt>
      <trkpt lat="45.92703" lon="4.76132">
        <ele>169</ele>
        <time>2018-02-23T09:53:53Z</time>
      </trkpt>
      <trkpt lat="45.92708" lon="4.76135">
        <ele>168</ele>
        <time>2018-02-23T09:53:54Z</time>
      </trkpt>
      <trkpt lat="45.92714" lon="4.76139">
        <ele>168</ele>
        <time>2018-02-23T09:53:55Z</time>
      </trkpt>
      <trkpt lat="45.92719" lon="4.76143">
        <ele>168</ele>
        <time>2018-02-23T09:53:56Z</time>
      </trkpt>
      <trkpt lat="45.92724" lon="4.76148">
        <ele>168</ele>
        <time>2018-02-23T09:53:57Z</time>
      </trkpt>
      <trkpt lat="45.92729" lon="4.76152">
        <ele>168</ele>
        <time>2018-02-23T09:53:58Z</time>
      </trkpt>
      <trkpt lat="45.92734" lon="4.76155">
        <ele>168</ele>
        <time>2018-02-23T09:53:59Z</time>
      </trkpt>
      <trkpt lat="45.92739" lon="4.7616">
        <ele>168</ele>
        <time>2018-02-23T09:54:00Z</time>
      </trkpt>
      <trkpt lat="45.92745" lon="4.76163">
        <ele>167</ele>
        <time>2018-02-23T09:54:01Z</time>
      </trkpt>
      <trkpt lat="45.92749" lon="4.76167">
        <ele>167</ele>
        <time>2018-02-23T09:54:02Z</time>
      </trkpt>
      <trkpt lat="45.92754" lon="4.76171">
        <ele>167</ele>
        <time>2018-02-23T09:54:03Z</time>
      </trkpt>
      <trkpt lat="45.9276" lon="4.76175">
        <ele>167</ele>
        <time>2018-02-23T09:54:04Z</time>
      </trkpt>
      <trkpt lat="45.92763" lon="4.76178">
        <ele>167</ele>
        <time>2018-02-23T09:54:05Z</time>
      </trkpt>
      <trkpt lat="45.92768" lon="4.76182">
        <ele>167</ele>
        <time>2018-02-23T09:54:06Z</time>
      </trkpt>
      <trkpt lat="45.92773" lon="4.76186">
        <ele>167</ele>
        <time>2018-02-23T09:54:07Z</time>
      </trkpt>
      <trkpt lat="45.92777" lon="4.76191">
        <ele>168</ele>
        <time>2018-02-23T09:54:08Z</time>
      </trkpt>
      <trkpt lat="45.92782" lon="4.76194">
        <ele>168</ele>
        <time>2018-02-23T09:54:09Z</time>
      </trkpt>
      <trkpt lat="45.92786" lon="4.76199">
        <ele>168</ele>
        <time>2018-02-23T09:54:10Z</time>
      </trkpt>
      <trkpt lat="45.9279" lon="4.76202">
        <ele>168</ele>
        <time>2018-02-23T09:54:11Z</time>
      </trkpt>
      <trkpt lat="45.92794" lon="4.76207">
        <ele>168</ele>
        <time>2018-02-23T09:54:12Z</time>
      </trkpt>
      <trkpt lat="45.92799" lon="4.76211">
        <ele>168</ele>
        <time>2018-02-23T09:54:13Z</time>
      </trkpt>
      <trkpt lat="45.92804" lon="4.76215">
        <ele>168</ele>
        <time>2018-02-23T09:54:14Z</time>
      </trkpt>
      <trkpt lat="45.92809" lon="4.76219">
        <ele>168</ele>
        <time>2018-02-23T09:54:15Z</time>
      </trkpt>
      <trkpt lat="45.92813" lon="4.76223">
        <ele>168</ele>
        <time>2018-02-23T09:54:16Z</time>
      </trkpt>
      <trkpt lat="45.92817" lon="4.76227">
        <ele>168</ele>
        <time>2018-02-23T09:54:17Z</time>
      </trkpt>
      <trkpt lat="45.92822" lon="4.76232">
        <ele>168</ele>
        <time>2018-02-23T09:54:18Z</time>
      </trkpt>
      <trkpt lat="45.92827" lon="4.76236">
        <ele>168</ele>
        <time>2018-02-23T09:54:19Z</time>
      </trkpt>
      <trkpt lat="45.92831" lon="4.76241">
        <ele>169</ele>
        <time>2018-02-23T09:54:20Z</time>
      </trkpt>
      <trkpt lat="45.92835" lon="4.76245">
        <ele>169</ele>
        <time>2018-02-23T09:54:21Z</time>
      </trkpt>
      <trkpt lat="45.92841" lon="4.76253">
        <ele>169</ele>
        <time>2018-02-23T09:54:23Z</time>
      </trkpt>
      <trkpt lat="45.92846" lon="4.76257">
        <ele>169</ele>
        <time>2018-02-23T09:54:24Z</time>
      </trkpt>
      <trkpt lat="45.9285" lon="4.76261">
        <ele>169</ele>
        <time>2018-02-23T09:54:25Z</time>
      </trkpt>
      <trkpt lat="45.92854" lon="4.76266">
        <ele>169</ele>
        <time>2018-02-23T09:54:26Z</time>
      </trkpt>
      <trkpt lat="45.9286" lon="4.7627">
        <ele>169</ele>
        <time>2018-02-23T09:54:27Z</time>
      </trkpt>
      <trkpt lat="45.92863" lon="4.76275">
        <ele>169</ele>
        <time>2018-02-23T09:54:28Z</time>
      </trkpt>
      <trkpt lat="45.92867" lon="4.76279">
        <ele>169</ele>
        <time>2018-02-23T09:54:29Z</time>
      </trkpt>
      <trkpt lat="45.92871" lon="4.76282">
        <ele>169</ele>
        <time>2018-02-23T09:54:30Z</time>
      </trkpt>
      <trkpt lat="45.92876" lon="4.76287">
        <ele>169</ele>
        <time>2018-02-23T09:54:31Z</time>
      </trkpt>
      <trkpt lat="45.9288" lon="4.76291">
        <ele>169</ele>
        <time>2018-02-23T09:54:32Z</time>
      </trkpt>
      <trkpt lat="45.92885" lon="4.76296">
        <ele>169</ele>
        <time>2018-02-23T09:54:33Z</time>
      </trkpt>
      <trkpt lat="45.92889" lon="4.763">
        <ele>169</ele>
        <time>2018-02-23T09:54:34Z</time>
      </trkpt>
      <trkpt lat="45.92893" lon="4.76305">
        <ele>169</ele>
        <time>2018-02-23T09:54:35Z</time>
      </trkpt>
      <trkpt lat="45.92897" lon="4.76309">
        <ele>169</ele>
        <time>2018-02-23T09:54:36Z</time>
      </trkpt>
      <trkpt lat="45.92904" lon="4.76316">
        <ele>169</ele>
        <time>2018-02-23T09:54:38Z</time>
      </trkpt>
      <trkpt lat="45.92909" lon="4.76321">
        <ele>169</ele>
        <time>2018-02-23T09:54:39Z</time>
      </trkpt>
      <trkpt lat="45.92914" lon="4.76324">
        <ele>169</ele>
        <time>2018-02-23T09:54:40Z</time>
      </trkpt>
      <trkpt lat="45.92918" lon="4.76328">
        <ele>169</ele>
        <time>2018-02-23T09:54:41Z</time>
      </trkpt>
      <trkpt lat="45.92923" lon="4.76332">
        <ele>169</ele>
        <time>2018-02-23T09:54:42Z</time>
      </trkpt>
      <trkpt lat="45.92927" lon="4.76336">
        <ele>169</ele>
        <time>2018-02-23T09:54:43Z</time>
      </trkpt>
      <trkpt lat="45.92932" lon="4.7634">
        <ele>169</ele>
        <time>2018-02-23T09:54:44Z</time>
      </trkpt>
      <trkpt lat="45.92937" lon="4.76345">
        <ele>169</ele>
        <time>2018-02-23T09:54:45Z</time>
      </trkpt>
      <trkpt lat="45.92941" lon="4.76349">
        <ele>169</ele>
        <time>2018-02-23T09:54:46Z</time>
      </trkpt>
      <trkpt lat="45.92945" lon="4.76355">
        <ele>169</ele>
        <time>2018-02-23T09:54:47Z</time>
      </trkpt>
      <trkpt lat="45.9295" lon="4.7636">
        <ele>169</ele>
        <time>2018-02-23T09:54:48Z</time>
      </trkpt>
      <trkpt lat="45.92955" lon="4.76364">
        <ele>169</ele>
        <time>2018-02-23T09:54:49Z</time>
      </trkpt>
      <trkpt lat="45.9296" lon="4.7637">
        <ele>169</ele>
        <time>2018-02-23T09:54:50Z</time>
      </trkpt>
      <trkpt lat="45.92965" lon="4.76375">
        <ele>169</ele>
        <time>2018-02-23T09:54:51Z</time>
      </trkpt>
      <trkpt lat="45.9297" lon="4.7638">
        <ele>169</ele>
        <time>2018-02-23T09:54:52Z</time>
      </trkpt>
      <trkpt lat="45.92975" lon="4.76383">
        <ele>169</ele>
        <time>2018-02-23T09:54:53Z</time>
      </trkpt>
      <trkpt lat="45.92979" lon="4.76388">
        <ele>169</ele>
        <time>2018-02-23T09:54:54Z</time>
      </trkpt>
      <trkpt lat="45.92984" lon="4.76393">
        <ele>169</ele>
        <time>2018-02-23T09:54:55Z</time>
      </trkpt>
      <trkpt lat="45.92988" lon="4.76397">
        <ele>169</ele>
        <time>2018-02-23T09:54:56Z</time>
      </trkpt>
      <trkpt lat="45.92993" lon="4.764">
        <ele>169</ele>
        <time>2018-02-23T09:54:57Z</time>
      </trkpt>
      <trkpt lat="45.92997" lon="4.76405">
        <ele>169</ele>
        <time>2018-02-23T09:54:58Z</time>
      </trkpt>
      <trkpt lat="45.93001" lon="4.76409">
        <ele>169</ele>
        <time>2018-02-23T09:54:59Z</time>
      </trkpt>
      <trkpt lat="45.93006" lon="4.76413">
        <ele>169</ele>
        <time>2018-02-23T09:55:00Z</time>
      </trkpt>
      <trkpt lat="45.9301" lon="4.76418">
        <ele>169</ele>
        <time>2018-02-23T09:55:01Z</time>
      </trkpt>
      <trkpt lat="45.93015" lon="4.76423">
        <ele>169</ele>
        <time>2018-02-23T09:55:02Z</time>
      </trkpt>
      <trkpt lat="45.93023" lon="4.76427">
        <ele>169</ele>
        <time>2018-02-23T09:55:03Z</time>
      </trkpt>
      <trkpt lat="45.93027" lon="4.7643">
        <ele>169</ele>
        <time>2018-02-23T09:55:04Z</time>
      </trkpt>
      <trkpt lat="45.93031" lon="4.76435">
        <ele>169</ele>
        <time>2018-02-23T09:55:05Z</time>
      </trkpt>
      <trkpt lat="45.93036" lon="4.76439">
        <ele>169</ele>
        <time>2018-02-23T09:55:06Z</time>
      </trkpt>
      <trkpt lat="45.93041" lon="4.76444">
        <ele>169</ele>
        <time>2018-02-23T09:55:07Z</time>
      </trkpt>
      <trkpt lat="45.93045" lon="4.76448">
        <ele>169</ele>
        <time>2018-02-23T09:55:08Z</time>
      </trkpt>
      <trkpt lat="45.9305" lon="4.76453">
        <ele>169</ele>
        <time>2018-02-23T09:55:09Z</time>
      </trkpt>
      <trkpt lat="45.93054" lon="4.76457">
        <ele>169</ele>
        <time>2018-02-23T09:55:10Z</time>
      </trkpt>
      <trkpt lat="45.93058" lon="4.76461">
        <ele>169</ele>
        <time>2018-02-23T09:55:11Z</time>
      </trkpt>
      <trkpt lat="45.93062" lon="4.76466">
        <ele>169</ele>
        <time>2018-02-23T09:55:12Z</time>
      </trkpt>
      <trkpt lat="45.93066" lon="4.7647">
        <ele>169</ele>
        <time>2018-02-23T09:55:13Z</time>
      </trkpt>
      <trkpt lat="45.93073" lon="4.76477">
        <ele>169</ele>
        <time>2018-02-23T09:55:15Z</time>
      </trkpt>
      <trkpt lat="45.93078" lon="4.76481">
        <ele>169</ele>
        <time>2018-02-23T09:55:16Z</time>
      </trkpt>
      <trkpt lat="45.93081" lon="4.76485">
        <ele>170</ele>
        <time>2018-02-23T09:55:17Z</time>
      </trkpt>
      <trkpt lat="45.93087" lon="4.76488">
        <ele>170</ele>
        <time>2018-02-23T09:55:18Z</time>
      </trkpt>
      <trkpt lat="45.93091" lon="4.76492">
        <ele>170</ele>
        <time>2018-02-23T09:55:19Z</time>
      </trkpt>
      <trkpt lat="45.93095" lon="4.76496">
        <ele>170</ele>
        <time>2018-02-23T09:55:20Z</time>
      </trkpt>
      <trkpt lat="45.93098" lon="4.765">
        <ele>170</ele>
        <time>2018-02-23T09:55:21Z</time>
      </trkpt>
      <trkpt lat="45.93102" lon="4.76505">
        <ele>170</ele>
        <time>2018-02-23T09:55:22Z</time>
      </trkpt>
      <trkpt lat="45.93106" lon="4.76509">
        <ele>170</ele>
        <time>2018-02-23T09:55:23Z</time>
      </trkpt>
      <trkpt lat="45.9311" lon="4.76513">
        <ele>170</ele>
        <time>2018-02-23T09:55:24Z</time>
      </trkpt>
      <trkpt lat="45.93115" lon="4.76517">
        <ele>170</ele>
        <time>2018-02-23T09:55:25Z</time>
      </trkpt>
      <trkpt lat="45.93118" lon="4.7652">
        <ele>170</ele>
        <time>2018-02-23T09:55:26Z</time>
      </trkpt>
      <trkpt lat="45.93122" lon="4.76524">
        <ele>170</ele>
        <time>2018-02-23T09:55:27Z</time>
      </trkpt>
      <trkpt lat="45.93127" lon="4.76528">
        <ele>170</ele>
        <time>2018-02-23T09:55:28Z</time>
      </trkpt>
      <trkpt lat="45.93134" lon="4.76534">
        <ele>170</ele>
        <time>2018-02-23T09:55:30Z</time>
      </trkpt>
      <trkpt lat="45.93137" lon="4.76539">
        <ele>170</ele>
        <time>2018-02-23T09:55:31Z</time>
      </trkpt>
      <trkpt lat="45.93144" lon="4.76546">
        <ele>170</ele>
        <time>2018-02-23T09:55:33Z</time>
      </trkpt>
      <trkpt lat="45.93147" lon="4.76549">
        <ele>170</ele>
        <time>2018-02-23T09:55:34Z</time>
      </trkpt>
      <trkpt lat="45.93151" lon="4.76555">
        <ele>170</ele>
        <time>2018-02-23T09:55:35Z</time>
      </trkpt>
      <trkpt lat="45.93155" lon="4.76559">
        <ele>170</ele>
        <time>2018-02-23T09:55:36Z</time>
      </trkpt>
      <trkpt lat="45.93159" lon="4.76565">
        <ele>170</ele>
        <time>2018-02-23T09:55:37Z</time>
      </trkpt>
      <trkpt lat="45.93163" lon="4.76569">
        <ele>170</ele>
        <time>2018-02-23T09:55:38Z</time>
      </trkpt>
      <trkpt lat="45.93169" lon="4.76576">
        <ele>170</ele>
        <time>2018-02-23T09:55:40Z</time>
      </trkpt>
      <trkpt lat="45.93174" lon="4.76582">
        <ele>170</ele>
        <time>2018-02-23T09:55:41Z</time>
      </trkpt>
      <trkpt lat="45.9318" lon="4.76586">
        <ele>171</ele>
        <time>2018-02-23T09:55:42Z</time>
      </trkpt>
      <trkpt lat="45.93185" lon="4.76593">
        <ele>171</ele>
        <time>2018-02-23T09:55:43Z</time>
      </trkpt>
      <trkpt lat="45.93191" lon="4.76598">
        <ele>170</ele>
        <time>2018-02-23T09:55:44Z</time>
      </trkpt>
      <trkpt lat="45.93196" lon="4.76605">
        <ele>170</ele>
        <time>2018-02-23T09:55:45Z</time>
      </trkpt>
      <trkpt lat="45.932" lon="4.76609">
        <ele>170</ele>
        <time>2018-02-23T09:55:46Z</time>
      </trkpt>
      <trkpt lat="45.93204" lon="4.76613">
        <ele>170</ele>
        <time>2018-02-23T09:55:47Z</time>
      </trkpt>
      <trkpt lat="45.93208" lon="4.76617">
        <ele>170</ele>
        <time>2018-02-23T09:55:48Z</time>
      </trkpt>
      <trkpt lat="45.93212" lon="4.76622">
        <ele>170</ele>
        <time>2018-02-23T09:55:49Z</time>
      </trkpt>
      <trkpt lat="45.93216" lon="4.76625">
        <ele>170</ele>
        <time>2018-02-23T09:55:50Z</time>
      </trkpt>
      <trkpt lat="45.93221" lon="4.76629">
        <ele>170</ele>
        <time>2018-02-23T09:55:51Z</time>
      </trkpt>
      <trkpt lat="45.93225" lon="4.76633">
        <ele>171</ele>
        <time>2018-02-23T09:55:52Z</time>
      </trkpt>
      <trkpt lat="45.93229" lon="4.76637">
        <ele>171</ele>
        <time>2018-02-23T09:55:53Z</time>
      </trkpt>
      <trkpt lat="45.93233" lon="4.76641">
        <ele>171</ele>
        <time>2018-02-23T09:55:54Z</time>
      </trkpt>
      <trkpt lat="45.93238" lon="4.76645">
        <ele>171</ele>
        <time>2018-02-23T09:55:55Z</time>
      </trkpt>
      <trkpt lat="45.93242" lon="4.7665">
        <ele>171</ele>
        <time>2018-02-23T09:55:56Z</time>
      </trkpt>
      <trkpt lat="45.93245" lon="4.76655">
        <ele>171</ele>
        <time>2018-02-23T09:55:57Z</time>
      </trkpt>
      <trkpt lat="45.9325" lon="4.7666">
        <ele>172</ele>
        <time>2018-02-23T09:55:58Z</time>
      </trkpt>
      <trkpt lat="45.93254" lon="4.76665">
        <ele>172</ele>
        <time>2018-02-23T09:55:59Z</time>
      </trkpt>
      <trkpt lat="45.93258" lon="4.76667">
        <ele>172</ele>
        <time>2018-02-23T09:56:00Z</time>
      </trkpt>
      <trkpt lat="45.93263" lon="4.76672">
        <ele>172</ele>
        <time>2018-02-23T09:56:01Z</time>
      </trkpt>
      <trkpt lat="45.93267" lon="4.76677">
        <ele>172</ele>
        <time>2018-02-23T09:56:02Z</time>
      </trkpt>
      <trkpt lat="45.93273" lon="4.7668">
        <ele>172</ele>
        <time>2018-02-23T09:56:03Z</time>
      </trkpt>
      <trkpt lat="45.93279" lon="4.76685">
        <ele>172</ele>
        <time>2018-02-23T09:56:04Z</time>
      </trkpt>
      <trkpt lat="45.93282" lon="4.7669">
        <ele>172</ele>
        <time>2018-02-23T09:56:05Z</time>
      </trkpt>
      <trkpt lat="45.93288" lon="4.76695">
        <ele>172</ele>
        <time>2018-02-23T09:56:06Z</time>
      </trkpt>
      <trkpt lat="45.93293" lon="4.76698">
        <ele>172</ele>
        <time>2018-02-23T09:56:07Z</time>
      </trkpt>
      <trkpt lat="45.93296" lon="4.76703">
        <ele>172</ele>
        <time>2018-02-23T09:56:08Z</time>
      </trkpt>
      <trkpt lat="45.933" lon="4.76707">
        <ele>172</ele>
        <time>2018-02-23T09:56:09Z</time>
      </trkpt>
      <trkpt lat="45.93305" lon="4.76711">
        <ele>172</ele>
        <time>2018-02-23T09:56:10Z</time>
      </trkpt>
      <trkpt lat="45.9331" lon="4.76716">
        <ele>172</ele>
        <time>2018-02-23T09:56:11Z</time>
      </trkpt>
      <trkpt lat="45.93314" lon="4.7672">
        <ele>172</ele>
        <time>2018-02-23T09:56:12Z</time>
      </trkpt>
      <trkpt lat="45.93319" lon="4.76723">
        <ele>172</ele>
        <time>2018-02-23T09:56:13Z</time>
      </trkpt>
      <trkpt lat="45.93322" lon="4.76727">
        <ele>172</ele>
        <time>2018-02-23T09:56:14Z</time>
      </trkpt>
      <trkpt lat="45.93327" lon="4.7673">
        <ele>172</ele>
        <time>2018-02-23T09:56:15Z</time>
      </trkpt>
      <trkpt lat="45.93334" lon="4.76737">
        <ele>172</ele>
        <time>2018-02-23T09:56:17Z</time>
      </trkpt>
      <trkpt lat="45.93338" lon="4.76741">
        <ele>173</ele>
        <time>2018-02-23T09:56:18Z</time>
      </trkpt>
      <trkpt lat="45.93342" lon="4.76745">
        <ele>173</ele>
        <time>2018-02-23T09:56:19Z</time>
      </trkpt>
      <trkpt lat="45.93345" lon="4.76749">
        <ele>172</ele>
        <time>2018-02-23T09:56:20Z</time>
      </trkpt>
      <trkpt lat="45.93349" lon="4.76753">
        <ele>172</ele>
        <time>2018-02-23T09:56:21Z</time>
      </trkpt>
      <trkpt lat="45.93353" lon="4.76757">
        <ele>172</ele>
        <time>2018-02-23T09:56:22Z</time>
      </trkpt>
      <trkpt lat="45.93356" lon="4.76763">
        <ele>172</ele>
        <time>2018-02-23T09:56:23Z</time>
      </trkpt>
      <trkpt lat="45.93359" lon="4.76767">
        <ele>172</ele>
        <time>2018-02-23T09:56:24Z</time>
      </trkpt>
      <trkpt lat="45.93363" lon="4.76771">
        <ele>172</ele>
        <time>2018-02-23T09:56:25Z</time>
      </trkpt>
      <trkpt lat="45.93367" lon="4.76775">
        <ele>172</ele>
        <time>2018-02-23T09:56:26Z</time>
      </trkpt>
      <trkpt lat="45.93371" lon="4.76779">
        <ele>172</ele>
        <time>2018-02-23T09:56:27Z</time>
      </trkpt>
      <trkpt lat="45.93375" lon="4.76783">
        <ele>172</ele>
        <time>2018-02-23T09:56:28Z</time>
      </trkpt>
      <trkpt lat="45.93379" lon="4.76787">
        <ele>172</ele>
        <time>2018-02-23T09:56:29Z</time>
      </trkpt>
      <trkpt lat="45.93384" lon="4.76791">
        <ele>172</ele>
        <time>2018-02-23T09:56:30Z</time>
      </trkpt>
      <trkpt lat="45.93389" lon="4.76796">
        <ele>172</ele>
        <time>2018-02-23T09:56:31Z</time>
      </trkpt>
      <trkpt lat="45.93392" lon="4.76801">
        <ele>172</ele>
        <time>2018-02-23T09:56:32Z</time>
      </trkpt>
      <trkpt lat="45.93396" lon="4.76807">
        <ele>172</ele>
        <time>2018-02-23T09:56:33Z</time>
      </trkpt>
      <trkpt lat="45.934" lon="4.76813">
        <ele>172</ele>
        <time>2018-02-23T09:56:34Z</time>
      </trkpt>
      <trkpt lat="45.93405" lon="4.76823">
        <ele>172</ele>
        <time>2018-02-23T09:56:36Z</time>
      </trkpt>
      <trkpt lat="45.93408" lon="4.76828">
        <ele>172</ele>
        <time>2018-02-23T09:56:37Z</time>
      </trkpt>
      <trkpt lat="45.93411" lon="4.76834">
        <ele>172</ele>
        <time>2018-02-23T09:56:38Z</time>
      </trkpt>
      <trkpt lat="45.93414" lon="4.76839">
        <ele>172</ele>
        <time>2018-02-23T09:56:39Z</time>
      </trkpt>
      <trkpt lat="45.93417" lon="4.76843">
        <ele>171</ele>
        <time>2018-02-23T09:56:40Z</time>
      </trkpt>
      <trkpt lat="45.93419" lon="4.76849">
        <ele>171</ele>
        <time>2018-02-23T09:56:41Z</time>
      </trkpt>
      <trkpt lat="45.93422" lon="4.76855">
        <ele>171</ele>
        <time>2018-02-23T09:56:42Z</time>
      </trkpt>
      <trkpt lat="45.93425" lon="4.76861">
        <ele>171</ele>
        <time>2018-02-23T09:56:43Z</time>
      </trkpt>
      <trkpt lat="45.93427" lon="4.76867">
        <ele>171</ele>
        <time>2018-02-23T09:56:44Z</time>
      </trkpt>
      <trkpt lat="45.93429" lon="4.76872">
        <ele>171</ele>
        <time>2018-02-23T09:56:45Z</time>
      </trkpt>
      <trkpt lat="45.93432" lon="4.76878">
        <ele>171</ele>
        <time>2018-02-23T09:56:46Z</time>
      </trkpt>
      <trkpt lat="45.93434" lon="4.76884">
        <ele>171</ele>
        <time>2018-02-23T09:56:47Z</time>
      </trkpt>
      <trkpt lat="45.93435" lon="4.7689">
        <ele>171</ele>
        <time>2018-02-23T09:56:48Z</time>
      </trkpt>
      <trkpt lat="45.93437" lon="4.76897">
        <ele>171</ele>
        <time>2018-02-23T09:56:49Z</time>
      </trkpt>
      <trkpt lat="45.93439" lon="4.76904">
        <ele>170</ele>
        <time>2018-02-23T09:56:50Z</time>
      </trkpt>
      <trkpt lat="45.93441" lon="4.7691">
        <ele>170</ele>
        <time>2018-02-23T09:56:51Z</time>
      </trkpt>
      <trkpt lat="45.93442" lon="4.76917">
        <ele>170</ele>
        <time>2018-02-23T09:56:52Z</time>
      </trkpt>
      <trkpt lat="45.93445" lon="4.76924">
        <ele>170</ele>
        <time>2018-02-23T09:56:53Z</time>
      </trkpt>
      <trkpt lat="45.93447" lon="4.76931">
        <ele>170</ele>
        <time>2018-02-23T09:56:54Z</time>
      </trkpt>
      <trkpt lat="45.93449" lon="4.76938">
        <ele>170</ele>
        <time>2018-02-23T09:56:55Z</time>
      </trkpt>
      <trkpt lat="45.9345" lon="4.76944">
        <ele>170</ele>
        <time>2018-02-23T09:56:56Z</time>
      </trkpt>
      <trkpt lat="45.93451" lon="4.76951">
        <ele>170</ele>
        <time>2018-02-23T09:56:57Z</time>
      </trkpt>
      <trkpt lat="45.93452" lon="4.76958">
        <ele>170</ele>
        <time>2018-02-23T09:56:58Z</time>
      </trkpt>
      <trkpt lat="45.93452" lon="4.76965">
        <ele>170</ele>
        <time>2018-02-23T09:56:59Z</time>
      </trkpt>
      <trkpt lat="45.93453" lon="4.76972">
        <ele>170</ele>
        <time>2018-02-23T09:57:00Z</time>
      </trkpt>
      <trkpt lat="45.93455" lon="4.76978">
        <ele>170</ele>
        <time>2018-02-23T09:57:01Z</time>
      </trkpt>
      <trkpt lat="45.93456" lon="4.76986">
        <ele>170</ele>
        <time>2018-02-23T09:57:02Z</time>
      </trkpt>
      <trkpt lat="45.93457" lon="4.76993">
        <ele>170</ele>
        <time>2018-02-23T09:57:03Z</time>
      </trkpt>
      <trkpt lat="45.93458" lon="4.76999">
        <ele>170</ele>
        <time>2018-02-23T09:57:04Z</time>
      </trkpt>
      <trkpt lat="45.93459" lon="4.77006">
        <ele>170</ele>
        <time>2018-02-23T09:57:05Z</time>
      </trkpt>
      <trkpt lat="45.93461" lon="4.77013">
        <ele>170</ele>
        <time>2018-02-23T09:57:06Z</time>
      </trkpt>
      <trkpt lat="45.93461" lon="4.77019">
        <ele>170</ele>
        <time>2018-02-23T09:57:07Z</time>
      </trkpt>
      <trkpt lat="45.93462" lon="4.77026">
        <ele>170</ele>
        <time>2018-02-23T09:57:08Z</time>
      </trkpt>
      <trkpt lat="45.93463" lon="4.77032">
        <ele>170</ele>
        <time>2018-02-23T09:57:09Z</time>
      </trkpt>
      <trkpt lat="45.93463" lon="4.77039">
        <ele>170</ele>
        <time>2018-02-23T09:57:10Z</time>
      </trkpt>
      <trkpt lat="45.93465" lon="4.77046">
        <ele>170</ele>
        <time>2018-02-23T09:57:11Z</time>
      </trkpt>
      <trkpt lat="45.93466" lon="4.77053">
        <ele>170</ele>
        <time>2018-02-23T09:57:12Z</time>
      </trkpt>
      <trkpt lat="45.93467" lon="4.77061">
        <ele>170</ele>
        <time>2018-02-23T09:57:13Z</time>
      </trkpt>
      <trkpt lat="45.93468" lon="4.77068">
        <ele>170</ele>
        <time>2018-02-23T09:57:14Z</time>
      </trkpt>
      <trkpt lat="45.9347" lon="4.77076">
        <ele>170</ele>
        <time>2018-02-23T09:57:15Z</time>
      </trkpt>
      <trkpt lat="45.93472" lon="4.77082">
        <ele>170</ele>
        <time>2018-02-23T09:57:16Z</time>
      </trkpt>
      <trkpt lat="45.93473" lon="4.7709">
        <ele>169</ele>
        <time>2018-02-23T09:57:17Z</time>
      </trkpt>
      <trkpt lat="45.93474" lon="4.77097">
        <ele>169</ele>
        <time>2018-02-23T09:57:18Z</time>
      </trkpt>
      <trkpt lat="45.93476" lon="4.77104">
        <ele>169</ele>
        <time>2018-02-23T09:57:19Z</time>
      </trkpt>
      <trkpt lat="45.93476" lon="4.77111">
        <ele>169</ele>
        <time>2018-02-23T09:57:20Z</time>
      </trkpt>
      <trkpt lat="45.93478" lon="4.77117">
        <ele>169</ele>
        <time>2018-02-23T09:57:21Z</time>
      </trkpt>
      <trkpt lat="45.93479" lon="4.77129">
        <ele>169</ele>
        <time>2018-02-23T09:57:23Z</time>
      </trkpt>
      <trkpt lat="45.9348" lon="4.77136">
        <ele>169</ele>
        <time>2018-02-23T09:57:24Z</time>
      </trkpt>
      <trkpt lat="45.93482" lon="4.77142">
        <ele>169</ele>
        <time>2018-02-23T09:57:25Z</time>
      </trkpt>
      <trkpt lat="45.93483" lon="4.77148">
        <ele>169</ele>
        <time>2018-02-23T09:57:26Z</time>
      </trkpt>
      <trkpt lat="45.93485" lon="4.77155">
        <ele>169</ele>
        <time>2018-02-23T09:57:27Z</time>
      </trkpt>
      <trkpt lat="45.93486" lon="4.77161">
        <ele>169</ele>
        <time>2018-02-23T09:57:28Z</time>
      </trkpt>
      <trkpt lat="45.93486" lon="4.77167">
        <ele>169</ele>
        <time>2018-02-23T09:57:29Z</time>
      </trkpt>
      <trkpt lat="45.93488" lon="4.77174">
        <ele>169</ele>
        <time>2018-02-23T09:57:30Z</time>
      </trkpt>
      <trkpt lat="45.9349" lon="4.77182">
        <ele>169</ele>
        <time>2018-02-23T09:57:31Z</time>
      </trkpt>
      <trkpt lat="45.93491" lon="4.77188">
        <ele>169</ele>
        <time>2018-02-23T09:57:32Z</time>
      </trkpt>
      <trkpt lat="45.93493" lon="4.77195">
        <ele>169</ele>
        <time>2018-02-23T09:57:33Z</time>
      </trkpt>
      <trkpt lat="45.93494" lon="4.77201">
        <ele>169</ele>
        <time>2018-02-23T09:57:34Z</time>
      </trkpt>
      <trkpt lat="45.93495" lon="4.77207">
        <ele>169</ele>
        <time>2018-02-23T09:57:35Z</time>
      </trkpt>
      <trkpt lat="45.93497" lon="4.77215">
        <ele>169</ele>
        <time>2018-02-23T09:57:36Z</time>
      </trkpt>
      <trkpt lat="45.93499" lon="4.77222">
        <ele>169</ele>
        <time>2018-02-23T09:57:37Z</time>
      </trkpt>
      <trkpt lat="45.93501" lon="4.77229">
        <ele>169</ele>
        <time>2018-02-23T09:57:38Z</time>
      </trkpt>
      <trkpt lat="45.93503" lon="4.77236">
        <ele>169</ele>
        <time>2018-02-23T09:57:39Z</time>
      </trkpt>
      <trkpt lat="45.93504" lon="4.77244">
        <ele>170</ele>
        <time>2018-02-23T09:57:40Z</time>
      </trkpt>
      <trkpt lat="45.93506" lon="4.7725">
        <ele>170</ele>
        <time>2018-02-23T09:57:41Z</time>
      </trkpt>
      <trkpt lat="45.93508" lon="4.77258">
        <ele>170</ele>
        <time>2018-02-23T09:57:42Z</time>
      </trkpt>
      <trkpt lat="45.93509" lon="4.77264">
        <ele>170</ele>
        <time>2018-02-23T09:57:43Z</time>
      </trkpt>
      <trkpt lat="45.9351" lon="4.77271">
        <ele>170</ele>
        <time>2018-02-23T09:57:44Z</time>
      </trkpt>
      <trkpt lat="45.93512" lon="4.77278">
        <ele>170</ele>
        <time>2018-02-23T09:57:45Z</time>
      </trkpt>
      <trkpt lat="45.93514" lon="4.77284">
        <ele>170</ele>
        <time>2018-02-23T09:57:46Z</time>
      </trkpt>
      <trkpt lat="45.93516" lon="4.7729">
        <ele>170</ele>
        <time>2018-02-23T09:57:47Z</time>
      </trkpt>
      <trkpt lat="45.93517" lon="4.77297">
        <ele>170</ele>
        <time>2018-02-23T09:57:48Z</time>
      </trkpt>
      <trkpt lat="45.93519" lon="4.77303">
        <ele>170</ele>
        <time>2018-02-23T09:57:49Z</time>
      </trkpt>
      <trkpt lat="45.93521" lon="4.7731">
        <ele>170</ele>
        <time>2018-02-23T09:57:50Z</time>
      </trkpt>
      <trkpt lat="45.93522" lon="4.77316">
        <ele>170</ele>
        <time>2018-02-23T09:57:51Z</time>
      </trkpt>
      <trkpt lat="45.93524" lon="4.77323">
        <ele>170</ele>
        <time>2018-02-23T09:57:52Z</time>
      </trkpt>
      <trkpt lat="45.93526" lon="4.77329">
        <ele>170</ele>
        <time>2018-02-23T09:57:53Z</time>
      </trkpt>
      <trkpt lat="45.93527" lon="4.77336">
        <ele>170</ele>
        <time>2018-02-23T09:57:54Z</time>
      </trkpt>
      <trkpt lat="45.93529" lon="4.77343">
        <ele>170</ele>
        <time>2018-02-23T09:57:55Z</time>
      </trkpt>
      <trkpt lat="45.9353" lon="4.77349">
        <ele>170</ele>
        <time>2018-02-23T09:57:56Z</time>
      </trkpt>
      <trkpt lat="45.93532" lon="4.77356">
        <ele>170</ele>
        <time>2018-02-23T09:57:57Z</time>
      </trkpt>
      <trkpt lat="45.93533" lon="4.77362">
        <ele>170</ele>
        <time>2018-02-23T09:57:58Z</time>
      </trkpt>
      <trkpt lat="45.93535" lon="4.77368">
        <ele>170</ele>
        <time>2018-02-23T09:57:59Z</time>
      </trkpt>
      <trkpt lat="45.93536" lon="4.77377">
        <ele>170</ele>
        <time>2018-02-23T09:58:00Z</time>
      </trkpt>
      <trkpt lat="45.93538" lon="4.77383">
        <ele>170</ele>
        <time>2018-02-23T09:58:01Z</time>
      </trkpt>
      <trkpt lat="45.93539" lon="4.7739">
        <ele>170</ele>
        <time>2018-02-23T09:58:02Z</time>
      </trkpt>
      <trkpt lat="45.93541" lon="4.77397">
        <ele>170</ele>
        <time>2018-02-23T09:58:03Z</time>
      </trkpt>
      <trkpt lat="45.93543" lon="4.77403">
        <ele>170</ele>
        <time>2018-02-23T09:58:04Z</time>
      </trkpt>
      <trkpt lat="45.93545" lon="4.77409">
        <ele>170</ele>
        <time>2018-02-23T09:58:05Z</time>
      </trkpt>
      <trkpt lat="45.93546" lon="4.77417">
        <ele>170</ele>
        <time>2018-02-23T09:58:06Z</time>
      </trkpt>
      <trkpt lat="45.93548" lon="4.77424">
        <ele>170</ele>
        <time>2018-02-23T09:58:07Z</time>
      </trkpt>
      <trkpt lat="45.93549" lon="4.77431">
        <ele>169</ele>
        <time>2018-02-23T09:58:08Z</time>
      </trkpt>
      <trkpt lat="45.93551" lon="4.77437">
        <ele>169</ele>
        <time>2018-02-23T09:58:09Z</time>
      </trkpt>
      <trkpt lat="45.93551" lon="4.77444">
        <ele>169</ele>
        <time>2018-02-23T09:58:10Z</time>
      </trkpt>
      <trkpt lat="45.93554" lon="4.77452">
        <ele>169</ele>
        <time>2018-02-23T09:58:11Z</time>
      </trkpt>
      <trkpt lat="45.93557" lon="4.77458">
        <ele>169</ele>
        <time>2018-02-23T09:58:12Z</time>
      </trkpt>
      <trkpt lat="45.93558" lon="4.77465">
        <ele>169</ele>
        <time>2018-02-23T09:58:13Z</time>
      </trkpt>
      <trkpt lat="45.9356" lon="4.77473">
        <ele>169</ele>
        <time>2018-02-23T09:58:14Z</time>
      </trkpt>
      <trkpt lat="45.93562" lon="4.77479">
        <ele>169</ele>
        <time>2018-02-23T09:58:15Z</time>
      </trkpt>
      <trkpt lat="45.93563" lon="4.77487">
        <ele>169</ele>
        <time>2018-02-23T09:58:16Z</time>
      </trkpt>
      <trkpt lat="45.93565" lon="4.77499">
        <ele>169</ele>
        <time>2018-02-23T09:58:18Z</time>
      </trkpt>
      <trkpt lat="45.93567" lon="4.77505">
        <ele>169</ele>
        <time>2018-02-23T09:58:19Z</time>
      </trkpt>
      <trkpt lat="45.93566" lon="4.77513">
        <ele>169</ele>
        <time>2018-02-23T09:58:20Z</time>
      </trkpt>
      <trkpt lat="45.93568" lon="4.7752">
        <ele>169</ele>
        <time>2018-02-23T09:58:21Z</time>
      </trkpt>
      <trkpt lat="45.9357" lon="4.77526">
        <ele>169</ele>
        <time>2018-02-23T09:58:22Z</time>
      </trkpt>
      <trkpt lat="45.93572" lon="4.77533">
        <ele>169</ele>
        <time>2018-02-23T09:58:23Z</time>
      </trkpt>
      <trkpt lat="45.93573" lon="4.7754">
        <ele>169</ele>
        <time>2018-02-23T09:58:24Z</time>
      </trkpt>
      <trkpt lat="45.93575" lon="4.77546">
        <ele>169</ele>
        <time>2018-02-23T09:58:25Z</time>
      </trkpt>
      <trkpt lat="45.93577" lon="4.77553">
        <ele>169</ele>
        <time>2018-02-23T09:58:26Z</time>
      </trkpt>
      <trkpt lat="45.93578" lon="4.77559">
        <ele>169</ele>
        <time>2018-02-23T09:58:27Z</time>
      </trkpt>
      <trkpt lat="45.9358" lon="4.77566">
        <ele>169</ele>
        <time>2018-02-23T09:58:28Z</time>
      </trkpt>
      <trkpt lat="45.93582" lon="4.77572">
        <ele>170</ele>
        <time>2018-02-23T09:58:29Z</time>
      </trkpt>
      <trkpt lat="45.93583" lon="4.77579">
        <ele>170</ele>
        <time>2018-02-23T09:58:30Z</time>
      </trkpt>
      <trkpt lat="45.93585" lon="4.77586">
        <ele>170</ele>
        <time>2018-02-23T09:58:31Z</time>
      </trkpt>
      <trkpt lat="45.93586" lon="4.77592">
        <ele>170</ele>
        <time>2018-02-23T09:58:32Z</time>
      </trkpt>
      <trkpt lat="45.93589" lon="4.77599">
        <ele>170</ele>
        <time>2018-02-23T09:58:33Z</time>
      </trkpt>
      <trkpt lat="45.93591" lon="4.77606">
        <ele>170</ele>
        <time>2018-02-23T09:58:34Z</time>
      </trkpt>
      <trkpt lat="45.93593" lon="4.77613">
        <ele>170</ele>
        <time>2018-02-23T09:58:35Z</time>
      </trkpt>
      <trkpt lat="45.93595" lon="4.77619">
        <ele>170</ele>
        <time>2018-02-23T09:58:36Z</time>
      </trkpt>
      <trkpt lat="45.93598" lon="4.77625">
        <ele>170</ele>
        <time>2018-02-23T09:58:37Z</time>
      </trkpt>
      <trkpt lat="45.936" lon="4.77631">
        <ele>169</ele>
        <time>2018-02-23T09:58:38Z</time>
      </trkpt>
      <trkpt lat="45.93602" lon="4.77637">
        <ele>169</ele>
        <time>2018-02-23T09:58:39Z</time>
      </trkpt>
      <trkpt lat="45.93607" lon="4.77647">
        <ele>169</ele>
        <time>2018-02-23T09:58:41Z</time>
      </trkpt>
      <trkpt lat="45.93609" lon="4.77653">
        <ele>169</ele>
        <time>2018-02-23T09:58:42Z</time>
      </trkpt>
      <trkpt lat="45.93614" lon="4.77664">
        <ele>169</ele>
        <time>2018-02-23T09:58:44Z</time>
      </trkpt>
      <trkpt lat="45.93616" lon="4.7767">
        <ele>169</ele>
        <time>2018-02-23T09:58:45Z</time>
      </trkpt>
      <trkpt lat="45.93618" lon="4.77675">
        <ele>169</ele>
        <time>2018-02-23T09:58:46Z</time>
      </trkpt>
      <trkpt lat="45.93622" lon="4.77682">
        <ele>169</ele>
        <time>2018-02-23T09:58:47Z</time>
      </trkpt>
      <trkpt lat="45.93625" lon="4.77687">
        <ele>169</ele>
        <time>2018-02-23T09:58:48Z</time>
      </trkpt>
      <trkpt lat="45.93627" lon="4.77693">
        <ele>169</ele>
        <time>2018-02-23T09:58:49Z</time>
      </trkpt>
      <trkpt lat="45.9363" lon="4.77699">
        <ele>169</ele>
        <time>2018-02-23T09:58:50Z</time>
      </trkpt>
      <trkpt lat="45.93634" lon="4.77703">
        <ele>170</ele>
        <time>2018-02-23T09:58:51Z</time>
      </trkpt>
      <trkpt lat="45.93639" lon="4.77713">
        <ele>170</ele>
        <time>2018-02-23T09:58:53Z</time>
      </trkpt>
      <trkpt lat="45.93641" lon="4.77717">
        <ele>170</ele>
        <time>2018-02-23T09:58:54Z</time>
      </trkpt>
      <trkpt lat="45.93646" lon="4.77726">
        <ele>170</ele>
        <time>2018-02-23T09:58:56Z</time>
      </trkpt>
      <trkpt lat="45.93648" lon="4.77729">
        <ele>170</ele>
        <time>2018-02-23T09:58:57Z</time>
      </trkpt>
      <trkpt lat="45.93653" lon="4.77737">
        <ele>170</ele>
        <time>2018-02-23T09:58:59Z</time>
      </trkpt>
      <trkpt lat="45.93654" lon="4.77739">
        <ele>170</ele>
        <time>2018-02-23T09:59:00Z</time>
      </trkpt>
      <trkpt lat="45.93659" lon="4.77747">
        <ele>171</ele>
        <time>2018-02-23T09:59:03Z</time>
      </trkpt>
      <trkpt lat="45.9366" lon="4.7775">
        <ele>171</ele>
        <time>2018-02-23T09:59:04Z</time>
      </trkpt>
      <trkpt lat="45.93666" lon="4.77759">
        <ele>171</ele>
        <time>2018-02-23T09:59:07Z</time>
      </trkpt>
      <trkpt lat="45.93668" lon="4.77762">
        <ele>170</ele>
        <time>2018-02-23T09:59:08Z</time>
      </trkpt>
      <trkpt lat="45.93673" lon="4.77768">
        <ele>170</ele>
        <time>2018-02-23T09:59:10Z</time>
      </trkpt>
      <trkpt lat="45.93675" lon="4.77771">
        <ele>170</ele>
        <time>2018-02-23T09:59:11Z</time>
      </trkpt>
      <trkpt lat="45.93679" lon="4.77778">
        <ele>170</ele>
        <time>2018-02-23T09:59:13Z</time>
      </trkpt>
      <trkpt lat="45.93681" lon="4.77781">
        <ele>170</ele>
        <time>2018-02-23T09:59:14Z</time>
      </trkpt>
      <trkpt lat="45.93686" lon="4.77788">
        <ele>170</ele>
        <time>2018-02-23T09:59:16Z</time>
      </trkpt>
      <trkpt lat="45.93689" lon="4.77792">
        <ele>170</ele>
        <time>2018-02-23T09:59:17Z</time>
      </trkpt>
      <trkpt lat="45.93695" lon="4.77802">
        <ele>169</ele>
        <time>2018-02-23T09:59:18Z</time>
      </trkpt>
      <trkpt lat="45.93701" lon="4.77809">
        <ele>169</ele>
        <time>2018-02-23T09:59:20Z</time>
      </trkpt>
      <trkpt lat="45.93703" lon="4.77813">
        <ele>169</ele>
        <time>2018-02-23T09:59:21Z</time>
      </trkpt>
      <trkpt lat="45.93709" lon="4.77821">
        <ele>169</ele>
        <time>2018-02-23T09:59:23Z</time>
      </trkpt>
      <trkpt lat="45.93711" lon="4.77825">
        <ele>169</ele>
        <time>2018-02-23T09:59:24Z</time>
      </trkpt>
      <trkpt lat="45.93718" lon="4.77832">
        <ele>168</ele>
        <time>2018-02-23T09:59:26Z</time>
      </trkpt>
      <trkpt lat="45.93721" lon="4.77835">
        <ele>167</ele>
        <time>2018-02-23T09:59:27Z</time>
      </trkpt>
      <trkpt lat="45.93727" lon="4.77842">
        <ele>167</ele>
        <time>2018-02-23T09:59:29Z</time>
      </trkpt>
      <trkpt lat="45.9373" lon="4.77845">
        <ele>167</ele>
        <time>2018-02-23T09:59:30Z</time>
      </trkpt>
      <trkpt lat="45.93736" lon="4.77853">
        <ele>167</ele>
        <time>2018-02-23T09:59:33Z</time>
      </trkpt>
      <trkpt lat="45.93741" lon="4.77859">
        <ele>167</ele>
        <time>2018-02-23T09:59:34Z</time>
      </trkpt>
      <trkpt lat="45.93746" lon="4.77866">
        <ele>167</ele>
        <time>2018-02-23T09:59:36Z</time>
      </trkpt>
      <trkpt lat="45.93748" lon="4.77867">
        <ele>167</ele>
        <time>2018-02-23T09:59:37Z</time>
      </trkpt>
      <trkpt lat="45.93752" lon="4.77873">
        <ele>166</ele>
        <time>2018-02-23T09:59:38Z</time>
      </trkpt>
      <trkpt lat="45.93754" lon="4.77877">
        <ele>166</ele>
        <time>2018-02-23T09:59:39Z</time>
      </trkpt>
      <trkpt lat="45.93759" lon="4.77884">
        <ele>166</ele>
        <time>2018-02-23T09:59:41Z</time>
      </trkpt>
      <trkpt lat="45.93762" lon="4.77888">
        <ele>166</ele>
        <time>2018-02-23T09:59:42Z</time>
      </trkpt>
      <trkpt lat="45.93768" lon="4.77895">
        <ele>166</ele>
        <time>2018-02-23T09:59:44Z</time>
      </trkpt>
      <trkpt lat="45.93771" lon="4.77899">
        <ele>166</ele>
        <time>2018-02-23T09:59:45Z</time>
      </trkpt>
      <trkpt lat="45.93776" lon="4.77907">
        <ele>166</ele>
        <time>2018-02-23T09:59:47Z</time>
      </trkpt>
      <trkpt lat="45.9378" lon="4.77911">
        <ele>166</ele>
        <time>2018-02-23T09:59:48Z</time>
      </trkpt>
      <trkpt lat="45.93786" lon="4.77919">
        <ele>168</ele>
        <time>2018-02-23T09:59:50Z</time>
      </trkpt>
      <trkpt lat="45.93789" lon="4.77923">
        <ele>168</ele>
        <time>2018-02-23T09:59:51Z</time>
      </trkpt>
      <trkpt lat="45.93795" lon="4.77931">
        <ele>168</ele>
        <time>2018-02-23T09:59:53Z</time>
      </trkpt>
      <trkpt lat="45.93798" lon="4.77935">
        <ele>168</ele>
        <time>2018-02-23T09:59:54Z</time>
      </trkpt>
      <trkpt lat="45.93804" lon="4.77942">
        <ele>169</ele>
        <time>2018-02-23T09:59:56Z</time>
      </trkpt>
      <trkpt lat="45.93807" lon="4.77946">
        <ele>169</ele>
        <time>2018-02-23T09:59:57Z</time>
      </trkpt>
      <trkpt lat="45.93813" lon="4.77954">
        <ele>170</ele>
        <time>2018-02-23T09:59:59Z</time>
      </trkpt>
      <trkpt lat="45.93816" lon="4.77958">
        <ele>170</ele>
        <time>2018-02-23T10:00:00Z</time>
      </trkpt>
      <trkpt lat="45.93822" lon="4.77967">
        <ele>171</ele>
        <time>2018-02-23T10:00:02Z</time>
      </trkpt>
      <trkpt lat="45.93825" lon="4.77971">
        <ele>172</ele>
        <time>2018-02-23T10:00:03Z</time>
      </trkpt>
      <trkpt lat="45.93831" lon="4.7798">
        <ele>173</ele>
        <time>2018-02-23T10:00:05Z</time>
      </trkpt>
      <trkpt lat="45.93833" lon="4.77984">
        <ele>178</ele>
        <time>2018-02-23T10:00:06Z</time>
      </trkpt>
      <trkpt lat="45.93839" lon="4.77992">
        <ele>179</ele>
        <time>2018-02-23T10:00:08Z</time>
      </trkpt>
      <trkpt lat="45.9384" lon="4.77997">
        <ele>179</ele>
        <time>2018-02-23T10:00:09Z</time>
      </trkpt>
      <trkpt lat="45.93842" lon="4.78004">
        <ele>181</ele>
        <time>2018-02-23T10:00:11Z</time>
      </trkpt>
      <trkpt lat="45.93842" lon="4.78012">
        <ele>181</ele>
        <time>2018-02-23T10:00:12Z</time>
      </trkpt>
      <trkpt lat="45.93844" lon="4.78024">
        <ele>182</ele>
        <time>2018-02-23T10:00:14Z</time>
      </trkpt>
      <trkpt lat="45.93845" lon="4.78029">
        <ele>182</ele>
        <time>2018-02-23T10:00:15Z</time>
      </trkpt>
      <trkpt lat="45.93848" lon="4.7804">
        <ele>182</ele>
        <time>2018-02-23T10:00:17Z</time>
      </trkpt>
      <trkpt lat="45.93849" lon="4.78045">
        <ele>183</ele>
        <time>2018-02-23T10:00:18Z</time>
      </trkpt>
      <trkpt lat="45.9385" lon="4.78056">
        <ele>183</ele>
        <time>2018-02-23T10:00:20Z</time>
      </trkpt>
      <trkpt lat="45.9385" lon="4.78059">
        <ele>183</ele>
        <time>2018-02-23T10:00:21Z</time>
      </trkpt>
      <trkpt lat="45.93848" lon="4.78066">
        <ele>182</ele>
        <time>2018-02-23T10:00:22Z</time>
      </trkpt>
      <trkpt lat="45.93846" lon="4.78072">
        <ele>182</ele>
        <time>2018-02-23T10:00:23Z</time>
      </trkpt>
      <trkpt lat="45.93844" lon="4.78083">
        <ele>181</ele>
        <time>2018-02-23T10:00:25Z</time>
      </trkpt>
      <trkpt lat="45.93843" lon="4.78088">
        <ele>182</ele>
        <time>2018-02-23T10:00:26Z</time>
      </trkpt>
      <trkpt lat="45.93841" lon="4.78099">
        <ele>183</ele>
        <time>2018-02-23T10:00:28Z</time>
      </trkpt>
      <trkpt lat="45.9384" lon="4.78104">
        <ele>183</ele>
        <time>2018-02-23T10:00:29Z</time>
      </trkpt>
      <trkpt lat="45.93838" lon="4.78115">
        <ele>184</ele>
        <time>2018-02-23T10:00:31Z</time>
      </trkpt>
      <trkpt lat="45.93836" lon="4.7812">
        <ele>184</ele>
        <time>2018-02-23T10:00:32Z</time>
      </trkpt>
      <trkpt lat="45.93832" lon="4.78131">
        <ele>180</ele>
        <time>2018-02-23T10:00:34Z</time>
      </trkpt>
      <trkpt lat="45.9383" lon="4.78137">
        <ele>180</ele>
        <time>2018-02-23T10:00:35Z</time>
      </trkpt>
      <trkpt lat="45.93828" lon="4.78144">
        <ele>180</ele>
        <time>2018-02-23T10:00:36Z</time>
      </trkpt>
      <trkpt lat="45.93827" lon="4.78149">
        <ele>180</ele>
        <time>2018-02-23T10:00:37Z</time>
      </trkpt>
      <trkpt lat="45.93824" lon="4.78155">
        <ele>181</ele>
        <time>2018-02-23T10:00:38Z</time>
      </trkpt>
      <trkpt lat="45.93822" lon="4.78161">
        <ele>181</ele>
        <time>2018-02-23T10:00:39Z</time>
      </trkpt>
      <trkpt lat="45.93821" lon="4.78168">
        <ele>182</ele>
        <time>2018-02-23T10:00:40Z</time>
      </trkpt>
      <trkpt lat="45.93819" lon="4.78175">
        <ele>182</ele>
        <time>2018-02-23T10:00:41Z</time>
      </trkpt>
      <trkpt lat="45.93817" lon="4.78181">
        <ele>182</ele>
        <time>2018-02-23T10:00:42Z</time>
      </trkpt>
      <trkpt lat="45.93815" lon="4.78188">
        <ele>182</ele>
        <time>2018-02-23T10:00:43Z</time>
      </trkpt>
      <trkpt lat="45.93813" lon="4.782">
        <ele>182</ele>
        <time>2018-02-23T10:00:45Z</time>
      </trkpt>
      <trkpt lat="45.93812" lon="4.78202">
        <ele>182</ele>
        <time>2018-02-23T10:00:46Z</time>
      </trkpt>
      <trkpt lat="45.9381" lon="4.7821">
        <ele>182</ele>
        <time>2018-02-23T10:00:47Z</time>
      </trkpt>
      <trkpt lat="45.93809" lon="4.78215">
        <ele>182</ele>
        <time>2018-02-23T10:00:48Z</time>
      </trkpt>
      <trkpt lat="45.93806" lon="4.78225">
        <ele>182</ele>
        <time>2018-02-23T10:00:50Z</time>
      </trkpt>
      <trkpt lat="45.93804" lon="4.7823">
        <ele>182</ele>
        <time>2018-02-23T10:00:51Z</time>
      </trkpt>
      <trkpt lat="45.938" lon="4.78239">
        <ele>182</ele>
        <time>2018-02-23T10:00:53Z</time>
      </trkpt>
      <trkpt lat="45.93799" lon="4.78244">
        <ele>182</ele>
        <time>2018-02-23T10:00:54Z</time>
      </trkpt>
      <trkpt lat="45.93798" lon="4.78256">
        <ele>183</ele>
        <time>2018-02-23T10:00:56Z</time>
      </trkpt>
      <trkpt lat="45.93797" lon="4.78263">
        <ele>183</ele>
        <time>2018-02-23T10:00:57Z</time>
      </trkpt>
      <trkpt lat="45.93797" lon="4.78269">
        <ele>183</ele>
        <time>2018-02-23T10:00:58Z</time>
      </trkpt>
      <trkpt lat="45.93792" lon="4.78276">
        <ele>183</ele>
        <time>2018-02-23T10:00:59Z</time>
      </trkpt>
      <trkpt lat="45.93787" lon="4.78287">
        <ele>183</ele>
        <time>2018-02-23T10:01:01Z</time>
      </trkpt>
      <trkpt lat="45.93785" lon="4.78292">
        <ele>183</ele>
        <time>2018-02-23T10:01:02Z</time>
      </trkpt>
      <trkpt lat="45.93784" lon="4.78298">
        <ele>183</ele>
        <time>2018-02-23T10:01:03Z</time>
      </trkpt>
      <trkpt lat="45.93782" lon="4.78304">
        <ele>183</ele>
        <time>2018-02-23T10:01:04Z</time>
      </trkpt>
      <trkpt lat="45.93778" lon="4.78316">
        <ele>183</ele>
        <time>2018-02-23T10:01:06Z</time>
      </trkpt>
      <trkpt lat="45.93776" lon="4.78324">
        <ele>183</ele>
        <time>2018-02-23T10:01:07Z</time>
      </trkpt>
      <trkpt lat="45.93774" lon="4.78331">
        <ele>183</ele>
        <time>2018-02-23T10:01:08Z</time>
      </trkpt>
      <trkpt lat="45.93773" lon="4.78338">
        <ele>183</ele>
        <time>2018-02-23T10:01:09Z</time>
      </trkpt>
      <trkpt lat="45.93771" lon="4.78346">
        <ele>183</ele>
        <time>2018-02-23T10:01:10Z</time>
      </trkpt>
      <trkpt lat="45.93769" lon="4.78352">
        <ele>183</ele>
        <time>2018-02-23T10:01:11Z</time>
      </trkpt>
      <trkpt lat="45.93767" lon="4.78359">
        <ele>183</ele>
        <time>2018-02-23T10:01:12Z</time>
      </trkpt>
      <trkpt lat="45.93765" lon="4.78366">
        <ele>183</ele>
        <time>2018-02-23T10:01:13Z</time>
      </trkpt>
      <trkpt lat="45.93763" lon="4.78373">
        <ele>183</ele>
        <time>2018-02-23T10:01:14Z</time>
      </trkpt>
      <trkpt lat="45.93761" lon="4.78381">
        <ele>183</ele>
        <time>2018-02-23T10:01:15Z</time>
      </trkpt>
      <trkpt lat="45.93759" lon="4.78388">
        <ele>183</ele>
        <time>2018-02-23T10:01:16Z</time>
      </trkpt>
      <trkpt lat="45.93757" lon="4.78395">
        <ele>183</ele>
        <time>2018-02-23T10:01:17Z</time>
      </trkpt>
      <trkpt lat="45.93755" lon="4.78402">
        <ele>182</ele>
        <time>2018-02-23T10:01:18Z</time>
      </trkpt>
      <trkpt lat="45.93753" lon="4.78407">
        <ele>182</ele>
        <time>2018-02-23T10:01:19Z</time>
      </trkpt>
      <trkpt lat="45.93752" lon="4.78414">
        <ele>181</ele>
        <time>2018-02-23T10:01:20Z</time>
      </trkpt>
      <trkpt lat="45.93749" lon="4.7842">
        <ele>181</ele>
        <time>2018-02-23T10:01:21Z</time>
      </trkpt>
      <trkpt lat="45.93751" lon="4.78427">
        <ele>182</ele>
        <time>2018-02-23T10:01:22Z</time>
      </trkpt>
      <trkpt lat="45.93752" lon="4.78435">
        <ele>183</ele>
        <time>2018-02-23T10:01:23Z</time>
      </trkpt>
      <trkpt lat="45.93751" lon="4.78442">
        <ele>183</ele>
        <time>2018-02-23T10:01:24Z</time>
      </trkpt>
      <trkpt lat="45.93747" lon="4.7845">
        <ele>180</ele>
        <time>2018-02-23T10:01:25Z</time>
      </trkpt>
      <trkpt lat="45.93744" lon="4.78458">
        <ele>180</ele>
        <time>2018-02-23T10:01:26Z</time>
      </trkpt>
      <trkpt lat="45.93741" lon="4.78465">
        <ele>180</ele>
        <time>2018-02-23T10:01:27Z</time>
      </trkpt>
      <trkpt lat="45.9374" lon="4.78474">
        <ele>180</ele>
        <time>2018-02-23T10:01:28Z</time>
      </trkpt>
      <trkpt lat="45.93738" lon="4.78482">
        <ele>180</ele>
        <time>2018-02-23T10:01:29Z</time>
      </trkpt>
      <trkpt lat="45.93736" lon="4.7849">
        <ele>180</ele>
        <time>2018-02-23T10:01:30Z</time>
      </trkpt>
      <trkpt lat="45.93734" lon="4.78498">
        <ele>180</ele>
        <time>2018-02-23T10:01:31Z</time>
      </trkpt>
      <trkpt lat="45.93733" lon="4.78506">
        <ele>179</ele>
        <time>2018-02-23T10:01:32Z</time>
      </trkpt>
      <trkpt lat="45.93731" lon="4.78514">
        <ele>179</ele>
        <time>2018-02-23T10:01:33Z</time>
      </trkpt>
      <trkpt lat="45.93729" lon="4.78521">
        <ele>179</ele>
        <time>2018-02-23T10:01:34Z</time>
      </trkpt>
      <trkpt lat="45.93727" lon="4.78529">
        <ele>178</ele>
        <time>2018-02-23T10:01:35Z</time>
      </trkpt>
      <trkpt lat="45.93725" lon="4.78537">
        <ele>178</ele>
        <time>2018-02-23T10:01:36Z</time>
      </trkpt>
      <trkpt lat="45.93722" lon="4.78546">
        <ele>178</ele>
        <time>2018-02-23T10:01:37Z</time>
      </trkpt>
      <trkpt lat="45.93721" lon="4.78554">
        <ele>178</ele>
        <time>2018-02-23T10:01:38Z</time>
      </trkpt>
      <trkpt lat="45.93719" lon="4.78563">
        <ele>178</ele>
        <time>2018-02-23T10:01:39Z</time>
      </trkpt>
      <trkpt lat="45.93717" lon="4.78572">
        <ele>178</ele>
        <time>2018-02-23T10:01:40Z</time>
      </trkpt>
      <trkpt lat="45.93715" lon="4.7858">
        <ele>178</ele>
        <time>2018-02-23T10:01:41Z</time>
      </trkpt>
      <trkpt lat="45.93713" lon="4.78588">
        <ele>177</ele>
        <time>2018-02-23T10:01:42Z</time>
      </trkpt>
      <trkpt lat="45.93711" lon="4.78596">
        <ele>176</ele>
        <time>2018-02-23T10:01:43Z</time>
      </trkpt>
      <trkpt lat="45.93709" lon="4.78603">
        <ele>176</ele>
        <time>2018-02-23T10:01:44Z</time>
      </trkpt>
      <trkpt lat="45.93707" lon="4.78611">
        <ele>176</ele>
        <time>2018-02-23T10:01:45Z</time>
      </trkpt>
      <trkpt lat="45.93704" lon="4.78618">
        <ele>176</ele>
        <time>2018-02-23T10:01:46Z</time>
      </trkpt>
      <trkpt lat="45.93705" lon="4.78625">
        <ele>176</ele>
        <time>2018-02-23T10:01:47Z</time>
      </trkpt>
      <trkpt lat="45.93709" lon="4.78634">
        <ele>176</ele>
        <time>2018-02-23T10:01:49Z</time>
      </trkpt>
      <trkpt lat="45.93712" lon="4.78635">
        <ele>176</ele>
        <time>2018-02-23T10:01:50Z</time>
      </trkpt>
      <trkpt lat="45.93715" lon="4.78633">
        <ele>176</ele>
        <time>2018-02-23T10:01:51Z</time>
      </trkpt>
      <trkpt lat="45.9372" lon="4.7863">
        <ele>177</ele>
        <time>2018-02-23T10:01:52Z</time>
      </trkpt>
      <trkpt lat="45.93729" lon="4.78628">
        <ele>177</ele>
        <time>2018-02-23T10:01:54Z</time>
      </trkpt>
      <trkpt lat="45.93731" lon="4.78627">
        <ele>177</ele>
        <time>2018-02-23T10:01:55Z</time>
      </trkpt>
      <trkpt lat="45.93739" lon="4.78624">
        <ele>177</ele>
        <time>2018-02-23T10:01:59Z</time>
      </trkpt>
      <trkpt lat="45.93741" lon="4.78623">
        <ele>177</ele>
        <time>2018-02-23T10:02:00Z</time>
      </trkpt>
      <trkpt lat="45.9375" lon="4.78622">
        <ele>177</ele>
        <time>2018-02-23T10:02:03Z</time>
      </trkpt>
      <trkpt lat="45.93752" lon="4.78621">
        <ele>181</ele>
        <time>2018-02-23T10:02:04Z</time>
      </trkpt>
      <trkpt lat="45.93761" lon="4.78619">
        <ele>181</ele>
        <time>2018-02-23T10:02:08Z</time>
      </trkpt>
      <trkpt lat="45.93763" lon="4.78619">
        <ele>181</ele>
        <time>2018-02-23T10:02:09Z</time>
      </trkpt>
      <trkpt lat="45.9377" lon="4.78617">
        <ele>181</ele>
        <time>2018-02-23T10:02:12Z</time>
      </trkpt>
      <trkpt lat="45.93772" lon="4.78617">
        <ele>181</ele>
        <time>2018-02-23T10:02:13Z</time>
      </trkpt>
      <trkpt lat="45.93779" lon="4.78615">
        <ele>181</ele>
        <time>2018-02-23T10:02:16Z</time>
      </trkpt>
      <trkpt lat="45.93781" lon="4.78615">
        <ele>181</ele>
        <time>2018-02-23T10:02:17Z</time>
      </trkpt>
      <trkpt lat="45.93789" lon="4.78613">
        <ele>182</ele>
        <time>2018-02-23T10:02:20Z</time>
      </trkpt>
      <trkpt lat="45.93791" lon="4.78612">
        <ele>182</ele>
        <time>2018-02-23T10:02:21Z</time>
      </trkpt>
      <trkpt lat="45.93797" lon="4.7861">
        <ele>182</ele>
        <time>2018-02-23T10:02:23Z</time>
      </trkpt>
      <trkpt lat="45.938" lon="4.78609">
        <ele>182</ele>
        <time>2018-02-23T10:02:24Z</time>
      </trkpt>
      <trkpt lat="45.93808" lon="4.78606">
        <ele>183</ele>
        <time>2018-02-23T10:02:27Z</time>
      </trkpt>
      <trkpt lat="45.93811" lon="4.78605">
        <ele>183</ele>
        <time>2018-02-23T10:02:28Z</time>
      </trkpt>
      <trkpt lat="45.93819" lon="4.78603">
        <ele>184</ele>
        <time>2018-02-23T10:02:31Z</time>
      </trkpt>
      <trkpt lat="45.93821" lon="4.78603">
        <ele>184</ele>
        <time>2018-02-23T10:02:32Z</time>
      </trkpt>
      <trkpt lat="45.9383" lon="4.786">
        <ele>184</ele>
        <time>2018-02-23T10:02:36Z</time>
      </trkpt>
      <trkpt lat="45.93832" lon="4.78599">
        <ele>185</ele>
        <time>2018-02-23T10:02:37Z</time>
      </trkpt>
      <trkpt lat="45.9384" lon="4.78599">
        <ele>187</ele>
        <time>2018-02-23T10:02:41Z</time>
      </trkpt>
      <trkpt lat="45.93843" lon="4.78598">
        <ele>188</ele>
        <time>2018-02-23T10:02:42Z</time>
      </trkpt>
      <trkpt lat="45.93851" lon="4.78597">
        <ele>188</ele>
        <time>2018-02-23T10:02:46Z</time>
      </trkpt>
      <trkpt lat="45.93853" lon="4.78597">
        <ele>188</ele>
        <time>2018-02-23T10:02:47Z</time>
      </trkpt>
      <trkpt lat="45.9386" lon="4.78595">
        <ele>188</ele>
        <time>2018-02-23T10:02:51Z</time>
      </trkpt>
      <trkpt lat="45.93862" lon="4.78594">
        <ele>188</ele>
        <time>2018-02-23T10:02:52Z</time>
      </trkpt>
      <trkpt lat="45.93869" lon="4.78592">
        <ele>189</ele>
        <time>2018-02-23T10:02:56Z</time>
      </trkpt>
      <trkpt lat="45.93871" lon="4.78591">
        <ele>189</ele>
        <time>2018-02-23T10:02:57Z</time>
      </trkpt>
      <trkpt lat="45.93878" lon="4.78585">
        <ele>189</ele>
        <time>2018-02-23T10:03:03Z</time>
      </trkpt>
      <trkpt lat="45.9388" lon="4.78584">
        <ele>189</ele>
        <time>2018-02-23T10:03:04Z</time>
      </trkpt>
      <trkpt lat="45.93888" lon="4.7858">
        <ele>192</ele>
        <time>2018-02-23T10:03:10Z</time>
      </trkpt>
      <trkpt lat="45.93889" lon="4.7858">
        <ele>192</ele>
        <time>2018-02-23T10:03:11Z</time>
      </trkpt>
      <trkpt lat="45.93897" lon="4.78578">
        <ele>192</ele>
        <time>2018-02-23T10:03:16Z</time>
      </trkpt>
      <trkpt lat="45.93899" lon="4.78577">
        <ele>192</ele>
        <time>2018-02-23T10:03:17Z</time>
      </trkpt>
      <trkpt lat="45.93906" lon="4.78574">
        <ele>192</ele>
        <time>2018-02-23T10:03:20Z</time>
      </trkpt>
      <trkpt lat="45.93908" lon="4.78573">
        <ele>192</ele>
        <time>2018-02-23T10:03:21Z</time>
      </trkpt>
      <trkpt lat="45.93915" lon="4.78568">
        <ele>192</ele>
        <time>2018-02-23T10:03:25Z</time>
      </trkpt>
      <trkpt lat="45.93917" lon="4.78568">
        <ele>195</ele>
        <time>2018-02-23T10:03:26Z</time>
      </trkpt>
      <trkpt lat="45.93925" lon="4.7857">
        <ele>195</ele>
        <time>2018-02-23T10:03:30Z</time>
      </trkpt>
      <trkpt lat="45.93926" lon="4.78572">
        <ele>195</ele>
        <time>2018-02-23T10:03:31Z</time>
      </trkpt>
      <trkpt lat="45.9393" lon="4.78582">
        <ele>195</ele>
        <time>2018-02-23T10:03:34Z</time>
      </trkpt>
      <trkpt lat="45.93931" lon="4.78586">
        <ele>195</ele>
        <time>2018-02-23T10:03:35Z</time>
      </trkpt>
      <trkpt lat="45.93932" lon="4.78599">
        <ele>195</ele>
        <time>2018-02-23T10:03:38Z</time>
      </trkpt>
      <trkpt lat="45.93933" lon="4.78603">
        <ele>195</ele>
        <time>2018-02-23T10:03:39Z</time>
      </trkpt>
      <trkpt lat="45.93933" lon="4.7861">
        <ele>195</ele>
        <time>2018-02-23T10:03:41Z</time>
      </trkpt>
      <trkpt lat="45.93933" lon="4.78622">
        <ele>195</ele>
        <time>2018-02-23T10:03:42Z</time>
      </trkpt>
      <trkpt lat="45.93933" lon="4.78632">
        <ele>195</ele>
        <time>2018-02-23T10:03:45Z</time>
      </trkpt>
      <trkpt lat="45.93932" lon="4.78636">
        <ele>195</ele>
        <time>2018-02-23T10:03:46Z</time>
      </trkpt>
      <trkpt lat="45.93933" lon="4.78648">
        <ele>194</ele>
        <time>2018-02-23T10:03:49Z</time>
      </trkpt>
      <trkpt lat="45.93933" lon="4.78652">
        <ele>194</ele>
        <time>2018-02-23T10:03:50Z</time>
      </trkpt>
      <trkpt lat="45.93933" lon="4.78661">
        <ele>193</ele>
        <time>2018-02-23T10:03:52Z</time>
      </trkpt>
      <trkpt lat="45.93933" lon="4.78665">
        <ele>193</ele>
        <time>2018-02-23T10:03:53Z</time>
      </trkpt>
      <trkpt lat="45.93933" lon="4.78675">
        <ele>193</ele>
        <time>2018-02-23T10:03:55Z</time>
      </trkpt>
      <trkpt lat="45.93934" lon="4.78679">
        <ele>193</ele>
        <time>2018-02-23T10:03:56Z</time>
      </trkpt>
      <trkpt lat="45.93934" lon="4.78688">
        <ele>194</ele>
        <time>2018-02-23T10:03:58Z</time>
      </trkpt>
      <trkpt lat="45.93935" lon="4.78692">
        <ele>194</ele>
        <time>2018-02-23T10:03:59Z</time>
      </trkpt>
      <trkpt lat="45.93935" lon="4.78697">
        <ele>194</ele>
        <time>2018-02-23T10:04:00Z</time>
      </trkpt>
      <trkpt lat="45.93936" lon="4.78711">
        <ele>194</ele>
        <time>2018-02-23T10:04:01Z</time>
      </trkpt>
      <trkpt lat="45.93935" lon="4.78722">
        <ele>194</ele>
        <time>2018-02-23T10:04:03Z</time>
      </trkpt>
      <trkpt lat="45.93935" lon="4.78728">
        <ele>193</ele>
        <time>2018-02-23T10:04:04Z</time>
      </trkpt>
      <trkpt lat="45.93934" lon="4.7874">
        <ele>193</ele>
        <time>2018-02-23T10:04:06Z</time>
      </trkpt>
      <trkpt lat="45.93934" lon="4.78746">
        <ele>193</ele>
        <time>2018-02-23T10:04:07Z</time>
      </trkpt>
      <trkpt lat="45.93934" lon="4.78758">
        <ele>193</ele>
        <time>2018-02-23T10:04:09Z</time>
      </trkpt>
      <trkpt lat="45.93935" lon="4.78763">
        <ele>193</ele>
        <time>2018-02-23T10:04:10Z</time>
      </trkpt>
      <trkpt lat="45.93936" lon="4.78771">
        <ele>193</ele>
        <time>2018-02-23T10:04:12Z</time>
      </trkpt>
      <trkpt lat="45.93938" lon="4.78779">
        <ele>194</ele>
        <time>2018-02-23T10:04:13Z</time>
      </trkpt>
      <trkpt lat="45.93938" lon="4.78791">
        <ele>194</ele>
        <time>2018-02-23T10:04:15Z</time>
      </trkpt>
      <trkpt lat="45.93938" lon="4.78797">
        <ele>194</ele>
        <time>2018-02-23T10:04:16Z</time>
      </trkpt>
      <trkpt lat="45.93938" lon="4.78809">
        <ele>194</ele>
        <time>2018-02-23T10:04:18Z</time>
      </trkpt>
      <trkpt lat="45.93938" lon="4.78816">
        <ele>194</ele>
        <time>2018-02-23T10:04:19Z</time>
      </trkpt>
      <trkpt lat="45.93937" lon="4.78828">
        <ele>193</ele>
        <time>2018-02-23T10:04:21Z</time>
      </trkpt>
      <trkpt lat="45.93937" lon="4.78833">
        <ele>193</ele>
        <time>2018-02-23T10:04:22Z</time>
      </trkpt>
      <trkpt lat="45.93937" lon="4.78845">
        <ele>193</ele>
        <time>2018-02-23T10:04:25Z</time>
      </trkpt>
      <trkpt lat="45.93937" lon="4.78848">
        <ele>193</ele>
        <time>2018-02-23T10:04:26Z</time>
      </trkpt>
      <trkpt lat="45.93938" lon="4.78856">
        <ele>193</ele>
        <time>2018-02-23T10:04:28Z</time>
      </trkpt>
      <trkpt lat="45.93938" lon="4.78868">
        <ele>194</ele>
        <time>2018-02-23T10:04:29Z</time>
      </trkpt>
      <trkpt lat="45.93939" lon="4.78878">
        <ele>194</ele>
        <time>2018-02-23T10:04:31Z</time>
      </trkpt>
      <trkpt lat="45.93938" lon="4.78881">
        <ele>194</ele>
        <time>2018-02-23T10:04:32Z</time>
      </trkpt>
      <trkpt lat="45.93938" lon="4.78889">
        <ele>193</ele>
        <time>2018-02-23T10:04:33Z</time>
      </trkpt>
      <trkpt lat="45.93938" lon="4.78894">
        <ele>193</ele>
        <time>2018-02-23T10:04:34Z</time>
      </trkpt>
      <trkpt lat="45.93937" lon="4.78905">
        <ele>193</ele>
        <time>2018-02-23T10:04:36Z</time>
      </trkpt>
      <trkpt lat="45.93937" lon="4.7891">
        <ele>193</ele>
        <time>2018-02-23T10:04:37Z</time>
      </trkpt>
      <trkpt lat="45.93938" lon="4.78921">
        <ele>193</ele>
        <time>2018-02-23T10:04:39Z</time>
      </trkpt>
      <trkpt lat="45.93938" lon="4.78926">
        <ele>193</ele>
        <time>2018-02-23T10:04:40Z</time>
      </trkpt>
      <trkpt lat="45.93938" lon="4.78934">
        <ele>193</ele>
        <time>2018-02-23T10:04:42Z</time>
      </trkpt>
      <trkpt lat="45.93938" lon="4.78942">
        <ele>193</ele>
        <time>2018-02-23T10:04:43Z</time>
      </trkpt>
      <trkpt lat="45.93938" lon="4.78952">
        <ele>194</ele>
        <time>2018-02-23T10:04:46Z</time>
      </trkpt>
      <trkpt lat="45.93939" lon="4.78963">
        <ele>194</ele>
        <time>2018-02-23T10:04:47Z</time>
      </trkpt>
      <trkpt lat="45.93941" lon="4.78973">
        <ele>194</ele>
        <time>2018-02-23T10:04:49Z</time>
      </trkpt>
      <trkpt lat="45.93943" lon="4.78978">
        <ele>194</ele>
        <time>2018-02-23T10:04:50Z</time>
      </trkpt>
      <trkpt lat="45.93944" lon="4.78988">
        <ele>194</ele>
        <time>2018-02-23T10:04:52Z</time>
      </trkpt>
      <trkpt lat="45.93945" lon="4.78994">
        <ele>194</ele>
        <time>2018-02-23T10:04:53Z</time>
      </trkpt>
      <trkpt lat="45.93945" lon="4.79005">
        <ele>195</ele>
        <time>2018-02-23T10:04:55Z</time>
      </trkpt>
      <trkpt lat="45.93945" lon="4.79011">
        <ele>195</ele>
        <time>2018-02-23T10:04:56Z</time>
      </trkpt>
      <trkpt lat="45.93946" lon="4.79023">
        <ele>195</ele>
        <time>2018-02-23T10:04:58Z</time>
      </trkpt>
      <trkpt lat="45.93946" lon="4.79029">
        <ele>195</ele>
        <time>2018-02-23T10:04:59Z</time>
      </trkpt>
      <trkpt lat="45.93946" lon="4.7904">
        <ele>195</ele>
        <time>2018-02-23T10:05:01Z</time>
      </trkpt>
      <trkpt lat="45.93946" lon="4.79043">
        <ele>196</ele>
        <time>2018-02-23T10:05:02Z</time>
      </trkpt>
      <trkpt lat="45.93947" lon="4.79053">
        <ele>196</ele>
        <time>2018-02-23T10:05:05Z</time>
      </trkpt>
      <trkpt lat="45.93947" lon="4.79065">
        <ele>196</ele>
        <time>2018-02-23T10:05:06Z</time>
      </trkpt>
      <trkpt lat="45.93948" lon="4.79075">
        <ele>196</ele>
        <time>2018-02-23T10:05:09Z</time>
      </trkpt>
      <trkpt lat="45.93948" lon="4.79085">
        <ele>196</ele>
        <time>2018-02-23T10:05:10Z</time>
      </trkpt>
      <trkpt lat="45.93948" lon="4.79095">
        <ele>196</ele>
        <time>2018-02-23T10:05:13Z</time>
      </trkpt>
      <trkpt lat="45.93948" lon="4.79099">
        <ele>196</ele>
        <time>2018-02-23T10:05:14Z</time>
      </trkpt>
      <trkpt lat="45.93949" lon="4.79111">
        <ele>197</ele>
        <time>2018-02-23T10:05:17Z</time>
      </trkpt>
      <trkpt lat="45.93949" lon="4.79115">
        <ele>197</ele>
        <time>2018-02-23T10:05:18Z</time>
      </trkpt>
      <trkpt lat="45.9395" lon="4.79125">
        <ele>197</ele>
        <time>2018-02-23T10:05:20Z</time>
      </trkpt>
      <trkpt lat="45.9395" lon="4.79129">
        <ele>197</ele>
        <time>2018-02-23T10:05:21Z</time>
      </trkpt>
      <trkpt lat="45.93952" lon="4.79143">
        <ele>197</ele>
        <time>2018-02-23T10:05:22Z</time>
      </trkpt>
      <trkpt lat="45.93951" lon="4.79152">
        <ele>197</ele>
        <time>2018-02-23T10:05:25Z</time>
      </trkpt>
      <trkpt lat="45.93951" lon="4.79156">
        <ele>197</ele>
        <time>2018-02-23T10:05:26Z</time>
      </trkpt>
      <trkpt lat="45.9395" lon="4.79165">
        <ele>196</ele>
        <time>2018-02-23T10:05:28Z</time>
      </trkpt>
      <trkpt lat="45.93949" lon="4.7917">
        <ele>197</ele>
        <time>2018-02-23T10:05:29Z</time>
      </trkpt>
      <trkpt lat="45.93949" lon="4.79179">
        <ele>197</ele>
        <time>2018-02-23T10:05:31Z</time>
      </trkpt>
      <trkpt lat="45.93949" lon="4.79184">
        <ele>197</ele>
        <time>2018-02-23T10:05:32Z</time>
      </trkpt>
      <trkpt lat="45.9395" lon="4.79188">
        <ele>197</ele>
        <time>2018-02-23T10:05:33Z</time>
      </trkpt>
      <trkpt lat="45.93952" lon="4.79201">
        <ele>197</ele>
        <time>2018-02-23T10:05:34Z</time>
      </trkpt>
      <trkpt lat="45.93952" lon="4.79207">
        <ele>197</ele>
        <time>2018-02-23T10:05:36Z</time>
      </trkpt>
      <trkpt lat="45.93952" lon="4.79217">
        <ele>197</ele>
        <time>2018-02-23T10:05:37Z</time>
      </trkpt>
      <trkpt lat="45.93952" lon="4.79228">
        <ele>197</ele>
        <time>2018-02-23T10:05:39Z</time>
      </trkpt>
      <trkpt lat="45.93952" lon="4.79233">
        <ele>197</ele>
        <time>2018-02-23T10:05:40Z</time>
      </trkpt>
      <trkpt lat="45.93951" lon="4.79243">
        <ele>197</ele>
        <time>2018-02-23T10:05:43Z</time>
      </trkpt>
      <trkpt lat="45.93951" lon="4.79246">
        <ele>197</ele>
        <time>2018-02-23T10:05:44Z</time>
      </trkpt>
      <trkpt lat="45.93951" lon="4.79259">
        <ele>198</ele>
        <time>2018-02-23T10:05:47Z</time>
      </trkpt>
      <trkpt lat="45.93951" lon="4.79263">
        <ele>198</ele>
        <time>2018-02-23T10:05:48Z</time>
      </trkpt>
      <trkpt lat="45.93951" lon="4.79273">
        <ele>198</ele>
        <time>2018-02-23T10:05:50Z</time>
      </trkpt>
      <trkpt lat="45.93951" lon="4.79278">
        <ele>198</ele>
        <time>2018-02-23T10:05:51Z</time>
      </trkpt>
      <trkpt lat="45.93951" lon="4.79284">
        <ele>198</ele>
        <time>2018-02-23T10:05:52Z</time>
      </trkpt>
      <trkpt lat="45.93952" lon="4.79297">
        <ele>198</ele>
        <time>2018-02-23T10:05:53Z</time>
      </trkpt>
      <trkpt lat="45.93952" lon="4.79307">
        <ele>198</ele>
        <time>2018-02-23T10:05:56Z</time>
      </trkpt>
      <trkpt lat="45.93952" lon="4.7931">
        <ele>198</ele>
        <time>2018-02-23T10:05:57Z</time>
      </trkpt>
      <trkpt lat="45.93951" lon="4.79322">
        <ele>198</ele>
        <time>2018-02-23T10:05:58Z</time>
      </trkpt>
      <trkpt lat="45.93951" lon="4.79327">
        <ele>198</ele>
        <time>2018-02-23T10:05:59Z</time>
      </trkpt>
      <trkpt lat="45.93951" lon="4.79333">
        <ele>198</ele>
        <time>2018-02-23T10:06:01Z</time>
      </trkpt>
      <trkpt lat="45.93951" lon="4.79343">
        <ele>200</ele>
        <time>2018-02-23T10:06:02Z</time>
      </trkpt>
      <trkpt lat="45.93951" lon="4.79353">
        <ele>200</ele>
        <time>2018-02-23T10:06:05Z</time>
      </trkpt>
      <trkpt lat="45.93951" lon="4.79357">
        <ele>200</ele>
        <time>2018-02-23T10:06:06Z</time>
      </trkpt>
      <trkpt lat="45.93951" lon="4.79366">
        <ele>201</ele>
        <time>2018-02-23T10:06:08Z</time>
      </trkpt>
      <trkpt lat="45.93951" lon="4.79371">
        <ele>201</ele>
        <time>2018-02-23T10:06:09Z</time>
      </trkpt>
      <trkpt lat="45.93951" lon="4.79381">
        <ele>201</ele>
        <time>2018-02-23T10:06:11Z</time>
      </trkpt>
      <trkpt lat="45.93952" lon="4.79386">
        <ele>201</ele>
        <time>2018-02-23T10:06:12Z</time>
      </trkpt>
      <trkpt lat="45.93952" lon="4.79395">
        <ele>201</ele>
        <time>2018-02-23T10:06:14Z</time>
      </trkpt>
      <trkpt lat="45.93952" lon="4.794">
        <ele>201</ele>
        <time>2018-02-23T10:06:15Z</time>
      </trkpt>
      <trkpt lat="45.93952" lon="4.7941">
        <ele>201</ele>
        <time>2018-02-23T10:06:17Z</time>
      </trkpt>
      <trkpt lat="45.93951" lon="4.79415">
        <ele>201</ele>
        <time>2018-02-23T10:06:18Z</time>
      </trkpt>
      <trkpt lat="45.9395" lon="4.79424">
        <ele>202</ele>
        <time>2018-02-23T10:06:20Z</time>
      </trkpt>
      <trkpt lat="45.9395" lon="4.79429">
        <ele>202</ele>
        <time>2018-02-23T10:06:21Z</time>
      </trkpt>
      <trkpt lat="45.9395" lon="4.79438">
        <ele>202</ele>
        <time>2018-02-23T10:06:23Z</time>
      </trkpt>
      <trkpt lat="45.93951" lon="4.79442">
        <ele>202</ele>
        <time>2018-02-23T10:06:24Z</time>
      </trkpt>
      <trkpt lat="45.93951" lon="4.79452">
        <ele>202</ele>
        <time>2018-02-23T10:06:26Z</time>
      </trkpt>
      <trkpt lat="45.93951" lon="4.79456">
        <ele>202</ele>
        <time>2018-02-23T10:06:27Z</time>
      </trkpt>
      <trkpt lat="45.93951" lon="4.79465">
        <ele>202</ele>
        <time>2018-02-23T10:06:29Z</time>
      </trkpt>
      <trkpt lat="45.93951" lon="4.7947">
        <ele>202</ele>
        <time>2018-02-23T10:06:30Z</time>
      </trkpt>
      <trkpt lat="45.93951" lon="4.79475">
        <ele>202</ele>
        <time>2018-02-23T10:06:31Z</time>
      </trkpt>
      <trkpt lat="45.93951" lon="4.79488">
        <ele>202</ele>
        <time>2018-02-23T10:06:32Z</time>
      </trkpt>
      <trkpt lat="45.93951" lon="4.79501">
        <ele>204</ele>
        <time>2018-02-23T10:06:36Z</time>
      </trkpt>
      <trkpt lat="45.93951" lon="4.79505">
        <ele>204</ele>
        <time>2018-02-23T10:06:37Z</time>
      </trkpt>
      <trkpt lat="45.93952" lon="4.79517">
        <ele>204</ele>
        <time>2018-02-23T10:06:40Z</time>
      </trkpt>
      <trkpt lat="45.93952" lon="4.79522">
        <ele>204</ele>
        <time>2018-02-23T10:06:41Z</time>
      </trkpt>
      <trkpt lat="45.93953" lon="4.79531">
        <ele>204</ele>
        <time>2018-02-23T10:06:43Z</time>
      </trkpt>
      <trkpt lat="45.93953" lon="4.79536">
        <ele>204</ele>
        <time>2018-02-23T10:06:44Z</time>
      </trkpt>
      <trkpt lat="45.93954" lon="4.79545">
        <ele>205</ele>
        <time>2018-02-23T10:06:46Z</time>
      </trkpt>
      <trkpt lat="45.93954" lon="4.79549">
        <ele>205</ele>
        <time>2018-02-23T10:06:47Z</time>
      </trkpt>
      <trkpt lat="45.93955" lon="4.79559">
        <ele>205</ele>
        <time>2018-02-23T10:06:49Z</time>
      </trkpt>
      <trkpt lat="45.93956" lon="4.79563">
        <ele>205</ele>
        <time>2018-02-23T10:06:50Z</time>
      </trkpt>
      <trkpt lat="45.93956" lon="4.79573">
        <ele>205</ele>
        <time>2018-02-23T10:06:52Z</time>
      </trkpt>
      <trkpt lat="45.93957" lon="4.79578">
        <ele>205</ele>
        <time>2018-02-23T10:06:53Z</time>
      </trkpt>
      <trkpt lat="45.93957" lon="4.79587">
        <ele>207</ele>
        <time>2018-02-23T10:06:55Z</time>
      </trkpt>
      <trkpt lat="45.93958" lon="4.79592">
        <ele>207</ele>
        <time>2018-02-23T10:06:56Z</time>
      </trkpt>
      <trkpt lat="45.93959" lon="4.79601">
        <ele>207</ele>
        <time>2018-02-23T10:06:58Z</time>
      </trkpt>
      <trkpt lat="45.93959" lon="4.79606">
        <ele>207</ele>
        <time>2018-02-23T10:06:59Z</time>
      </trkpt>
      <trkpt lat="45.9396" lon="4.79616">
        <ele>207</ele>
        <time>2018-02-23T10:07:01Z</time>
      </trkpt>
      <trkpt lat="45.9396" lon="4.7962">
        <ele>207</ele>
        <time>2018-02-23T10:07:02Z</time>
      </trkpt>
      <trkpt lat="45.9396" lon="4.79629">
        <ele>207</ele>
        <time>2018-02-23T10:07:04Z</time>
      </trkpt>
      <trkpt lat="45.9396" lon="4.79633">
        <ele>207</ele>
        <time>2018-02-23T10:07:05Z</time>
      </trkpt>
      <trkpt lat="45.93961" lon="4.79643">
        <ele>207</ele>
        <time>2018-02-23T10:07:07Z</time>
      </trkpt>
      <trkpt lat="45.93962" lon="4.79647">
        <ele>207</ele>
        <time>2018-02-23T10:07:08Z</time>
      </trkpt>
      <trkpt lat="45.93963" lon="4.79656">
        <ele>207</ele>
        <time>2018-02-23T10:07:10Z</time>
      </trkpt>
      <trkpt lat="45.93963" lon="4.7966">
        <ele>207</ele>
        <time>2018-02-23T10:07:11Z</time>
      </trkpt>
      <trkpt lat="45.93965" lon="4.79672">
        <ele>207</ele>
        <time>2018-02-23T10:07:14Z</time>
      </trkpt>
      <trkpt lat="45.93965" lon="4.79676">
        <ele>207</ele>
        <time>2018-02-23T10:07:15Z</time>
      </trkpt>
      <trkpt lat="45.93966" lon="4.79685">
        <ele>207</ele>
        <time>2018-02-23T10:07:17Z</time>
      </trkpt>
      <trkpt lat="45.93967" lon="4.7969">
        <ele>207</ele>
        <time>2018-02-23T10:07:18Z</time>
      </trkpt>
      <trkpt lat="45.93968" lon="4.79699">
        <ele>207</ele>
        <time>2018-02-23T10:07:20Z</time>
      </trkpt>
      <trkpt lat="45.93968" lon="4.79704">
        <ele>207</ele>
        <time>2018-02-23T10:07:21Z</time>
      </trkpt>
      <trkpt lat="45.93969" lon="4.79709">
        <ele>207</ele>
        <time>2018-02-23T10:07:22Z</time>
      </trkpt>
      <trkpt lat="45.93969" lon="4.79723">
        <ele>207</ele>
        <time>2018-02-23T10:07:23Z</time>
      </trkpt>
      <trkpt lat="45.9397" lon="4.79733">
        <ele>207</ele>
        <time>2018-02-23T10:07:25Z</time>
      </trkpt>
      <trkpt lat="45.93971" lon="4.79738">
        <ele>207</ele>
        <time>2018-02-23T10:07:26Z</time>
      </trkpt>
      <trkpt lat="45.93972" lon="4.79748">
        <ele>207</ele>
        <time>2018-02-23T10:07:29Z</time>
      </trkpt>
      <trkpt lat="45.93973" lon="4.79753">
        <ele>206</ele>
        <time>2018-02-23T10:07:30Z</time>
      </trkpt>
      <trkpt lat="45.93973" lon="4.79764">
        <ele>206</ele>
        <time>2018-02-23T10:07:31Z</time>
      </trkpt>
      <trkpt lat="45.93973" lon="4.7977">
        <ele>206</ele>
        <time>2018-02-23T10:07:32Z</time>
      </trkpt>
      <trkpt lat="45.93973" lon="4.79781">
        <ele>206</ele>
        <time>2018-02-23T10:07:34Z</time>
      </trkpt>
      <trkpt lat="45.93972" lon="4.79787">
        <ele>206</ele>
        <time>2018-02-23T10:07:35Z</time>
      </trkpt>
      <trkpt lat="45.93971" lon="4.79798">
        <ele>206</ele>
        <time>2018-02-23T10:07:37Z</time>
      </trkpt>
      <trkpt lat="45.9397" lon="4.79805">
        <ele>206</ele>
        <time>2018-02-23T10:07:38Z</time>
      </trkpt>
      <trkpt lat="45.93969" lon="4.79816">
        <ele>207</ele>
        <time>2018-02-23T10:07:40Z</time>
      </trkpt>
      <trkpt lat="45.93969" lon="4.79822">
        <ele>207</ele>
        <time>2018-02-23T10:07:41Z</time>
      </trkpt>
      <trkpt lat="45.93967" lon="4.79833">
        <ele>207</ele>
        <time>2018-02-23T10:07:43Z</time>
      </trkpt>
      <trkpt lat="45.93966" lon="4.79839">
        <ele>206</ele>
        <time>2018-02-23T10:07:44Z</time>
      </trkpt>
      <trkpt lat="45.93964" lon="4.7985">
        <ele>206</ele>
        <time>2018-02-23T10:07:46Z</time>
      </trkpt>
      <trkpt lat="45.93963" lon="4.79856">
        <ele>206</ele>
        <time>2018-02-23T10:07:47Z</time>
      </trkpt>
      <trkpt lat="45.93961" lon="4.79868">
        <ele>206</ele>
        <time>2018-02-23T10:07:49Z</time>
      </trkpt>
      <trkpt lat="45.9396" lon="4.79874">
        <ele>206</ele>
        <time>2018-02-23T10:07:50Z</time>
      </trkpt>
      <trkpt lat="45.93958" lon="4.79885">
        <ele>206</ele>
        <time>2018-02-23T10:07:52Z</time>
      </trkpt>
      <trkpt lat="45.93956" lon="4.79891">
        <ele>206</ele>
        <time>2018-02-23T10:07:53Z</time>
      </trkpt>
      <trkpt lat="45.93953" lon="4.79903">
        <ele>205</ele>
        <time>2018-02-23T10:07:55Z</time>
      </trkpt>
      <trkpt lat="45.93952" lon="4.79909">
        <ele>205</ele>
        <time>2018-02-23T10:07:56Z</time>
      </trkpt>
      <trkpt lat="45.93949" lon="4.79921">
        <ele>205</ele>
        <time>2018-02-23T10:07:58Z</time>
      </trkpt>
      <trkpt lat="45.93948" lon="4.79926">
        <ele>205</ele>
        <time>2018-02-23T10:07:59Z</time>
      </trkpt>
      <trkpt lat="45.93946" lon="4.79939">
        <ele>205</ele>
        <time>2018-02-23T10:08:01Z</time>
      </trkpt>
      <trkpt lat="45.93945" lon="4.79945">
        <ele>205</ele>
        <time>2018-02-23T10:08:02Z</time>
      </trkpt>
      <trkpt lat="45.93942" lon="4.79956">
        <ele>205</ele>
        <time>2018-02-23T10:08:04Z</time>
      </trkpt>
      <trkpt lat="45.93941" lon="4.79962">
        <ele>205</ele>
        <time>2018-02-23T10:08:05Z</time>
      </trkpt>
      <trkpt lat="45.93939" lon="4.79974">
        <ele>204</ele>
        <time>2018-02-23T10:08:07Z</time>
      </trkpt>
      <trkpt lat="45.93938" lon="4.7998">
        <ele>204</ele>
        <time>2018-02-23T10:08:08Z</time>
      </trkpt>
      <trkpt lat="45.93936" lon="4.79991">
        <ele>204</ele>
        <time>2018-02-23T10:08:10Z</time>
      </trkpt>
      <trkpt lat="45.93936" lon="4.79997">
        <ele>204</ele>
        <time>2018-02-23T10:08:11Z</time>
      </trkpt>
      <trkpt lat="45.93934" lon="4.80008">
        <ele>205</ele>
        <time>2018-02-23T10:08:13Z</time>
      </trkpt>
      <trkpt lat="45.93934" lon="4.80014">
        <ele>205</ele>
        <time>2018-02-23T10:08:14Z</time>
      </trkpt>
      <trkpt lat="45.93933" lon="4.80026">
        <ele>206</ele>
        <time>2018-02-23T10:08:16Z</time>
      </trkpt>
      <trkpt lat="45.93933" lon="4.80031">
        <ele>206</ele>
        <time>2018-02-23T10:08:17Z</time>
      </trkpt>
      <trkpt lat="45.93932" lon="4.80038">
        <ele>207</ele>
        <time>2018-02-23T10:08:18Z</time>
      </trkpt>
      <trkpt lat="45.93931" lon="4.80045">
        <ele>207</ele>
        <time>2018-02-23T10:08:19Z</time>
      </trkpt>
      <trkpt lat="45.93931" lon="4.80052">
        <ele>207</ele>
        <time>2018-02-23T10:08:20Z</time>
      </trkpt>
      <trkpt lat="45.9393" lon="4.80058">
        <ele>207</ele>
        <time>2018-02-23T10:08:21Z</time>
      </trkpt>
      <trkpt lat="45.9393" lon="4.80069">
        <ele>207</ele>
        <time>2018-02-23T10:08:23Z</time>
      </trkpt>
      <trkpt lat="45.9393" lon="4.80075">
        <ele>207</ele>
        <time>2018-02-23T10:08:24Z</time>
      </trkpt>
      <trkpt lat="45.93931" lon="4.80087">
        <ele>207</ele>
        <time>2018-02-23T10:08:26Z</time>
      </trkpt>
      <trkpt lat="45.93932" lon="4.80094">
        <ele>207</ele>
        <time>2018-02-23T10:08:27Z</time>
      </trkpt>
      <trkpt lat="45.93933" lon="4.80101">
        <ele>208</ele>
        <time>2018-02-23T10:08:28Z</time>
      </trkpt>
      <trkpt lat="45.93934" lon="4.80107">
        <ele>208</ele>
        <time>2018-02-23T10:08:29Z</time>
      </trkpt>
      <trkpt lat="45.93935" lon="4.80114">
        <ele>208</ele>
        <time>2018-02-23T10:08:30Z</time>
      </trkpt>
      <trkpt lat="45.93936" lon="4.8012">
        <ele>208</ele>
        <time>2018-02-23T10:08:31Z</time>
      </trkpt>
      <trkpt lat="45.93937" lon="4.80126">
        <ele>208</ele>
        <time>2018-02-23T10:08:32Z</time>
      </trkpt>
      <trkpt lat="45.93938" lon="4.80133">
        <ele>208</ele>
        <time>2018-02-23T10:08:33Z</time>
      </trkpt>
      <trkpt lat="45.93937" lon="4.8014">
        <ele>208</ele>
        <time>2018-02-23T10:08:34Z</time>
      </trkpt>
      <trkpt lat="45.93938" lon="4.80146">
        <ele>208</ele>
        <time>2018-02-23T10:08:35Z</time>
      </trkpt>
      <trkpt lat="45.93939" lon="4.80158">
        <ele>208</ele>
        <time>2018-02-23T10:08:37Z</time>
      </trkpt>
      <trkpt lat="45.9394" lon="4.80164">
        <ele>208</ele>
        <time>2018-02-23T10:08:38Z</time>
      </trkpt>
      <trkpt lat="45.93943" lon="4.8017">
        <ele>205</ele>
        <time>2018-02-23T10:08:39Z</time>
      </trkpt>
      <trkpt lat="45.93945" lon="4.80176">
        <ele>205</ele>
        <time>2018-02-23T10:08:40Z</time>
      </trkpt>
      <trkpt lat="45.93947" lon="4.80188">
        <ele>205</ele>
        <time>2018-02-23T10:08:42Z</time>
      </trkpt>
      <trkpt lat="45.93949" lon="4.80195">
        <ele>205</ele>
        <time>2018-02-23T10:08:43Z</time>
      </trkpt>
      <trkpt lat="45.93951" lon="4.80202">
        <ele>205</ele>
        <time>2018-02-23T10:08:44Z</time>
      </trkpt>
      <trkpt lat="45.93953" lon="4.80208">
        <ele>205</ele>
        <time>2018-02-23T10:08:45Z</time>
      </trkpt>
      <trkpt lat="45.93955" lon="4.80215">
        <ele>205</ele>
        <time>2018-02-23T10:08:46Z</time>
      </trkpt>
      <trkpt lat="45.93956" lon="4.80221">
        <ele>205</ele>
        <time>2018-02-23T10:08:47Z</time>
      </trkpt>
      <trkpt lat="45.93959" lon="4.80231">
        <ele>204</ele>
        <time>2018-02-23T10:08:49Z</time>
      </trkpt>
      <trkpt lat="45.9396" lon="4.80237">
        <ele>204</ele>
        <time>2018-02-23T10:08:50Z</time>
      </trkpt>
      <trkpt lat="45.93963" lon="4.80247">
        <ele>204</ele>
        <time>2018-02-23T10:08:52Z</time>
      </trkpt>
      <trkpt lat="45.93965" lon="4.80253">
        <ele>202</ele>
        <time>2018-02-23T10:08:53Z</time>
      </trkpt>
      <trkpt lat="45.9397" lon="4.80263">
        <ele>202</ele>
        <time>2018-02-23T10:08:55Z</time>
      </trkpt>
      <trkpt lat="45.93971" lon="4.80268">
        <ele>202</ele>
        <time>2018-02-23T10:08:56Z</time>
      </trkpt>
      <trkpt lat="45.93974" lon="4.80279">
        <ele>203</ele>
        <time>2018-02-23T10:08:58Z</time>
      </trkpt>
      <trkpt lat="45.93976" lon="4.80284">
        <ele>203</ele>
        <time>2018-02-23T10:08:59Z</time>
      </trkpt>
      <trkpt lat="45.93979" lon="4.80293">
        <ele>203</ele>
        <time>2018-02-23T10:09:02Z</time>
      </trkpt>
      <trkpt lat="45.9398" lon="4.80296">
        <ele>203</ele>
        <time>2018-02-23T10:09:03Z</time>
      </trkpt>
      <trkpt lat="45.93983" lon="4.80306">
        <ele>203</ele>
        <time>2018-02-23T10:09:06Z</time>
      </trkpt>
      <trkpt lat="45.93984" lon="4.8031">
        <ele>203</ele>
        <time>2018-02-23T10:09:07Z</time>
      </trkpt>
      <trkpt lat="45.93988" lon="4.80321">
        <ele>204</ele>
        <time>2018-02-23T10:09:10Z</time>
      </trkpt>
      <trkpt lat="45.93989" lon="4.80325">
        <ele>204</ele>
        <time>2018-02-23T10:09:11Z</time>
      </trkpt>
      <trkpt lat="45.93993" lon="4.80336">
        <ele>206</ele>
        <time>2018-02-23T10:09:14Z</time>
      </trkpt>
      <trkpt lat="45.93995" lon="4.80339">
        <ele>206</ele>
        <time>2018-02-23T10:09:15Z</time>
      </trkpt>
      <trkpt lat="45.93998" lon="4.80351">
        <ele>206</ele>
        <time>2018-02-23T10:09:18Z</time>
      </trkpt>
      <trkpt lat="45.93998" lon="4.80354">
        <ele>206</ele>
        <time>2018-02-23T10:09:19Z</time>
      </trkpt>
      <trkpt lat="45.94001" lon="4.80364">
        <ele>215</ele>
        <time>2018-02-23T10:09:22Z</time>
      </trkpt>
      <trkpt lat="45.94001" lon="4.80367">
        <ele>215</ele>
        <time>2018-02-23T10:09:23Z</time>
      </trkpt>
      <trkpt lat="45.94005" lon="4.80377">
        <ele>216</ele>
        <time>2018-02-23T10:09:27Z</time>
      </trkpt>
      <trkpt lat="45.94006" lon="4.8038">
        <ele>216</ele>
        <time>2018-02-23T10:09:28Z</time>
      </trkpt>
      <trkpt lat="45.94009" lon="4.80392">
        <ele>217</ele>
        <time>2018-02-23T10:09:32Z</time>
      </trkpt>
      <trkpt lat="45.9401" lon="4.80394">
        <ele>217</ele>
        <time>2018-02-23T10:09:33Z</time>
      </trkpt>
      <trkpt lat="45.94014" lon="4.80405">
        <ele>218</ele>
        <time>2018-02-23T10:09:37Z</time>
      </trkpt>
      <trkpt lat="45.94015" lon="4.80408">
        <ele>218</ele>
        <time>2018-02-23T10:09:38Z</time>
      </trkpt>
      <trkpt lat="45.94016" lon="4.80418">
        <ele>220</ele>
        <time>2018-02-23T10:09:42Z</time>
      </trkpt>
      <trkpt lat="45.94016" lon="4.80421">
        <ele>221</ele>
        <time>2018-02-23T10:09:43Z</time>
      </trkpt>
      <trkpt lat="45.94018" lon="4.80433">
        <ele>222</ele>
        <time>2018-02-23T10:09:47Z</time>
      </trkpt>
      <trkpt lat="45.94019" lon="4.80437">
        <ele>222</ele>
        <time>2018-02-23T10:09:48Z</time>
      </trkpt>
      <trkpt lat="45.94021" lon="4.80447">
        <ele>223</ele>
        <time>2018-02-23T10:09:51Z</time>
      </trkpt>
      <trkpt lat="45.94021" lon="4.80451">
        <ele>223</ele>
        <time>2018-02-23T10:09:52Z</time>
      </trkpt>
      <trkpt lat="45.94021" lon="4.80463">
        <ele>223</ele>
        <time>2018-02-23T10:09:55Z</time>
      </trkpt>
      <trkpt lat="45.94021" lon="4.80466">
        <ele>223</ele>
        <time>2018-02-23T10:09:56Z</time>
      </trkpt>
      <trkpt lat="45.9402" lon="4.80479">
        <ele>223</ele>
        <time>2018-02-23T10:10:00Z</time>
      </trkpt>
      <trkpt lat="45.9402" lon="4.80481">
        <ele>223</ele>
        <time>2018-02-23T10:10:01Z</time>
      </trkpt>
      <trkpt lat="45.94019" lon="4.80493">
        <ele>222</ele>
        <time>2018-02-23T10:10:06Z</time>
      </trkpt>
      <trkpt lat="45.94019" lon="4.80495">
        <ele>222</ele>
        <time>2018-02-23T10:10:07Z</time>
      </trkpt>
      <trkpt lat="45.94017" lon="4.80504">
        <ele>223</ele>
        <time>2018-02-23T10:10:10Z</time>
      </trkpt>
      <trkpt lat="45.94016" lon="4.80507">
        <ele>223</ele>
        <time>2018-02-23T10:10:11Z</time>
      </trkpt>
      <trkpt lat="45.94017" lon="4.80518">
        <ele>224</ele>
        <time>2018-02-23T10:10:15Z</time>
      </trkpt>
      <trkpt lat="45.94017" lon="4.80521">
        <ele>224</ele>
        <time>2018-02-23T10:10:16Z</time>
      </trkpt>
      <trkpt lat="45.94017" lon="4.80534">
        <ele>224</ele>
        <time>2018-02-23T10:10:20Z</time>
      </trkpt>
      <trkpt lat="45.94016" lon="4.80537">
        <ele>224</ele>
        <time>2018-02-23T10:10:21Z</time>
      </trkpt>
      <trkpt lat="45.94015" lon="4.8055">
        <ele>224</ele>
        <time>2018-02-23T10:10:25Z</time>
      </trkpt>
      <trkpt lat="45.94015" lon="4.80553">
        <ele>224</ele>
        <time>2018-02-23T10:10:26Z</time>
      </trkpt>
      <trkpt lat="45.94013" lon="4.80564">
        <ele>223</ele>
        <time>2018-02-23T10:10:30Z</time>
      </trkpt>
      <trkpt lat="45.94013" lon="4.80567">
        <ele>223</ele>
        <time>2018-02-23T10:10:31Z</time>
      </trkpt>
      <trkpt lat="45.94012" lon="4.80578">
        <ele>221</ele>
        <time>2018-02-23T10:10:35Z</time>
      </trkpt>
      <trkpt lat="45.94012" lon="4.8058">
        <ele>221</ele>
        <time>2018-02-23T10:10:36Z</time>
      </trkpt>
      <trkpt lat="45.9401" lon="4.80592">
        <ele>221</ele>
        <time>2018-02-23T10:10:40Z</time>
      </trkpt>
      <trkpt lat="45.9401" lon="4.80596">
        <ele>222</ele>
        <time>2018-02-23T10:10:41Z</time>
      </trkpt>
      <trkpt lat="45.94013" lon="4.80605">
        <ele>223</ele>
        <time>2018-02-23T10:10:43Z</time>
      </trkpt>
      <trkpt lat="45.94015" lon="4.80609">
        <ele>223</ele>
        <time>2018-02-23T10:10:44Z</time>
      </trkpt>
      <trkpt lat="45.94018" lon="4.80618">
        <ele>224</ele>
        <time>2018-02-23T10:10:46Z</time>
      </trkpt>
      <trkpt lat="45.94019" lon="4.80622">
        <ele>224</ele>
        <time>2018-02-23T10:10:47Z</time>
      </trkpt>
      <trkpt lat="45.94021" lon="4.8063">
        <ele>224</ele>
        <time>2018-02-23T10:10:49Z</time>
      </trkpt>
      <trkpt lat="45.94022" lon="4.80634">
        <ele>224</ele>
        <time>2018-02-23T10:10:50Z</time>
      </trkpt>
      <trkpt lat="45.94025" lon="4.80646">
        <ele>224</ele>
        <time>2018-02-23T10:10:53Z</time>
      </trkpt>
      <trkpt lat="45.94026" lon="4.8065">
        <ele>224</ele>
        <time>2018-02-23T10:10:54Z</time>
      </trkpt>
      <trkpt lat="45.94028" lon="4.80661">
        <ele>224</ele>
        <time>2018-02-23T10:10:57Z</time>
      </trkpt>
      <trkpt lat="45.94029" lon="4.80664">
        <ele>224</ele>
        <time>2018-02-23T10:10:58Z</time>
      </trkpt>
      <trkpt lat="45.9403" lon="4.80674">
        <ele>224</ele>
        <time>2018-02-23T10:11:01Z</time>
      </trkpt>
      <trkpt lat="45.9403" lon="4.80678">
        <ele>225</ele>
        <time>2018-02-23T10:11:02Z</time>
      </trkpt>
      <trkpt lat="45.94032" lon="4.80688">
        <ele>225</ele>
        <time>2018-02-23T10:11:05Z</time>
      </trkpt>
      <trkpt lat="45.94033" lon="4.80691">
        <ele>225</ele>
        <time>2018-02-23T10:11:06Z</time>
      </trkpt>
      <trkpt lat="45.94034" lon="4.80701">
        <ele>226</ele>
        <time>2018-02-23T10:11:09Z</time>
      </trkpt>
      <trkpt lat="45.94035" lon="4.80705">
        <ele>226</ele>
        <time>2018-02-23T10:11:10Z</time>
      </trkpt>
      <trkpt lat="45.94037" lon="4.80716">
        <ele>226</ele>
        <time>2018-02-23T10:11:13Z</time>
      </trkpt>
      <trkpt lat="45.94038" lon="4.80719">
        <ele>226</ele>
        <time>2018-02-23T10:11:14Z</time>
      </trkpt>
      <trkpt lat="45.94039" lon="4.80732">
        <ele>227</ele>
        <time>2018-02-23T10:11:18Z</time>
      </trkpt>
      <trkpt lat="45.9404" lon="4.80735">
        <ele>227</ele>
        <time>2018-02-23T10:11:19Z</time>
      </trkpt>
      <trkpt lat="45.94041" lon="4.80744">
        <ele>227</ele>
        <time>2018-02-23T10:11:22Z</time>
      </trkpt>
      <trkpt lat="45.94042" lon="4.80748">
        <ele>227</ele>
        <time>2018-02-23T10:11:23Z</time>
      </trkpt>
      <trkpt lat="45.94042" lon="4.80758">
        <ele>228</ele>
        <time>2018-02-23T10:11:26Z</time>
      </trkpt>
      <trkpt lat="45.94042" lon="4.80762">
        <ele>228</ele>
        <time>2018-02-23T10:11:27Z</time>
      </trkpt>
      <trkpt lat="45.94041" lon="4.80772">
        <ele>228</ele>
        <time>2018-02-23T10:11:30Z</time>
      </trkpt>
      <trkpt lat="45.94041" lon="4.80776">
        <ele>228</ele>
        <time>2018-02-23T10:11:31Z</time>
      </trkpt>
      <trkpt lat="45.94042" lon="4.80787">
        <ele>228</ele>
        <time>2018-02-23T10:11:34Z</time>
      </trkpt>
      <trkpt lat="45.94042" lon="4.8079">
        <ele>228</ele>
        <time>2018-02-23T10:11:35Z</time>
      </trkpt>
      <trkpt lat="45.94043" lon="4.80801">
        <ele>228</ele>
        <time>2018-02-23T10:11:38Z</time>
      </trkpt>
      <trkpt lat="45.94044" lon="4.80804">
        <ele>228</ele>
        <time>2018-02-23T10:11:39Z</time>
      </trkpt>
      <trkpt lat="45.94046" lon="4.80817">
        <ele>229</ele>
        <time>2018-02-23T10:11:43Z</time>
      </trkpt>
      <trkpt lat="45.94046" lon="4.8082">
        <ele>229</ele>
        <time>2018-02-23T10:11:44Z</time>
      </trkpt>
      <trkpt lat="45.94048" lon="4.8083">
        <ele>230</ele>
        <time>2018-02-23T10:11:47Z</time>
      </trkpt>
      <trkpt lat="45.94049" lon="4.80833">
        <ele>230</ele>
        <time>2018-02-23T10:11:48Z</time>
      </trkpt>
      <trkpt lat="45.9405" lon="4.80842">
        <ele>230</ele>
        <time>2018-02-23T10:11:51Z</time>
      </trkpt>
      <trkpt lat="45.9405" lon="4.80845">
        <ele>230</ele>
        <time>2018-02-23T10:11:52Z</time>
      </trkpt>
      <trkpt lat="45.94054" lon="4.80857">
        <ele>230</ele>
        <time>2018-02-23T10:11:56Z</time>
      </trkpt>
      <trkpt lat="45.94054" lon="4.8086">
        <ele>230</ele>
        <time>2018-02-23T10:11:57Z</time>
      </trkpt>
      <trkpt lat="45.94056" lon="4.80873">
        <ele>230</ele>
        <time>2018-02-23T10:12:01Z</time>
      </trkpt>
      <trkpt lat="45.94056" lon="4.80876">
        <ele>230</ele>
        <time>2018-02-23T10:12:02Z</time>
      </trkpt>
      <trkpt lat="45.94059" lon="4.80888">
        <ele>231</ele>
        <time>2018-02-23T10:12:06Z</time>
      </trkpt>
      <trkpt lat="45.94059" lon="4.80891">
        <ele>231</ele>
        <time>2018-02-23T10:12:07Z</time>
      </trkpt>
      <trkpt lat="45.94061" lon="4.80901">
        <ele>232</ele>
        <time>2018-02-23T10:12:10Z</time>
      </trkpt>
      <trkpt lat="45.94061" lon="4.80904">
        <ele>232</ele>
        <time>2018-02-23T10:12:11Z</time>
      </trkpt>
      <trkpt lat="45.94062" lon="4.80915">
        <ele>233</ele>
        <time>2018-02-23T10:12:14Z</time>
      </trkpt>
      <trkpt lat="45.94062" lon="4.80918">
        <ele>233</ele>
        <time>2018-02-23T10:12:15Z</time>
      </trkpt>
      <trkpt lat="45.94063" lon="4.80929">
        <ele>233</ele>
        <time>2018-02-23T10:12:18Z</time>
      </trkpt>
      <trkpt lat="45.94063" lon="4.80932">
        <ele>233</ele>
        <time>2018-02-23T10:12:19Z</time>
      </trkpt>
      <trkpt lat="45.94065" lon="4.80942">
        <ele>232</ele>
        <time>2018-02-23T10:12:22Z</time>
      </trkpt>
      <trkpt lat="45.94065" lon="4.80945">
        <ele>232</ele>
        <time>2018-02-23T10:12:23Z</time>
      </trkpt>
      <trkpt lat="45.94066" lon="4.80957">
        <ele>232</ele>
        <time>2018-02-23T10:12:27Z</time>
      </trkpt>
      <trkpt lat="45.94066" lon="4.8096">
        <ele>232</ele>
        <time>2018-02-23T10:12:28Z</time>
      </trkpt>
      <trkpt lat="45.94067" lon="4.8097">
        <ele>233</ele>
        <time>2018-02-23T10:12:31Z</time>
      </trkpt>
      <trkpt lat="45.94067" lon="4.80973">
        <ele>233</ele>
        <time>2018-02-23T10:12:32Z</time>
      </trkpt>
      <trkpt lat="45.94069" lon="4.80983">
        <ele>234</ele>
        <time>2018-02-23T10:12:35Z</time>
      </trkpt>
      <trkpt lat="45.9407" lon="4.80986">
        <ele>234</ele>
        <time>2018-02-23T10:12:36Z</time>
      </trkpt>
      <trkpt lat="45.94072" lon="4.80999">
        <ele>236</ele>
        <time>2018-02-23T10:12:40Z</time>
      </trkpt>
      <trkpt lat="45.94072" lon="4.81002">
        <ele>236</ele>
        <time>2018-02-23T10:12:41Z</time>
      </trkpt>
      <trkpt lat="45.94073" lon="4.81012">
        <ele>235</ele>
        <time>2018-02-23T10:12:45Z</time>
      </trkpt>
      <trkpt lat="45.94074" lon="4.81015">
        <ele>235</ele>
        <time>2018-02-23T10:12:46Z</time>
      </trkpt>
      <trkpt lat="45.94077" lon="4.81026">
        <ele>234</ele>
        <time>2018-02-23T10:12:50Z</time>
      </trkpt>
      <trkpt lat="45.94078" lon="4.81029">
        <ele>234</ele>
        <time>2018-02-23T10:12:51Z</time>
      </trkpt>
      <trkpt lat="45.94081" lon="4.8104">
        <ele>233</ele>
        <time>2018-02-23T10:12:55Z</time>
      </trkpt>
      <trkpt lat="45.94081" lon="4.81043">
        <ele>233</ele>
        <time>2018-02-23T10:12:56Z</time>
      </trkpt>
      <trkpt lat="45.94085" lon="4.81055">
        <ele>243</ele>
        <time>2018-02-23T10:13:00Z</time>
      </trkpt>
      <trkpt lat="45.94086" lon="4.81057">
        <ele>243</ele>
        <time>2018-02-23T10:13:01Z</time>
      </trkpt>
      <trkpt lat="45.94091" lon="4.81067">
        <ele>242</ele>
        <time>2018-02-23T10:13:05Z</time>
      </trkpt>
      <trkpt lat="45.94092" lon="4.81069">
        <ele>242</ele>
        <time>2018-02-23T10:13:06Z</time>
      </trkpt>
      <trkpt lat="45.94098" lon="4.81078">
        <ele>241</ele>
        <time>2018-02-23T10:13:10Z</time>
      </trkpt>
      <trkpt lat="45.94099" lon="4.81081">
        <ele>242</ele>
        <time>2018-02-23T10:13:11Z</time>
      </trkpt>
      <trkpt lat="45.94104" lon="4.8109">
        <ele>241</ele>
        <time>2018-02-23T10:13:15Z</time>
      </trkpt>
      <trkpt lat="45.94105" lon="4.81092">
        <ele>241</ele>
        <time>2018-02-23T10:13:16Z</time>
      </trkpt>
      <trkpt lat="45.9411" lon="4.81102">
        <ele>242</ele>
        <time>2018-02-23T10:13:20Z</time>
      </trkpt>
      <trkpt lat="45.94111" lon="4.81105">
        <ele>242</ele>
        <time>2018-02-23T10:13:21Z</time>
      </trkpt>
      <trkpt lat="45.94115" lon="4.81114">
        <ele>242</ele>
        <time>2018-02-23T10:13:24Z</time>
      </trkpt>
      <trkpt lat="45.94116" lon="4.81117">
        <ele>243</ele>
        <time>2018-02-23T10:13:25Z</time>
      </trkpt>
      <trkpt lat="45.9412" lon="4.81127">
        <ele>243</ele>
        <time>2018-02-23T10:13:29Z</time>
      </trkpt>
      <trkpt lat="45.94121" lon="4.8113">
        <ele>243</ele>
        <time>2018-02-23T10:13:30Z</time>
      </trkpt>
      <trkpt lat="45.94126" lon="4.8114">
        <ele>243</ele>
        <time>2018-02-23T10:13:34Z</time>
      </trkpt>
      <trkpt lat="45.94127" lon="4.81143">
        <ele>243</ele>
        <time>2018-02-23T10:13:35Z</time>
      </trkpt>
      <trkpt lat="45.94131" lon="4.81151">
        <ele>243</ele>
        <time>2018-02-23T10:13:38Z</time>
      </trkpt>
      <trkpt lat="45.94133" lon="4.81154">
        <ele>244</ele>
        <time>2018-02-23T10:13:39Z</time>
      </trkpt>
      <trkpt lat="45.94139" lon="4.81163">
        <ele>244</ele>
        <time>2018-02-23T10:13:43Z</time>
      </trkpt>
      <trkpt lat="45.9414" lon="4.81166">
        <ele>244</ele>
        <time>2018-02-23T10:13:44Z</time>
      </trkpt>
      <trkpt lat="45.94145" lon="4.81175">
        <ele>244</ele>
        <time>2018-02-23T10:13:48Z</time>
      </trkpt>
      <trkpt lat="45.94145" lon="4.81178">
        <ele>244</ele>
        <time>2018-02-23T10:13:49Z</time>
      </trkpt>
      <trkpt lat="45.94149" lon="4.81189">
        <ele>244</ele>
        <time>2018-02-23T10:13:53Z</time>
      </trkpt>
      <trkpt lat="45.94151" lon="4.81192">
        <ele>244</ele>
        <time>2018-02-23T10:13:54Z</time>
      </trkpt>
      <trkpt lat="45.94155" lon="4.812">
        <ele>244</ele>
        <time>2018-02-23T10:13:57Z</time>
      </trkpt>
      <trkpt lat="45.94156" lon="4.81203">
        <ele>245</ele>
        <time>2018-02-23T10:13:58Z</time>
      </trkpt>
      <trkpt lat="45.9416" lon="4.81212">
        <ele>245</ele>
        <time>2018-02-23T10:14:01Z</time>
      </trkpt>
      <trkpt lat="45.94161" lon="4.81215">
        <ele>245</ele>
        <time>2018-02-23T10:14:02Z</time>
      </trkpt>
      <trkpt lat="45.94164" lon="4.81227">
        <ele>246</ele>
        <time>2018-02-23T10:14:06Z</time>
      </trkpt>
      <trkpt lat="45.94165" lon="4.8123">
        <ele>246</ele>
        <time>2018-02-23T10:14:07Z</time>
      </trkpt>
      <trkpt lat="45.94167" lon="4.8124">
        <ele>248</ele>
        <time>2018-02-23T10:14:11Z</time>
      </trkpt>
      <trkpt lat="45.94167" lon="4.81242">
        <ele>251</ele>
        <time>2018-02-23T10:14:12Z</time>
      </trkpt>
      <trkpt lat="45.94169" lon="4.81252">
        <ele>251</ele>
        <time>2018-02-23T10:14:15Z</time>
      </trkpt>
      <trkpt lat="45.94169" lon="4.81256">
        <ele>252</ele>
        <time>2018-02-23T10:14:16Z</time>
      </trkpt>
      <trkpt lat="45.94171" lon="4.81266">
        <ele>254</ele>
        <time>2018-02-23T10:14:19Z</time>
      </trkpt>
      <trkpt lat="45.94172" lon="4.8127">
        <ele>254</ele>
        <time>2018-02-23T10:14:20Z</time>
      </trkpt>
      <trkpt lat="45.94174" lon="4.81281">
        <ele>255</ele>
        <time>2018-02-23T10:14:23Z</time>
      </trkpt>
      <trkpt lat="45.94174" lon="4.81284">
        <ele>255</ele>
        <time>2018-02-23T10:14:24Z</time>
      </trkpt>
      <trkpt lat="45.94174" lon="4.81296">
        <ele>256</ele>
        <time>2018-02-23T10:14:28Z</time>
      </trkpt>
      <trkpt lat="45.94173" lon="4.81298">
        <ele>256</ele>
        <time>2018-02-23T10:14:29Z</time>
      </trkpt>
      <trkpt lat="45.94173" lon="4.81309">
        <ele>255</ele>
        <time>2018-02-23T10:14:32Z</time>
      </trkpt>
      <trkpt lat="45.94173" lon="4.81312">
        <ele>255</ele>
        <time>2018-02-23T10:14:33Z</time>
      </trkpt>
      <trkpt lat="45.94174" lon="4.81324">
        <ele>254</ele>
        <time>2018-02-23T10:14:37Z</time>
      </trkpt>
      <trkpt lat="45.94174" lon="4.81327">
        <ele>254</ele>
        <time>2018-02-23T10:14:38Z</time>
      </trkpt>
      <trkpt lat="45.94173" lon="4.81339">
        <ele>254</ele>
        <time>2018-02-23T10:14:42Z</time>
      </trkpt>
      <trkpt lat="45.94172" lon="4.81342">
        <ele>255</ele>
        <time>2018-02-23T10:14:43Z</time>
      </trkpt>
      <trkpt lat="45.94169" lon="4.81352">
        <ele>256</ele>
        <time>2018-02-23T10:14:46Z</time>
      </trkpt>
      <trkpt lat="45.94169" lon="4.81355">
        <ele>256</ele>
        <time>2018-02-23T10:14:47Z</time>
      </trkpt>
      <trkpt lat="45.94166" lon="4.81365">
        <ele>251</ele>
        <time>2018-02-23T10:14:50Z</time>
      </trkpt>
      <trkpt lat="45.94165" lon="4.81368">
        <ele>251</ele>
        <time>2018-02-23T10:14:51Z</time>
      </trkpt>
      <trkpt lat="45.94162" lon="4.81377">
        <ele>251</ele>
        <time>2018-02-23T10:14:54Z</time>
      </trkpt>
      <trkpt lat="45.94161" lon="4.8138">
        <ele>251</ele>
        <time>2018-02-23T10:14:55Z</time>
      </trkpt>
      <trkpt lat="45.94159" lon="4.8139">
        <ele>252</ele>
        <time>2018-02-23T10:14:58Z</time>
      </trkpt>
      <trkpt lat="45.94159" lon="4.81393">
        <ele>252</ele>
        <time>2018-02-23T10:14:59Z</time>
      </trkpt>
      <trkpt lat="45.94158" lon="4.81402">
        <ele>253</ele>
        <time>2018-02-23T10:15:02Z</time>
      </trkpt>
      <trkpt lat="45.94157" lon="4.81405">
        <ele>253</ele>
        <time>2018-02-23T10:15:03Z</time>
      </trkpt>
      <trkpt lat="45.94155" lon="4.81415">
        <ele>253</ele>
        <time>2018-02-23T10:15:06Z</time>
      </trkpt>
      <trkpt lat="45.94155" lon="4.81418">
        <ele>256</ele>
        <time>2018-02-23T10:15:07Z</time>
      </trkpt>
      <trkpt lat="45.94154" lon="4.81429">
        <ele>256</ele>
        <time>2018-02-23T10:15:10Z</time>
      </trkpt>
      <trkpt lat="45.94154" lon="4.81433">
        <ele>256</ele>
        <time>2018-02-23T10:15:11Z</time>
      </trkpt>
      <trkpt lat="45.94154" lon="4.81445">
        <ele>256</ele>
        <time>2018-02-23T10:15:15Z</time>
      </trkpt>
      <trkpt lat="45.94154" lon="4.81448">
        <ele>256</ele>
        <time>2018-02-23T10:15:16Z</time>
      </trkpt>
      <trkpt lat="45.94153" lon="4.81458">
        <ele>257</ele>
        <time>2018-02-23T10:15:20Z</time>
      </trkpt>
      <trkpt lat="45.94152" lon="4.81461">
        <ele>257</ele>
        <time>2018-02-23T10:15:21Z</time>
      </trkpt>
      <trkpt lat="45.94149" lon="4.81472">
        <ele>258</ele>
        <time>2018-02-23T10:15:25Z</time>
      </trkpt>
      <trkpt lat="45.94148" lon="4.81474">
        <ele>258</ele>
        <time>2018-02-23T10:15:26Z</time>
      </trkpt>
      <trkpt lat="45.94146" lon="4.81485">
        <ele>259</ele>
        <time>2018-02-23T10:15:30Z</time>
      </trkpt>
      <trkpt lat="45.94146" lon="4.81489">
        <ele>259</ele>
        <time>2018-02-23T10:15:31Z</time>
      </trkpt>
      <trkpt lat="45.94147" lon="4.81499">
        <ele>259</ele>
        <time>2018-02-23T10:15:34Z</time>
      </trkpt>
      <trkpt lat="45.94148" lon="4.81503">
        <ele>263</ele>
        <time>2018-02-23T10:15:35Z</time>
      </trkpt>
      <trkpt lat="45.94149" lon="4.81513">
        <ele>263</ele>
        <time>2018-02-23T10:15:38Z</time>
      </trkpt>
      <trkpt lat="45.94149" lon="4.81516">
        <ele>263</ele>
        <time>2018-02-23T10:15:39Z</time>
      </trkpt>
      <trkpt lat="45.94148" lon="4.81527">
        <ele>263</ele>
        <time>2018-02-23T10:15:43Z</time>
      </trkpt>
      <trkpt lat="45.94148" lon="4.81531">
        <ele>264</ele>
        <time>2018-02-23T10:15:44Z</time>
      </trkpt>
      <trkpt lat="45.94147" lon="4.81543">
        <ele>264</ele>
        <time>2018-02-23T10:15:48Z</time>
      </trkpt>
      <trkpt lat="45.94146" lon="4.81546">
        <ele>264</ele>
        <time>2018-02-23T10:15:49Z</time>
      </trkpt>
      <trkpt lat="45.94147" lon="4.81557">
        <ele>264</ele>
        <time>2018-02-23T10:15:52Z</time>
      </trkpt>
      <trkpt lat="45.94148" lon="4.81561">
        <ele>265</ele>
        <time>2018-02-23T10:15:53Z</time>
      </trkpt>
      <trkpt lat="45.94149" lon="4.81572">
        <ele>265</ele>
        <time>2018-02-23T10:15:56Z</time>
      </trkpt>
      <trkpt lat="45.9415" lon="4.81575">
        <ele>265</ele>
        <time>2018-02-23T10:15:57Z</time>
      </trkpt>
      <trkpt lat="45.94152" lon="4.81586">
        <ele>267</ele>
        <time>2018-02-23T10:16:00Z</time>
      </trkpt>
      <trkpt lat="45.94153" lon="4.8159">
        <ele>267</ele>
        <time>2018-02-23T10:16:01Z</time>
      </trkpt>
      <trkpt lat="45.94156" lon="4.81602">
        <ele>267</ele>
        <time>2018-02-23T10:16:04Z</time>
      </trkpt>
      <trkpt lat="45.94157" lon="4.81606">
        <ele>267</ele>
        <time>2018-02-23T10:16:05Z</time>
      </trkpt>
      <trkpt lat="45.9416" lon="4.81618">
        <ele>268</ele>
        <time>2018-02-23T10:16:08Z</time>
      </trkpt>
      <trkpt lat="45.94161" lon="4.81622">
        <ele>268</ele>
        <time>2018-02-23T10:16:09Z</time>
      </trkpt>
      <trkpt lat="45.94163" lon="4.81633">
        <ele>268</ele>
        <time>2018-02-23T10:16:12Z</time>
      </trkpt>
      <trkpt lat="45.94164" lon="4.81637">
        <ele>268</ele>
        <time>2018-02-23T10:16:13Z</time>
      </trkpt>
      <trkpt lat="45.94167" lon="4.81649">
        <ele>268</ele>
        <time>2018-02-23T10:16:16Z</time>
      </trkpt>
      <trkpt lat="45.94168" lon="4.81653">
        <ele>268</ele>
        <time>2018-02-23T10:16:17Z</time>
      </trkpt>
      <trkpt lat="45.9417" lon="4.81661">
        <ele>268</ele>
        <time>2018-02-23T10:16:19Z</time>
      </trkpt>
      <trkpt lat="45.94172" lon="4.81665">
        <ele>269</ele>
        <time>2018-02-23T10:16:20Z</time>
      </trkpt>
      <trkpt lat="45.94176" lon="4.81675">
        <ele>268</ele>
        <time>2018-02-23T10:16:23Z</time>
      </trkpt>
      <trkpt lat="45.94177" lon="4.81679">
        <ele>268</ele>
        <time>2018-02-23T10:16:24Z</time>
      </trkpt>
      <trkpt lat="45.9418" lon="4.81687">
        <ele>267</ele>
        <time>2018-02-23T10:16:26Z</time>
      </trkpt>
      <trkpt lat="45.94181" lon="4.81691">
        <ele>267</ele>
        <time>2018-02-23T10:16:27Z</time>
      </trkpt>
      <trkpt lat="45.94183" lon="4.81699">
        <ele>267</ele>
        <time>2018-02-23T10:16:29Z</time>
      </trkpt>
      <trkpt lat="45.94184" lon="4.81704">
        <ele>267</ele>
        <time>2018-02-23T10:16:30Z</time>
      </trkpt>
      <trkpt lat="45.94185" lon="4.81713">
        <ele>267</ele>
        <time>2018-02-23T10:16:32Z</time>
      </trkpt>
      <trkpt lat="45.94185" lon="4.81718">
        <ele>267</ele>
        <time>2018-02-23T10:16:33Z</time>
      </trkpt>
      <trkpt lat="45.94186" lon="4.81727">
        <ele>267</ele>
        <time>2018-02-23T10:16:35Z</time>
      </trkpt>
      <trkpt lat="45.94187" lon="4.81731">
        <ele>267</ele>
        <time>2018-02-23T10:16:36Z</time>
      </trkpt>
      <trkpt lat="45.94188" lon="4.81739">
        <ele>267</ele>
        <time>2018-02-23T10:16:38Z</time>
      </trkpt>
      <trkpt lat="45.9419" lon="4.81743">
        <ele>267</ele>
        <time>2018-02-23T10:16:39Z</time>
      </trkpt>
      <trkpt lat="45.94192" lon="4.81751">
        <ele>266</ele>
        <time>2018-02-23T10:16:41Z</time>
      </trkpt>
      <trkpt lat="45.94194" lon="4.81755">
        <ele>266</ele>
        <time>2018-02-23T10:16:42Z</time>
      </trkpt>
      <trkpt lat="45.94196" lon="4.81763">
        <ele>266</ele>
        <time>2018-02-23T10:16:44Z</time>
      </trkpt>
      <trkpt lat="45.94197" lon="4.81767">
        <ele>266</ele>
        <time>2018-02-23T10:16:45Z</time>
      </trkpt>
      <trkpt lat="45.94198" lon="4.81778">
        <ele>266</ele>
        <time>2018-02-23T10:16:48Z</time>
      </trkpt>
      <trkpt lat="45.94198" lon="4.81783">
        <ele>266</ele>
        <time>2018-02-23T10:16:49Z</time>
      </trkpt>
      <trkpt lat="45.94198" lon="4.81795">
        <ele>266</ele>
        <time>2018-02-23T10:16:52Z</time>
      </trkpt>
      <trkpt lat="45.94198" lon="4.818">
        <ele>266</ele>
        <time>2018-02-23T10:16:53Z</time>
      </trkpt>
      <trkpt lat="45.94198" lon="4.81809">
        <ele>266</ele>
        <time>2018-02-23T10:16:55Z</time>
      </trkpt>
      <trkpt lat="45.94198" lon="4.81813">
        <ele>266</ele>
        <time>2018-02-23T10:16:56Z</time>
      </trkpt>
      <trkpt lat="45.94199" lon="4.81822">
        <ele>266</ele>
        <time>2018-02-23T10:16:58Z</time>
      </trkpt>
      <trkpt lat="45.94199" lon="4.81827">
        <ele>266</ele>
        <time>2018-02-23T10:16:59Z</time>
      </trkpt>
      <trkpt lat="45.94201" lon="4.81839">
        <ele>266</ele>
        <time>2018-02-23T10:17:02Z</time>
      </trkpt>
      <trkpt lat="45.94202" lon="4.81844">
        <ele>266</ele>
        <time>2018-02-23T10:17:03Z</time>
      </trkpt>
      <trkpt lat="45.94204" lon="4.81858">
        <ele>266</ele>
        <time>2018-02-23T10:17:04Z</time>
      </trkpt>
      <trkpt lat="45.94205" lon="4.81869">
        <ele>265</ele>
        <time>2018-02-23T10:17:06Z</time>
      </trkpt>
      <trkpt lat="45.94206" lon="4.81874">
        <ele>265</ele>
        <time>2018-02-23T10:17:07Z</time>
      </trkpt>
      <trkpt lat="45.94208" lon="4.81884">
        <ele>265</ele>
        <time>2018-02-23T10:17:09Z</time>
      </trkpt>
      <trkpt lat="45.94209" lon="4.81889">
        <ele>265</ele>
        <time>2018-02-23T10:17:10Z</time>
      </trkpt>
      <trkpt lat="45.94211" lon="4.81899">
        <ele>265</ele>
        <time>2018-02-23T10:17:12Z</time>
      </trkpt>
      <trkpt lat="45.94212" lon="4.81902">
        <ele>265</ele>
        <time>2018-02-23T10:17:13Z</time>
      </trkpt>
      <trkpt lat="45.94214" lon="4.81912">
        <ele>265</ele>
        <time>2018-02-23T10:17:16Z</time>
      </trkpt>
      <trkpt lat="45.94217" lon="4.81921">
        <ele>264</ele>
        <time>2018-02-23T10:17:17Z</time>
      </trkpt>
      <trkpt lat="45.9422" lon="4.81932">
        <ele>264</ele>
        <time>2018-02-23T10:17:19Z</time>
      </trkpt>
      <trkpt lat="45.94221" lon="4.81937">
        <ele>264</ele>
        <time>2018-02-23T10:17:20Z</time>
      </trkpt>
      <trkpt lat="45.94223" lon="4.81949">
        <ele>264</ele>
        <time>2018-02-23T10:17:22Z</time>
      </trkpt>
      <trkpt lat="45.94225" lon="4.81955">
        <ele>264</ele>
        <time>2018-02-23T10:17:23Z</time>
      </trkpt>
      <trkpt lat="45.94228" lon="4.81966">
        <ele>264</ele>
        <time>2018-02-23T10:17:25Z</time>
      </trkpt>
      <trkpt lat="45.94229" lon="4.81968">
        <ele>264</ele>
        <time>2018-02-23T10:17:26Z</time>
      </trkpt>
      <trkpt lat="45.94231" lon="4.81976">
        <ele>264</ele>
        <time>2018-02-23T10:17:27Z</time>
      </trkpt>
      <trkpt lat="45.94232" lon="4.81982">
        <ele>263</ele>
        <time>2018-02-23T10:17:28Z</time>
      </trkpt>
      <trkpt lat="45.94234" lon="4.81993">
        <ele>263</ele>
        <time>2018-02-23T10:17:30Z</time>
      </trkpt>
      <trkpt lat="45.94235" lon="4.81999">
        <ele>263</ele>
        <time>2018-02-23T10:17:31Z</time>
      </trkpt>
      <trkpt lat="45.94238" lon="4.82011">
        <ele>263</ele>
        <time>2018-02-23T10:17:33Z</time>
      </trkpt>
      <trkpt lat="45.94239" lon="4.82016">
        <ele>263</ele>
        <time>2018-02-23T10:17:34Z</time>
      </trkpt>
      <trkpt lat="45.94241" lon="4.82027">
        <ele>263</ele>
        <time>2018-02-23T10:17:36Z</time>
      </trkpt>
      <trkpt lat="45.94242" lon="4.82033">
        <ele>263</ele>
        <time>2018-02-23T10:17:37Z</time>
      </trkpt>
      <trkpt lat="45.94244" lon="4.82043">
        <ele>263</ele>
        <time>2018-02-23T10:17:39Z</time>
      </trkpt>
      <trkpt lat="45.94245" lon="4.82049">
        <ele>263</ele>
        <time>2018-02-23T10:17:40Z</time>
      </trkpt>
      <trkpt lat="45.94248" lon="4.8206">
        <ele>263</ele>
        <time>2018-02-23T10:17:42Z</time>
      </trkpt>
      <trkpt lat="45.94249" lon="4.82066">
        <ele>263</ele>
        <time>2018-02-23T10:17:43Z</time>
      </trkpt>
      <trkpt lat="45.9425" lon="4.82072">
        <ele>263</ele>
        <time>2018-02-23T10:17:44Z</time>
      </trkpt>
      <trkpt lat="45.94251" lon="4.82079">
        <ele>262</ele>
        <time>2018-02-23T10:17:45Z</time>
      </trkpt>
      <trkpt lat="45.94252" lon="4.82085">
        <ele>262</ele>
        <time>2018-02-23T10:17:46Z</time>
      </trkpt>
      <trkpt lat="45.94252" lon="4.82092">
        <ele>262</ele>
        <time>2018-02-23T10:17:47Z</time>
      </trkpt>
      <trkpt lat="45.94254" lon="4.82104">
        <ele>262</ele>
        <time>2018-02-23T10:17:49Z</time>
      </trkpt>
      <trkpt lat="45.94255" lon="4.82109">
        <ele>263</ele>
        <time>2018-02-23T10:17:50Z</time>
      </trkpt>
      <trkpt lat="45.94257" lon="4.8212">
        <ele>263</ele>
        <time>2018-02-23T10:17:52Z</time>
      </trkpt>
      <trkpt lat="45.94258" lon="4.82123">
        <ele>263</ele>
        <time>2018-02-23T10:17:53Z</time>
      </trkpt>
      <trkpt lat="45.9426" lon="4.82135">
        <ele>263</ele>
        <time>2018-02-23T10:17:55Z</time>
      </trkpt>
      <trkpt lat="45.94261" lon="4.8214">
        <ele>263</ele>
        <time>2018-02-23T10:17:56Z</time>
      </trkpt>
      <trkpt lat="45.94264" lon="4.8215">
        <ele>263</ele>
        <time>2018-02-23T10:17:58Z</time>
      </trkpt>
      <trkpt lat="45.94265" lon="4.82156">
        <ele>263</ele>
        <time>2018-02-23T10:17:59Z</time>
      </trkpt>
      <trkpt lat="45.94268" lon="4.82167">
        <ele>263</ele>
        <time>2018-02-23T10:18:02Z</time>
      </trkpt>
      <trkpt lat="45.94269" lon="4.8217">
        <ele>263</ele>
        <time>2018-02-23T10:18:03Z</time>
      </trkpt>
      <trkpt lat="45.9427" lon="4.82173">
        <ele>264</ele>
        <time>2018-02-23T10:18:04Z</time>
      </trkpt>
      <trkpt lat="45.94273" lon="4.82183">
        <ele>264</ele>
        <time>2018-02-23T10:18:05Z</time>
      </trkpt>
      <trkpt lat="45.94275" lon="4.82195">
        <ele>264</ele>
        <time>2018-02-23T10:18:07Z</time>
      </trkpt>
      <trkpt lat="45.94276" lon="4.82202">
        <ele>264</ele>
        <time>2018-02-23T10:18:08Z</time>
      </trkpt>
      <trkpt lat="45.94278" lon="4.82214">
        <ele>264</ele>
        <time>2018-02-23T10:18:10Z</time>
      </trkpt>
      <trkpt lat="45.94278" lon="4.8222">
        <ele>264</ele>
        <time>2018-02-23T10:18:11Z</time>
      </trkpt>
      <trkpt lat="45.94279" lon="4.82232">
        <ele>264</ele>
        <time>2018-02-23T10:18:13Z</time>
      </trkpt>
      <trkpt lat="45.9428" lon="4.82239">
        <ele>264</ele>
        <time>2018-02-23T10:18:14Z</time>
      </trkpt>
      <trkpt lat="45.9428" lon="4.82245">
        <ele>264</ele>
        <time>2018-02-23T10:18:15Z</time>
      </trkpt>
      <trkpt lat="45.9428" lon="4.82252">
        <ele>265</ele>
        <time>2018-02-23T10:18:16Z</time>
      </trkpt>
      <trkpt lat="45.94279" lon="4.82258">
        <ele>265</ele>
        <time>2018-02-23T10:18:17Z</time>
      </trkpt>
      <trkpt lat="45.94279" lon="4.82265">
        <ele>265</ele>
        <time>2018-02-23T10:18:18Z</time>
      </trkpt>
      <trkpt lat="45.9428" lon="4.82277">
        <ele>265</ele>
        <time>2018-02-23T10:18:20Z</time>
      </trkpt>
      <trkpt lat="45.9428" lon="4.82283">
        <ele>265</ele>
        <time>2018-02-23T10:18:21Z</time>
      </trkpt>
      <trkpt lat="45.94281" lon="4.82294">
        <ele>265</ele>
        <time>2018-02-23T10:18:23Z</time>
      </trkpt>
      <trkpt lat="45.94281" lon="4.823">
        <ele>265</ele>
        <time>2018-02-23T10:18:24Z</time>
      </trkpt>
      <trkpt lat="45.94282" lon="4.82311">
        <ele>265</ele>
        <time>2018-02-23T10:18:26Z</time>
      </trkpt>
      <trkpt lat="45.94283" lon="4.82317">
        <ele>265</ele>
        <time>2018-02-23T10:18:27Z</time>
      </trkpt>
      <trkpt lat="45.94284" lon="4.82329">
        <ele>265</ele>
        <time>2018-02-23T10:18:29Z</time>
      </trkpt>
      <trkpt lat="45.94284" lon="4.82335">
        <ele>264</ele>
        <time>2018-02-23T10:18:30Z</time>
      </trkpt>
      <trkpt lat="45.94285" lon="4.82347">
        <ele>264</ele>
        <time>2018-02-23T10:18:32Z</time>
      </trkpt>
      <trkpt lat="45.94285" lon="4.82352">
        <ele>264</ele>
        <time>2018-02-23T10:18:33Z</time>
      </trkpt>
      <trkpt lat="45.94286" lon="4.82364">
        <ele>264</ele>
        <time>2018-02-23T10:18:35Z</time>
      </trkpt>
      <trkpt lat="45.94286" lon="4.82371">
        <ele>264</ele>
        <time>2018-02-23T10:18:36Z</time>
      </trkpt>
      <trkpt lat="45.94287" lon="4.82383">
        <ele>264</ele>
        <time>2018-02-23T10:18:38Z</time>
      </trkpt>
      <trkpt lat="45.94287" lon="4.82388">
        <ele>264</ele>
        <time>2018-02-23T10:18:39Z</time>
      </trkpt>
      <trkpt lat="45.94287" lon="4.82399">
        <ele>264</ele>
        <time>2018-02-23T10:18:41Z</time>
      </trkpt>
      <trkpt lat="45.94288" lon="4.82405">
        <ele>264</ele>
        <time>2018-02-23T10:18:42Z</time>
      </trkpt>
      <trkpt lat="45.94288" lon="4.82416">
        <ele>264</ele>
        <time>2018-02-23T10:18:44Z</time>
      </trkpt>
      <trkpt lat="45.94288" lon="4.82418">
        <ele>264</ele>
        <time>2018-02-23T10:18:45Z</time>
      </trkpt>
      <trkpt lat="45.94289" lon="4.82425">
        <ele>264</ele>
        <time>2018-02-23T10:18:47Z</time>
      </trkpt>
      <trkpt lat="45.9429" lon="4.82436">
        <ele>264</ele>
        <time>2018-02-23T10:18:48Z</time>
      </trkpt>
      <trkpt lat="45.9429" lon="4.82447">
        <ele>264</ele>
        <time>2018-02-23T10:18:50Z</time>
      </trkpt>
      <trkpt lat="45.9429" lon="4.82453">
        <ele>264</ele>
        <time>2018-02-23T10:18:51Z</time>
      </trkpt>
      <trkpt lat="45.9429" lon="4.82464">
        <ele>264</ele>
        <time>2018-02-23T10:18:53Z</time>
      </trkpt>
      <trkpt lat="45.9429" lon="4.8247">
        <ele>264</ele>
        <time>2018-02-23T10:18:54Z</time>
      </trkpt>
      <trkpt lat="45.94291" lon="4.82483">
        <ele>264</ele>
        <time>2018-02-23T10:18:56Z</time>
      </trkpt>
      <trkpt lat="45.9429" lon="4.8249">
        <ele>264</ele>
        <time>2018-02-23T10:18:57Z</time>
      </trkpt>
      <trkpt lat="45.9429" lon="4.82497">
        <ele>264</ele>
        <time>2018-02-23T10:18:58Z</time>
      </trkpt>
      <trkpt lat="45.94291" lon="4.82504">
        <ele>264</ele>
        <time>2018-02-23T10:18:59Z</time>
      </trkpt>
      <trkpt lat="45.94291" lon="4.82516">
        <ele>264</ele>
        <time>2018-02-23T10:19:01Z</time>
      </trkpt>
      <trkpt lat="45.94291" lon="4.82522">
        <ele>264</ele>
        <time>2018-02-23T10:19:02Z</time>
      </trkpt>
      <trkpt lat="45.94292" lon="4.8253">
        <ele>264</ele>
        <time>2018-02-23T10:19:04Z</time>
      </trkpt>
      <trkpt lat="45.94291" lon="4.82537">
        <ele>264</ele>
        <time>2018-02-23T10:19:05Z</time>
      </trkpt>
      <trkpt lat="45.94291" lon="4.82548">
        <ele>264</ele>
        <time>2018-02-23T10:19:07Z</time>
      </trkpt>
      <trkpt lat="45.94291" lon="4.82553">
        <ele>264</ele>
        <time>2018-02-23T10:19:08Z</time>
      </trkpt>
      <trkpt lat="45.94291" lon="4.82565">
        <ele>264</ele>
        <time>2018-02-23T10:19:10Z</time>
      </trkpt>
      <trkpt lat="45.94291" lon="4.82571">
        <ele>264</ele>
        <time>2018-02-23T10:19:11Z</time>
      </trkpt>
      <trkpt lat="45.9429" lon="4.82583">
        <ele>265</ele>
        <time>2018-02-23T10:19:13Z</time>
      </trkpt>
      <trkpt lat="45.9429" lon="4.82588">
        <ele>265</ele>
        <time>2018-02-23T10:19:14Z</time>
      </trkpt>
      <trkpt lat="45.94291" lon="4.82595">
        <ele>265</ele>
        <time>2018-02-23T10:19:15Z</time>
      </trkpt>
      <trkpt lat="45.94291" lon="4.82602">
        <ele>265</ele>
        <time>2018-02-23T10:19:16Z</time>
      </trkpt>
      <trkpt lat="45.94291" lon="4.82615">
        <ele>265</ele>
        <time>2018-02-23T10:19:18Z</time>
      </trkpt>
      <trkpt lat="45.94291" lon="4.82621">
        <ele>265</ele>
        <time>2018-02-23T10:19:19Z</time>
      </trkpt>
      <trkpt lat="45.94292" lon="4.82633">
        <ele>265</ele>
        <time>2018-02-23T10:19:21Z</time>
      </trkpt>
      <trkpt lat="45.94291" lon="4.82638">
        <ele>265</ele>
        <time>2018-02-23T10:19:22Z</time>
      </trkpt>
      <trkpt lat="45.94292" lon="4.8265">
        <ele>265</ele>
        <time>2018-02-23T10:19:24Z</time>
      </trkpt>
      <trkpt lat="45.94292" lon="4.82657">
        <ele>265</ele>
        <time>2018-02-23T10:19:25Z</time>
      </trkpt>
      <trkpt lat="45.9429" lon="4.82669">
        <ele>265</ele>
        <time>2018-02-23T10:19:27Z</time>
      </trkpt>
      <trkpt lat="45.9429" lon="4.82675">
        <ele>265</ele>
        <time>2018-02-23T10:19:28Z</time>
      </trkpt>
      <trkpt lat="45.94289" lon="4.82683">
        <ele>265</ele>
        <time>2018-02-23T10:19:29Z</time>
      </trkpt>
      <trkpt lat="45.94289" lon="4.82689">
        <ele>265</ele>
        <time>2018-02-23T10:19:30Z</time>
      </trkpt>
      <trkpt lat="45.94288" lon="4.82701">
        <ele>265</ele>
        <time>2018-02-23T10:19:32Z</time>
      </trkpt>
      <trkpt lat="45.94288" lon="4.82706">
        <ele>265</ele>
        <time>2018-02-23T10:19:33Z</time>
      </trkpt>
      <trkpt lat="45.94289" lon="4.82717">
        <ele>265</ele>
        <time>2018-02-23T10:19:35Z</time>
      </trkpt>
      <trkpt lat="45.94289" lon="4.82723">
        <ele>265</ele>
        <time>2018-02-23T10:19:36Z</time>
      </trkpt>
      <trkpt lat="45.94289" lon="4.82734">
        <ele>265</ele>
        <time>2018-02-23T10:19:38Z</time>
      </trkpt>
      <trkpt lat="45.94289" lon="4.8274">
        <ele>265</ele>
        <time>2018-02-23T10:19:39Z</time>
      </trkpt>
      <trkpt lat="45.94288" lon="4.82753">
        <ele>265</ele>
        <time>2018-02-23T10:19:41Z</time>
      </trkpt>
      <trkpt lat="45.94288" lon="4.82759">
        <ele>265</ele>
        <time>2018-02-23T10:19:42Z</time>
      </trkpt>
      <trkpt lat="45.94287" lon="4.82771">
        <ele>265</ele>
        <time>2018-02-23T10:19:44Z</time>
      </trkpt>
      <trkpt lat="45.94287" lon="4.82777">
        <ele>265</ele>
        <time>2018-02-23T10:19:45Z</time>
      </trkpt>
      <trkpt lat="45.94287" lon="4.82788">
        <ele>265</ele>
        <time>2018-02-23T10:19:47Z</time>
      </trkpt>
      <trkpt lat="45.94287" lon="4.82793">
        <ele>265</ele>
        <time>2018-02-23T10:19:48Z</time>
      </trkpt>
      <trkpt lat="45.94286" lon="4.82804">
        <ele>265</ele>
        <time>2018-02-23T10:19:50Z</time>
      </trkpt>
      <trkpt lat="45.94286" lon="4.8281">
        <ele>265</ele>
        <time>2018-02-23T10:19:51Z</time>
      </trkpt>
      <trkpt lat="45.94286" lon="4.82816">
        <ele>265</ele>
        <time>2018-02-23T10:19:52Z</time>
      </trkpt>
      <trkpt lat="45.94286" lon="4.82823">
        <ele>265</ele>
        <time>2018-02-23T10:19:53Z</time>
      </trkpt>
      <trkpt lat="45.94287" lon="4.82836">
        <ele>265</ele>
        <time>2018-02-23T10:19:55Z</time>
      </trkpt>
      <trkpt lat="45.94286" lon="4.82843">
        <ele>265</ele>
        <time>2018-02-23T10:19:56Z</time>
      </trkpt>
      <trkpt lat="45.94285" lon="4.82855">
        <ele>265</ele>
        <time>2018-02-23T10:19:58Z</time>
      </trkpt>
      <trkpt lat="45.94285" lon="4.82861">
        <ele>265</ele>
        <time>2018-02-23T10:19:59Z</time>
      </trkpt>
      <trkpt lat="45.94285" lon="4.82873">
        <ele>265</ele>
        <time>2018-02-23T10:20:01Z</time>
      </trkpt>
      <trkpt lat="45.94285" lon="4.82879">
        <ele>265</ele>
        <time>2018-02-23T10:20:02Z</time>
      </trkpt>
      <trkpt lat="45.94284" lon="4.8289">
        <ele>265</ele>
        <time>2018-02-23T10:20:04Z</time>
      </trkpt>
      <trkpt lat="45.94284" lon="4.82896">
        <ele>265</ele>
        <time>2018-02-23T10:20:05Z</time>
      </trkpt>
      <trkpt lat="45.94282" lon="4.82907">
        <ele>265</ele>
        <time>2018-02-23T10:20:07Z</time>
      </trkpt>
      <trkpt lat="45.94281" lon="4.82913">
        <ele>265</ele>
        <time>2018-02-23T10:20:08Z</time>
      </trkpt>
      <trkpt lat="45.94279" lon="4.82925">
        <ele>265</ele>
        <time>2018-02-23T10:20:10Z</time>
      </trkpt>
      <trkpt lat="45.94277" lon="4.82931">
        <ele>265</ele>
        <time>2018-02-23T10:20:11Z</time>
      </trkpt>
      <trkpt lat="45.94277" lon="4.82939">
        <ele>265</ele>
        <time>2018-02-23T10:20:12Z</time>
      </trkpt>
      <trkpt lat="45.94276" lon="4.82946">
        <ele>265</ele>
        <time>2018-02-23T10:20:13Z</time>
      </trkpt>
      <trkpt lat="45.94274" lon="4.82953">
        <ele>265</ele>
        <time>2018-02-23T10:20:14Z</time>
      </trkpt>
      <trkpt lat="45.94271" lon="4.82961">
        <ele>265</ele>
        <time>2018-02-23T10:20:15Z</time>
      </trkpt>
      <trkpt lat="45.94267" lon="4.82972">
        <ele>265</ele>
        <time>2018-02-23T10:20:17Z</time>
      </trkpt>
      <trkpt lat="45.94265" lon="4.82977">
        <ele>265</ele>
        <time>2018-02-23T10:20:18Z</time>
      </trkpt>
      <trkpt lat="45.9426" lon="4.82986">
        <ele>266</ele>
        <time>2018-02-23T10:20:20Z</time>
      </trkpt>
      <trkpt lat="45.94258" lon="4.8299">
        <ele>266</ele>
        <time>2018-02-23T10:20:21Z</time>
      </trkpt>
      <trkpt lat="45.94255" lon="4.82998">
        <ele>266</ele>
        <time>2018-02-23T10:20:23Z</time>
      </trkpt>
      <trkpt lat="45.94252" lon="4.83002">
        <ele>266</ele>
        <time>2018-02-23T10:20:24Z</time>
      </trkpt>
      <trkpt lat="45.94247" lon="4.83011">
        <ele>266</ele>
        <time>2018-02-23T10:20:26Z</time>
      </trkpt>
      <trkpt lat="45.94243" lon="4.83016">
        <ele>266</ele>
        <time>2018-02-23T10:20:27Z</time>
      </trkpt>
      <trkpt lat="45.94238" lon="4.83025">
        <ele>266</ele>
        <time>2018-02-23T10:20:29Z</time>
      </trkpt>
      <trkpt lat="45.94234" lon="4.8303">
        <ele>266</ele>
        <time>2018-02-23T10:20:30Z</time>
      </trkpt>
      <trkpt lat="45.94233" lon="4.83037">
        <ele>266</ele>
        <time>2018-02-23T10:20:31Z</time>
      </trkpt>
      <trkpt lat="45.94229" lon="4.83042">
        <ele>266</ele>
        <time>2018-02-23T10:20:32Z</time>
      </trkpt>
      <trkpt lat="45.94223" lon="4.83051">
        <ele>266</ele>
        <time>2018-02-23T10:20:34Z</time>
      </trkpt>
      <trkpt lat="45.94219" lon="4.83056">
        <ele>266</ele>
        <time>2018-02-23T10:20:35Z</time>
      </trkpt>
      <trkpt lat="45.94216" lon="4.83061">
        <ele>266</ele>
        <time>2018-02-23T10:20:36Z</time>
      </trkpt>
      <trkpt lat="45.94212" lon="4.83066">
        <ele>266</ele>
        <time>2018-02-23T10:20:37Z</time>
      </trkpt>
      <trkpt lat="45.94208" lon="4.8307">
        <ele>265</ele>
        <time>2018-02-23T10:20:38Z</time>
      </trkpt>
      <trkpt lat="45.94204" lon="4.83076">
        <ele>265</ele>
        <time>2018-02-23T10:20:39Z</time>
      </trkpt>
      <trkpt lat="45.94201" lon="4.8308">
        <ele>265</ele>
        <time>2018-02-23T10:20:40Z</time>
      </trkpt>
      <trkpt lat="45.94197" lon="4.83085">
        <ele>265</ele>
        <time>2018-02-23T10:20:41Z</time>
      </trkpt>
      <trkpt lat="45.94194" lon="4.8309">
        <ele>265</ele>
        <time>2018-02-23T10:20:42Z</time>
      </trkpt>
      <trkpt lat="45.94191" lon="4.83095">
        <ele>265</ele>
        <time>2018-02-23T10:20:43Z</time>
      </trkpt>
      <trkpt lat="45.94188" lon="4.831">
        <ele>265</ele>
        <time>2018-02-23T10:20:44Z</time>
      </trkpt>
      <trkpt lat="45.94184" lon="4.83103">
        <ele>265</ele>
        <time>2018-02-23T10:20:45Z</time>
      </trkpt>
      <trkpt lat="45.9418" lon="4.83108">
        <ele>265</ele>
        <time>2018-02-23T10:20:46Z</time>
      </trkpt>
      <trkpt lat="45.94177" lon="4.83112">
        <ele>265</ele>
        <time>2018-02-23T10:20:47Z</time>
      </trkpt>
      <trkpt lat="45.94174" lon="4.83117">
        <ele>265</ele>
        <time>2018-02-23T10:20:48Z</time>
      </trkpt>
      <trkpt lat="45.9417" lon="4.83123">
        <ele>265</ele>
        <time>2018-02-23T10:20:49Z</time>
      </trkpt>
      <trkpt lat="45.94166" lon="4.83128">
        <ele>265</ele>
        <time>2018-02-23T10:20:50Z</time>
      </trkpt>
      <trkpt lat="45.94163" lon="4.83133">
        <ele>265</ele>
        <time>2018-02-23T10:20:51Z</time>
      </trkpt>
      <trkpt lat="45.94159" lon="4.83139">
        <ele>265</ele>
        <time>2018-02-23T10:20:52Z</time>
      </trkpt>
      <trkpt lat="45.94155" lon="4.83144">
        <ele>265</ele>
        <time>2018-02-23T10:20:53Z</time>
      </trkpt>
      <trkpt lat="45.94151" lon="4.8315">
        <ele>265</ele>
        <time>2018-02-23T10:20:54Z</time>
      </trkpt>
      <trkpt lat="45.94148" lon="4.83155">
        <ele>265</ele>
        <time>2018-02-23T10:20:55Z</time>
      </trkpt>
      <trkpt lat="45.94143" lon="4.83161">
        <ele>265</ele>
        <time>2018-02-23T10:20:56Z</time>
      </trkpt>
      <trkpt lat="45.9414" lon="4.83166">
        <ele>265</ele>
        <time>2018-02-23T10:20:57Z</time>
      </trkpt>
      <trkpt lat="45.94134" lon="4.83176">
        <ele>266</ele>
        <time>2018-02-23T10:20:59Z</time>
      </trkpt>
      <trkpt lat="45.94131" lon="4.83181">
        <ele>266</ele>
        <time>2018-02-23T10:21:00Z</time>
      </trkpt>
      <trkpt lat="45.94125" lon="4.83191">
        <ele>266</ele>
        <time>2018-02-23T10:21:02Z</time>
      </trkpt>
      <trkpt lat="45.94121" lon="4.83194">
        <ele>266</ele>
        <time>2018-02-23T10:21:03Z</time>
      </trkpt>
      <trkpt lat="45.94118" lon="4.832">
        <ele>266</ele>
        <time>2018-02-23T10:21:04Z</time>
      </trkpt>
      <trkpt lat="45.94115" lon="4.83206">
        <ele>266</ele>
        <time>2018-02-23T10:21:05Z</time>
      </trkpt>
      <trkpt lat="45.94111" lon="4.83212">
        <ele>266</ele>
        <time>2018-02-23T10:21:06Z</time>
      </trkpt>
      <trkpt lat="45.94109" lon="4.83217">
        <ele>266</ele>
        <time>2018-02-23T10:21:07Z</time>
      </trkpt>
      <trkpt lat="45.94105" lon="4.83222">
        <ele>266</ele>
        <time>2018-02-23T10:21:08Z</time>
      </trkpt>
      <trkpt lat="45.94101" lon="4.83227">
        <ele>266</ele>
        <time>2018-02-23T10:21:09Z</time>
      </trkpt>
      <trkpt lat="45.94099" lon="4.83232">
        <ele>266</ele>
        <time>2018-02-23T10:21:10Z</time>
      </trkpt>
      <trkpt lat="45.94095" lon="4.83238">
        <ele>266</ele>
        <time>2018-02-23T10:21:11Z</time>
      </trkpt>
      <trkpt lat="45.9409" lon="4.83243">
        <ele>266</ele>
        <time>2018-02-23T10:21:12Z</time>
      </trkpt>
      <trkpt lat="45.94086" lon="4.8325">
        <ele>266</ele>
        <time>2018-02-23T10:21:13Z</time>
      </trkpt>
      <trkpt lat="45.94082" lon="4.83256">
        <ele>266</ele>
        <time>2018-02-23T10:21:14Z</time>
      </trkpt>
      <trkpt lat="45.94077" lon="4.83261">
        <ele>266</ele>
        <time>2018-02-23T10:21:15Z</time>
      </trkpt>
      <trkpt lat="45.94072" lon="4.83267">
        <ele>266</ele>
        <time>2018-02-23T10:21:16Z</time>
      </trkpt>
      <trkpt lat="45.94068" lon="4.83273">
        <ele>266</ele>
        <time>2018-02-23T10:21:17Z</time>
      </trkpt>
      <trkpt lat="45.94065" lon="4.83278">
        <ele>266</ele>
        <time>2018-02-23T10:21:18Z</time>
      </trkpt>
      <trkpt lat="45.94061" lon="4.83281">
        <ele>266</ele>
        <time>2018-02-23T10:21:19Z</time>
      </trkpt>
      <trkpt lat="45.94057" lon="4.83288">
        <ele>266</ele>
        <time>2018-02-23T10:21:20Z</time>
      </trkpt>
      <trkpt lat="45.94055" lon="4.83294">
        <ele>266</ele>
        <time>2018-02-23T10:21:21Z</time>
      </trkpt>
      <trkpt lat="45.94052" lon="4.83299">
        <ele>266</ele>
        <time>2018-02-23T10:21:22Z</time>
      </trkpt>
      <trkpt lat="45.94048" lon="4.83304">
        <ele>266</ele>
        <time>2018-02-23T10:21:23Z</time>
      </trkpt>
      <trkpt lat="45.94044" lon="4.83308">
        <ele>266</ele>
        <time>2018-02-23T10:21:24Z</time>
      </trkpt>
      <trkpt lat="45.94041" lon="4.83313">
        <ele>266</ele>
        <time>2018-02-23T10:21:25Z</time>
      </trkpt>
      <trkpt lat="45.94037" lon="4.83318">
        <ele>266</ele>
        <time>2018-02-23T10:21:26Z</time>
      </trkpt>
      <trkpt lat="45.94033" lon="4.83324">
        <ele>266</ele>
        <time>2018-02-23T10:21:27Z</time>
      </trkpt>
      <trkpt lat="45.94029" lon="4.83329">
        <ele>266</ele>
        <time>2018-02-23T10:21:28Z</time>
      </trkpt>
      <trkpt lat="45.94026" lon="4.83337">
        <ele>266</ele>
        <time>2018-02-23T10:21:29Z</time>
      </trkpt>
      <trkpt lat="45.94022" lon="4.83343">
        <ele>266</ele>
        <time>2018-02-23T10:21:30Z</time>
      </trkpt>
      <trkpt lat="45.94017" lon="4.83348">
        <ele>266</ele>
        <time>2018-02-23T10:21:31Z</time>
      </trkpt>
      <trkpt lat="45.94014" lon="4.83354">
        <ele>266</ele>
        <time>2018-02-23T10:21:32Z</time>
      </trkpt>
      <trkpt lat="45.9401" lon="4.8336">
        <ele>266</ele>
        <time>2018-02-23T10:21:33Z</time>
      </trkpt>
      <trkpt lat="45.94006" lon="4.83365">
        <ele>266</ele>
        <time>2018-02-23T10:21:34Z</time>
      </trkpt>
      <trkpt lat="45.94002" lon="4.8337">
        <ele>266</ele>
        <time>2018-02-23T10:21:35Z</time>
      </trkpt>
      <trkpt lat="45.93999" lon="4.83376">
        <ele>266</ele>
        <time>2018-02-23T10:21:36Z</time>
      </trkpt>
      <trkpt lat="45.93996" lon="4.83381">
        <ele>266</ele>
        <time>2018-02-23T10:21:37Z</time>
      </trkpt>
      <trkpt lat="45.93993" lon="4.83386">
        <ele>266</ele>
        <time>2018-02-23T10:21:38Z</time>
      </trkpt>
      <trkpt lat="45.93989" lon="4.83392">
        <ele>266</ele>
        <time>2018-02-23T10:21:39Z</time>
      </trkpt>
      <trkpt lat="45.93985" lon="4.83397">
        <ele>266</ele>
        <time>2018-02-23T10:21:40Z</time>
      </trkpt>
      <trkpt lat="45.93981" lon="4.83403">
        <ele>266</ele>
        <time>2018-02-23T10:21:41Z</time>
      </trkpt>
      <trkpt lat="45.93976" lon="4.83409">
        <ele>266</ele>
        <time>2018-02-23T10:21:42Z</time>
      </trkpt>
      <trkpt lat="45.93972" lon="4.83415">
        <ele>266</ele>
        <time>2018-02-23T10:21:43Z</time>
      </trkpt>
      <trkpt lat="45.93969" lon="4.83421">
        <ele>265</ele>
        <time>2018-02-23T10:21:44Z</time>
      </trkpt>
      <trkpt lat="45.93967" lon="4.83428">
        <ele>265</ele>
        <time>2018-02-23T10:21:45Z</time>
      </trkpt>
      <trkpt lat="45.93963" lon="4.83433">
        <ele>265</ele>
        <time>2018-02-23T10:21:46Z</time>
      </trkpt>
      <trkpt lat="45.93959" lon="4.83439">
        <ele>265</ele>
        <time>2018-02-23T10:21:47Z</time>
      </trkpt>
      <trkpt lat="45.93955" lon="4.83445">
        <ele>265</ele>
        <time>2018-02-23T10:21:48Z</time>
      </trkpt>
      <trkpt lat="45.93952" lon="4.8345">
        <ele>265</ele>
        <time>2018-02-23T10:21:49Z</time>
      </trkpt>
      <trkpt lat="45.93947" lon="4.83456">
        <ele>265</ele>
        <time>2018-02-23T10:21:50Z</time>
      </trkpt>
      <trkpt lat="45.93943" lon="4.83461">
        <ele>265</ele>
        <time>2018-02-23T10:21:51Z</time>
      </trkpt>
      <trkpt lat="45.9394" lon="4.83467">
        <ele>265</ele>
        <time>2018-02-23T10:21:52Z</time>
      </trkpt>
      <trkpt lat="45.93936" lon="4.83474">
        <ele>265</ele>
        <time>2018-02-23T10:21:53Z</time>
      </trkpt>
      <trkpt lat="45.93931" lon="4.83481">
        <ele>265</ele>
        <time>2018-02-23T10:21:54Z</time>
      </trkpt>
      <trkpt lat="45.93927" lon="4.83486">
        <ele>265</ele>
        <time>2018-02-23T10:21:55Z</time>
      </trkpt>
      <trkpt lat="45.93923" lon="4.83492">
        <ele>265</ele>
        <time>2018-02-23T10:21:56Z</time>
      </trkpt>
      <trkpt lat="45.93919" lon="4.83496">
        <ele>265</ele>
        <time>2018-02-23T10:21:57Z</time>
      </trkpt>
      <trkpt lat="45.93915" lon="4.83503">
        <ele>265</ele>
        <time>2018-02-23T10:21:58Z</time>
      </trkpt>
      <trkpt lat="45.93911" lon="4.83508">
        <ele>265</ele>
        <time>2018-02-23T10:21:59Z</time>
      </trkpt>
      <trkpt lat="45.93908" lon="4.83512">
        <ele>265</ele>
        <time>2018-02-23T10:22:00Z</time>
      </trkpt>
      <trkpt lat="45.93904" lon="4.83518">
        <ele>265</ele>
        <time>2018-02-23T10:22:01Z</time>
      </trkpt>
      <trkpt lat="45.93901" lon="4.83523">
        <ele>265</ele>
        <time>2018-02-23T10:22:02Z</time>
      </trkpt>
      <trkpt lat="45.93897" lon="4.83528">
        <ele>265</ele>
        <time>2018-02-23T10:22:03Z</time>
      </trkpt>
      <trkpt lat="45.93894" lon="4.83536">
        <ele>265</ele>
        <time>2018-02-23T10:22:04Z</time>
      </trkpt>
      <trkpt lat="45.93891" lon="4.83542">
        <ele>265</ele>
        <time>2018-02-23T10:22:05Z</time>
      </trkpt>
      <trkpt lat="45.93887" lon="4.83549">
        <ele>265</ele>
        <time>2018-02-23T10:22:06Z</time>
      </trkpt>
      <trkpt lat="45.93884" lon="4.83555">
        <ele>265</ele>
        <time>2018-02-23T10:22:07Z</time>
      </trkpt>
      <trkpt lat="45.93881" lon="4.83562">
        <ele>265</ele>
        <time>2018-02-23T10:22:08Z</time>
      </trkpt>
      <trkpt lat="45.93878" lon="4.83569">
        <ele>265</ele>
        <time>2018-02-23T10:22:09Z</time>
      </trkpt>
      <trkpt lat="45.93874" lon="4.83576">
        <ele>265</ele>
        <time>2018-02-23T10:22:10Z</time>
      </trkpt>
      <trkpt lat="45.93871" lon="4.83582">
        <ele>265</ele>
        <time>2018-02-23T10:22:11Z</time>
      </trkpt>
      <trkpt lat="45.93867" lon="4.83588">
        <ele>265</ele>
        <time>2018-02-23T10:22:12Z</time>
      </trkpt>
      <trkpt lat="45.93864" lon="4.83593">
        <ele>265</ele>
        <time>2018-02-23T10:22:13Z</time>
      </trkpt>
      <trkpt lat="45.93861" lon="4.836">
        <ele>265</ele>
        <time>2018-02-23T10:22:14Z</time>
      </trkpt>
      <trkpt lat="45.93859" lon="4.83607">
        <ele>265</ele>
        <time>2018-02-23T10:22:15Z</time>
      </trkpt>
      <trkpt lat="45.93855" lon="4.83612">
        <ele>265</ele>
        <time>2018-02-23T10:22:16Z</time>
      </trkpt>
      <trkpt lat="45.93853" lon="4.8362">
        <ele>265</ele>
        <time>2018-02-23T10:22:17Z</time>
      </trkpt>
      <trkpt lat="45.9385" lon="4.83625">
        <ele>265</ele>
        <time>2018-02-23T10:22:18Z</time>
      </trkpt>
      <trkpt lat="45.93848" lon="4.83633">
        <ele>265</ele>
        <time>2018-02-23T10:22:19Z</time>
      </trkpt>
      <trkpt lat="45.93845" lon="4.83639">
        <ele>265</ele>
        <time>2018-02-23T10:22:20Z</time>
      </trkpt>
      <trkpt lat="45.93842" lon="4.83645">
        <ele>265</ele>
        <time>2018-02-23T10:22:21Z</time>
      </trkpt>
      <trkpt lat="45.9384" lon="4.83651">
        <ele>265</ele>
        <time>2018-02-23T10:22:22Z</time>
      </trkpt>
      <trkpt lat="45.93838" lon="4.83658">
        <ele>265</ele>
        <time>2018-02-23T10:22:23Z</time>
      </trkpt>
      <trkpt lat="45.93836" lon="4.83665">
        <ele>265</ele>
        <time>2018-02-23T10:22:24Z</time>
      </trkpt>
      <trkpt lat="45.93835" lon="4.83672">
        <ele>265</ele>
        <time>2018-02-23T10:22:25Z</time>
      </trkpt>
      <trkpt lat="45.93832" lon="4.83678">
        <ele>265</ele>
        <time>2018-02-23T10:22:26Z</time>
      </trkpt>
      <trkpt lat="45.93831" lon="4.83685">
        <ele>265</ele>
        <time>2018-02-23T10:22:27Z</time>
      </trkpt>
      <trkpt lat="45.93829" lon="4.83691">
        <ele>265</ele>
        <time>2018-02-23T10:22:28Z</time>
      </trkpt>
      <trkpt lat="45.93827" lon="4.83698">
        <ele>266</ele>
        <time>2018-02-23T10:22:29Z</time>
      </trkpt>
      <trkpt lat="45.93825" lon="4.83705">
        <ele>266</ele>
        <time>2018-02-23T10:22:30Z</time>
      </trkpt>
      <trkpt lat="45.93824" lon="4.83712">
        <ele>266</ele>
        <time>2018-02-23T10:22:31Z</time>
      </trkpt>
      <trkpt lat="45.93822" lon="4.8372">
        <ele>266</ele>
        <time>2018-02-23T10:22:32Z</time>
      </trkpt>
      <trkpt lat="45.9382" lon="4.83728">
        <ele>266</ele>
        <time>2018-02-23T10:22:33Z</time>
      </trkpt>
      <trkpt lat="45.93817" lon="4.83735">
        <ele>266</ele>
        <time>2018-02-23T10:22:34Z</time>
      </trkpt>
      <trkpt lat="45.93815" lon="4.83741">
        <ele>266</ele>
        <time>2018-02-23T10:22:35Z</time>
      </trkpt>
      <trkpt lat="45.93813" lon="4.83748">
        <ele>266</ele>
        <time>2018-02-23T10:22:36Z</time>
      </trkpt>
      <trkpt lat="45.93811" lon="4.83755">
        <ele>266</ele>
        <time>2018-02-23T10:22:37Z</time>
      </trkpt>
      <trkpt lat="45.93809" lon="4.83762">
        <ele>266</ele>
        <time>2018-02-23T10:22:38Z</time>
      </trkpt>
      <trkpt lat="45.93807" lon="4.83769">
        <ele>266</ele>
        <time>2018-02-23T10:22:39Z</time>
      </trkpt>
      <trkpt lat="45.93805" lon="4.83776">
        <ele>266</ele>
        <time>2018-02-23T10:22:40Z</time>
      </trkpt>
      <trkpt lat="45.93803" lon="4.83783">
        <ele>266</ele>
        <time>2018-02-23T10:22:41Z</time>
      </trkpt>
      <trkpt lat="45.93801" lon="4.83789">
        <ele>266</ele>
        <time>2018-02-23T10:22:42Z</time>
      </trkpt>
      <trkpt lat="45.93799" lon="4.83796">
        <ele>266</ele>
        <time>2018-02-23T10:22:43Z</time>
      </trkpt>
      <trkpt lat="45.93797" lon="4.83802">
        <ele>266</ele>
        <time>2018-02-23T10:22:44Z</time>
      </trkpt>
      <trkpt lat="45.93795" lon="4.83808">
        <ele>266</ele>
        <time>2018-02-23T10:22:45Z</time>
      </trkpt>
      <trkpt lat="45.93794" lon="4.83815">
        <ele>266</ele>
        <time>2018-02-23T10:22:46Z</time>
      </trkpt>
      <trkpt lat="45.93792" lon="4.83821">
        <ele>266</ele>
        <time>2018-02-23T10:22:47Z</time>
      </trkpt>
      <trkpt lat="45.9379" lon="4.83828">
        <ele>266</ele>
        <time>2018-02-23T10:22:48Z</time>
      </trkpt>
      <trkpt lat="45.93787" lon="4.83835">
        <ele>266</ele>
        <time>2018-02-23T10:22:49Z</time>
      </trkpt>
      <trkpt lat="45.93785" lon="4.83842">
        <ele>266</ele>
        <time>2018-02-23T10:22:50Z</time>
      </trkpt>
      <trkpt lat="45.93782" lon="4.83849">
        <ele>266</ele>
        <time>2018-02-23T10:22:51Z</time>
      </trkpt>
      <trkpt lat="45.93781" lon="4.83855">
        <ele>266</ele>
        <time>2018-02-23T10:22:52Z</time>
      </trkpt>
      <trkpt lat="45.93779" lon="4.83864">
        <ele>266</ele>
        <time>2018-02-23T10:22:53Z</time>
      </trkpt>
      <trkpt lat="45.93779" lon="4.8387">
        <ele>266</ele>
        <time>2018-02-23T10:22:54Z</time>
      </trkpt>
      <trkpt lat="45.93777" lon="4.83877">
        <ele>266</ele>
        <time>2018-02-23T10:22:55Z</time>
      </trkpt>
      <trkpt lat="45.93775" lon="4.83884">
        <ele>266</ele>
        <time>2018-02-23T10:22:56Z</time>
      </trkpt>
      <trkpt lat="45.93774" lon="4.83891">
        <ele>266</ele>
        <time>2018-02-23T10:22:57Z</time>
      </trkpt>
      <trkpt lat="45.93773" lon="4.83897">
        <ele>266</ele>
        <time>2018-02-23T10:22:58Z</time>
      </trkpt>
      <trkpt lat="45.93773" lon="4.83904">
        <ele>266</ele>
        <time>2018-02-23T10:22:59Z</time>
      </trkpt>
      <trkpt lat="45.93771" lon="4.83911">
        <ele>266</ele>
        <time>2018-02-23T10:23:00Z</time>
      </trkpt>
      <trkpt lat="45.9377" lon="4.83918">
        <ele>267</ele>
        <time>2018-02-23T10:23:01Z</time>
      </trkpt>
      <trkpt lat="45.93769" lon="4.83925">
        <ele>267</ele>
        <time>2018-02-23T10:23:02Z</time>
      </trkpt>
      <trkpt lat="45.93768" lon="4.83932">
        <ele>267</ele>
        <time>2018-02-23T10:23:03Z</time>
      </trkpt>
      <trkpt lat="45.93767" lon="4.83939">
        <ele>267</ele>
        <time>2018-02-23T10:23:04Z</time>
      </trkpt>
      <trkpt lat="45.93765" lon="4.83947">
        <ele>267</ele>
        <time>2018-02-23T10:23:05Z</time>
      </trkpt>
      <trkpt lat="45.93764" lon="4.83954">
        <ele>268</ele>
        <time>2018-02-23T10:23:06Z</time>
      </trkpt>
      <trkpt lat="45.93762" lon="4.83961">
        <ele>268</ele>
        <time>2018-02-23T10:23:07Z</time>
      </trkpt>
      <trkpt lat="45.93761" lon="4.83968">
        <ele>268</ele>
        <time>2018-02-23T10:23:08Z</time>
      </trkpt>
      <trkpt lat="45.93759" lon="4.83976">
        <ele>268</ele>
        <time>2018-02-23T10:23:09Z</time>
      </trkpt>
      <trkpt lat="45.93758" lon="4.83984">
        <ele>268</ele>
        <time>2018-02-23T10:23:10Z</time>
      </trkpt>
      <trkpt lat="45.93757" lon="4.83992">
        <ele>269</ele>
        <time>2018-02-23T10:23:11Z</time>
      </trkpt>
      <trkpt lat="45.93757" lon="4.83999">
        <ele>269</ele>
        <time>2018-02-23T10:23:12Z</time>
      </trkpt>
      <trkpt lat="45.93756" lon="4.84006">
        <ele>269</ele>
        <time>2018-02-23T10:23:13Z</time>
      </trkpt>
      <trkpt lat="45.93755" lon="4.84013">
        <ele>269</ele>
        <time>2018-02-23T10:23:14Z</time>
      </trkpt>
      <trkpt lat="45.93753" lon="4.8402">
        <ele>269</ele>
        <time>2018-02-23T10:23:15Z</time>
      </trkpt>
      <trkpt lat="45.93753" lon="4.84027">
        <ele>269</ele>
        <time>2018-02-23T10:23:16Z</time>
      </trkpt>
      <trkpt lat="45.93751" lon="4.84034">
        <ele>269</ele>
        <time>2018-02-23T10:23:17Z</time>
      </trkpt>
      <trkpt lat="45.9375" lon="4.84041">
        <ele>269</ele>
        <time>2018-02-23T10:23:18Z</time>
      </trkpt>
      <trkpt lat="45.93749" lon="4.84049">
        <ele>270</ele>
        <time>2018-02-23T10:23:19Z</time>
      </trkpt>
      <trkpt lat="45.93748" lon="4.84056">
        <ele>270</ele>
        <time>2018-02-23T10:23:20Z</time>
      </trkpt>
      <trkpt lat="45.93748" lon="4.84063">
        <ele>270</ele>
        <time>2018-02-23T10:23:21Z</time>
      </trkpt>
      <trkpt lat="45.93748" lon="4.84071">
        <ele>270</ele>
        <time>2018-02-23T10:23:22Z</time>
      </trkpt>
      <trkpt lat="45.93747" lon="4.84079">
        <ele>270</ele>
        <time>2018-02-23T10:23:23Z</time>
      </trkpt>
      <trkpt lat="45.93747" lon="4.84088">
        <ele>270</ele>
        <time>2018-02-23T10:23:24Z</time>
      </trkpt>
      <trkpt lat="45.93746" lon="4.84096">
        <ele>270</ele>
        <time>2018-02-23T10:23:25Z</time>
      </trkpt>
      <trkpt lat="45.93745" lon="4.84105">
        <ele>270</ele>
        <time>2018-02-23T10:23:26Z</time>
      </trkpt>
      <trkpt lat="45.93745" lon="4.84114">
        <ele>270</ele>
        <time>2018-02-23T10:23:27Z</time>
      </trkpt>
      <trkpt lat="45.93744" lon="4.84122">
        <ele>270</ele>
        <time>2018-02-23T10:23:28Z</time>
      </trkpt>
      <trkpt lat="45.93744" lon="4.8413">
        <ele>270</ele>
        <time>2018-02-23T10:23:29Z</time>
      </trkpt>
      <trkpt lat="45.93744" lon="4.8414">
        <ele>270</ele>
        <time>2018-02-23T10:23:30Z</time>
      </trkpt>
      <trkpt lat="45.93744" lon="4.84149">
        <ele>270</ele>
        <time>2018-02-23T10:23:31Z</time>
      </trkpt>
      <trkpt lat="45.93745" lon="4.84157">
        <ele>270</ele>
        <time>2018-02-23T10:23:32Z</time>
      </trkpt>
      <trkpt lat="45.93745" lon="4.84165">
        <ele>270</ele>
        <time>2018-02-23T10:23:33Z</time>
      </trkpt>
      <trkpt lat="45.93745" lon="4.84174">
        <ele>270</ele>
        <time>2018-02-23T10:23:34Z</time>
      </trkpt>
      <trkpt lat="45.93745" lon="4.84182">
        <ele>270</ele>
        <time>2018-02-23T10:23:35Z</time>
      </trkpt>
      <trkpt lat="45.93745" lon="4.84189">
        <ele>270</ele>
        <time>2018-02-23T10:23:36Z</time>
      </trkpt>
      <trkpt lat="45.93746" lon="4.84197">
        <ele>270</ele>
        <time>2018-02-23T10:23:37Z</time>
      </trkpt>
      <trkpt lat="45.93746" lon="4.84205">
        <ele>270</ele>
        <time>2018-02-23T10:23:38Z</time>
      </trkpt>
      <trkpt lat="45.93746" lon="4.84212">
        <ele>270</ele>
        <time>2018-02-23T10:23:39Z</time>
      </trkpt>
      <trkpt lat="45.93746" lon="4.8422">
        <ele>270</ele>
        <time>2018-02-23T10:23:40Z</time>
      </trkpt>
      <trkpt lat="45.93747" lon="4.84228">
        <ele>269</ele>
        <time>2018-02-23T10:23:41Z</time>
      </trkpt>
      <trkpt lat="45.93748" lon="4.84235">
        <ele>269</ele>
        <time>2018-02-23T10:23:42Z</time>
      </trkpt>
      <trkpt lat="45.93749" lon="4.84242">
        <ele>269</ele>
        <time>2018-02-23T10:23:43Z</time>
      </trkpt>
      <trkpt lat="45.93749" lon="4.8425">
        <ele>269</ele>
        <time>2018-02-23T10:23:44Z</time>
      </trkpt>
      <trkpt lat="45.9375" lon="4.84258">
        <ele>269</ele>
        <time>2018-02-23T10:23:45Z</time>
      </trkpt>
      <trkpt lat="45.93751" lon="4.84265">
        <ele>269</ele>
        <time>2018-02-23T10:23:46Z</time>
      </trkpt>
      <trkpt lat="45.93753" lon="4.84273">
        <ele>268</ele>
        <time>2018-02-23T10:23:47Z</time>
      </trkpt>
      <trkpt lat="45.93754" lon="4.8428">
        <ele>268</ele>
        <time>2018-02-23T10:23:48Z</time>
      </trkpt>
      <trkpt lat="45.93755" lon="4.84287">
        <ele>268</ele>
        <time>2018-02-23T10:23:49Z</time>
      </trkpt>
      <trkpt lat="45.93757" lon="4.84295">
        <ele>268</ele>
        <time>2018-02-23T10:23:50Z</time>
      </trkpt>
      <trkpt lat="45.93759" lon="4.84302">
        <ele>268</ele>
        <time>2018-02-23T10:23:51Z</time>
      </trkpt>
      <trkpt lat="45.9376" lon="4.84309">
        <ele>268</ele>
        <time>2018-02-23T10:23:52Z</time>
      </trkpt>
      <trkpt lat="45.93761" lon="4.84316">
        <ele>268</ele>
        <time>2018-02-23T10:23:53Z</time>
      </trkpt>
      <trkpt lat="45.93763" lon="4.84323">
        <ele>269</ele>
        <time>2018-02-23T10:23:54Z</time>
      </trkpt>
      <trkpt lat="45.93764" lon="4.84331">
        <ele>269</ele>
        <time>2018-02-23T10:23:55Z</time>
      </trkpt>
      <trkpt lat="45.93765" lon="4.84338">
        <ele>269</ele>
        <time>2018-02-23T10:23:56Z</time>
      </trkpt>
      <trkpt lat="45.93766" lon="4.84344">
        <ele>269</ele>
        <time>2018-02-23T10:23:57Z</time>
      </trkpt>
      <trkpt lat="45.93766" lon="4.84353">
        <ele>269</ele>
        <time>2018-02-23T10:23:58Z</time>
      </trkpt>
      <trkpt lat="45.93767" lon="4.84359">
        <ele>268</ele>
        <time>2018-02-23T10:23:59Z</time>
      </trkpt>
      <trkpt lat="45.93769" lon="4.84367">
        <ele>268</ele>
        <time>2018-02-23T10:24:00Z</time>
      </trkpt>
      <trkpt lat="45.9377" lon="4.84373">
        <ele>268</ele>
        <time>2018-02-23T10:24:01Z</time>
      </trkpt>
      <trkpt lat="45.93771" lon="4.84379">
        <ele>268</ele>
        <time>2018-02-23T10:24:02Z</time>
      </trkpt>
      <trkpt lat="45.93773" lon="4.84387">
        <ele>268</ele>
        <time>2018-02-23T10:24:03Z</time>
      </trkpt>
      <trkpt lat="45.93774" lon="4.84393">
        <ele>268</ele>
        <time>2018-02-23T10:24:04Z</time>
      </trkpt>
      <trkpt lat="45.93775" lon="4.84401">
        <ele>268</ele>
        <time>2018-02-23T10:24:05Z</time>
      </trkpt>
      <trkpt lat="45.93776" lon="4.84409">
        <ele>269</ele>
        <time>2018-02-23T10:24:06Z</time>
      </trkpt>
      <trkpt lat="45.93777" lon="4.84415">
        <ele>269</ele>
        <time>2018-02-23T10:24:07Z</time>
      </trkpt>
      <trkpt lat="45.93778" lon="4.84421">
        <ele>269</ele>
        <time>2018-02-23T10:24:08Z</time>
      </trkpt>
      <trkpt lat="45.93779" lon="4.84427">
        <ele>269</ele>
        <time>2018-02-23T10:24:09Z</time>
      </trkpt>
      <trkpt lat="45.9378" lon="4.84434">
        <ele>269</ele>
        <time>2018-02-23T10:24:10Z</time>
      </trkpt>
      <trkpt lat="45.93781" lon="4.84441">
        <ele>269</ele>
        <time>2018-02-23T10:24:11Z</time>
      </trkpt>
      <trkpt lat="45.93782" lon="4.84448">
        <ele>269</ele>
        <time>2018-02-23T10:24:12Z</time>
      </trkpt>
      <trkpt lat="45.93783" lon="4.84455">
        <ele>269</ele>
        <time>2018-02-23T10:24:13Z</time>
      </trkpt>
      <trkpt lat="45.93784" lon="4.84464">
        <ele>269</ele>
        <time>2018-02-23T10:24:14Z</time>
      </trkpt>
      <trkpt lat="45.93785" lon="4.8447">
        <ele>269</ele>
        <time>2018-02-23T10:24:15Z</time>
      </trkpt>
      <trkpt lat="45.93786" lon="4.84478">
        <ele>269</ele>
        <time>2018-02-23T10:24:16Z</time>
      </trkpt>
      <trkpt lat="45.93787" lon="4.84485">
        <ele>269</ele>
        <time>2018-02-23T10:24:17Z</time>
      </trkpt>
      <trkpt lat="45.93788" lon="4.84492">
        <ele>269</ele>
        <time>2018-02-23T10:24:18Z</time>
      </trkpt>
      <trkpt lat="45.9379" lon="4.84499">
        <ele>269</ele>
        <time>2018-02-23T10:24:19Z</time>
      </trkpt>
      <trkpt lat="45.93791" lon="4.84506">
        <ele>270</ele>
        <time>2018-02-23T10:24:20Z</time>
      </trkpt>
      <trkpt lat="45.93792" lon="4.84514">
        <ele>270</ele>
        <time>2018-02-23T10:24:21Z</time>
      </trkpt>
      <trkpt lat="45.93793" lon="4.84521">
        <ele>270</ele>
        <time>2018-02-23T10:24:22Z</time>
      </trkpt>
      <trkpt lat="45.93795" lon="4.84529">
        <ele>270</ele>
        <time>2018-02-23T10:24:23Z</time>
      </trkpt>
      <trkpt lat="45.93797" lon="4.84537">
        <ele>270</ele>
        <time>2018-02-23T10:24:24Z</time>
      </trkpt>
      <trkpt lat="45.93799" lon="4.84544">
        <ele>270</ele>
        <time>2018-02-23T10:24:25Z</time>
      </trkpt>
      <trkpt lat="45.938" lon="4.84552">
        <ele>270</ele>
        <time>2018-02-23T10:24:26Z</time>
      </trkpt>
      <trkpt lat="45.93801" lon="4.8456">
        <ele>270</ele>
        <time>2018-02-23T10:24:27Z</time>
      </trkpt>
      <trkpt lat="45.93802" lon="4.84567">
        <ele>270</ele>
        <time>2018-02-23T10:24:28Z</time>
      </trkpt>
      <trkpt lat="45.93803" lon="4.84575">
        <ele>270</ele>
        <time>2018-02-23T10:24:29Z</time>
      </trkpt>
      <trkpt lat="45.93804" lon="4.84582">
        <ele>270</ele>
        <time>2018-02-23T10:24:30Z</time>
      </trkpt>
      <trkpt lat="45.93805" lon="4.8459">
        <ele>271</ele>
        <time>2018-02-23T10:24:31Z</time>
      </trkpt>
      <trkpt lat="45.93807" lon="4.84596">
        <ele>271</ele>
        <time>2018-02-23T10:24:32Z</time>
      </trkpt>
      <trkpt lat="45.93807" lon="4.84604">
        <ele>271</ele>
        <time>2018-02-23T10:24:33Z</time>
      </trkpt>
      <trkpt lat="45.93809" lon="4.84611">
        <ele>271</ele>
        <time>2018-02-23T10:24:34Z</time>
      </trkpt>
      <trkpt lat="45.93811" lon="4.84618">
        <ele>271</ele>
        <time>2018-02-23T10:24:35Z</time>
      </trkpt>
      <trkpt lat="45.93811" lon="4.84626">
        <ele>271</ele>
        <time>2018-02-23T10:24:36Z</time>
      </trkpt>
      <trkpt lat="45.93813" lon="4.84633">
        <ele>271</ele>
        <time>2018-02-23T10:24:37Z</time>
      </trkpt>
      <trkpt lat="45.93814" lon="4.84639">
        <ele>271</ele>
        <time>2018-02-23T10:24:38Z</time>
      </trkpt>
      <trkpt lat="45.93815" lon="4.84646">
        <ele>271</ele>
        <time>2018-02-23T10:24:39Z</time>
      </trkpt>
      <trkpt lat="45.93816" lon="4.84654">
        <ele>271</ele>
        <time>2018-02-23T10:24:40Z</time>
      </trkpt>
      <trkpt lat="45.93817" lon="4.84662">
        <ele>271</ele>
        <time>2018-02-23T10:24:41Z</time>
      </trkpt>
      <trkpt lat="45.93817" lon="4.84668">
        <ele>271</ele>
        <time>2018-02-23T10:24:42Z</time>
      </trkpt>
      <trkpt lat="45.93819" lon="4.84675">
        <ele>271</ele>
        <time>2018-02-23T10:24:43Z</time>
      </trkpt>
      <trkpt lat="45.9382" lon="4.84681">
        <ele>271</ele>
        <time>2018-02-23T10:24:44Z</time>
      </trkpt>
      <trkpt lat="45.93821" lon="4.84688">
        <ele>271</ele>
        <time>2018-02-23T10:24:45Z</time>
      </trkpt>
      <trkpt lat="45.93822" lon="4.84694">
        <ele>271</ele>
        <time>2018-02-23T10:24:46Z</time>
      </trkpt>
      <trkpt lat="45.93824" lon="4.84701">
        <ele>271</ele>
        <time>2018-02-23T10:24:47Z</time>
      </trkpt>
      <trkpt lat="45.93825" lon="4.84708">
        <ele>271</ele>
        <time>2018-02-23T10:24:48Z</time>
      </trkpt>
      <trkpt lat="45.93827" lon="4.84714">
        <ele>271</ele>
        <time>2018-02-23T10:24:49Z</time>
      </trkpt>
      <trkpt lat="45.93827" lon="4.84722">
        <ele>271</ele>
        <time>2018-02-23T10:24:50Z</time>
      </trkpt>
      <trkpt lat="45.93828" lon="4.84729">
        <ele>271</ele>
        <time>2018-02-23T10:24:51Z</time>
      </trkpt>
      <trkpt lat="45.93829" lon="4.84735">
        <ele>271</ele>
        <time>2018-02-23T10:24:52Z</time>
      </trkpt>
      <trkpt lat="45.9383" lon="4.84742">
        <ele>271</ele>
        <time>2018-02-23T10:24:53Z</time>
      </trkpt>
      <trkpt lat="45.93832" lon="4.84754">
        <ele>271</ele>
        <time>2018-02-23T10:24:55Z</time>
      </trkpt>
      <trkpt lat="45.93832" lon="4.8476">
        <ele>271</ele>
        <time>2018-02-23T10:24:56Z</time>
      </trkpt>
      <trkpt lat="45.93835" lon="4.84771">
        <ele>270</ele>
        <time>2018-02-23T10:24:58Z</time>
      </trkpt>
      <trkpt lat="45.93836" lon="4.84778">
        <ele>270</ele>
        <time>2018-02-23T10:24:59Z</time>
      </trkpt>
      <trkpt lat="45.9384" lon="4.84789">
        <ele>270</ele>
        <time>2018-02-23T10:25:01Z</time>
      </trkpt>
      <trkpt lat="45.93841" lon="4.84795">
        <ele>270</ele>
        <time>2018-02-23T10:25:02Z</time>
      </trkpt>
      <trkpt lat="45.93843" lon="4.84808">
        <ele>270</ele>
        <time>2018-02-23T10:25:04Z</time>
      </trkpt>
      <trkpt lat="45.93844" lon="4.84814">
        <ele>270</ele>
        <time>2018-02-23T10:25:05Z</time>
      </trkpt>
      <trkpt lat="45.93845" lon="4.84821">
        <ele>271</ele>
        <time>2018-02-23T10:25:06Z</time>
      </trkpt>
      <trkpt lat="45.93846" lon="4.84827">
        <ele>271</ele>
        <time>2018-02-23T10:25:07Z</time>
      </trkpt>
      <trkpt lat="45.93847" lon="4.84833">
        <ele>271</ele>
        <time>2018-02-23T10:25:08Z</time>
      </trkpt>
      <trkpt lat="45.93848" lon="4.8484">
        <ele>271</ele>
        <time>2018-02-23T10:25:09Z</time>
      </trkpt>
      <trkpt lat="45.93849" lon="4.84847">
        <ele>271</ele>
        <time>2018-02-23T10:25:10Z</time>
      </trkpt>
      <trkpt lat="45.93849" lon="4.84854">
        <ele>271</ele>
        <time>2018-02-23T10:25:11Z</time>
      </trkpt>
      <trkpt lat="45.9385" lon="4.8486">
        <ele>270</ele>
        <time>2018-02-23T10:25:12Z</time>
      </trkpt>
      <trkpt lat="45.9385" lon="4.84867">
        <ele>270</ele>
        <time>2018-02-23T10:25:13Z</time>
      </trkpt>
      <trkpt lat="45.9385" lon="4.84874">
        <ele>270</ele>
        <time>2018-02-23T10:25:14Z</time>
      </trkpt>
      <trkpt lat="45.93851" lon="4.84882">
        <ele>270</ele>
        <time>2018-02-23T10:25:15Z</time>
      </trkpt>
      <trkpt lat="45.93852" lon="4.84894">
        <ele>271</ele>
        <time>2018-02-23T10:25:17Z</time>
      </trkpt>
      <trkpt lat="45.93852" lon="4.84901">
        <ele>271</ele>
        <time>2018-02-23T10:25:18Z</time>
      </trkpt>
      <trkpt lat="45.93852" lon="4.84907">
        <ele>271</ele>
        <time>2018-02-23T10:25:19Z</time>
      </trkpt>
      <trkpt lat="45.93853" lon="4.84914">
        <ele>271</ele>
        <time>2018-02-23T10:25:20Z</time>
      </trkpt>
      <trkpt lat="45.93853" lon="4.84926">
        <ele>271</ele>
        <time>2018-02-23T10:25:22Z</time>
      </trkpt>
      <trkpt lat="45.93854" lon="4.84933">
        <ele>271</ele>
        <time>2018-02-23T10:25:23Z</time>
      </trkpt>
      <trkpt lat="45.93855" lon="4.84939">
        <ele>271</ele>
        <time>2018-02-23T10:25:24Z</time>
      </trkpt>
      <trkpt lat="45.93855" lon="4.84946">
        <ele>271</ele>
        <time>2018-02-23T10:25:25Z</time>
      </trkpt>
      <trkpt lat="45.93855" lon="4.84952">
        <ele>272</ele>
        <time>2018-02-23T10:25:26Z</time>
      </trkpt>
      <trkpt lat="45.93856" lon="4.84959">
        <ele>272</ele>
        <time>2018-02-23T10:25:27Z</time>
      </trkpt>
      <trkpt lat="45.93857" lon="4.84972">
        <ele>272</ele>
        <time>2018-02-23T10:25:29Z</time>
      </trkpt>
      <trkpt lat="45.93857" lon="4.84979">
        <ele>272</ele>
        <time>2018-02-23T10:25:30Z</time>
      </trkpt>
      <trkpt lat="45.93857" lon="4.84985">
        <ele>272</ele>
        <time>2018-02-23T10:25:31Z</time>
      </trkpt>
      <trkpt lat="45.93858" lon="4.84992">
        <ele>272</ele>
        <time>2018-02-23T10:25:32Z</time>
      </trkpt>
      <trkpt lat="45.93858" lon="4.84999">
        <ele>272</ele>
        <time>2018-02-23T10:25:33Z</time>
      </trkpt>
      <trkpt lat="45.9386" lon="4.85006">
        <ele>273</ele>
        <time>2018-02-23T10:25:34Z</time>
      </trkpt>
      <trkpt lat="45.9386" lon="4.85013">
        <ele>273</ele>
        <time>2018-02-23T10:25:35Z</time>
      </trkpt>
      <trkpt lat="45.9386" lon="4.8502">
        <ele>273</ele>
        <time>2018-02-23T10:25:36Z</time>
      </trkpt>
      <trkpt lat="45.9386" lon="4.85027">
        <ele>273</ele>
        <time>2018-02-23T10:25:37Z</time>
      </trkpt>
      <trkpt lat="45.9386" lon="4.85035">
        <ele>273</ele>
        <time>2018-02-23T10:25:38Z</time>
      </trkpt>
      <trkpt lat="45.9386" lon="4.85042">
        <ele>273</ele>
        <time>2018-02-23T10:25:39Z</time>
      </trkpt>
      <trkpt lat="45.93861" lon="4.8505">
        <ele>273</ele>
        <time>2018-02-23T10:25:40Z</time>
      </trkpt>
      <trkpt lat="45.93862" lon="4.85057">
        <ele>273</ele>
        <time>2018-02-23T10:25:41Z</time>
      </trkpt>
      <trkpt lat="45.93862" lon="4.85063">
        <ele>273</ele>
        <time>2018-02-23T10:25:42Z</time>
      </trkpt>
      <trkpt lat="45.93863" lon="4.8507">
        <ele>273</ele>
        <time>2018-02-23T10:25:43Z</time>
      </trkpt>
      <trkpt lat="45.93864" lon="4.85076">
        <ele>273</ele>
        <time>2018-02-23T10:25:44Z</time>
      </trkpt>
      <trkpt lat="45.93865" lon="4.85083">
        <ele>273</ele>
        <time>2018-02-23T10:25:45Z</time>
      </trkpt>
      <trkpt lat="45.93865" lon="4.8509">
        <ele>274</ele>
        <time>2018-02-23T10:25:46Z</time>
      </trkpt>
      <trkpt lat="45.93866" lon="4.85103">
        <ele>274</ele>
        <time>2018-02-23T10:25:48Z</time>
      </trkpt>
      <trkpt lat="45.93866" lon="4.8511">
        <ele>274</ele>
        <time>2018-02-23T10:25:49Z</time>
      </trkpt>
      <trkpt lat="45.93868" lon="4.85117">
        <ele>274</ele>
        <time>2018-02-23T10:25:50Z</time>
      </trkpt>
      <trkpt lat="45.93868" lon="4.85123">
        <ele>274</ele>
        <time>2018-02-23T10:25:51Z</time>
      </trkpt>
      <trkpt lat="45.93868" lon="4.85135">
        <ele>274</ele>
        <time>2018-02-23T10:25:53Z</time>
      </trkpt>
      <trkpt lat="45.93868" lon="4.85142">
        <ele>274</ele>
        <time>2018-02-23T10:25:54Z</time>
      </trkpt>
      <trkpt lat="45.93869" lon="4.85154">
        <ele>275</ele>
        <time>2018-02-23T10:25:56Z</time>
      </trkpt>
      <trkpt lat="45.9387" lon="4.85162">
        <ele>275</ele>
        <time>2018-02-23T10:25:57Z</time>
      </trkpt>
      <trkpt lat="45.9387" lon="4.85174">
        <ele>276</ele>
        <time>2018-02-23T10:25:59Z</time>
      </trkpt>
      <trkpt lat="45.93871" lon="4.8518">
        <ele>276</ele>
        <time>2018-02-23T10:26:00Z</time>
      </trkpt>
      <trkpt lat="45.93871" lon="4.85187">
        <ele>276</ele>
        <time>2018-02-23T10:26:01Z</time>
      </trkpt>
      <trkpt lat="45.93871" lon="4.85193">
        <ele>276</ele>
        <time>2018-02-23T10:26:02Z</time>
      </trkpt>
      <trkpt lat="45.93872" lon="4.85205">
        <ele>276</ele>
        <time>2018-02-23T10:26:04Z</time>
      </trkpt>
      <trkpt lat="45.93872" lon="4.8521">
        <ele>276</ele>
        <time>2018-02-23T10:26:05Z</time>
      </trkpt>
      <trkpt lat="45.93872" lon="4.85217">
        <ele>276</ele>
        <time>2018-02-23T10:26:06Z</time>
      </trkpt>
      <trkpt lat="45.93873" lon="4.85224">
        <ele>276</ele>
        <time>2018-02-23T10:26:07Z</time>
      </trkpt>
      <trkpt lat="45.93873" lon="4.85236">
        <ele>276</ele>
        <time>2018-02-23T10:26:09Z</time>
      </trkpt>
      <trkpt lat="45.93873" lon="4.85242">
        <ele>276</ele>
        <time>2018-02-23T10:26:10Z</time>
      </trkpt>
      <trkpt lat="45.93874" lon="4.85254">
        <ele>278</ele>
        <time>2018-02-23T10:26:12Z</time>
      </trkpt>
      <trkpt lat="45.93874" lon="4.8526">
        <ele>278</ele>
        <time>2018-02-23T10:26:13Z</time>
      </trkpt>
      <trkpt lat="45.93874" lon="4.85272">
        <ele>278</ele>
        <time>2018-02-23T10:26:15Z</time>
      </trkpt>
      <trkpt lat="45.93874" lon="4.85279">
        <ele>278</ele>
        <time>2018-02-23T10:26:16Z</time>
      </trkpt>
      <trkpt lat="45.93873" lon="4.85291">
        <ele>278</ele>
        <time>2018-02-23T10:26:18Z</time>
      </trkpt>
      <trkpt lat="45.93872" lon="4.85297">
        <ele>278</ele>
        <time>2018-02-23T10:26:19Z</time>
      </trkpt>
      <trkpt lat="45.93871" lon="4.85308">
        <ele>279</ele>
        <time>2018-02-23T10:26:21Z</time>
      </trkpt>
      <trkpt lat="45.9387" lon="4.85313">
        <ele>279</ele>
        <time>2018-02-23T10:26:22Z</time>
      </trkpt>
      <trkpt lat="45.93868" lon="4.85324">
        <ele>279</ele>
        <time>2018-02-23T10:26:24Z</time>
      </trkpt>
      <trkpt lat="45.93866" lon="4.85329">
        <ele>279</ele>
        <time>2018-02-23T10:26:25Z</time>
      </trkpt>
      <trkpt lat="45.93863" lon="4.85339">
        <ele>281</ele>
        <time>2018-02-23T10:26:27Z</time>
      </trkpt>
      <trkpt lat="45.93861" lon="4.85344">
        <ele>281</ele>
        <time>2018-02-23T10:26:28Z</time>
      </trkpt>
      <trkpt lat="45.93858" lon="4.85355">
        <ele>281</ele>
        <time>2018-02-23T10:26:30Z</time>
      </trkpt>
      <trkpt lat="45.93857" lon="4.8536">
        <ele>281</ele>
        <time>2018-02-23T10:26:31Z</time>
      </trkpt>
      <trkpt lat="45.93854" lon="4.8537">
        <ele>281</ele>
        <time>2018-02-23T10:26:33Z</time>
      </trkpt>
      <trkpt lat="45.93853" lon="4.85375">
        <ele>281</ele>
        <time>2018-02-23T10:26:34Z</time>
      </trkpt>
      <trkpt lat="45.9385" lon="4.85385">
        <ele>281</ele>
        <time>2018-02-23T10:26:36Z</time>
      </trkpt>
      <trkpt lat="45.9385" lon="4.85388">
        <ele>281</ele>
        <time>2018-02-23T10:26:37Z</time>
      </trkpt>
      <trkpt lat="45.93848" lon="4.85398">
        <ele>281</ele>
        <time>2018-02-23T10:26:40Z</time>
      </trkpt>
      <trkpt lat="45.93847" lon="4.85401">
        <ele>281</ele>
        <time>2018-02-23T10:26:41Z</time>
      </trkpt>
      <trkpt lat="45.93845" lon="4.8541">
        <ele>282</ele>
        <time>2018-02-23T10:26:43Z</time>
      </trkpt>
      <trkpt lat="45.93844" lon="4.85414">
        <ele>282</ele>
        <time>2018-02-23T10:26:44Z</time>
      </trkpt>
      <trkpt lat="45.93842" lon="4.85423">
        <ele>282</ele>
        <time>2018-02-23T10:26:46Z</time>
      </trkpt>
      <trkpt lat="45.93839" lon="4.85436">
        <ele>283</ele>
        <time>2018-02-23T10:26:47Z</time>
      </trkpt>
      <trkpt lat="45.93836" lon="4.85447">
        <ele>283</ele>
        <time>2018-02-23T10:26:49Z</time>
      </trkpt>
      <trkpt lat="45.93835" lon="4.85453">
        <ele>283</ele>
        <time>2018-02-23T10:26:50Z</time>
      </trkpt>
      <trkpt lat="45.93832" lon="4.85465">
        <ele>282</ele>
        <time>2018-02-23T10:26:52Z</time>
      </trkpt>
      <trkpt lat="45.93831" lon="4.85471">
        <ele>282</ele>
        <time>2018-02-23T10:26:53Z</time>
      </trkpt>
      <trkpt lat="45.93829" lon="4.85483">
        <ele>282</ele>
        <time>2018-02-23T10:26:55Z</time>
      </trkpt>
      <trkpt lat="45.93828" lon="4.85489">
        <ele>282</ele>
        <time>2018-02-23T10:26:56Z</time>
      </trkpt>
      <trkpt lat="45.93826" lon="4.85501">
        <ele>283</ele>
        <time>2018-02-23T10:26:58Z</time>
      </trkpt>
      <trkpt lat="45.93825" lon="4.85508">
        <ele>283</ele>
        <time>2018-02-23T10:26:59Z</time>
      </trkpt>
      <trkpt lat="45.93825" lon="4.85514">
        <ele>282</ele>
        <time>2018-02-23T10:27:00Z</time>
      </trkpt>
      <trkpt lat="45.93824" lon="4.85521">
        <ele>282</ele>
        <time>2018-02-23T10:27:01Z</time>
      </trkpt>
      <trkpt lat="45.93823" lon="4.85527">
        <ele>282</ele>
        <time>2018-02-23T10:27:02Z</time>
      </trkpt>
      <trkpt lat="45.93822" lon="4.85534">
        <ele>282</ele>
        <time>2018-02-23T10:27:03Z</time>
      </trkpt>
      <trkpt lat="45.93822" lon="4.85541">
        <ele>282</ele>
        <time>2018-02-23T10:27:04Z</time>
      </trkpt>
      <trkpt lat="45.9382" lon="4.85547">
        <ele>282</ele>
        <time>2018-02-23T10:27:05Z</time>
      </trkpt>
      <trkpt lat="45.93819" lon="4.85554">
        <ele>282</ele>
        <time>2018-02-23T10:27:06Z</time>
      </trkpt>
      <trkpt lat="45.93818" lon="4.85561">
        <ele>283</ele>
        <time>2018-02-23T10:27:07Z</time>
      </trkpt>
      <trkpt lat="45.93817" lon="4.85568">
        <ele>283</ele>
        <time>2018-02-23T10:27:08Z</time>
      </trkpt>
      <trkpt lat="45.93817" lon="4.85576">
        <ele>283</ele>
        <time>2018-02-23T10:27:09Z</time>
      </trkpt>
      <trkpt lat="45.93816" lon="4.85584">
        <ele>283</ele>
        <time>2018-02-23T10:27:10Z</time>
      </trkpt>
      <trkpt lat="45.93816" lon="4.85591">
        <ele>283</ele>
        <time>2018-02-23T10:27:11Z</time>
      </trkpt>
      <trkpt lat="45.93815" lon="4.85598">
        <ele>283</ele>
        <time>2018-02-23T10:27:12Z</time>
      </trkpt>
      <trkpt lat="45.93815" lon="4.85604">
        <ele>283</ele>
        <time>2018-02-23T10:27:13Z</time>
      </trkpt>
      <trkpt lat="45.93815" lon="4.85616">
        <ele>283</ele>
        <time>2018-02-23T10:27:15Z</time>
      </trkpt>
      <trkpt lat="45.93815" lon="4.85621">
        <ele>283</ele>
        <time>2018-02-23T10:27:16Z</time>
      </trkpt>
      <trkpt lat="45.93813" lon="4.85632">
        <ele>283</ele>
        <time>2018-02-23T10:27:18Z</time>
      </trkpt>
      <trkpt lat="45.93813" lon="4.85638">
        <ele>283</ele>
        <time>2018-02-23T10:27:19Z</time>
      </trkpt>
      <trkpt lat="45.93814" lon="4.85649">
        <ele>283</ele>
        <time>2018-02-23T10:27:21Z</time>
      </trkpt>
      <trkpt lat="45.93815" lon="4.85655">
        <ele>283</ele>
        <time>2018-02-23T10:27:22Z</time>
      </trkpt>
      <trkpt lat="45.93815" lon="4.85666">
        <ele>283</ele>
        <time>2018-02-23T10:27:24Z</time>
      </trkpt>
      <trkpt lat="45.93816" lon="4.85671">
        <ele>283</ele>
        <time>2018-02-23T10:27:25Z</time>
      </trkpt>
      <trkpt lat="45.93817" lon="4.85682">
        <ele>283</ele>
        <time>2018-02-23T10:27:27Z</time>
      </trkpt>
      <trkpt lat="45.93818" lon="4.85688">
        <ele>283</ele>
        <time>2018-02-23T10:27:28Z</time>
      </trkpt>
      <trkpt lat="45.9382" lon="4.857">
        <ele>283</ele>
        <time>2018-02-23T10:27:30Z</time>
      </trkpt>
      <trkpt lat="45.93821" lon="4.85706">
        <ele>283</ele>
        <time>2018-02-23T10:27:31Z</time>
      </trkpt>
      <trkpt lat="45.93823" lon="4.85718">
        <ele>283</ele>
        <time>2018-02-23T10:27:33Z</time>
      </trkpt>
      <trkpt lat="45.93824" lon="4.85725">
        <ele>283</ele>
        <time>2018-02-23T10:27:34Z</time>
      </trkpt>
      <trkpt lat="45.93826" lon="4.85737">
        <ele>283</ele>
        <time>2018-02-23T10:27:36Z</time>
      </trkpt>
      <trkpt lat="45.93827" lon="4.85743">
        <ele>283</ele>
        <time>2018-02-23T10:27:37Z</time>
      </trkpt>
      <trkpt lat="45.93827" lon="4.8575">
        <ele>283</ele>
        <time>2018-02-23T10:27:38Z</time>
      </trkpt>
      <trkpt lat="45.93828" lon="4.85757">
        <ele>283</ele>
        <time>2018-02-23T10:27:39Z</time>
      </trkpt>
      <trkpt lat="45.9383" lon="4.8577">
        <ele>283</ele>
        <time>2018-02-23T10:27:41Z</time>
      </trkpt>
      <trkpt lat="45.9383" lon="4.85777">
        <ele>283</ele>
        <time>2018-02-23T10:27:42Z</time>
      </trkpt>
      <trkpt lat="45.93831" lon="4.85783">
        <ele>283</ele>
        <time>2018-02-23T10:27:43Z</time>
      </trkpt>
      <trkpt lat="45.93833" lon="4.8579">
        <ele>283</ele>
        <time>2018-02-23T10:27:44Z</time>
      </trkpt>
      <trkpt lat="45.93835" lon="4.85802">
        <ele>284</ele>
        <time>2018-02-23T10:27:46Z</time>
      </trkpt>
      <trkpt lat="45.93836" lon="4.85808">
        <ele>284</ele>
        <time>2018-02-23T10:27:47Z</time>
      </trkpt>
      <trkpt lat="45.93837" lon="4.8582">
        <ele>283</ele>
        <time>2018-02-23T10:27:49Z</time>
      </trkpt>
      <trkpt lat="45.93838" lon="4.85826">
        <ele>283</ele>
        <time>2018-02-23T10:27:50Z</time>
      </trkpt>
      <trkpt lat="45.9384" lon="4.85833">
        <ele>283</ele>
        <time>2018-02-23T10:27:51Z</time>
      </trkpt>
      <trkpt lat="45.93841" lon="4.85839">
        <ele>283</ele>
        <time>2018-02-23T10:27:52Z</time>
      </trkpt>
      <trkpt lat="45.93842" lon="4.85846">
        <ele>284</ele>
        <time>2018-02-23T10:27:53Z</time>
      </trkpt>
      <trkpt lat="45.93843" lon="4.85852">
        <ele>284</ele>
        <time>2018-02-23T10:27:54Z</time>
      </trkpt>
      <trkpt lat="45.93843" lon="4.85859">
        <ele>284</ele>
        <time>2018-02-23T10:27:55Z</time>
      </trkpt>
      <trkpt lat="45.93845" lon="4.85866">
        <ele>284</ele>
        <time>2018-02-23T10:27:56Z</time>
      </trkpt>
      <trkpt lat="45.93846" lon="4.85872">
        <ele>284</ele>
        <time>2018-02-23T10:27:57Z</time>
      </trkpt>
      <trkpt lat="45.93847" lon="4.8588">
        <ele>284</ele>
        <time>2018-02-23T10:27:58Z</time>
      </trkpt>
      <trkpt lat="45.93847" lon="4.85892">
        <ele>284</ele>
        <time>2018-02-23T10:28:00Z</time>
      </trkpt>
      <trkpt lat="45.93848" lon="4.85899">
        <ele>284</ele>
        <time>2018-02-23T10:28:01Z</time>
      </trkpt>
      <trkpt lat="45.9385" lon="4.85912">
        <ele>285</ele>
        <time>2018-02-23T10:28:03Z</time>
      </trkpt>
      <trkpt lat="45.93851" lon="4.85917">
        <ele>285</ele>
        <time>2018-02-23T10:28:04Z</time>
      </trkpt>
      <trkpt lat="45.93852" lon="4.85928">
        <ele>285</ele>
        <time>2018-02-23T10:28:06Z</time>
      </trkpt>
      <trkpt lat="45.93853" lon="4.85935">
        <ele>285</ele>
        <time>2018-02-23T10:28:07Z</time>
      </trkpt>
      <trkpt lat="45.93854" lon="4.85947">
        <ele>284</ele>
        <time>2018-02-23T10:28:09Z</time>
      </trkpt>
      <trkpt lat="45.93854" lon="4.85952">
        <ele>284</ele>
        <time>2018-02-23T10:28:10Z</time>
      </trkpt>
      <trkpt lat="45.93856" lon="4.85965">
        <ele>284</ele>
        <time>2018-02-23T10:28:12Z</time>
      </trkpt>
      <trkpt lat="45.93856" lon="4.85971">
        <ele>284</ele>
        <time>2018-02-23T10:28:13Z</time>
      </trkpt>
      <trkpt lat="45.93857" lon="4.85978">
        <ele>284</ele>
        <time>2018-02-23T10:28:14Z</time>
      </trkpt>
      <trkpt lat="45.93857" lon="4.85984">
        <ele>284</ele>
        <time>2018-02-23T10:28:15Z</time>
      </trkpt>
      <trkpt lat="45.93857" lon="4.8599">
        <ele>284</ele>
        <time>2018-02-23T10:28:16Z</time>
      </trkpt>
      <trkpt lat="45.93857" lon="4.85997">
        <ele>284</ele>
        <time>2018-02-23T10:28:17Z</time>
      </trkpt>
      <trkpt lat="45.93858" lon="4.86003">
        <ele>284</ele>
        <time>2018-02-23T10:28:18Z</time>
      </trkpt>
      <trkpt lat="45.93858" lon="4.8601">
        <ele>284</ele>
        <time>2018-02-23T10:28:19Z</time>
      </trkpt>
      <trkpt lat="45.93859" lon="4.86016">
        <ele>284</ele>
        <time>2018-02-23T10:28:20Z</time>
      </trkpt>
      <trkpt lat="45.93859" lon="4.86023">
        <ele>284</ele>
        <time>2018-02-23T10:28:21Z</time>
      </trkpt>
      <trkpt lat="45.93861" lon="4.86034">
        <ele>284</ele>
        <time>2018-02-23T10:28:23Z</time>
      </trkpt>
      <trkpt lat="45.93861" lon="4.8604">
        <ele>284</ele>
        <time>2018-02-23T10:28:24Z</time>
      </trkpt>
      <trkpt lat="45.93862" lon="4.86051">
        <ele>284</ele>
        <time>2018-02-23T10:28:26Z</time>
      </trkpt>
      <trkpt lat="45.93862" lon="4.86057">
        <ele>285</ele>
        <time>2018-02-23T10:28:27Z</time>
      </trkpt>
      <trkpt lat="45.93862" lon="4.86069">
        <ele>285</ele>
        <time>2018-02-23T10:28:29Z</time>
      </trkpt>
      <trkpt lat="45.93862" lon="4.86076">
        <ele>285</ele>
        <time>2018-02-23T10:28:30Z</time>
      </trkpt>
      <trkpt lat="45.93863" lon="4.86087">
        <ele>286</ele>
        <time>2018-02-23T10:28:32Z</time>
      </trkpt>
      <trkpt lat="45.93863" lon="4.86093">
        <ele>286</ele>
        <time>2018-02-23T10:28:33Z</time>
      </trkpt>
      <trkpt lat="45.93864" lon="4.86105">
        <ele>286</ele>
        <time>2018-02-23T10:28:35Z</time>
      </trkpt>
      <trkpt lat="45.93864" lon="4.86111">
        <ele>286</ele>
        <time>2018-02-23T10:28:36Z</time>
      </trkpt>
      <trkpt lat="45.93865" lon="4.86122">
        <ele>286</ele>
        <time>2018-02-23T10:28:38Z</time>
      </trkpt>
      <trkpt lat="45.93865" lon="4.86128">
        <ele>286</ele>
        <time>2018-02-23T10:28:39Z</time>
      </trkpt>
      <trkpt lat="45.93866" lon="4.86141">
        <ele>286</ele>
        <time>2018-02-23T10:28:41Z</time>
      </trkpt>
      <trkpt lat="45.93866" lon="4.86147">
        <ele>286</ele>
        <time>2018-02-23T10:28:42Z</time>
      </trkpt>
      <trkpt lat="45.93867" lon="4.8616">
        <ele>286</ele>
        <time>2018-02-23T10:28:44Z</time>
      </trkpt>
      <trkpt lat="45.93868" lon="4.86166">
        <ele>286</ele>
        <time>2018-02-23T10:28:45Z</time>
      </trkpt>
      <trkpt lat="45.93868" lon="4.86179">
        <ele>287</ele>
        <time>2018-02-23T10:28:47Z</time>
      </trkpt>
      <trkpt lat="45.93869" lon="4.86185">
        <ele>287</ele>
        <time>2018-02-23T10:28:48Z</time>
      </trkpt>
      <trkpt lat="45.93871" lon="4.86197">
        <ele>287</ele>
        <time>2018-02-23T10:28:50Z</time>
      </trkpt>
      <trkpt lat="45.93871" lon="4.86204">
        <ele>288</ele>
        <time>2018-02-23T10:28:51Z</time>
      </trkpt>
      <trkpt lat="45.93871" lon="4.86215">
        <ele>288</ele>
        <time>2018-02-23T10:28:53Z</time>
      </trkpt>
      <trkpt lat="45.93871" lon="4.86221">
        <ele>288</ele>
        <time>2018-02-23T10:28:54Z</time>
      </trkpt>
      <trkpt lat="45.93871" lon="4.86234">
        <ele>288</ele>
        <time>2018-02-23T10:28:56Z</time>
      </trkpt>
      <trkpt lat="45.93871" lon="4.8624">
        <ele>288</ele>
        <time>2018-02-23T10:28:57Z</time>
      </trkpt>
      <trkpt lat="45.93871" lon="4.86252">
        <ele>288</ele>
        <time>2018-02-23T10:28:59Z</time>
      </trkpt>
      <trkpt lat="45.93871" lon="4.86259">
        <ele>288</ele>
        <time>2018-02-23T10:29:00Z</time>
      </trkpt>
      <trkpt lat="45.9387" lon="4.86265">
        <ele>288</ele>
        <time>2018-02-23T10:29:01Z</time>
      </trkpt>
      <trkpt lat="45.9387" lon="4.86272">
        <ele>288</ele>
        <time>2018-02-23T10:29:02Z</time>
      </trkpt>
      <trkpt lat="45.93869" lon="4.86279">
        <ele>288</ele>
        <time>2018-02-23T10:29:03Z</time>
      </trkpt>
      <trkpt lat="45.93869" lon="4.86285">
        <ele>288</ele>
        <time>2018-02-23T10:29:04Z</time>
      </trkpt>
      <trkpt lat="45.93868" lon="4.86292">
        <ele>288</ele>
        <time>2018-02-23T10:29:05Z</time>
      </trkpt>
      <trkpt lat="45.93868" lon="4.86298">
        <ele>288</ele>
        <time>2018-02-23T10:29:06Z</time>
      </trkpt>
      <trkpt lat="45.93866" lon="4.86311">
        <ele>288</ele>
        <time>2018-02-23T10:29:08Z</time>
      </trkpt>
      <trkpt lat="45.93866" lon="4.86317">
        <ele>288</ele>
        <time>2018-02-23T10:29:09Z</time>
      </trkpt>
      <trkpt lat="45.93864" lon="4.86324">
        <ele>288</ele>
        <time>2018-02-23T10:29:10Z</time>
      </trkpt>
      <trkpt lat="45.93863" lon="4.8633">
        <ele>288</ele>
        <time>2018-02-23T10:29:11Z</time>
      </trkpt>
      <trkpt lat="45.93861" lon="4.86342">
        <ele>288</ele>
        <time>2018-02-23T10:29:13Z</time>
      </trkpt>
      <trkpt lat="45.9386" lon="4.86348">
        <ele>288</ele>
        <time>2018-02-23T10:29:14Z</time>
      </trkpt>
      <trkpt lat="45.93859" lon="4.86355">
        <ele>288</ele>
        <time>2018-02-23T10:29:15Z</time>
      </trkpt>
      <trkpt lat="45.93858" lon="4.86362">
        <ele>288</ele>
        <time>2018-02-23T10:29:16Z</time>
      </trkpt>
      <trkpt lat="45.93857" lon="4.86368">
        <ele>288</ele>
        <time>2018-02-23T10:29:17Z</time>
      </trkpt>
      <trkpt lat="45.93856" lon="4.86375">
        <ele>288</ele>
        <time>2018-02-23T10:29:18Z</time>
      </trkpt>
      <trkpt lat="45.93855" lon="4.8638">
        <ele>288</ele>
        <time>2018-02-23T10:29:19Z</time>
      </trkpt>
      <trkpt lat="45.93853" lon="4.86387">
        <ele>288</ele>
        <time>2018-02-23T10:29:20Z</time>
      </trkpt>
      <trkpt lat="45.93851" lon="4.86393">
        <ele>288</ele>
        <time>2018-02-23T10:29:21Z</time>
      </trkpt>
      <trkpt lat="45.9385" lon="4.864">
        <ele>288</ele>
        <time>2018-02-23T10:29:22Z</time>
      </trkpt>
      <trkpt lat="45.93849" lon="4.86407">
        <ele>288</ele>
        <time>2018-02-23T10:29:23Z</time>
      </trkpt>
      <trkpt lat="45.93849" lon="4.86415">
        <ele>288</ele>
        <time>2018-02-23T10:29:24Z</time>
      </trkpt>
      <trkpt lat="45.93848" lon="4.86422">
        <ele>288</ele>
        <time>2018-02-23T10:29:25Z</time>
      </trkpt>
      <trkpt lat="45.93847" lon="4.86429">
        <ele>288</ele>
        <time>2018-02-23T10:29:26Z</time>
      </trkpt>
      <trkpt lat="45.93846" lon="4.86436">
        <ele>288</ele>
        <time>2018-02-23T10:29:27Z</time>
      </trkpt>
      <trkpt lat="45.93845" lon="4.86442">
        <ele>288</ele>
        <time>2018-02-23T10:29:28Z</time>
      </trkpt>
      <trkpt lat="45.93843" lon="4.86454">
        <ele>288</ele>
        <time>2018-02-23T10:29:30Z</time>
      </trkpt>
      <trkpt lat="45.93843" lon="4.86461">
        <ele>288</ele>
        <time>2018-02-23T10:29:31Z</time>
      </trkpt>
      <trkpt lat="45.93841" lon="4.86473">
        <ele>288</ele>
        <time>2018-02-23T10:29:33Z</time>
      </trkpt>
      <trkpt lat="45.9384" lon="4.8648">
        <ele>288</ele>
        <time>2018-02-23T10:29:34Z</time>
      </trkpt>
      <trkpt lat="45.93838" lon="4.86492">
        <ele>288</ele>
        <time>2018-02-23T10:29:36Z</time>
      </trkpt>
      <trkpt lat="45.93837" lon="4.86499">
        <ele>288</ele>
        <time>2018-02-23T10:29:37Z</time>
      </trkpt>
      <trkpt lat="45.93836" lon="4.86506">
        <ele>288</ele>
        <time>2018-02-23T10:29:38Z</time>
      </trkpt>
      <trkpt lat="45.93836" lon="4.86512">
        <ele>288</ele>
        <time>2018-02-23T10:29:39Z</time>
      </trkpt>
      <trkpt lat="45.93834" lon="4.86524">
        <ele>288</ele>
        <time>2018-02-23T10:29:41Z</time>
      </trkpt>
      <trkpt lat="45.93834" lon="4.8653">
        <ele>288</ele>
        <time>2018-02-23T10:29:42Z</time>
      </trkpt>
      <trkpt lat="45.93832" lon="4.86543">
        <ele>290</ele>
        <time>2018-02-23T10:29:44Z</time>
      </trkpt>
      <trkpt lat="45.93831" lon="4.86549">
        <ele>290</ele>
        <time>2018-02-23T10:29:45Z</time>
      </trkpt>
      <trkpt lat="45.93829" lon="4.86561">
        <ele>289</ele>
        <time>2018-02-23T10:29:47Z</time>
      </trkpt>
      <trkpt lat="45.93828" lon="4.86567">
        <ele>289</ele>
        <time>2018-02-23T10:29:48Z</time>
      </trkpt>
      <trkpt lat="45.93827" lon="4.86577">
        <ele>289</ele>
        <time>2018-02-23T10:29:50Z</time>
      </trkpt>
      <trkpt lat="45.93825" lon="4.86582">
        <ele>289</ele>
        <time>2018-02-23T10:29:51Z</time>
      </trkpt>
      <trkpt lat="45.93824" lon="4.86594">
        <ele>288</ele>
        <time>2018-02-23T10:29:53Z</time>
      </trkpt>
      <trkpt lat="45.93823" lon="4.866">
        <ele>288</ele>
        <time>2018-02-23T10:29:54Z</time>
      </trkpt>
      <trkpt lat="45.93821" lon="4.8661">
        <ele>288</ele>
        <time>2018-02-23T10:29:56Z</time>
      </trkpt>
      <trkpt lat="45.9382" lon="4.86616">
        <ele>288</ele>
        <time>2018-02-23T10:29:57Z</time>
      </trkpt>
      <trkpt lat="45.93818" lon="4.86628">
        <ele>288</ele>
        <time>2018-02-23T10:29:59Z</time>
      </trkpt>
      <trkpt lat="45.93817" lon="4.86633">
        <ele>288</ele>
        <time>2018-02-23T10:30:00Z</time>
      </trkpt>
      <trkpt lat="45.93816" lon="4.86644">
        <ele>288</ele>
        <time>2018-02-23T10:30:02Z</time>
      </trkpt>
      <trkpt lat="45.93815" lon="4.86649">
        <ele>288</ele>
        <time>2018-02-23T10:30:03Z</time>
      </trkpt>
      <trkpt lat="45.93814" lon="4.86655">
        <ele>288</ele>
        <time>2018-02-23T10:30:05Z</time>
      </trkpt>
      <trkpt lat="45.93813" lon="4.86665">
        <ele>288</ele>
        <time>2018-02-23T10:30:06Z</time>
      </trkpt>
      <trkpt lat="45.93811" lon="4.86675">
        <ele>287</ele>
        <time>2018-02-23T10:30:08Z</time>
      </trkpt>
      <trkpt lat="45.93811" lon="4.86677">
        <ele>287</ele>
        <time>2018-02-23T10:30:09Z</time>
      </trkpt>
      <trkpt lat="45.93809" lon="4.86687">
        <ele>287</ele>
        <time>2018-02-23T10:30:11Z</time>
      </trkpt>
      <trkpt lat="45.93808" lon="4.86695">
        <ele>287</ele>
        <time>2018-02-23T10:30:12Z</time>
      </trkpt>
      <trkpt lat="45.93808" lon="4.86706">
        <ele>287</ele>
        <time>2018-02-23T10:30:14Z</time>
      </trkpt>
      <trkpt lat="45.93807" lon="4.86711">
        <ele>287</ele>
        <time>2018-02-23T10:30:15Z</time>
      </trkpt>
      <trkpt lat="45.93806" lon="4.86722">
        <ele>287</ele>
        <time>2018-02-23T10:30:17Z</time>
      </trkpt>
      <trkpt lat="45.93805" lon="4.86728">
        <ele>287</ele>
        <time>2018-02-23T10:30:18Z</time>
      </trkpt>
      <trkpt lat="45.93803" lon="4.86739">
        <ele>286</ele>
        <time>2018-02-23T10:30:20Z</time>
      </trkpt>
      <trkpt lat="45.93802" lon="4.86746">
        <ele>286</ele>
        <time>2018-02-23T10:30:21Z</time>
      </trkpt>
      <trkpt lat="45.93801" lon="4.86752">
        <ele>286</ele>
        <time>2018-02-23T10:30:22Z</time>
      </trkpt>
      <trkpt lat="45.93801" lon="4.86759">
        <ele>286</ele>
        <time>2018-02-23T10:30:23Z</time>
      </trkpt>
      <trkpt lat="45.93799" lon="4.86766">
        <ele>286</ele>
        <time>2018-02-23T10:30:24Z</time>
      </trkpt>
      <trkpt lat="45.93799" lon="4.86773">
        <ele>286</ele>
        <time>2018-02-23T10:30:25Z</time>
      </trkpt>
      <trkpt lat="45.93797" lon="4.86779">
        <ele>286</ele>
        <time>2018-02-23T10:30:26Z</time>
      </trkpt>
      <trkpt lat="45.93796" lon="4.86786">
        <ele>286</ele>
        <time>2018-02-23T10:30:27Z</time>
      </trkpt>
      <trkpt lat="45.93795" lon="4.86793">
        <ele>286</ele>
        <time>2018-02-23T10:30:28Z</time>
      </trkpt>
      <trkpt lat="45.93795" lon="4.86801">
        <ele>286</ele>
        <time>2018-02-23T10:30:29Z</time>
      </trkpt>
      <trkpt lat="45.93793" lon="4.86808">
        <ele>286</ele>
        <time>2018-02-23T10:30:30Z</time>
      </trkpt>
      <trkpt lat="45.93792" lon="4.86813">
        <ele>286</ele>
        <time>2018-02-23T10:30:31Z</time>
      </trkpt>
      <trkpt lat="45.9379" lon="4.86825">
        <ele>286</ele>
        <time>2018-02-23T10:30:33Z</time>
      </trkpt>
      <trkpt lat="45.93789" lon="4.86832">
        <ele>286</ele>
        <time>2018-02-23T10:30:34Z</time>
      </trkpt>
      <trkpt lat="45.93788" lon="4.86844">
        <ele>286</ele>
        <time>2018-02-23T10:30:36Z</time>
      </trkpt>
      <trkpt lat="45.93787" lon="4.8685">
        <ele>286</ele>
        <time>2018-02-23T10:30:37Z</time>
      </trkpt>
      <trkpt lat="45.93786" lon="4.86863">
        <ele>286</ele>
        <time>2018-02-23T10:30:39Z</time>
      </trkpt>
      <trkpt lat="45.93785" lon="4.8687">
        <ele>286</ele>
        <time>2018-02-23T10:30:40Z</time>
      </trkpt>
      <trkpt lat="45.93785" lon="4.86876">
        <ele>286</ele>
        <time>2018-02-23T10:30:41Z</time>
      </trkpt>
      <trkpt lat="45.93784" lon="4.86884">
        <ele>286</ele>
        <time>2018-02-23T10:30:42Z</time>
      </trkpt>
      <trkpt lat="45.93783" lon="4.86891">
        <ele>286</ele>
        <time>2018-02-23T10:30:43Z</time>
      </trkpt>
      <trkpt lat="45.93782" lon="4.86898">
        <ele>286</ele>
        <time>2018-02-23T10:30:44Z</time>
      </trkpt>
      <trkpt lat="45.93781" lon="4.86906">
        <ele>285</ele>
        <time>2018-02-23T10:30:45Z</time>
      </trkpt>
      <trkpt lat="45.9378" lon="4.86913">
        <ele>285</ele>
        <time>2018-02-23T10:30:46Z</time>
      </trkpt>
      <trkpt lat="45.93779" lon="4.8692">
        <ele>285</ele>
        <time>2018-02-23T10:30:47Z</time>
      </trkpt>
      <trkpt lat="45.93778" lon="4.86928">
        <ele>285</ele>
        <time>2018-02-23T10:30:48Z</time>
      </trkpt>
      <trkpt lat="45.93777" lon="4.86936">
        <ele>285</ele>
        <time>2018-02-23T10:30:49Z</time>
      </trkpt>
      <trkpt lat="45.93776" lon="4.86944">
        <ele>285</ele>
        <time>2018-02-23T10:30:50Z</time>
      </trkpt>
      <trkpt lat="45.93774" lon="4.86952">
        <ele>285</ele>
        <time>2018-02-23T10:30:51Z</time>
      </trkpt>
      <trkpt lat="45.93773" lon="4.8696">
        <ele>285</ele>
        <time>2018-02-23T10:30:52Z</time>
      </trkpt>
      <trkpt lat="45.93771" lon="4.86968">
        <ele>285</ele>
        <time>2018-02-23T10:30:53Z</time>
      </trkpt>
      <trkpt lat="45.9377" lon="4.86976">
        <ele>285</ele>
        <time>2018-02-23T10:30:54Z</time>
      </trkpt>
      <trkpt lat="45.9377" lon="4.86987">
        <ele>285</ele>
        <time>2018-02-23T10:30:55Z</time>
      </trkpt>
      <trkpt lat="45.93768" lon="4.86995">
        <ele>285</ele>
        <time>2018-02-23T10:30:56Z</time>
      </trkpt>
      <trkpt lat="45.93766" lon="4.87004">
        <ele>284</ele>
        <time>2018-02-23T10:30:57Z</time>
      </trkpt>
      <trkpt lat="45.93764" lon="4.87013">
        <ele>284</ele>
        <time>2018-02-23T10:30:58Z</time>
      </trkpt>
      <trkpt lat="45.93762" lon="4.87022">
        <ele>284</ele>
        <time>2018-02-23T10:30:59Z</time>
      </trkpt>
      <trkpt lat="45.93761" lon="4.87031">
        <ele>284</ele>
        <time>2018-02-23T10:31:00Z</time>
      </trkpt>
      <trkpt lat="45.9376" lon="4.87041">
        <ele>284</ele>
        <time>2018-02-23T10:31:01Z</time>
      </trkpt>
      <trkpt lat="45.93759" lon="4.8705">
        <ele>284</ele>
        <time>2018-02-23T10:31:02Z</time>
      </trkpt>
      <trkpt lat="45.93758" lon="4.87059">
        <ele>284</ele>
        <time>2018-02-23T10:31:03Z</time>
      </trkpt>
      <trkpt lat="45.93757" lon="4.87068">
        <ele>284</ele>
        <time>2018-02-23T10:31:04Z</time>
      </trkpt>
      <trkpt lat="45.93755" lon="4.87078">
        <ele>284</ele>
        <time>2018-02-23T10:31:05Z</time>
      </trkpt>
      <trkpt lat="45.93753" lon="4.87087">
        <ele>284</ele>
        <time>2018-02-23T10:31:06Z</time>
      </trkpt>
      <trkpt lat="45.93752" lon="4.87096">
        <ele>284</ele>
        <time>2018-02-23T10:31:07Z</time>
      </trkpt>
      <trkpt lat="45.93751" lon="4.87107">
        <ele>284</ele>
        <time>2018-02-23T10:31:08Z</time>
      </trkpt>
      <trkpt lat="45.93749" lon="4.87117">
        <ele>285</ele>
        <time>2018-02-23T10:31:09Z</time>
      </trkpt>
      <trkpt lat="45.93747" lon="4.87127">
        <ele>285</ele>
        <time>2018-02-23T10:31:10Z</time>
      </trkpt>
      <trkpt lat="45.93746" lon="4.87136">
        <ele>285</ele>
        <time>2018-02-23T10:31:11Z</time>
      </trkpt>
      <trkpt lat="45.93744" lon="4.87145">
        <ele>285</ele>
        <time>2018-02-23T10:31:12Z</time>
      </trkpt>
      <trkpt lat="45.93743" lon="4.87155">
        <ele>285</ele>
        <time>2018-02-23T10:31:13Z</time>
      </trkpt>
      <trkpt lat="45.93742" lon="4.87162">
        <ele>285</ele>
        <time>2018-02-23T10:31:14Z</time>
      </trkpt>
      <trkpt lat="45.93741" lon="4.87171">
        <ele>285</ele>
        <time>2018-02-23T10:31:15Z</time>
      </trkpt>
      <trkpt lat="45.9374" lon="4.87179">
        <ele>285</ele>
        <time>2018-02-23T10:31:16Z</time>
      </trkpt>
      <trkpt lat="45.93739" lon="4.87188">
        <ele>285</ele>
        <time>2018-02-23T10:31:17Z</time>
      </trkpt>
      <trkpt lat="45.93737" lon="4.87196">
        <ele>285</ele>
        <time>2018-02-23T10:31:18Z</time>
      </trkpt>
      <trkpt lat="45.93736" lon="4.87204">
        <ele>285</ele>
        <time>2018-02-23T10:31:19Z</time>
      </trkpt>
      <trkpt lat="45.93735" lon="4.87212">
        <ele>285</ele>
        <time>2018-02-23T10:31:20Z</time>
      </trkpt>
      <trkpt lat="45.93734" lon="4.8722">
        <ele>285</ele>
        <time>2018-02-23T10:31:21Z</time>
      </trkpt>
      <trkpt lat="45.93733" lon="4.87228">
        <ele>285</ele>
        <time>2018-02-23T10:31:22Z</time>
      </trkpt>
      <trkpt lat="45.93732" lon="4.87236">
        <ele>285</ele>
        <time>2018-02-23T10:31:23Z</time>
      </trkpt>
      <trkpt lat="45.93731" lon="4.87245">
        <ele>285</ele>
        <time>2018-02-23T10:31:24Z</time>
      </trkpt>
      <trkpt lat="45.93729" lon="4.87254">
        <ele>285</ele>
        <time>2018-02-23T10:31:25Z</time>
      </trkpt>
      <trkpt lat="45.93728" lon="4.87262">
        <ele>285</ele>
        <time>2018-02-23T10:31:26Z</time>
      </trkpt>
      <trkpt lat="45.93728" lon="4.87271">
        <ele>285</ele>
        <time>2018-02-23T10:31:27Z</time>
      </trkpt>
      <trkpt lat="45.93726" lon="4.8728">
        <ele>285</ele>
        <time>2018-02-23T10:31:28Z</time>
      </trkpt>
      <trkpt lat="45.93725" lon="4.87287">
        <ele>285</ele>
        <time>2018-02-23T10:31:29Z</time>
      </trkpt>
      <trkpt lat="45.93724" lon="4.87294">
        <ele>285</ele>
        <time>2018-02-23T10:31:30Z</time>
      </trkpt>
      <trkpt lat="45.93724" lon="4.87303">
        <ele>285</ele>
        <time>2018-02-23T10:31:31Z</time>
      </trkpt>
      <trkpt lat="45.93722" lon="4.8731">
        <ele>285</ele>
        <time>2018-02-23T10:31:32Z</time>
      </trkpt>
      <trkpt lat="45.93721" lon="4.87317">
        <ele>285</ele>
        <time>2018-02-23T10:31:33Z</time>
      </trkpt>
      <trkpt lat="45.93718" lon="4.87325">
        <ele>285</ele>
        <time>2018-02-23T10:31:34Z</time>
      </trkpt>
      <trkpt lat="45.93716" lon="4.87332">
        <ele>285</ele>
        <time>2018-02-23T10:31:35Z</time>
      </trkpt>
      <trkpt lat="45.93714" lon="4.8734">
        <ele>284</ele>
        <time>2018-02-23T10:31:36Z</time>
      </trkpt>
      <trkpt lat="45.93712" lon="4.87348">
        <ele>284</ele>
        <time>2018-02-23T10:31:37Z</time>
      </trkpt>
      <trkpt lat="45.9371" lon="4.87356">
        <ele>284</ele>
        <time>2018-02-23T10:31:38Z</time>
      </trkpt>
      <trkpt lat="45.93708" lon="4.87364">
        <ele>284</ele>
        <time>2018-02-23T10:31:39Z</time>
      </trkpt>
      <trkpt lat="45.93706" lon="4.87371">
        <ele>284</ele>
        <time>2018-02-23T10:31:40Z</time>
      </trkpt>
      <trkpt lat="45.93704" lon="4.87379">
        <ele>284</ele>
        <time>2018-02-23T10:31:41Z</time>
      </trkpt>
      <trkpt lat="45.93702" lon="4.87385">
        <ele>284</ele>
        <time>2018-02-23T10:31:42Z</time>
      </trkpt>
      <trkpt lat="45.937" lon="4.87393">
        <ele>284</ele>
        <time>2018-02-23T10:31:43Z</time>
      </trkpt>
      <trkpt lat="45.93697" lon="4.87398">
        <ele>284</ele>
        <time>2018-02-23T10:31:44Z</time>
      </trkpt>
      <trkpt lat="45.93695" lon="4.87405">
        <ele>284</ele>
        <time>2018-02-23T10:31:45Z</time>
      </trkpt>
      <trkpt lat="45.93693" lon="4.87411">
        <ele>284</ele>
        <time>2018-02-23T10:31:46Z</time>
      </trkpt>
      <trkpt lat="45.93691" lon="4.87417">
        <ele>284</ele>
        <time>2018-02-23T10:31:47Z</time>
      </trkpt>
      <trkpt lat="45.93688" lon="4.87423">
        <ele>284</ele>
        <time>2018-02-23T10:31:48Z</time>
      </trkpt>
      <trkpt lat="45.93685" lon="4.87429">
        <ele>284</ele>
        <time>2018-02-23T10:31:49Z</time>
      </trkpt>
      <trkpt lat="45.93681" lon="4.87434">
        <ele>284</ele>
        <time>2018-02-23T10:31:50Z</time>
      </trkpt>
      <trkpt lat="45.93678" lon="4.8744">
        <ele>284</ele>
        <time>2018-02-23T10:31:51Z</time>
      </trkpt>
      <trkpt lat="45.93675" lon="4.87446">
        <ele>284</ele>
        <time>2018-02-23T10:31:52Z</time>
      </trkpt>
      <trkpt lat="45.93673" lon="4.87452">
        <ele>284</ele>
        <time>2018-02-23T10:31:53Z</time>
      </trkpt>
      <trkpt lat="45.93669" lon="4.87458">
        <ele>284</ele>
        <time>2018-02-23T10:31:54Z</time>
      </trkpt>
      <trkpt lat="45.93664" lon="4.87468">
        <ele>285</ele>
        <time>2018-02-23T10:31:56Z</time>
      </trkpt>
      <trkpt lat="45.93661" lon="4.87474">
        <ele>285</ele>
        <time>2018-02-23T10:31:57Z</time>
      </trkpt>
      <trkpt lat="45.93659" lon="4.87479">
        <ele>285</ele>
        <time>2018-02-23T10:31:58Z</time>
      </trkpt>
      <trkpt lat="45.93656" lon="4.87485">
        <ele>285</ele>
        <time>2018-02-23T10:31:59Z</time>
      </trkpt>
      <trkpt lat="45.93652" lon="4.87491">
        <ele>285</ele>
        <time>2018-02-23T10:32:00Z</time>
      </trkpt>
      <trkpt lat="45.93649" lon="4.87497">
        <ele>285</ele>
        <time>2018-02-23T10:32:01Z</time>
      </trkpt>
      <trkpt lat="45.93646" lon="4.87503">
        <ele>285</ele>
        <time>2018-02-23T10:32:02Z</time>
      </trkpt>
      <trkpt lat="45.93642" lon="4.87509">
        <ele>285</ele>
        <time>2018-02-23T10:32:03Z</time>
      </trkpt>
      <trkpt lat="45.93639" lon="4.87516">
        <ele>285</ele>
        <time>2018-02-23T10:32:04Z</time>
      </trkpt>
      <trkpt lat="45.93634" lon="4.87523">
        <ele>285</ele>
        <time>2018-02-23T10:32:05Z</time>
      </trkpt>
      <trkpt lat="45.93631" lon="4.87529">
        <ele>285</ele>
        <time>2018-02-23T10:32:06Z</time>
      </trkpt>
      <trkpt lat="45.93627" lon="4.87534">
        <ele>285</ele>
        <time>2018-02-23T10:32:07Z</time>
      </trkpt>
      <trkpt lat="45.93624" lon="4.8754">
        <ele>286</ele>
        <time>2018-02-23T10:32:08Z</time>
      </trkpt>
      <trkpt lat="45.9362" lon="4.87545">
        <ele>286</ele>
        <time>2018-02-23T10:32:09Z</time>
      </trkpt>
      <trkpt lat="45.93617" lon="4.87551">
        <ele>286</ele>
        <time>2018-02-23T10:32:10Z</time>
      </trkpt>
      <trkpt lat="45.93614" lon="4.87557">
        <ele>286</ele>
        <time>2018-02-23T10:32:11Z</time>
      </trkpt>
      <trkpt lat="45.93611" lon="4.87561">
        <ele>286</ele>
        <time>2018-02-23T10:32:12Z</time>
      </trkpt>
      <trkpt lat="45.93609" lon="4.87567">
        <ele>286</ele>
        <time>2018-02-23T10:32:13Z</time>
      </trkpt>
      <trkpt lat="45.93606" lon="4.87573">
        <ele>286</ele>
        <time>2018-02-23T10:32:14Z</time>
      </trkpt>
      <trkpt lat="45.93603" lon="4.8758">
        <ele>286</ele>
        <time>2018-02-23T10:32:15Z</time>
      </trkpt>
      <trkpt lat="45.93599" lon="4.87586">
        <ele>285</ele>
        <time>2018-02-23T10:32:16Z</time>
      </trkpt>
      <trkpt lat="45.93597" lon="4.87593">
        <ele>285</ele>
        <time>2018-02-23T10:32:17Z</time>
      </trkpt>
      <trkpt lat="45.93594" lon="4.87599">
        <ele>285</ele>
        <time>2018-02-23T10:32:18Z</time>
      </trkpt>
      <trkpt lat="45.93591" lon="4.87604">
        <ele>285</ele>
        <time>2018-02-23T10:32:19Z</time>
      </trkpt>
      <trkpt lat="45.93588" lon="4.87609">
        <ele>285</ele>
        <time>2018-02-23T10:32:20Z</time>
      </trkpt>
      <trkpt lat="45.93586" lon="4.87615">
        <ele>285</ele>
        <time>2018-02-23T10:32:21Z</time>
      </trkpt>
      <trkpt lat="45.93582" lon="4.87621">
        <ele>285</ele>
        <time>2018-02-23T10:32:22Z</time>
      </trkpt>
      <trkpt lat="45.9358" lon="4.87627">
        <ele>285</ele>
        <time>2018-02-23T10:32:23Z</time>
      </trkpt>
      <trkpt lat="45.93577" lon="4.87633">
        <ele>285</ele>
        <time>2018-02-23T10:32:24Z</time>
      </trkpt>
      <trkpt lat="45.93574" lon="4.87639">
        <ele>285</ele>
        <time>2018-02-23T10:32:25Z</time>
      </trkpt>
      <trkpt lat="45.93572" lon="4.87645">
        <ele>285</ele>
        <time>2018-02-23T10:32:26Z</time>
      </trkpt>
      <trkpt lat="45.9357" lon="4.87652">
        <ele>285</ele>
        <time>2018-02-23T10:32:27Z</time>
      </trkpt>
      <trkpt lat="45.93567" lon="4.87664">
        <ele>285</ele>
        <time>2018-02-23T10:32:29Z</time>
      </trkpt>
      <trkpt lat="45.93565" lon="4.8767">
        <ele>284</ele>
        <time>2018-02-23T10:32:30Z</time>
      </trkpt>
      <trkpt lat="45.93563" lon="4.87676">
        <ele>284</ele>
        <time>2018-02-23T10:32:31Z</time>
      </trkpt>
      <trkpt lat="45.93561" lon="4.87684">
        <ele>284</ele>
        <time>2018-02-23T10:32:32Z</time>
      </trkpt>
      <trkpt lat="45.93559" lon="4.8769">
        <ele>284</ele>
        <time>2018-02-23T10:32:33Z</time>
      </trkpt>
      <trkpt lat="45.93557" lon="4.87696">
        <ele>284</ele>
        <time>2018-02-23T10:32:34Z</time>
      </trkpt>
      <trkpt lat="45.93555" lon="4.87703">
        <ele>284</ele>
        <time>2018-02-23T10:32:35Z</time>
      </trkpt>
      <trkpt lat="45.93554" lon="4.87711">
        <ele>284</ele>
        <time>2018-02-23T10:32:36Z</time>
      </trkpt>
      <trkpt lat="45.93553" lon="4.87718">
        <ele>284</ele>
        <time>2018-02-23T10:32:37Z</time>
      </trkpt>
      <trkpt lat="45.9355" lon="4.87725">
        <ele>284</ele>
        <time>2018-02-23T10:32:38Z</time>
      </trkpt>
      <trkpt lat="45.93549" lon="4.87731">
        <ele>284</ele>
        <time>2018-02-23T10:32:39Z</time>
      </trkpt>
      <trkpt lat="45.93548" lon="4.87737">
        <ele>284</ele>
        <time>2018-02-23T10:32:40Z</time>
      </trkpt>
      <trkpt lat="45.93546" lon="4.87745">
        <ele>284</ele>
        <time>2018-02-23T10:32:41Z</time>
      </trkpt>
      <trkpt lat="45.93544" lon="4.87751">
        <ele>284</ele>
        <time>2018-02-23T10:32:42Z</time>
      </trkpt>
      <trkpt lat="45.93542" lon="4.87759">
        <ele>284</ele>
        <time>2018-02-23T10:32:43Z</time>
      </trkpt>
      <trkpt lat="45.9354" lon="4.87766">
        <ele>284</ele>
        <time>2018-02-23T10:32:44Z</time>
      </trkpt>
      <trkpt lat="45.93538" lon="4.87773">
        <ele>284</ele>
        <time>2018-02-23T10:32:45Z</time>
      </trkpt>
      <trkpt lat="45.93537" lon="4.87781">
        <ele>284</ele>
        <time>2018-02-23T10:32:46Z</time>
      </trkpt>
      <trkpt lat="45.93536" lon="4.87789">
        <ele>284</ele>
        <time>2018-02-23T10:32:47Z</time>
      </trkpt>
      <trkpt lat="45.93535" lon="4.87797">
        <ele>284</ele>
        <time>2018-02-23T10:32:48Z</time>
      </trkpt>
      <trkpt lat="45.93534" lon="4.87806">
        <ele>284</ele>
        <time>2018-02-23T10:32:49Z</time>
      </trkpt>
      <trkpt lat="45.93532" lon="4.87815">
        <ele>284</ele>
        <time>2018-02-23T10:32:50Z</time>
      </trkpt>
      <trkpt lat="45.9353" lon="4.87824">
        <ele>284</ele>
        <time>2018-02-23T10:32:51Z</time>
      </trkpt>
      <trkpt lat="45.93529" lon="4.87831">
        <ele>284</ele>
        <time>2018-02-23T10:32:52Z</time>
      </trkpt>
      <trkpt lat="45.93529" lon="4.8784">
        <ele>283</ele>
        <time>2018-02-23T10:32:53Z</time>
      </trkpt>
      <trkpt lat="45.93527" lon="4.87849">
        <ele>283</ele>
        <time>2018-02-23T10:32:54Z</time>
      </trkpt>
      <trkpt lat="45.93525" lon="4.87856">
        <ele>283</ele>
        <time>2018-02-23T10:32:55Z</time>
      </trkpt>
      <trkpt lat="45.93524" lon="4.87864">
        <ele>283</ele>
        <time>2018-02-23T10:32:56Z</time>
      </trkpt>
      <trkpt lat="45.93523" lon="4.87871">
        <ele>283</ele>
        <time>2018-02-23T10:32:57Z</time>
      </trkpt>
      <trkpt lat="45.93522" lon="4.8788">
        <ele>283</ele>
        <time>2018-02-23T10:32:58Z</time>
      </trkpt>
      <trkpt lat="45.93522" lon="4.87887">
        <ele>283</ele>
        <time>2018-02-23T10:32:59Z</time>
      </trkpt>
      <trkpt lat="45.9352" lon="4.87895">
        <ele>283</ele>
        <time>2018-02-23T10:33:00Z</time>
      </trkpt>
      <trkpt lat="45.93519" lon="4.87901">
        <ele>283</ele>
        <time>2018-02-23T10:33:01Z</time>
      </trkpt>
      <trkpt lat="45.93519" lon="4.8791">
        <ele>283</ele>
        <time>2018-02-23T10:33:02Z</time>
      </trkpt>
      <trkpt lat="45.93518" lon="4.87917">
        <ele>284</ele>
        <time>2018-02-23T10:33:03Z</time>
      </trkpt>
      <trkpt lat="45.93517" lon="4.87925">
        <ele>284</ele>
        <time>2018-02-23T10:33:04Z</time>
      </trkpt>
      <trkpt lat="45.93516" lon="4.87933">
        <ele>284</ele>
        <time>2018-02-23T10:33:05Z</time>
      </trkpt>
      <trkpt lat="45.93515" lon="4.8794">
        <ele>284</ele>
        <time>2018-02-23T10:33:06Z</time>
      </trkpt>
      <trkpt lat="45.93513" lon="4.87946">
        <ele>284</ele>
        <time>2018-02-23T10:33:07Z</time>
      </trkpt>
      <trkpt lat="45.93512" lon="4.87953">
        <ele>284</ele>
        <time>2018-02-23T10:33:08Z</time>
      </trkpt>
      <trkpt lat="45.93513" lon="4.87961">
        <ele>284</ele>
        <time>2018-02-23T10:33:09Z</time>
      </trkpt>
      <trkpt lat="45.93512" lon="4.87969">
        <ele>284</ele>
        <time>2018-02-23T10:33:10Z</time>
      </trkpt>
      <trkpt lat="45.93511" lon="4.87977">
        <ele>285</ele>
        <time>2018-02-23T10:33:11Z</time>
      </trkpt>
      <trkpt lat="45.93511" lon="4.87984">
        <ele>285</ele>
        <time>2018-02-23T10:33:12Z</time>
      </trkpt>
      <trkpt lat="45.9351" lon="4.87991">
        <ele>285</ele>
        <time>2018-02-23T10:33:13Z</time>
      </trkpt>
      <trkpt lat="45.93509" lon="4.87998">
        <ele>285</ele>
        <time>2018-02-23T10:33:14Z</time>
      </trkpt>
      <trkpt lat="45.93508" lon="4.88005">
        <ele>286</ele>
        <time>2018-02-23T10:33:15Z</time>
      </trkpt>
      <trkpt lat="45.93507" lon="4.88012">
        <ele>286</ele>
        <time>2018-02-23T10:33:16Z</time>
      </trkpt>
      <trkpt lat="45.93506" lon="4.88019">
        <ele>286</ele>
        <time>2018-02-23T10:33:17Z</time>
      </trkpt>
      <trkpt lat="45.93506" lon="4.88026">
        <ele>286</ele>
        <time>2018-02-23T10:33:18Z</time>
      </trkpt>
      <trkpt lat="45.93504" lon="4.88032">
        <ele>286</ele>
        <time>2018-02-23T10:33:19Z</time>
      </trkpt>
      <trkpt lat="45.93503" lon="4.88038">
        <ele>286</ele>
        <time>2018-02-23T10:33:20Z</time>
      </trkpt>
      <trkpt lat="45.93502" lon="4.88045">
        <ele>286</ele>
        <time>2018-02-23T10:33:21Z</time>
      </trkpt>
      <trkpt lat="45.93502" lon="4.88052">
        <ele>286</ele>
        <time>2018-02-23T10:33:22Z</time>
      </trkpt>
      <trkpt lat="45.935" lon="4.88065">
        <ele>287</ele>
        <time>2018-02-23T10:33:24Z</time>
      </trkpt>
      <trkpt lat="45.93499" lon="4.88071">
        <ele>287</ele>
        <time>2018-02-23T10:33:25Z</time>
      </trkpt>
      <trkpt lat="45.93498" lon="4.88078">
        <ele>287</ele>
        <time>2018-02-23T10:33:26Z</time>
      </trkpt>
      <trkpt lat="45.93498" lon="4.88084">
        <ele>287</ele>
        <time>2018-02-23T10:33:27Z</time>
      </trkpt>
      <trkpt lat="45.93497" lon="4.88093">
        <ele>287</ele>
        <time>2018-02-23T10:33:28Z</time>
      </trkpt>
      <trkpt lat="45.93496" lon="4.88099">
        <ele>287</ele>
        <time>2018-02-23T10:33:29Z</time>
      </trkpt>
      <trkpt lat="45.93495" lon="4.88106">
        <ele>288</ele>
        <time>2018-02-23T10:33:30Z</time>
      </trkpt>
      <trkpt lat="45.93493" lon="4.88113">
        <ele>288</ele>
        <time>2018-02-23T10:33:31Z</time>
      </trkpt>
      <trkpt lat="45.93491" lon="4.8812">
        <ele>288</ele>
        <time>2018-02-23T10:33:32Z</time>
      </trkpt>
      <trkpt lat="45.93489" lon="4.88126">
        <ele>288</ele>
        <time>2018-02-23T10:33:33Z</time>
      </trkpt>
      <trkpt lat="45.93487" lon="4.88132">
        <ele>288</ele>
        <time>2018-02-23T10:33:34Z</time>
      </trkpt>
      <trkpt lat="45.93486" lon="4.8814">
        <ele>288</ele>
        <time>2018-02-23T10:33:35Z</time>
      </trkpt>
      <trkpt lat="45.93484" lon="4.88147">
        <ele>288</ele>
        <time>2018-02-23T10:33:36Z</time>
      </trkpt>
      <trkpt lat="45.93483" lon="4.88154">
        <ele>288</ele>
        <time>2018-02-23T10:33:37Z</time>
      </trkpt>
      <trkpt lat="45.93481" lon="4.88161">
        <ele>288</ele>
        <time>2018-02-23T10:33:38Z</time>
      </trkpt>
      <trkpt lat="45.93481" lon="4.88167">
        <ele>288</ele>
        <time>2018-02-23T10:33:39Z</time>
      </trkpt>
      <trkpt lat="45.93481" lon="4.88174">
        <ele>288</ele>
        <time>2018-02-23T10:33:40Z</time>
      </trkpt>
      <trkpt lat="45.9348" lon="4.88181">
        <ele>288</ele>
        <time>2018-02-23T10:33:41Z</time>
      </trkpt>
      <trkpt lat="45.93478" lon="4.8819">
        <ele>289</ele>
        <time>2018-02-23T10:33:44Z</time>
      </trkpt>
      <trkpt lat="45.93477" lon="4.88194">
        <ele>289</ele>
        <time>2018-02-23T10:33:45Z</time>
      </trkpt>
      <trkpt lat="45.93474" lon="4.88205">
        <ele>289</ele>
        <time>2018-02-23T10:33:46Z</time>
      </trkpt>
      <trkpt lat="45.93473" lon="4.8821">
        <ele>289</ele>
        <time>2018-02-23T10:33:47Z</time>
      </trkpt>
      <trkpt lat="45.93472" lon="4.8822">
        <ele>289</ele>
        <time>2018-02-23T10:33:49Z</time>
      </trkpt>
      <trkpt lat="45.93473" lon="4.88226">
        <ele>289</ele>
        <time>2018-02-23T10:33:50Z</time>
      </trkpt>
      <trkpt lat="45.93476" lon="4.88237">
        <ele>289</ele>
        <time>2018-02-23T10:33:52Z</time>
      </trkpt>
      <trkpt lat="45.9348" lon="4.88241">
        <ele>289</ele>
        <time>2018-02-23T10:33:53Z</time>
      </trkpt>
      <trkpt lat="45.93486" lon="4.88243">
        <ele>289</ele>
        <time>2018-02-23T10:33:54Z</time>
      </trkpt>
      <trkpt lat="45.93491" lon="4.88242">
        <ele>289</ele>
        <time>2018-02-23T10:33:55Z</time>
      </trkpt>
      <trkpt lat="45.93497" lon="4.8824">
        <ele>289</ele>
        <time>2018-02-23T10:33:56Z</time>
      </trkpt>
      <trkpt lat="45.93501" lon="4.88237">
        <ele>288</ele>
        <time>2018-02-23T10:33:57Z</time>
      </trkpt>
      <trkpt lat="45.93505" lon="4.88233">
        <ele>288</ele>
        <time>2018-02-23T10:33:58Z</time>
      </trkpt>
      <trkpt lat="45.9351" lon="4.88229">
        <ele>288</ele>
        <time>2018-02-23T10:33:59Z</time>
      </trkpt>
      <trkpt lat="45.93514" lon="4.88227">
        <ele>288</ele>
        <time>2018-02-23T10:34:00Z</time>
      </trkpt>
      <trkpt lat="45.93519" lon="4.88225">
        <ele>288</ele>
        <time>2018-02-23T10:34:01Z</time>
      </trkpt>
      <trkpt lat="45.93525" lon="4.88222">
        <ele>288</ele>
        <time>2018-02-23T10:34:03Z</time>
      </trkpt>
      <trkpt lat="45.93532" lon="4.88221">
        <ele>287</ele>
        <time>2018-02-23T10:34:04Z</time>
      </trkpt>
      <trkpt lat="45.93537" lon="4.88218">
        <ele>287</ele>
        <time>2018-02-23T10:34:05Z</time>
      </trkpt>
      <trkpt lat="45.93542" lon="4.88218">
        <ele>287</ele>
        <time>2018-02-23T10:34:06Z</time>
      </trkpt>
      <trkpt lat="45.93547" lon="4.88218">
        <ele>287</ele>
        <time>2018-02-23T10:34:07Z</time>
      </trkpt>
      <trkpt lat="45.93554" lon="4.88218">
        <ele>287</ele>
        <time>2018-02-23T10:34:08Z</time>
      </trkpt>
      <trkpt lat="45.93558" lon="4.88219">
        <ele>287</ele>
        <time>2018-02-23T10:34:09Z</time>
      </trkpt>
      <trkpt lat="45.93563" lon="4.88219">
        <ele>287</ele>
        <time>2018-02-23T10:34:10Z</time>
      </trkpt>
      <trkpt lat="45.9357" lon="4.88218">
        <ele>287</ele>
        <time>2018-02-23T10:34:11Z</time>
      </trkpt>
      <trkpt lat="45.93575" lon="4.88218">
        <ele>287</ele>
        <time>2018-02-23T10:34:12Z</time>
      </trkpt>
      <trkpt lat="45.9358" lon="4.88217">
        <ele>287</ele>
        <time>2018-02-23T10:34:13Z</time>
      </trkpt>
      <trkpt lat="45.93585" lon="4.88217">
        <ele>286</ele>
        <time>2018-02-23T10:34:14Z</time>
      </trkpt>
      <trkpt lat="45.93591" lon="4.88217">
        <ele>286</ele>
        <time>2018-02-23T10:34:15Z</time>
      </trkpt>
      <trkpt lat="45.93595" lon="4.88218">
        <ele>286</ele>
        <time>2018-02-23T10:34:16Z</time>
      </trkpt>
      <trkpt lat="45.936" lon="4.88218">
        <ele>285</ele>
        <time>2018-02-23T10:34:17Z</time>
      </trkpt>
      <trkpt lat="45.93605" lon="4.88217">
        <ele>285</ele>
        <time>2018-02-23T10:34:18Z</time>
      </trkpt>
      <trkpt lat="45.93614" lon="4.88217">
        <ele>285</ele>
        <time>2018-02-23T10:34:20Z</time>
      </trkpt>
      <trkpt lat="45.93618" lon="4.88217">
        <ele>285</ele>
        <time>2018-02-23T10:34:21Z</time>
      </trkpt>
      <trkpt lat="45.93623" lon="4.88218">
        <ele>285</ele>
        <time>2018-02-23T10:34:22Z</time>
      </trkpt>
      <trkpt lat="45.93628" lon="4.88218">
        <ele>285</ele>
        <time>2018-02-23T10:34:23Z</time>
      </trkpt>
      <trkpt lat="45.93634" lon="4.88218">
        <ele>285</ele>
        <time>2018-02-23T10:34:24Z</time>
      </trkpt>
      <trkpt lat="45.9364" lon="4.88218">
        <ele>285</ele>
        <time>2018-02-23T10:34:25Z</time>
      </trkpt>
      <trkpt lat="45.93645" lon="4.88217">
        <ele>285</ele>
        <time>2018-02-23T10:34:26Z</time>
      </trkpt>
      <trkpt lat="45.93651" lon="4.88217">
        <ele>285</ele>
        <time>2018-02-23T10:34:27Z</time>
      </trkpt>
      <trkpt lat="45.93656" lon="4.88217">
        <ele>285</ele>
        <time>2018-02-23T10:34:28Z</time>
      </trkpt>
      <trkpt lat="45.93661" lon="4.88217">
        <ele>285</ele>
        <time>2018-02-23T10:34:29Z</time>
      </trkpt>
      <trkpt lat="45.93666" lon="4.88217">
        <ele>285</ele>
        <time>2018-02-23T10:34:30Z</time>
      </trkpt>
      <trkpt lat="45.93671" lon="4.88217">
        <ele>285</ele>
        <time>2018-02-23T10:34:31Z</time>
      </trkpt>
      <trkpt lat="45.93675" lon="4.88217">
        <ele>285</ele>
        <time>2018-02-23T10:34:32Z</time>
      </trkpt>
      <trkpt lat="45.93681" lon="4.88217">
        <ele>285</ele>
        <time>2018-02-23T10:34:33Z</time>
      </trkpt>
      <trkpt lat="45.93685" lon="4.88217">
        <ele>285</ele>
        <time>2018-02-23T10:34:34Z</time>
      </trkpt>
      <trkpt lat="45.9369" lon="4.88217">
        <ele>285</ele>
        <time>2018-02-23T10:34:35Z</time>
      </trkpt>
      <trkpt lat="45.93698" lon="4.88216">
        <ele>285</ele>
        <time>2018-02-23T10:34:37Z</time>
      </trkpt>
      <trkpt lat="45.93703" lon="4.88216">
        <ele>285</ele>
        <time>2018-02-23T10:34:38Z</time>
      </trkpt>
      <trkpt lat="45.93711" lon="4.88217">
        <ele>285</ele>
        <time>2018-02-23T10:34:40Z</time>
      </trkpt>
      <trkpt lat="45.93715" lon="4.88218">
        <ele>285</ele>
        <time>2018-02-23T10:34:41Z</time>
      </trkpt>
      <trkpt lat="45.9372" lon="4.88218">
        <ele>286</ele>
        <time>2018-02-23T10:34:42Z</time>
      </trkpt>
      <trkpt lat="45.93725" lon="4.88218">
        <ele>286</ele>
        <time>2018-02-23T10:34:43Z</time>
      </trkpt>
      <trkpt lat="45.93731" lon="4.88218">
        <ele>286</ele>
        <time>2018-02-23T10:34:44Z</time>
      </trkpt>
      <trkpt lat="45.93736" lon="4.88218">
        <ele>286</ele>
        <time>2018-02-23T10:34:45Z</time>
      </trkpt>
      <trkpt lat="45.93741" lon="4.88217">
        <ele>286</ele>
        <time>2018-02-23T10:34:46Z</time>
      </trkpt>
      <trkpt lat="45.93746" lon="4.88217">
        <ele>286</ele>
        <time>2018-02-23T10:34:47Z</time>
      </trkpt>
      <trkpt lat="45.9375" lon="4.88217">
        <ele>287</ele>
        <time>2018-02-23T10:34:48Z</time>
      </trkpt>
      <trkpt lat="45.93755" lon="4.88217">
        <ele>287</ele>
        <time>2018-02-23T10:34:49Z</time>
      </trkpt>
      <trkpt lat="45.9376" lon="4.88217">
        <ele>287</ele>
        <time>2018-02-23T10:34:50Z</time>
      </trkpt>
      <trkpt lat="45.93764" lon="4.88216">
        <ele>287</ele>
        <time>2018-02-23T10:34:51Z</time>
      </trkpt>
      <trkpt lat="45.93769" lon="4.88216">
        <ele>287</ele>
        <time>2018-02-23T10:34:52Z</time>
      </trkpt>
      <trkpt lat="45.93773" lon="4.88216">
        <ele>287</ele>
        <time>2018-02-23T10:34:53Z</time>
      </trkpt>
      <trkpt lat="45.93777" lon="4.88216">
        <ele>287</ele>
        <time>2018-02-23T10:34:54Z</time>
      </trkpt>
      <trkpt lat="45.93783" lon="4.88216">
        <ele>287</ele>
        <time>2018-02-23T10:34:55Z</time>
      </trkpt>
      <trkpt lat="45.93792" lon="4.88216">
        <ele>288</ele>
        <time>2018-02-23T10:34:57Z</time>
      </trkpt>
      <trkpt lat="45.93797" lon="4.88216">
        <ele>288</ele>
        <time>2018-02-23T10:34:58Z</time>
      </trkpt>
      <trkpt lat="45.93805" lon="4.88217">
        <ele>288</ele>
        <time>2018-02-23T10:35:00Z</time>
      </trkpt>
      <trkpt lat="45.9381" lon="4.88217">
        <ele>288</ele>
        <time>2018-02-23T10:35:01Z</time>
      </trkpt>
      <trkpt lat="45.93815" lon="4.88217">
        <ele>288</ele>
        <time>2018-02-23T10:35:02Z</time>
      </trkpt>
      <trkpt lat="45.9382" lon="4.88217">
        <ele>288</ele>
        <time>2018-02-23T10:35:03Z</time>
      </trkpt>
      <trkpt lat="45.93828" lon="4.88217">
        <ele>288</ele>
        <time>2018-02-23T10:35:05Z</time>
      </trkpt>
      <trkpt lat="45.93832" lon="4.88217">
        <ele>288</ele>
        <time>2018-02-23T10:35:06Z</time>
      </trkpt>
      <trkpt lat="45.9384" lon="4.88217">
        <ele>289</ele>
        <time>2018-02-23T10:35:08Z</time>
      </trkpt>
      <trkpt lat="45.93845" lon="4.88217">
        <ele>289</ele>
        <time>2018-02-23T10:35:09Z</time>
      </trkpt>
      <trkpt lat="45.93851" lon="4.88217">
        <ele>289</ele>
        <time>2018-02-23T10:35:10Z</time>
      </trkpt>
      <trkpt lat="45.93855" lon="4.88217">
        <ele>289</ele>
        <time>2018-02-23T10:35:11Z</time>
      </trkpt>
      <trkpt lat="45.9386" lon="4.88217">
        <ele>289</ele>
        <time>2018-02-23T10:35:12Z</time>
      </trkpt>
      <trkpt lat="45.93865" lon="4.88218">
        <ele>289</ele>
        <time>2018-02-23T10:35:13Z</time>
      </trkpt>
      <trkpt lat="45.9387" lon="4.88218">
        <ele>289</ele>
        <time>2018-02-23T10:35:14Z</time>
      </trkpt>
      <trkpt lat="45.93875" lon="4.88218">
        <ele>289</ele>
        <time>2018-02-23T10:35:15Z</time>
      </trkpt>
      <trkpt lat="45.93881" lon="4.88218">
        <ele>289</ele>
        <time>2018-02-23T10:35:16Z</time>
      </trkpt>
      <trkpt lat="45.93886" lon="4.88219">
        <ele>289</ele>
        <time>2018-02-23T10:35:17Z</time>
      </trkpt>
      <trkpt lat="45.93892" lon="4.8822">
        <ele>289</ele>
        <time>2018-02-23T10:35:18Z</time>
      </trkpt>
      <trkpt lat="45.93898" lon="4.8822">
        <ele>289</ele>
        <time>2018-02-23T10:35:19Z</time>
      </trkpt>
      <trkpt lat="45.93905" lon="4.88218">
        <ele>289</ele>
        <time>2018-02-23T10:35:20Z</time>
      </trkpt>
      <trkpt lat="45.93911" lon="4.88218">
        <ele>289</ele>
        <time>2018-02-23T10:35:21Z</time>
      </trkpt>
      <trkpt lat="45.93917" lon="4.88218">
        <ele>288</ele>
        <time>2018-02-23T10:35:22Z</time>
      </trkpt>
      <trkpt lat="45.93923" lon="4.88218">
        <ele>287</ele>
        <time>2018-02-23T10:35:23Z</time>
      </trkpt>
      <trkpt lat="45.93928" lon="4.88219">
        <ele>287</ele>
        <time>2018-02-23T10:35:24Z</time>
      </trkpt>
      <trkpt lat="45.93933" lon="4.88219">
        <ele>287</ele>
        <time>2018-02-23T10:35:25Z</time>
      </trkpt>
      <trkpt lat="45.93938" lon="4.88219">
        <ele>287</ele>
        <time>2018-02-23T10:35:26Z</time>
      </trkpt>
      <trkpt lat="45.93942" lon="4.88218">
        <ele>287</ele>
        <time>2018-02-23T10:35:27Z</time>
      </trkpt>
      <trkpt lat="45.93948" lon="4.88218">
        <ele>287</ele>
        <time>2018-02-23T10:35:28Z</time>
      </trkpt>
      <trkpt lat="45.93953" lon="4.88217">
        <ele>287</ele>
        <time>2018-02-23T10:35:29Z</time>
      </trkpt>
      <trkpt lat="45.93958" lon="4.88217">
        <ele>286</ele>
        <time>2018-02-23T10:35:30Z</time>
      </trkpt>
      <trkpt lat="45.93963" lon="4.88217">
        <ele>286</ele>
        <time>2018-02-23T10:35:31Z</time>
      </trkpt>
      <trkpt lat="45.93969" lon="4.88217">
        <ele>286</ele>
        <time>2018-02-23T10:35:32Z</time>
      </trkpt>
      <trkpt lat="45.93973" lon="4.88217">
        <ele>286</ele>
        <time>2018-02-23T10:35:33Z</time>
      </trkpt>
      <trkpt lat="45.93979" lon="4.88218">
        <ele>286</ele>
        <time>2018-02-23T10:35:34Z</time>
      </trkpt>
      <trkpt lat="45.93984" lon="4.88219">
        <ele>286</ele>
        <time>2018-02-23T10:35:35Z</time>
      </trkpt>
      <trkpt lat="45.93989" lon="4.8822">
        <ele>286</ele>
        <time>2018-02-23T10:35:36Z</time>
      </trkpt>
      <trkpt lat="45.93994" lon="4.8822">
        <ele>286</ele>
        <time>2018-02-23T10:35:37Z</time>
      </trkpt>
      <trkpt lat="45.93999" lon="4.88222">
        <ele>286</ele>
        <time>2018-02-23T10:35:38Z</time>
      </trkpt>
      <trkpt lat="45.94005" lon="4.88223">
        <ele>284</ele>
        <time>2018-02-23T10:35:39Z</time>
      </trkpt>
      <trkpt lat="45.94009" lon="4.88223">
        <ele>284</ele>
        <time>2018-02-23T10:35:40Z</time>
      </trkpt>
      <trkpt lat="45.94014" lon="4.88225">
        <ele>284</ele>
        <time>2018-02-23T10:35:41Z</time>
      </trkpt>
      <trkpt lat="45.94023" lon="4.88227">
        <ele>284</ele>
        <time>2018-02-23T10:35:43Z</time>
      </trkpt>
      <trkpt lat="45.94028" lon="4.88227">
        <ele>283</ele>
        <time>2018-02-23T10:35:44Z</time>
      </trkpt>
      <trkpt lat="45.94032" lon="4.88228">
        <ele>283</ele>
        <time>2018-02-23T10:35:45Z</time>
      </trkpt>
      <trkpt lat="45.94037" lon="4.88228">
        <ele>283</ele>
        <time>2018-02-23T10:35:46Z</time>
      </trkpt>
      <trkpt lat="45.94042" lon="4.88228">
        <ele>283</ele>
        <time>2018-02-23T10:35:47Z</time>
      </trkpt>
      <trkpt lat="45.94046" lon="4.88229">
        <ele>283</ele>
        <time>2018-02-23T10:35:48Z</time>
      </trkpt>
      <trkpt lat="45.94051" lon="4.8823">
        <ele>283</ele>
        <time>2018-02-23T10:35:49Z</time>
      </trkpt>
      <trkpt lat="45.94056" lon="4.8823">
        <ele>283</ele>
        <time>2018-02-23T10:35:50Z</time>
      </trkpt>
      <trkpt lat="45.94061" lon="4.88231">
        <ele>282</ele>
        <time>2018-02-23T10:35:51Z</time>
      </trkpt>
      <trkpt lat="45.94066" lon="4.88232">
        <ele>282</ele>
        <time>2018-02-23T10:35:52Z</time>
      </trkpt>
      <trkpt lat="45.94075" lon="4.88232">
        <ele>282</ele>
        <time>2018-02-23T10:35:54Z</time>
      </trkpt>
      <trkpt lat="45.94079" lon="4.88234">
        <ele>282</ele>
        <time>2018-02-23T10:35:55Z</time>
      </trkpt>
      <trkpt lat="45.94084" lon="4.88235">
        <ele>281</ele>
        <time>2018-02-23T10:35:56Z</time>
      </trkpt>
      <trkpt lat="45.94089" lon="4.88236">
        <ele>281</ele>
        <time>2018-02-23T10:35:57Z</time>
      </trkpt>
      <trkpt lat="45.94096" lon="4.88234">
        <ele>281</ele>
        <time>2018-02-23T10:35:58Z</time>
      </trkpt>
      <trkpt lat="45.94101" lon="4.88234">
        <ele>281</ele>
        <time>2018-02-23T10:35:59Z</time>
      </trkpt>
      <trkpt lat="45.94105" lon="4.88234">
        <ele>280</ele>
        <time>2018-02-23T10:36:00Z</time>
      </trkpt>
      <trkpt lat="45.94111" lon="4.88236">
        <ele>280</ele>
        <time>2018-02-23T10:36:01Z</time>
      </trkpt>
      <trkpt lat="45.94115" lon="4.88237">
        <ele>280</ele>
        <time>2018-02-23T10:36:02Z</time>
      </trkpt>
      <trkpt lat="45.94121" lon="4.88239">
        <ele>280</ele>
        <time>2018-02-23T10:36:03Z</time>
      </trkpt>
      <trkpt lat="45.94124" lon="4.8824">
        <ele>280</ele>
        <time>2018-02-23T10:36:04Z</time>
      </trkpt>
      <trkpt lat="45.9413" lon="4.88241">
        <ele>280</ele>
        <time>2018-02-23T10:36:05Z</time>
      </trkpt>
      <trkpt lat="45.94134" lon="4.88242">
        <ele>280</ele>
        <time>2018-02-23T10:36:06Z</time>
      </trkpt>
      <trkpt lat="45.9414" lon="4.88244">
        <ele>280</ele>
        <time>2018-02-23T10:36:07Z</time>
      </trkpt>
      <trkpt lat="45.94145" lon="4.88245">
        <ele>280</ele>
        <time>2018-02-23T10:36:08Z</time>
      </trkpt>
      <trkpt lat="45.9415" lon="4.88245">
        <ele>279</ele>
        <time>2018-02-23T10:36:09Z</time>
      </trkpt>
      <trkpt lat="45.94155" lon="4.88246">
        <ele>279</ele>
        <time>2018-02-23T10:36:10Z</time>
      </trkpt>
      <trkpt lat="45.94161" lon="4.88246">
        <ele>279</ele>
        <time>2018-02-23T10:36:11Z</time>
      </trkpt>
      <trkpt lat="45.94166" lon="4.88247">
        <ele>279</ele>
        <time>2018-02-23T10:36:12Z</time>
      </trkpt>
      <trkpt lat="45.94172" lon="4.88248">
        <ele>279</ele>
        <time>2018-02-23T10:36:13Z</time>
      </trkpt>
      <trkpt lat="45.9418" lon="4.8825">
        <ele>279</ele>
        <time>2018-02-23T10:36:15Z</time>
      </trkpt>
      <trkpt lat="45.94186" lon="4.8825">
        <ele>279</ele>
        <time>2018-02-23T10:36:16Z</time>
      </trkpt>
      <trkpt lat="45.94191" lon="4.88251">
        <ele>279</ele>
        <time>2018-02-23T10:36:17Z</time>
      </trkpt>
      <trkpt lat="45.94196" lon="4.8825">
        <ele>279</ele>
        <time>2018-02-23T10:36:18Z</time>
      </trkpt>
      <trkpt lat="45.94202" lon="4.88251">
        <ele>279</ele>
        <time>2018-02-23T10:36:19Z</time>
      </trkpt>
      <trkpt lat="45.94206" lon="4.88251">
        <ele>279</ele>
        <time>2018-02-23T10:36:20Z</time>
      </trkpt>
      <trkpt lat="45.94214" lon="4.88252">
        <ele>279</ele>
        <time>2018-02-23T10:38:15Z</time>
      </trkpt>
      <trkpt lat="45.94215" lon="4.88252">
        <ele>279</ele>
        <time>2018-02-23T10:38:16Z</time>
      </trkpt>
      <trkpt lat="45.94224" lon="4.88253">
        <ele>279</ele>
        <time>2018-02-23T10:38:21Z</time>
      </trkpt>
      <trkpt lat="45.94226" lon="4.88253">
        <ele>279</ele>
        <time>2018-02-23T10:38:22Z</time>
      </trkpt>
      <trkpt lat="45.94229" lon="4.88254">
        <ele>279</ele>
        <time>2018-02-23T10:38:23Z</time>
      </trkpt>
      <trkpt lat="45.94238" lon="4.88256">
        <ele>279</ele>
        <time>2018-02-23T10:38:24Z</time>
      </trkpt>
      <trkpt lat="45.94246" lon="4.88257">
        <ele>278</ele>
        <time>2018-02-23T10:38:26Z</time>
      </trkpt>
      <trkpt lat="45.9425" lon="4.88258">
        <ele>278</ele>
        <time>2018-02-23T10:38:27Z</time>
      </trkpt>
      <trkpt lat="45.94258" lon="4.88259">
        <ele>278</ele>
        <time>2018-02-23T10:38:29Z</time>
      </trkpt>
      <trkpt lat="45.94262" lon="4.8826">
        <ele>278</ele>
        <time>2018-02-23T10:38:30Z</time>
      </trkpt>
      <trkpt lat="45.94271" lon="4.88261">
        <ele>278</ele>
        <time>2018-02-23T10:38:32Z</time>
      </trkpt>
      <trkpt lat="45.94275" lon="4.88262">
        <ele>278</ele>
        <time>2018-02-23T10:38:33Z</time>
      </trkpt>
      <trkpt lat="45.94282" lon="4.88263">
        <ele>277</ele>
        <time>2018-02-23T10:38:35Z</time>
      </trkpt>
      <trkpt lat="45.94286" lon="4.88264">
        <ele>277</ele>
        <time>2018-02-23T10:38:36Z</time>
      </trkpt>
      <trkpt lat="45.94294" lon="4.88265">
        <ele>277</ele>
        <time>2018-02-23T10:38:38Z</time>
      </trkpt>
      <trkpt lat="45.94297" lon="4.88265">
        <ele>277</ele>
        <time>2018-02-23T10:38:39Z</time>
      </trkpt>
      <trkpt lat="45.94305" lon="4.88266">
        <ele>277</ele>
        <time>2018-02-23T10:38:41Z</time>
      </trkpt>
      <trkpt lat="45.94309" lon="4.88267">
        <ele>277</ele>
        <time>2018-02-23T10:38:42Z</time>
      </trkpt>
      <trkpt lat="45.94318" lon="4.88268">
        <ele>277</ele>
        <time>2018-02-23T10:38:44Z</time>
      </trkpt>
      <trkpt lat="45.94322" lon="4.88268">
        <ele>277</ele>
        <time>2018-02-23T10:38:45Z</time>
      </trkpt>
      <trkpt lat="45.9433" lon="4.8827">
        <ele>277</ele>
        <time>2018-02-23T10:38:47Z</time>
      </trkpt>
      <trkpt lat="45.94334" lon="4.88271">
        <ele>276</ele>
        <time>2018-02-23T10:38:48Z</time>
      </trkpt>
      <trkpt lat="45.94342" lon="4.88272">
        <ele>276</ele>
        <time>2018-02-23T10:38:50Z</time>
      </trkpt>
      <trkpt lat="45.94346" lon="4.88272">
        <ele>276</ele>
        <time>2018-02-23T10:38:51Z</time>
      </trkpt>
      <trkpt lat="45.94354" lon="4.88273">
        <ele>276</ele>
        <time>2018-02-23T10:38:53Z</time>
      </trkpt>
      <trkpt lat="45.94358" lon="4.88273">
        <ele>276</ele>
        <time>2018-02-23T10:38:54Z</time>
      </trkpt>
      <trkpt lat="45.94366" lon="4.88274">
        <ele>276</ele>
        <time>2018-02-23T10:38:56Z</time>
      </trkpt>
      <trkpt lat="45.9437" lon="4.88275">
        <ele>276</ele>
        <time>2018-02-23T10:38:57Z</time>
      </trkpt>
      <trkpt lat="45.94378" lon="4.88276">
        <ele>276</ele>
        <time>2018-02-23T10:38:59Z</time>
      </trkpt>
      <trkpt lat="45.94382" lon="4.88276">
        <ele>276</ele>
        <time>2018-02-23T10:39:00Z</time>
      </trkpt>
      <trkpt lat="45.94387" lon="4.88276">
        <ele>276</ele>
        <time>2018-02-23T10:39:01Z</time>
      </trkpt>
      <trkpt lat="45.94391" lon="4.88277">
        <ele>276</ele>
        <time>2018-02-23T10:39:02Z</time>
      </trkpt>
      <trkpt lat="45.944" lon="4.88279">
        <ele>276</ele>
        <time>2018-02-23T10:39:04Z</time>
      </trkpt>
      <trkpt lat="45.94404" lon="4.8828">
        <ele>276</ele>
        <time>2018-02-23T10:39:05Z</time>
      </trkpt>
      <trkpt lat="45.94409" lon="4.88281">
        <ele>276</ele>
        <time>2018-02-23T10:39:06Z</time>
      </trkpt>
      <trkpt lat="45.94413" lon="4.88282">
        <ele>276</ele>
        <time>2018-02-23T10:39:07Z</time>
      </trkpt>
      <trkpt lat="45.94418" lon="4.88282">
        <ele>276</ele>
        <time>2018-02-23T10:39:08Z</time>
      </trkpt>
      <trkpt lat="45.94423" lon="4.88283">
        <ele>276</ele>
        <time>2018-02-23T10:39:09Z</time>
      </trkpt>
      <trkpt lat="45.94427" lon="4.88283">
        <ele>276</ele>
        <time>2018-02-23T10:39:10Z</time>
      </trkpt>
      <trkpt lat="45.94432" lon="4.88284">
        <ele>276</ele>
        <time>2018-02-23T10:39:11Z</time>
      </trkpt>
      <trkpt lat="45.94436" lon="4.88285">
        <ele>276</ele>
        <time>2018-02-23T10:39:12Z</time>
      </trkpt>
      <trkpt lat="45.94441" lon="4.88286">
        <ele>276</ele>
        <time>2018-02-23T10:39:13Z</time>
      </trkpt>
      <trkpt lat="45.94446" lon="4.88287">
        <ele>276</ele>
        <time>2018-02-23T10:39:14Z</time>
      </trkpt>
      <trkpt lat="45.94451" lon="4.88288">
        <ele>276</ele>
        <time>2018-02-23T10:39:15Z</time>
      </trkpt>
      <trkpt lat="45.94455" lon="4.88289">
        <ele>276</ele>
        <time>2018-02-23T10:39:16Z</time>
      </trkpt>
      <trkpt lat="45.9446" lon="4.88289">
        <ele>276</ele>
        <time>2018-02-23T10:39:17Z</time>
      </trkpt>
      <trkpt lat="45.94468" lon="4.88289">
        <ele>276</ele>
        <time>2018-02-23T10:39:19Z</time>
      </trkpt>
      <trkpt lat="45.94473" lon="4.8829">
        <ele>276</ele>
        <time>2018-02-23T10:39:20Z</time>
      </trkpt>
      <trkpt lat="45.94477" lon="4.88291">
        <ele>276</ele>
        <time>2018-02-23T10:39:21Z</time>
      </trkpt>
      <trkpt lat="45.94482" lon="4.8829">
        <ele>276</ele>
        <time>2018-02-23T10:39:22Z</time>
      </trkpt>
      <trkpt lat="45.94487" lon="4.8829">
        <ele>276</ele>
        <time>2018-02-23T10:39:23Z</time>
      </trkpt>
      <trkpt lat="45.94491" lon="4.88291">
        <ele>276</ele>
        <time>2018-02-23T10:39:24Z</time>
      </trkpt>
      <trkpt lat="45.94496" lon="4.88292">
        <ele>276</ele>
        <time>2018-02-23T10:39:25Z</time>
      </trkpt>
      <trkpt lat="45.94501" lon="4.88293">
        <ele>275</ele>
        <time>2018-02-23T10:39:26Z</time>
      </trkpt>
      <trkpt lat="45.94505" lon="4.88293">
        <ele>275</ele>
        <time>2018-02-23T10:39:27Z</time>
      </trkpt>
      <trkpt lat="45.9451" lon="4.88295">
        <ele>275</ele>
        <time>2018-02-23T10:39:28Z</time>
      </trkpt>
      <trkpt lat="45.94518" lon="4.88297">
        <ele>275</ele>
        <time>2018-02-23T10:39:30Z</time>
      </trkpt>
      <trkpt lat="45.94523" lon="4.88298">
        <ele>275</ele>
        <time>2018-02-23T10:39:31Z</time>
      </trkpt>
      <trkpt lat="45.94531" lon="4.883">
        <ele>275</ele>
        <time>2018-02-23T10:39:33Z</time>
      </trkpt>
      <trkpt lat="45.94535" lon="4.883">
        <ele>275</ele>
        <time>2018-02-23T10:39:34Z</time>
      </trkpt>
      <trkpt lat="45.94543" lon="4.88302">
        <ele>275</ele>
        <time>2018-02-23T10:39:36Z</time>
      </trkpt>
      <trkpt lat="45.94547" lon="4.88303">
        <ele>275</ele>
        <time>2018-02-23T10:39:37Z</time>
      </trkpt>
      <trkpt lat="45.94555" lon="4.88304">
        <ele>275</ele>
        <time>2018-02-23T10:39:39Z</time>
      </trkpt>
      <trkpt lat="45.94559" lon="4.88304">
        <ele>275</ele>
        <time>2018-02-23T10:39:40Z</time>
      </trkpt>
      <trkpt lat="45.94567" lon="4.88306">
        <ele>275</ele>
        <time>2018-02-23T10:39:42Z</time>
      </trkpt>
      <trkpt lat="45.94571" lon="4.88306">
        <ele>275</ele>
        <time>2018-02-23T10:39:43Z</time>
      </trkpt>
      <trkpt lat="45.94578" lon="4.88307">
        <ele>275</ele>
        <time>2018-02-23T10:39:45Z</time>
      </trkpt>
      <trkpt lat="45.94582" lon="4.88307">
        <ele>275</ele>
        <time>2018-02-23T10:39:46Z</time>
      </trkpt>
      <trkpt lat="45.94591" lon="4.88308">
        <ele>275</ele>
        <time>2018-02-23T10:39:48Z</time>
      </trkpt>
      <trkpt lat="45.94595" lon="4.88309">
        <ele>275</ele>
        <time>2018-02-23T10:39:49Z</time>
      </trkpt>
      <trkpt lat="45.94604" lon="4.88311">
        <ele>275</ele>
        <time>2018-02-23T10:39:51Z</time>
      </trkpt>
      <trkpt lat="45.94608" lon="4.88312">
        <ele>275</ele>
        <time>2018-02-23T10:39:52Z</time>
      </trkpt>
      <trkpt lat="45.94613" lon="4.88312">
        <ele>275</ele>
        <time>2018-02-23T10:39:53Z</time>
      </trkpt>
      <trkpt lat="45.94617" lon="4.88312">
        <ele>275</ele>
        <time>2018-02-23T10:39:54Z</time>
      </trkpt>
      <trkpt lat="45.94622" lon="4.88313">
        <ele>275</ele>
        <time>2018-02-23T10:39:55Z</time>
      </trkpt>
      <trkpt lat="45.94626" lon="4.88314">
        <ele>276</ele>
        <time>2018-02-23T10:39:56Z</time>
      </trkpt>
      <trkpt lat="45.94635" lon="4.88315">
        <ele>276</ele>
        <time>2018-02-23T10:39:58Z</time>
      </trkpt>
      <trkpt lat="45.9464" lon="4.88316">
        <ele>276</ele>
        <time>2018-02-23T10:39:59Z</time>
      </trkpt>
      <trkpt lat="45.94644" lon="4.88315">
        <ele>276</ele>
        <time>2018-02-23T10:40:00Z</time>
      </trkpt>
      <trkpt lat="45.94649" lon="4.88315">
        <ele>276</ele>
        <time>2018-02-23T10:40:01Z</time>
      </trkpt>
      <trkpt lat="45.94657" lon="4.88318">
        <ele>276</ele>
        <time>2018-02-23T10:40:03Z</time>
      </trkpt>
      <trkpt lat="45.94661" lon="4.88319">
        <ele>276</ele>
        <time>2018-02-23T10:40:04Z</time>
      </trkpt>
      <trkpt lat="45.9467" lon="4.8832">
        <ele>276</ele>
        <time>2018-02-23T10:40:06Z</time>
      </trkpt>
      <trkpt lat="45.94675" lon="4.88321">
        <ele>276</ele>
        <time>2018-02-23T10:40:07Z</time>
      </trkpt>
      <trkpt lat="45.94679" lon="4.88322">
        <ele>276</ele>
        <time>2018-02-23T10:40:08Z</time>
      </trkpt>
      <trkpt lat="45.94684" lon="4.88322">
        <ele>276</ele>
        <time>2018-02-23T10:40:09Z</time>
      </trkpt>
      <trkpt lat="45.94688" lon="4.88322">
        <ele>276</ele>
        <time>2018-02-23T10:40:10Z</time>
      </trkpt>
      <trkpt lat="45.94693" lon="4.88323">
        <ele>276</ele>
        <time>2018-02-23T10:40:11Z</time>
      </trkpt>
      <trkpt lat="45.94701" lon="4.88324">
        <ele>276</ele>
        <time>2018-02-23T10:40:13Z</time>
      </trkpt>
      <trkpt lat="45.94705" lon="4.88325">
        <ele>276</ele>
        <time>2018-02-23T10:40:14Z</time>
      </trkpt>
      <trkpt lat="45.94714" lon="4.88326">
        <ele>276</ele>
        <time>2018-02-23T10:40:16Z</time>
      </trkpt>
      <trkpt lat="45.94717" lon="4.88326">
        <ele>276</ele>
        <time>2018-02-23T10:40:17Z</time>
      </trkpt>
      <trkpt lat="45.94725" lon="4.88327">
        <ele>276</ele>
        <time>2018-02-23T10:40:19Z</time>
      </trkpt>
      <trkpt lat="45.94729" lon="4.88327">
        <ele>277</ele>
        <time>2018-02-23T10:40:20Z</time>
      </trkpt>
      <trkpt lat="45.94737" lon="4.88328">
        <ele>277</ele>
        <time>2018-02-23T10:40:22Z</time>
      </trkpt>
      <trkpt lat="45.94741" lon="4.88328">
        <ele>277</ele>
        <time>2018-02-23T10:40:23Z</time>
      </trkpt>
      <trkpt lat="45.9475" lon="4.88329">
        <ele>277</ele>
        <time>2018-02-23T10:40:25Z</time>
      </trkpt>
      <trkpt lat="45.94754" lon="4.88329">
        <ele>277</ele>
        <time>2018-02-23T10:40:26Z</time>
      </trkpt>
      <trkpt lat="45.9476" lon="4.8833">
        <ele>277</ele>
        <time>2018-02-23T10:40:28Z</time>
      </trkpt>
      <trkpt lat="45.94765" lon="4.88331">
        <ele>277</ele>
        <time>2018-02-23T10:40:29Z</time>
      </trkpt>
      <trkpt lat="45.94773" lon="4.88333">
        <ele>277</ele>
        <time>2018-02-23T10:40:31Z</time>
      </trkpt>
      <trkpt lat="45.94777" lon="4.88334">
        <ele>278</ele>
        <time>2018-02-23T10:40:32Z</time>
      </trkpt>
      <trkpt lat="45.94786" lon="4.88335">
        <ele>278</ele>
        <time>2018-02-23T10:40:34Z</time>
      </trkpt>
      <trkpt lat="45.94789" lon="4.88336">
        <ele>278</ele>
        <time>2018-02-23T10:40:35Z</time>
      </trkpt>
      <trkpt lat="45.94797" lon="4.88337">
        <ele>278</ele>
        <time>2018-02-23T10:40:37Z</time>
      </trkpt>
      <trkpt lat="45.94801" lon="4.88338">
        <ele>278</ele>
        <time>2018-02-23T10:40:38Z</time>
      </trkpt>
      <trkpt lat="45.94809" lon="4.88338">
        <ele>278</ele>
        <time>2018-02-23T10:40:40Z</time>
      </trkpt>
      <trkpt lat="45.94813" lon="4.88338">
        <ele>278</ele>
        <time>2018-02-23T10:40:41Z</time>
      </trkpt>
      <trkpt lat="45.94821" lon="4.88338">
        <ele>278</ele>
        <time>2018-02-23T10:40:43Z</time>
      </trkpt>
      <trkpt lat="45.94825" lon="4.88337">
        <ele>279</ele>
        <time>2018-02-23T10:40:44Z</time>
      </trkpt>
      <trkpt lat="45.94833" lon="4.88336">
        <ele>279</ele>
        <time>2018-02-23T10:40:46Z</time>
      </trkpt>
      <trkpt lat="45.94837" lon="4.88336">
        <ele>279</ele>
        <time>2018-02-23T10:40:47Z</time>
      </trkpt>
      <trkpt lat="45.94844" lon="4.88335">
        <ele>279</ele>
        <time>2018-02-23T10:40:49Z</time>
      </trkpt>
      <trkpt lat="45.94848" lon="4.88334">
        <ele>280</ele>
        <time>2018-02-23T10:40:50Z</time>
      </trkpt>
      <trkpt lat="45.94856" lon="4.88331">
        <ele>280</ele>
        <time>2018-02-23T10:40:52Z</time>
      </trkpt>
      <trkpt lat="45.94859" lon="4.8833">
        <ele>280</ele>
        <time>2018-02-23T10:40:53Z</time>
      </trkpt>
      <trkpt lat="45.94866" lon="4.88329">
        <ele>280</ele>
        <time>2018-02-23T10:40:56Z</time>
      </trkpt>
      <trkpt lat="45.94868" lon="4.88329">
        <ele>280</ele>
        <time>2018-02-23T10:40:57Z</time>
      </trkpt>
      <trkpt lat="45.94877" lon="4.88328">
        <ele>280</ele>
        <time>2018-02-23T10:41:00Z</time>
      </trkpt>
      <trkpt lat="45.9488" lon="4.88327">
        <ele>280</ele>
        <time>2018-02-23T10:41:01Z</time>
      </trkpt>
      <trkpt lat="45.94887" lon="4.88325">
        <ele>281</ele>
        <time>2018-02-23T10:41:03Z</time>
      </trkpt>
      <trkpt lat="45.9489" lon="4.88324">
        <ele>281</ele>
        <time>2018-02-23T10:41:04Z</time>
      </trkpt>
      <trkpt lat="45.94893" lon="4.88323">
        <ele>281</ele>
        <time>2018-02-23T10:41:05Z</time>
      </trkpt>
      <trkpt lat="45.94903" lon="4.88319">
        <ele>281</ele>
        <time>2018-02-23T10:41:06Z</time>
      </trkpt>
      <trkpt lat="45.94907" lon="4.88317">
        <ele>281</ele>
        <time>2018-02-23T10:41:08Z</time>
      </trkpt>
      <trkpt lat="45.94913" lon="4.88314">
        <ele>281</ele>
        <time>2018-02-23T10:41:09Z</time>
      </trkpt>
      <trkpt lat="45.9492" lon="4.88311">
        <ele>283</ele>
        <time>2018-02-23T10:41:11Z</time>
      </trkpt>
      <trkpt lat="45.94923" lon="4.88309">
        <ele>283</ele>
        <time>2018-02-23T10:41:12Z</time>
      </trkpt>
      <trkpt lat="45.9493" lon="4.88305">
        <ele>283</ele>
        <time>2018-02-23T10:41:14Z</time>
      </trkpt>
      <trkpt lat="45.94934" lon="4.88303">
        <ele>283</ele>
        <time>2018-02-23T10:41:15Z</time>
      </trkpt>
      <trkpt lat="45.94941" lon="4.883">
        <ele>283</ele>
        <time>2018-02-23T10:41:17Z</time>
      </trkpt>
      <trkpt lat="45.94945" lon="4.88299">
        <ele>283</ele>
        <time>2018-02-23T10:41:18Z</time>
      </trkpt>
      <trkpt lat="45.94953" lon="4.88296">
        <ele>283</ele>
        <time>2018-02-23T10:41:20Z</time>
      </trkpt>
      <trkpt lat="45.94954" lon="4.88296">
        <ele>283</ele>
        <time>2018-02-23T10:41:21Z</time>
      </trkpt>
      <trkpt lat="45.94962" lon="4.88294">
        <ele>283</ele>
        <time>2018-02-23T10:41:23Z</time>
      </trkpt>
      <trkpt lat="45.94967" lon="4.88292">
        <ele>283</ele>
        <time>2018-02-23T10:41:24Z</time>
      </trkpt>
      <trkpt lat="45.94971" lon="4.8829">
        <ele>283</ele>
        <time>2018-02-23T10:41:26Z</time>
      </trkpt>
      <trkpt lat="45.94977" lon="4.88288">
        <ele>283</ele>
        <time>2018-02-23T10:41:27Z</time>
      </trkpt>
      <trkpt lat="45.94984" lon="4.88286">
        <ele>283</ele>
        <time>2018-02-23T10:41:30Z</time>
      </trkpt>
      <trkpt lat="45.94987" lon="4.88285">
        <ele>283</ele>
        <time>2018-02-23T10:41:31Z</time>
      </trkpt>
      <trkpt lat="45.94989" lon="4.88284">
        <ele>283</ele>
        <time>2018-02-23T10:41:32Z</time>
      </trkpt>
      <trkpt lat="45.94998" lon="4.88281">
        <ele>283</ele>
        <time>2018-02-23T10:41:33Z</time>
      </trkpt>
      <trkpt lat="45.95004" lon="4.88279">
        <ele>285</ele>
        <time>2018-02-23T10:41:35Z</time>
      </trkpt>
      <trkpt lat="45.95009" lon="4.88278">
        <ele>285</ele>
        <time>2018-02-23T10:41:36Z</time>
      </trkpt>
      <trkpt lat="45.95016" lon="4.88275">
        <ele>285</ele>
        <time>2018-02-23T10:41:38Z</time>
      </trkpt>
      <trkpt lat="45.9502" lon="4.88274">
        <ele>285</ele>
        <time>2018-02-23T10:41:39Z</time>
      </trkpt>
      <trkpt lat="45.95025" lon="4.88272">
        <ele>285</ele>
        <time>2018-02-23T10:41:41Z</time>
      </trkpt>
      <trkpt lat="45.95031" lon="4.8827">
        <ele>285</ele>
        <time>2018-02-23T10:41:42Z</time>
      </trkpt>
      <trkpt lat="45.95037" lon="4.88267">
        <ele>285</ele>
        <time>2018-02-23T10:41:45Z</time>
      </trkpt>
      <trkpt lat="45.9504" lon="4.88266">
        <ele>285</ele>
        <time>2018-02-23T10:41:46Z</time>
      </trkpt>
      <trkpt lat="45.95045" lon="4.88263">
        <ele>286</ele>
        <time>2018-02-23T10:41:48Z</time>
      </trkpt>
      <trkpt lat="45.95048" lon="4.88262">
        <ele>286</ele>
        <time>2018-02-23T10:41:49Z</time>
      </trkpt>
      <trkpt lat="45.95054" lon="4.8826">
        <ele>286</ele>
        <time>2018-02-23T10:41:51Z</time>
      </trkpt>
      <trkpt lat="45.95058" lon="4.88259">
        <ele>286</ele>
        <time>2018-02-23T10:41:52Z</time>
      </trkpt>
      <trkpt lat="45.95067" lon="4.88255">
        <ele>286</ele>
        <time>2018-02-23T10:41:53Z</time>
      </trkpt>
      <trkpt lat="45.95074" lon="4.88252">
        <ele>287</ele>
        <time>2018-02-23T10:41:55Z</time>
      </trkpt>
      <trkpt lat="45.95078" lon="4.8825">
        <ele>287</ele>
        <time>2018-02-23T10:41:56Z</time>
      </trkpt>
      <trkpt lat="45.95082" lon="4.88249">
        <ele>287</ele>
        <time>2018-02-23T10:41:58Z</time>
      </trkpt>
      <trkpt lat="45.95088" lon="4.88246">
        <ele>287</ele>
        <time>2018-02-23T10:41:59Z</time>
      </trkpt>
      <trkpt lat="45.95093" lon="4.88245">
        <ele>287</ele>
        <time>2018-02-23T10:42:01Z</time>
      </trkpt>
      <trkpt lat="45.95099" lon="4.88243">
        <ele>287</ele>
        <time>2018-02-23T10:42:02Z</time>
      </trkpt>
      <trkpt lat="45.95106" lon="4.88242">
        <ele>287</ele>
        <time>2018-02-23T10:42:05Z</time>
      </trkpt>
      <trkpt lat="45.95108" lon="4.8824">
        <ele>287</ele>
        <time>2018-02-23T10:42:06Z</time>
      </trkpt>
      <trkpt lat="45.9511" lon="4.88238">
        <ele>287</ele>
        <time>2018-02-23T10:42:07Z</time>
      </trkpt>
      <trkpt lat="45.95114" lon="4.8823">
        <ele>287</ele>
        <time>2018-02-23T10:42:08Z</time>
      </trkpt>
      <trkpt lat="45.95116" lon="4.88218">
        <ele>287</ele>
        <time>2018-02-23T10:42:10Z</time>
      </trkpt>
      <trkpt lat="45.95119" lon="4.88213">
        <ele>287</ele>
        <time>2018-02-23T10:42:11Z</time>
      </trkpt>
      <trkpt lat="45.95121" lon="4.88207">
        <ele>287</ele>
        <time>2018-02-23T10:42:12Z</time>
      </trkpt>
      <trkpt lat="45.95124" lon="4.88202">
        <ele>287</ele>
        <time>2018-02-23T10:42:13Z</time>
      </trkpt>
      <trkpt lat="45.95127" lon="4.88197">
        <ele>287</ele>
        <time>2018-02-23T10:42:14Z</time>
      </trkpt>
      <trkpt lat="45.95131" lon="4.88192">
        <ele>286</ele>
        <time>2018-02-23T10:42:15Z</time>
      </trkpt>
      <trkpt lat="45.95136" lon="4.88188">
        <ele>286</ele>
        <time>2018-02-23T10:42:16Z</time>
      </trkpt>
      <trkpt lat="45.95141" lon="4.88183">
        <ele>286</ele>
        <time>2018-02-23T10:42:17Z</time>
      </trkpt>
      <trkpt lat="45.95146" lon="4.88181">
        <ele>286</ele>
        <time>2018-02-23T10:42:18Z</time>
      </trkpt>
      <trkpt lat="45.95151" lon="4.88178">
        <ele>286</ele>
        <time>2018-02-23T10:42:19Z</time>
      </trkpt>
      <trkpt lat="45.95158" lon="4.88177">
        <ele>286</ele>
        <time>2018-02-23T10:42:20Z</time>
      </trkpt>
      <trkpt lat="45.95163" lon="4.88175">
        <ele>286</ele>
        <time>2018-02-23T10:42:21Z</time>
      </trkpt>
      <trkpt lat="45.95168" lon="4.88173">
        <ele>285</ele>
        <time>2018-02-23T10:42:22Z</time>
      </trkpt>
      <trkpt lat="45.95174" lon="4.88172">
        <ele>285</ele>
        <time>2018-02-23T10:42:23Z</time>
      </trkpt>
      <trkpt lat="45.95179" lon="4.88171">
        <ele>285</ele>
        <time>2018-02-23T10:42:24Z</time>
      </trkpt>
      <trkpt lat="45.95185" lon="4.8817">
        <ele>285</ele>
        <time>2018-02-23T10:42:25Z</time>
      </trkpt>
      <trkpt lat="45.9519" lon="4.8817">
        <ele>285</ele>
        <time>2018-02-23T10:42:26Z</time>
      </trkpt>
      <trkpt lat="45.95195" lon="4.8817">
        <ele>285</ele>
        <time>2018-02-23T10:42:27Z</time>
      </trkpt>
      <trkpt lat="45.952" lon="4.88168">
        <ele>285</ele>
        <time>2018-02-23T10:42:28Z</time>
      </trkpt>
      <trkpt lat="45.95205" lon="4.88167">
        <ele>285</ele>
        <time>2018-02-23T10:42:29Z</time>
      </trkpt>
      <trkpt lat="45.9521" lon="4.88167">
        <ele>284</ele>
        <time>2018-02-23T10:42:30Z</time>
      </trkpt>
      <trkpt lat="45.95215" lon="4.88167">
        <ele>284</ele>
        <time>2018-02-23T10:42:31Z</time>
      </trkpt>
      <trkpt lat="45.95221" lon="4.88167">
        <ele>284</ele>
        <time>2018-02-23T10:42:32Z</time>
      </trkpt>
      <trkpt lat="45.95227" lon="4.88167">
        <ele>284</ele>
        <time>2018-02-23T10:42:33Z</time>
      </trkpt>
      <trkpt lat="45.95233" lon="4.88167">
        <ele>283</ele>
        <time>2018-02-23T10:42:34Z</time>
      </trkpt>
      <trkpt lat="45.95239" lon="4.88168">
        <ele>283</ele>
        <time>2018-02-23T10:42:35Z</time>
      </trkpt>
      <trkpt lat="45.95245" lon="4.88169">
        <ele>282</ele>
        <time>2018-02-23T10:42:36Z</time>
      </trkpt>
      <trkpt lat="45.95251" lon="4.88169">
        <ele>281</ele>
        <time>2018-02-23T10:42:37Z</time>
      </trkpt>
      <trkpt lat="45.95257" lon="4.88168">
        <ele>281</ele>
        <time>2018-02-23T10:42:38Z</time>
      </trkpt>
      <trkpt lat="45.95263" lon="4.88168">
        <ele>281</ele>
        <time>2018-02-23T10:42:39Z</time>
      </trkpt>
      <trkpt lat="45.95269" lon="4.88168">
        <ele>281</ele>
        <time>2018-02-23T10:42:40Z</time>
      </trkpt>
      <trkpt lat="45.95276" lon="4.88169">
        <ele>281</ele>
        <time>2018-02-23T10:42:41Z</time>
      </trkpt>
      <trkpt lat="45.95281" lon="4.88169">
        <ele>281</ele>
        <time>2018-02-23T10:42:42Z</time>
      </trkpt>
      <trkpt lat="45.95288" lon="4.88169">
        <ele>281</ele>
        <time>2018-02-23T10:42:43Z</time>
      </trkpt>
      <trkpt lat="45.95294" lon="4.88169">
        <ele>281</ele>
        <time>2018-02-23T10:42:44Z</time>
      </trkpt>
      <trkpt lat="45.95301" lon="4.8817">
        <ele>281</ele>
        <time>2018-02-23T10:42:45Z</time>
      </trkpt>
      <trkpt lat="45.95307" lon="4.88172">
        <ele>280</ele>
        <time>2018-02-23T10:42:46Z</time>
      </trkpt>
      <trkpt lat="45.95313" lon="4.88172">
        <ele>280</ele>
        <time>2018-02-23T10:42:47Z</time>
      </trkpt>
      <trkpt lat="45.95321" lon="4.88174">
        <ele>280</ele>
        <time>2018-02-23T10:42:48Z</time>
      </trkpt>
      <trkpt lat="45.95327" lon="4.88174">
        <ele>279</ele>
        <time>2018-02-23T10:42:49Z</time>
      </trkpt>
      <trkpt lat="45.95333" lon="4.88174">
        <ele>279</ele>
        <time>2018-02-23T10:42:50Z</time>
      </trkpt>
      <trkpt lat="45.95339" lon="4.88173">
        <ele>278</ele>
        <time>2018-02-23T10:42:51Z</time>
      </trkpt>
      <trkpt lat="45.95345" lon="4.88172">
        <ele>278</ele>
        <time>2018-02-23T10:42:52Z</time>
      </trkpt>
      <trkpt lat="45.9535" lon="4.88171">
        <ele>278</ele>
        <time>2018-02-23T10:42:53Z</time>
      </trkpt>
      <trkpt lat="45.95356" lon="4.8817">
        <ele>278</ele>
        <time>2018-02-23T10:42:54Z</time>
      </trkpt>
      <trkpt lat="45.9536" lon="4.88168">
        <ele>278</ele>
        <time>2018-02-23T10:42:55Z</time>
      </trkpt>
      <trkpt lat="45.95366" lon="4.88167">
        <ele>278</ele>
        <time>2018-02-23T10:42:56Z</time>
      </trkpt>
      <trkpt lat="45.95372" lon="4.88167">
        <ele>276</ele>
        <time>2018-02-23T10:42:57Z</time>
      </trkpt>
      <trkpt lat="45.95377" lon="4.88165">
        <ele>276</ele>
        <time>2018-02-23T10:42:58Z</time>
      </trkpt>
      <trkpt lat="45.95383" lon="4.88164">
        <ele>276</ele>
        <time>2018-02-23T10:42:59Z</time>
      </trkpt>
      <trkpt lat="45.95391" lon="4.88162">
        <ele>276</ele>
        <time>2018-02-23T10:43:01Z</time>
      </trkpt>
      <trkpt lat="45.95397" lon="4.88159">
        <ele>276</ele>
        <time>2018-02-23T10:43:02Z</time>
      </trkpt>
      <trkpt lat="45.95402" lon="4.88157">
        <ele>276</ele>
        <time>2018-02-23T10:43:03Z</time>
      </trkpt>
      <trkpt lat="45.95408" lon="4.88155">
        <ele>276</ele>
        <time>2018-02-23T10:43:04Z</time>
      </trkpt>
      <trkpt lat="45.95416" lon="4.88151">
        <ele>276</ele>
        <time>2018-02-23T10:43:06Z</time>
      </trkpt>
      <trkpt lat="45.9542" lon="4.88149">
        <ele>276</ele>
        <time>2018-02-23T10:43:07Z</time>
      </trkpt>
      <trkpt lat="45.95424" lon="4.88147">
        <ele>276</ele>
        <time>2018-02-23T10:43:08Z</time>
      </trkpt>
      <trkpt lat="45.95429" lon="4.88144">
        <ele>276</ele>
        <time>2018-02-23T10:43:09Z</time>
      </trkpt>
      <trkpt lat="45.95436" lon="4.8814">
        <ele>276</ele>
        <time>2018-02-23T10:43:11Z</time>
      </trkpt>
      <trkpt lat="45.9544" lon="4.88138">
        <ele>276</ele>
        <time>2018-02-23T10:43:12Z</time>
      </trkpt>
      <trkpt lat="45.95444" lon="4.88134">
        <ele>275</ele>
        <time>2018-02-23T10:43:13Z</time>
      </trkpt>
      <trkpt lat="45.95448" lon="4.88131">
        <ele>275</ele>
        <time>2018-02-23T10:43:14Z</time>
      </trkpt>
      <trkpt lat="45.95456" lon="4.88129">
        <ele>276</ele>
        <time>2018-02-23T10:43:16Z</time>
      </trkpt>
      <trkpt lat="45.95462" lon="4.88128">
        <ele>276</ele>
        <time>2018-02-23T10:43:17Z</time>
      </trkpt>
      <trkpt lat="45.95469" lon="4.88125">
        <ele>276</ele>
        <time>2018-02-23T10:43:19Z</time>
      </trkpt>
      <trkpt lat="45.95474" lon="4.88123">
        <ele>276</ele>
        <time>2018-02-23T10:43:20Z</time>
      </trkpt>
      <trkpt lat="45.95478" lon="4.8812">
        <ele>276</ele>
        <time>2018-02-23T10:43:21Z</time>
      </trkpt>
      <trkpt lat="45.95485" lon="4.88118">
        <ele>276</ele>
        <time>2018-02-23T10:43:22Z</time>
      </trkpt>
      <trkpt lat="45.95493" lon="4.88113">
        <ele>276</ele>
        <time>2018-02-23T10:43:24Z</time>
      </trkpt>
      <trkpt lat="45.95497" lon="4.88111">
        <ele>276</ele>
        <time>2018-02-23T10:43:25Z</time>
      </trkpt>
      <trkpt lat="45.95504" lon="4.88111">
        <ele>276</ele>
        <time>2018-02-23T10:43:27Z</time>
      </trkpt>
      <trkpt lat="45.95508" lon="4.88109">
        <ele>276</ele>
        <time>2018-02-23T10:43:28Z</time>
      </trkpt>
      <trkpt lat="45.95512" lon="4.88107">
        <ele>276</ele>
        <time>2018-02-23T10:43:29Z</time>
      </trkpt>
      <trkpt lat="45.95517" lon="4.88105">
        <ele>276</ele>
        <time>2018-02-23T10:43:30Z</time>
      </trkpt>
      <trkpt lat="45.95521" lon="4.88103">
        <ele>276</ele>
        <time>2018-02-23T10:43:31Z</time>
      </trkpt>
      <trkpt lat="45.95525" lon="4.881">
        <ele>277</ele>
        <time>2018-02-23T10:43:32Z</time>
      </trkpt>
      <trkpt lat="45.95532" lon="4.88097">
        <ele>277</ele>
        <time>2018-02-23T10:43:34Z</time>
      </trkpt>
      <trkpt lat="45.95536" lon="4.88095">
        <ele>277</ele>
        <time>2018-02-23T10:43:35Z</time>
      </trkpt>
      <trkpt lat="45.95544" lon="4.88093">
        <ele>277</ele>
        <time>2018-02-23T10:43:37Z</time>
      </trkpt>
      <trkpt lat="45.95547" lon="4.88091">
        <ele>277</ele>
        <time>2018-02-23T10:43:38Z</time>
      </trkpt>
      <trkpt lat="45.95554" lon="4.88087">
        <ele>277</ele>
        <time>2018-02-23T10:43:40Z</time>
      </trkpt>
      <trkpt lat="45.95558" lon="4.88085">
        <ele>277</ele>
        <time>2018-02-23T10:43:41Z</time>
      </trkpt>
      <trkpt lat="45.95565" lon="4.8808">
        <ele>276</ele>
        <time>2018-02-23T10:43:43Z</time>
      </trkpt>
      <trkpt lat="45.95569" lon="4.88078">
        <ele>276</ele>
        <time>2018-02-23T10:43:44Z</time>
      </trkpt>
      <trkpt lat="45.95576" lon="4.88072">
        <ele>277</ele>
        <time>2018-02-23T10:43:46Z</time>
      </trkpt>
      <trkpt lat="45.9558" lon="4.8807">
        <ele>276</ele>
        <time>2018-02-23T10:43:47Z</time>
      </trkpt>
      <trkpt lat="45.95587" lon="4.88064">
        <ele>278</ele>
        <time>2018-02-23T10:43:49Z</time>
      </trkpt>
      <trkpt lat="45.95591" lon="4.88062">
        <ele>278</ele>
        <time>2018-02-23T10:43:50Z</time>
      </trkpt>
      <trkpt lat="45.95598" lon="4.88056">
        <ele>278</ele>
        <time>2018-02-23T10:43:52Z</time>
      </trkpt>
      <trkpt lat="45.95602" lon="4.88053">
        <ele>278</ele>
        <time>2018-02-23T10:43:53Z</time>
      </trkpt>
      <trkpt lat="45.95609" lon="4.88047">
        <ele>278</ele>
        <time>2018-02-23T10:43:55Z</time>
      </trkpt>
      <trkpt lat="45.95612" lon="4.88044">
        <ele>278</ele>
        <time>2018-02-23T10:43:56Z</time>
      </trkpt>
      <trkpt lat="45.95619" lon="4.88038">
        <ele>278</ele>
        <time>2018-02-23T10:43:58Z</time>
      </trkpt>
      <trkpt lat="45.95623" lon="4.88035">
        <ele>278</ele>
        <time>2018-02-23T10:43:59Z</time>
      </trkpt>
      <trkpt lat="45.9563" lon="4.88028">
        <ele>279</ele>
        <time>2018-02-23T10:44:01Z</time>
      </trkpt>
      <trkpt lat="45.95633" lon="4.88025">
        <ele>279</ele>
        <time>2018-02-23T10:44:02Z</time>
      </trkpt>
      <trkpt lat="45.9564" lon="4.88019">
        <ele>279</ele>
        <time>2018-02-23T10:44:04Z</time>
      </trkpt>
      <trkpt lat="45.95643" lon="4.88016">
        <ele>279</ele>
        <time>2018-02-23T10:44:05Z</time>
      </trkpt>
      <trkpt lat="45.9565" lon="4.8801">
        <ele>280</ele>
        <time>2018-02-23T10:44:08Z</time>
      </trkpt>
      <trkpt lat="45.95652" lon="4.88008">
        <ele>280</ele>
        <time>2018-02-23T10:44:09Z</time>
      </trkpt>
      <trkpt lat="45.95659" lon="4.88002">
        <ele>280</ele>
        <time>2018-02-23T10:44:12Z</time>
      </trkpt>
      <trkpt lat="45.95661" lon="4.87999">
        <ele>280</ele>
        <time>2018-02-23T10:44:13Z</time>
      </trkpt>
      <trkpt lat="45.95668" lon="4.87992">
        <ele>281</ele>
        <time>2018-02-23T10:44:16Z</time>
      </trkpt>
      <trkpt lat="45.95671" lon="4.8799">
        <ele>282</ele>
        <time>2018-02-23T10:44:17Z</time>
      </trkpt>
      <trkpt lat="45.95678" lon="4.87983">
        <ele>282</ele>
        <time>2018-02-23T10:44:20Z</time>
      </trkpt>
      <trkpt lat="45.95681" lon="4.87981">
        <ele>282</ele>
        <time>2018-02-23T10:44:21Z</time>
      </trkpt>
      <trkpt lat="45.95688" lon="4.87974">
        <ele>282</ele>
        <time>2018-02-23T10:44:24Z</time>
      </trkpt>
      <trkpt lat="45.9569" lon="4.87971">
        <ele>282</ele>
        <time>2018-02-23T10:44:25Z</time>
      </trkpt>
      <trkpt lat="45.95697" lon="4.87964">
        <ele>282</ele>
        <time>2018-02-23T10:44:28Z</time>
      </trkpt>
      <trkpt lat="45.957" lon="4.87962">
        <ele>282</ele>
        <time>2018-02-23T10:44:29Z</time>
      </trkpt>
      <trkpt lat="45.95707" lon="4.87956">
        <ele>283</ele>
        <time>2018-02-23T10:44:32Z</time>
      </trkpt>
      <trkpt lat="45.9571" lon="4.87953">
        <ele>283</ele>
        <time>2018-02-23T10:44:33Z</time>
      </trkpt>
      <trkpt lat="45.95715" lon="4.87948">
        <ele>283</ele>
        <time>2018-02-23T10:44:35Z</time>
      </trkpt>
      <trkpt lat="45.95717" lon="4.87946">
        <ele>283</ele>
        <time>2018-02-23T10:44:36Z</time>
      </trkpt>
      <trkpt lat="45.95722" lon="4.87941">
        <ele>283</ele>
        <time>2018-02-23T10:44:38Z</time>
      </trkpt>
      <trkpt lat="45.95725" lon="4.87939">
        <ele>283</ele>
        <time>2018-02-23T10:44:39Z</time>
      </trkpt>
      <trkpt lat="45.95732" lon="4.87934">
        <ele>284</ele>
        <time>2018-02-23T10:44:42Z</time>
      </trkpt>
      <trkpt lat="45.95735" lon="4.87932">
        <ele>284</ele>
        <time>2018-02-23T10:44:43Z</time>
      </trkpt>
      <trkpt lat="45.95742" lon="4.87926">
        <ele>284</ele>
        <time>2018-02-23T10:44:46Z</time>
      </trkpt>
      <trkpt lat="45.95744" lon="4.87925">
        <ele>284</ele>
        <time>2018-02-23T10:44:47Z</time>
      </trkpt>
      <trkpt lat="45.9575" lon="4.87921">
        <ele>285</ele>
        <time>2018-02-23T10:44:49Z</time>
      </trkpt>
      <trkpt lat="45.95752" lon="4.87919">
        <ele>285</ele>
        <time>2018-02-23T10:44:50Z</time>
      </trkpt>
      <trkpt lat="45.95758" lon="4.87915">
        <ele>285</ele>
        <time>2018-02-23T10:44:52Z</time>
      </trkpt>
      <trkpt lat="45.9576" lon="4.87913">
        <ele>285</ele>
        <time>2018-02-23T10:44:53Z</time>
      </trkpt>
      <trkpt lat="45.95768" lon="4.87907">
        <ele>286</ele>
        <time>2018-02-23T10:44:56Z</time>
      </trkpt>
      <trkpt lat="45.9577" lon="4.87905">
        <ele>286</ele>
        <time>2018-02-23T10:44:57Z</time>
      </trkpt>
      <trkpt lat="45.95777" lon="4.879">
        <ele>286</ele>
        <time>2018-02-23T10:45:00Z</time>
      </trkpt>
      <trkpt lat="45.9578" lon="4.87898">
        <ele>286</ele>
        <time>2018-02-23T10:45:01Z</time>
      </trkpt>
      <trkpt lat="45.95787" lon="4.87893">
        <ele>286</ele>
        <time>2018-02-23T10:45:04Z</time>
      </trkpt>
      <trkpt lat="45.95789" lon="4.87891">
        <ele>286</ele>
        <time>2018-02-23T10:45:05Z</time>
      </trkpt>
      <trkpt lat="45.95796" lon="4.87888">
        <ele>286</ele>
        <time>2018-02-23T10:45:08Z</time>
      </trkpt>
      <trkpt lat="45.95798" lon="4.87886">
        <ele>287</ele>
        <time>2018-02-23T10:45:09Z</time>
      </trkpt>
      <trkpt lat="45.95805" lon="4.87881">
        <ele>287</ele>
        <time>2018-02-23T10:45:13Z</time>
      </trkpt>
      <trkpt lat="45.95808" lon="4.87879">
        <ele>287</ele>
        <time>2018-02-23T10:45:14Z</time>
      </trkpt>
      <trkpt lat="45.95814" lon="4.87877">
        <ele>287</ele>
        <time>2018-02-23T10:45:17Z</time>
      </trkpt>
      <trkpt lat="45.95817" lon="4.87875">
        <ele>287</ele>
        <time>2018-02-23T10:45:18Z</time>
      </trkpt>
      <trkpt lat="45.95824" lon="4.87873">
        <ele>287</ele>
        <time>2018-02-23T10:45:21Z</time>
      </trkpt>
      <trkpt lat="45.95826" lon="4.87872">
        <ele>287</ele>
        <time>2018-02-23T10:45:22Z</time>
      </trkpt>
      <trkpt lat="45.95834" lon="4.8787">
        <ele>289</ele>
        <time>2018-02-23T10:45:25Z</time>
      </trkpt>
      <trkpt lat="45.95837" lon="4.87868">
        <ele>289</ele>
        <time>2018-02-23T10:45:26Z</time>
      </trkpt>
      <trkpt lat="45.95842" lon="4.87863">
        <ele>289</ele>
        <time>2018-02-23T10:45:28Z</time>
      </trkpt>
      <trkpt lat="45.95849" lon="4.87854">
        <ele>289</ele>
        <time>2018-02-23T10:45:29Z</time>
      </trkpt>
      <trkpt lat="45.95855" lon="4.87848">
        <ele>289</ele>
        <time>2018-02-23T10:45:32Z</time>
      </trkpt>
      <trkpt lat="45.95857" lon="4.87846">
        <ele>289</ele>
        <time>2018-02-23T10:45:33Z</time>
      </trkpt>
      <trkpt lat="45.95865" lon="4.8784">
        <ele>289</ele>
        <time>2018-02-23T10:45:36Z</time>
      </trkpt>
      <trkpt lat="45.95867" lon="4.87837">
        <ele>289</ele>
        <time>2018-02-23T10:45:37Z</time>
      </trkpt>
      <trkpt lat="45.95875" lon="4.8783">
        <ele>288</ele>
        <time>2018-02-23T10:45:38Z</time>
      </trkpt>
      <trkpt lat="45.9588" lon="4.87823">
        <ele>288</ele>
        <time>2018-02-23T10:45:40Z</time>
      </trkpt>
      <trkpt lat="45.95883" lon="4.87819">
        <ele>288</ele>
        <time>2018-02-23T10:45:41Z</time>
      </trkpt>
      <trkpt lat="45.95889" lon="4.87811">
        <ele>288</ele>
        <time>2018-02-23T10:45:43Z</time>
      </trkpt>
      <trkpt lat="45.95892" lon="4.87808">
        <ele>288</ele>
        <time>2018-02-23T10:45:44Z</time>
      </trkpt>
      <trkpt lat="45.95898" lon="4.87799">
        <ele>288</ele>
        <time>2018-02-23T10:45:48Z</time>
      </trkpt>
      <trkpt lat="45.959" lon="4.87797">
        <ele>288</ele>
        <time>2018-02-23T10:45:49Z</time>
      </trkpt>
      <trkpt lat="45.95906" lon="4.87788">
        <ele>288</ele>
        <time>2018-02-23T10:45:52Z</time>
      </trkpt>
      <trkpt lat="45.95908" lon="4.87785">
        <ele>288</ele>
        <time>2018-02-23T10:45:53Z</time>
      </trkpt>
      <trkpt lat="45.9591" lon="4.87781">
        <ele>288</ele>
        <time>2018-02-23T10:45:54Z</time>
      </trkpt>
      <trkpt lat="45.95917" lon="4.8777">
        <ele>289</ele>
        <time>2018-02-23T10:45:55Z</time>
      </trkpt>
      <trkpt lat="45.95923" lon="4.87762">
        <ele>288</ele>
        <time>2018-02-23T10:45:58Z</time>
      </trkpt>
      <trkpt lat="45.95926" lon="4.87759">
        <ele>288</ele>
        <time>2018-02-23T10:45:59Z</time>
      </trkpt>
      <trkpt lat="45.9593" lon="4.87752">
        <ele>288</ele>
        <time>2018-02-23T10:46:01Z</time>
      </trkpt>
      <trkpt lat="45.95932" lon="4.87749">
        <ele>288</ele>
        <time>2018-02-23T10:46:02Z</time>
      </trkpt>
      <trkpt lat="45.95937" lon="4.87742">
        <ele>288</ele>
        <time>2018-02-23T10:46:04Z</time>
      </trkpt>
      <trkpt lat="45.95939" lon="4.87739">
        <ele>288</ele>
        <time>2018-02-23T10:46:05Z</time>
      </trkpt>
      <trkpt lat="45.95943" lon="4.87733">
        <ele>289</ele>
        <time>2018-02-23T10:46:07Z</time>
      </trkpt>
      <trkpt lat="45.95946" lon="4.8773">
        <ele>289</ele>
        <time>2018-02-23T10:46:08Z</time>
      </trkpt>
      <trkpt lat="45.95952" lon="4.87721">
        <ele>289</ele>
        <time>2018-02-23T10:46:09Z</time>
      </trkpt>
      <trkpt lat="45.95955" lon="4.87718">
        <ele>289</ele>
        <time>2018-02-23T10:46:10Z</time>
      </trkpt>
      <trkpt lat="45.95961" lon="4.8771">
        <ele>289</ele>
        <time>2018-02-23T10:46:12Z</time>
      </trkpt>
      <trkpt lat="45.95964" lon="4.87706">
        <ele>289</ele>
        <time>2018-02-23T10:46:13Z</time>
      </trkpt>
      <trkpt lat="45.9597" lon="4.87698">
        <ele>289</ele>
        <time>2018-02-23T10:46:15Z</time>
      </trkpt>
      <trkpt lat="45.95973" lon="4.87694">
        <ele>289</ele>
        <time>2018-02-23T10:46:16Z</time>
      </trkpt>
      <trkpt lat="45.9598" lon="4.87686">
        <ele>289</ele>
        <time>2018-02-23T10:46:18Z</time>
      </trkpt>
      <trkpt lat="45.95983" lon="4.87682">
        <ele>289</ele>
        <time>2018-02-23T10:46:19Z</time>
      </trkpt>
      <trkpt lat="45.95989" lon="4.87675">
        <ele>289</ele>
        <time>2018-02-23T10:46:21Z</time>
      </trkpt>
      <trkpt lat="45.95993" lon="4.87672">
        <ele>290</ele>
        <time>2018-02-23T10:46:22Z</time>
      </trkpt>
      <trkpt lat="45.95999" lon="4.87665">
        <ele>290</ele>
        <time>2018-02-23T10:46:24Z</time>
      </trkpt>
      <trkpt lat="45.96002" lon="4.87662">
        <ele>290</ele>
        <time>2018-02-23T10:46:25Z</time>
      </trkpt>
      <trkpt lat="45.96008" lon="4.87654">
        <ele>289</ele>
        <time>2018-02-23T10:46:27Z</time>
      </trkpt>
      <trkpt lat="45.9601" lon="4.8765">
        <ele>289</ele>
        <time>2018-02-23T10:46:28Z</time>
      </trkpt>
      <trkpt lat="45.96017" lon="4.87643">
        <ele>289</ele>
        <time>2018-02-23T10:46:30Z</time>
      </trkpt>
      <trkpt lat="45.9602" lon="4.87639">
        <ele>289</ele>
        <time>2018-02-23T10:46:31Z</time>
      </trkpt>
      <trkpt lat="45.96026" lon="4.87633">
        <ele>289</ele>
        <time>2018-02-23T10:46:33Z</time>
      </trkpt>
      <trkpt lat="45.9603" lon="4.87629">
        <ele>289</ele>
        <time>2018-02-23T10:46:34Z</time>
      </trkpt>
      <trkpt lat="45.96036" lon="4.87622">
        <ele>289</ele>
        <time>2018-02-23T10:46:36Z</time>
      </trkpt>
      <trkpt lat="45.96039" lon="4.87618">
        <ele>289</ele>
        <time>2018-02-23T10:46:37Z</time>
      </trkpt>
      <trkpt lat="45.96046" lon="4.87611">
        <ele>289</ele>
        <time>2018-02-23T10:46:39Z</time>
      </trkpt>
      <trkpt lat="45.96049" lon="4.87607">
        <ele>289</ele>
        <time>2018-02-23T10:46:40Z</time>
      </trkpt>
      <trkpt lat="45.96053" lon="4.87604">
        <ele>289</ele>
        <time>2018-02-23T10:46:41Z</time>
      </trkpt>
      <trkpt lat="45.96057" lon="4.876">
        <ele>288</ele>
        <time>2018-02-23T10:46:42Z</time>
      </trkpt>
      <trkpt lat="45.96062" lon="4.87596">
        <ele>288</ele>
        <time>2018-02-23T10:46:43Z</time>
      </trkpt>
      <trkpt lat="45.96065" lon="4.87593">
        <ele>288</ele>
        <time>2018-02-23T10:46:44Z</time>
      </trkpt>
      <trkpt lat="45.96072" lon="4.87585">
        <ele>288</ele>
        <time>2018-02-23T10:46:46Z</time>
      </trkpt>
      <trkpt lat="45.96075" lon="4.87581">
        <ele>288</ele>
        <time>2018-02-23T10:46:47Z</time>
      </trkpt>
      <trkpt lat="45.96082" lon="4.87573">
        <ele>288</ele>
        <time>2018-02-23T10:46:49Z</time>
      </trkpt>
      <trkpt lat="45.96084" lon="4.8757">
        <ele>287</ele>
        <time>2018-02-23T10:46:50Z</time>
      </trkpt>
      <trkpt lat="45.96091" lon="4.87563">
        <ele>287</ele>
        <time>2018-02-23T10:46:52Z</time>
      </trkpt>
      <trkpt lat="45.96094" lon="4.87559">
        <ele>287</ele>
        <time>2018-02-23T10:46:53Z</time>
      </trkpt>
      <trkpt lat="45.96098" lon="4.87555">
        <ele>287</ele>
        <time>2018-02-23T10:46:54Z</time>
      </trkpt>
      <trkpt lat="45.96101" lon="4.87548">
        <ele>287</ele>
        <time>2018-02-23T10:46:55Z</time>
      </trkpt>
      <trkpt lat="45.96104" lon="4.87542">
        <ele>287</ele>
        <time>2018-02-23T10:46:56Z</time>
      </trkpt>
      <trkpt lat="45.96109" lon="4.87538">
        <ele>287</ele>
        <time>2018-02-23T10:46:57Z</time>
      </trkpt>
      <trkpt lat="45.96112" lon="4.87534">
        <ele>287</ele>
        <time>2018-02-23T10:46:58Z</time>
      </trkpt>
      <trkpt lat="45.96116" lon="4.8753">
        <ele>287</ele>
        <time>2018-02-23T10:46:59Z</time>
      </trkpt>
      <trkpt lat="45.9612" lon="4.87526">
        <ele>286</ele>
        <time>2018-02-23T10:47:00Z</time>
      </trkpt>
      <trkpt lat="45.96123" lon="4.87522">
        <ele>286</ele>
        <time>2018-02-23T10:47:01Z</time>
      </trkpt>
      <trkpt lat="45.9613" lon="4.87515">
        <ele>286</ele>
        <time>2018-02-23T10:47:03Z</time>
      </trkpt>
      <trkpt lat="45.96135" lon="4.8751">
        <ele>286</ele>
        <time>2018-02-23T10:47:04Z</time>
      </trkpt>
      <trkpt lat="45.9614" lon="4.87506">
        <ele>286</ele>
        <time>2018-02-23T10:47:05Z</time>
      </trkpt>
      <trkpt lat="45.96143" lon="4.87502">
        <ele>286</ele>
        <time>2018-02-23T10:47:06Z</time>
      </trkpt>
      <trkpt lat="45.96147" lon="4.87498">
        <ele>285</ele>
        <time>2018-02-23T10:47:07Z</time>
      </trkpt>
      <trkpt lat="45.96151" lon="4.87493">
        <ele>285</ele>
        <time>2018-02-23T10:47:08Z</time>
      </trkpt>
      <trkpt lat="45.96158" lon="4.87486">
        <ele>285</ele>
        <time>2018-02-23T10:47:10Z</time>
      </trkpt>
      <trkpt lat="45.96162" lon="4.87482">
        <ele>285</ele>
        <time>2018-02-23T10:47:11Z</time>
      </trkpt>
      <trkpt lat="45.96165" lon="4.87479">
        <ele>285</ele>
        <time>2018-02-23T10:47:12Z</time>
      </trkpt>
      <trkpt lat="45.96169" lon="4.87474">
        <ele>284</ele>
        <time>2018-02-23T10:47:13Z</time>
      </trkpt>
      <trkpt lat="45.96173" lon="4.87469">
        <ele>284</ele>
        <time>2018-02-23T10:47:14Z</time>
      </trkpt>
      <trkpt lat="45.96178" lon="4.87463">
        <ele>284</ele>
        <time>2018-02-23T10:47:15Z</time>
      </trkpt>
      <trkpt lat="45.96182" lon="4.87459">
        <ele>284</ele>
        <time>2018-02-23T10:47:16Z</time>
      </trkpt>
      <trkpt lat="45.96186" lon="4.87453">
        <ele>284</ele>
        <time>2018-02-23T10:47:17Z</time>
      </trkpt>
      <trkpt lat="45.9619" lon="4.87449">
        <ele>284</ele>
        <time>2018-02-23T10:47:18Z</time>
      </trkpt>
      <trkpt lat="45.96196" lon="4.87442">
        <ele>284</ele>
        <time>2018-02-23T10:47:19Z</time>
      </trkpt>
      <trkpt lat="45.96201" lon="4.87437">
        <ele>284</ele>
        <time>2018-02-23T10:47:20Z</time>
      </trkpt>
      <trkpt lat="45.96205" lon="4.87434">
        <ele>284</ele>
        <time>2018-02-23T10:47:21Z</time>
      </trkpt>
      <trkpt lat="45.96211" lon="4.87427">
        <ele>284</ele>
        <time>2018-02-23T10:47:23Z</time>
      </trkpt>
      <trkpt lat="45.96214" lon="4.87424">
        <ele>284</ele>
        <time>2018-02-23T10:47:24Z</time>
      </trkpt>
      <trkpt lat="45.96221" lon="4.87417">
        <ele>284</ele>
        <time>2018-02-23T10:47:26Z</time>
      </trkpt>
      <trkpt lat="45.96224" lon="4.87413">
        <ele>283</ele>
        <time>2018-02-23T10:47:27Z</time>
      </trkpt>
      <trkpt lat="45.9623" lon="4.87405">
        <ele>283</ele>
        <time>2018-02-23T10:47:29Z</time>
      </trkpt>
      <trkpt lat="45.96233" lon="4.87402">
        <ele>283</ele>
        <time>2018-02-23T10:47:30Z</time>
      </trkpt>
      <trkpt lat="45.96237" lon="4.87398">
        <ele>283</ele>
        <time>2018-02-23T10:47:31Z</time>
      </trkpt>
      <trkpt lat="45.9624" lon="4.87393">
        <ele>283</ele>
        <time>2018-02-23T10:47:32Z</time>
      </trkpt>
      <trkpt lat="45.96247" lon="4.87386">
        <ele>283</ele>
        <time>2018-02-23T10:47:34Z</time>
      </trkpt>
      <trkpt lat="45.9625" lon="4.87382">
        <ele>283</ele>
        <time>2018-02-23T10:47:35Z</time>
      </trkpt>
      <trkpt lat="45.96256" lon="4.87373">
        <ele>283</ele>
        <time>2018-02-23T10:47:37Z</time>
      </trkpt>
      <trkpt lat="45.96259" lon="4.87368">
        <ele>283</ele>
        <time>2018-02-23T10:47:38Z</time>
      </trkpt>
      <trkpt lat="45.96263" lon="4.87364">
        <ele>283</ele>
        <time>2018-02-23T10:47:39Z</time>
      </trkpt>
      <trkpt lat="45.96267" lon="4.87361">
        <ele>283</ele>
        <time>2018-02-23T10:47:40Z</time>
      </trkpt>
      <trkpt lat="45.9627" lon="4.87357">
        <ele>284</ele>
        <time>2018-02-23T10:47:41Z</time>
      </trkpt>
      <trkpt lat="45.96274" lon="4.87352">
        <ele>284</ele>
        <time>2018-02-23T10:47:42Z</time>
      </trkpt>
      <trkpt lat="45.96277" lon="4.87347">
        <ele>284</ele>
        <time>2018-02-23T10:47:43Z</time>
      </trkpt>
      <trkpt lat="45.96281" lon="4.87343">
        <ele>284</ele>
        <time>2018-02-23T10:47:44Z</time>
      </trkpt>
      <trkpt lat="45.96284" lon="4.87338">
        <ele>284</ele>
        <time>2018-02-23T10:47:45Z</time>
      </trkpt>
      <trkpt lat="45.96288" lon="4.87332">
        <ele>283</ele>
        <time>2018-02-23T10:47:46Z</time>
      </trkpt>
      <trkpt lat="45.96291" lon="4.87328">
        <ele>283</ele>
        <time>2018-02-23T10:47:47Z</time>
      </trkpt>
      <trkpt lat="45.96295" lon="4.87322">
        <ele>283</ele>
        <time>2018-02-23T10:47:48Z</time>
      </trkpt>
      <trkpt lat="45.96299" lon="4.87317">
        <ele>283</ele>
        <time>2018-02-23T10:47:49Z</time>
      </trkpt>
      <trkpt lat="45.96301" lon="4.87312">
        <ele>283</ele>
        <time>2018-02-23T10:47:50Z</time>
      </trkpt>
      <trkpt lat="45.96306" lon="4.87307">
        <ele>283</ele>
        <time>2018-02-23T10:47:51Z</time>
      </trkpt>
      <trkpt lat="45.9631" lon="4.87302">
        <ele>283</ele>
        <time>2018-02-23T10:47:52Z</time>
      </trkpt>
      <trkpt lat="45.96314" lon="4.87298">
        <ele>283</ele>
        <time>2018-02-23T10:47:53Z</time>
      </trkpt>
      <trkpt lat="45.96317" lon="4.87293">
        <ele>283</ele>
        <time>2018-02-23T10:47:54Z</time>
      </trkpt>
      <trkpt lat="45.9632" lon="4.87283">
        <ele>283</ele>
        <time>2018-02-23T10:47:56Z</time>
      </trkpt>
      <trkpt lat="45.96323" lon="4.87279">
        <ele>283</ele>
        <time>2018-02-23T10:47:57Z</time>
      </trkpt>
      <trkpt lat="45.96327" lon="4.87277">
        <ele>283</ele>
        <time>2018-02-23T10:47:58Z</time>
      </trkpt>
      <trkpt lat="45.96332" lon="4.87273">
        <ele>283</ele>
        <time>2018-02-23T10:47:59Z</time>
      </trkpt>
      <trkpt lat="45.96336" lon="4.87268">
        <ele>283</ele>
        <time>2018-02-23T10:48:00Z</time>
      </trkpt>
      <trkpt lat="45.96339" lon="4.87264">
        <ele>283</ele>
        <time>2018-02-23T10:48:01Z</time>
      </trkpt>
      <trkpt lat="45.96346" lon="4.87256">
        <ele>283</ele>
        <time>2018-02-23T10:48:03Z</time>
      </trkpt>
      <trkpt lat="45.9635" lon="4.87252">
        <ele>283</ele>
        <time>2018-02-23T10:48:04Z</time>
      </trkpt>
      <trkpt lat="45.96354" lon="4.87245">
        <ele>282</ele>
        <time>2018-02-23T10:48:05Z</time>
      </trkpt>
      <trkpt lat="45.96357" lon="4.87241">
        <ele>282</ele>
        <time>2018-02-23T10:48:06Z</time>
      </trkpt>
      <trkpt lat="45.96363" lon="4.87233">
        <ele>282</ele>
        <time>2018-02-23T10:48:08Z</time>
      </trkpt>
      <trkpt lat="45.96366" lon="4.87228">
        <ele>282</ele>
        <time>2018-02-23T10:48:09Z</time>
      </trkpt>
      <trkpt lat="45.9637" lon="4.87223">
        <ele>282</ele>
        <time>2018-02-23T10:48:10Z</time>
      </trkpt>
      <trkpt lat="45.96373" lon="4.87218">
        <ele>282</ele>
        <time>2018-02-23T10:48:11Z</time>
      </trkpt>
      <trkpt lat="45.9638" lon="4.87211">
        <ele>282</ele>
        <time>2018-02-23T10:48:13Z</time>
      </trkpt>
      <trkpt lat="45.96383" lon="4.87207">
        <ele>282</ele>
        <time>2018-02-23T10:48:14Z</time>
      </trkpt>
      <trkpt lat="45.96387" lon="4.87203">
        <ele>282</ele>
        <time>2018-02-23T10:48:15Z</time>
      </trkpt>
      <trkpt lat="45.9639" lon="4.87198">
        <ele>282</ele>
        <time>2018-02-23T10:48:16Z</time>
      </trkpt>
      <trkpt lat="45.96394" lon="4.87194">
        <ele>282</ele>
        <time>2018-02-23T10:48:17Z</time>
      </trkpt>
      <trkpt lat="45.96398" lon="4.87189">
        <ele>282</ele>
        <time>2018-02-23T10:48:18Z</time>
      </trkpt>
      <trkpt lat="45.96401" lon="4.87184">
        <ele>282</ele>
        <time>2018-02-23T10:48:19Z</time>
      </trkpt>
      <trkpt lat="45.96405" lon="4.87178">
        <ele>281</ele>
        <time>2018-02-23T10:48:20Z</time>
      </trkpt>
      <trkpt lat="45.9641" lon="4.87174">
        <ele>281</ele>
        <time>2018-02-23T10:48:21Z</time>
      </trkpt>
      <trkpt lat="45.96414" lon="4.87169">
        <ele>281</ele>
        <time>2018-02-23T10:48:22Z</time>
      </trkpt>
      <trkpt lat="45.96418" lon="4.87163">
        <ele>281</ele>
        <time>2018-02-23T10:48:23Z</time>
      </trkpt>
      <trkpt lat="45.9642" lon="4.87158">
        <ele>281</ele>
        <time>2018-02-23T10:48:24Z</time>
      </trkpt>
      <trkpt lat="45.96426" lon="4.87149">
        <ele>281</ele>
        <time>2018-02-23T10:48:26Z</time>
      </trkpt>
      <trkpt lat="45.9643" lon="4.87146">
        <ele>281</ele>
        <time>2018-02-23T10:48:27Z</time>
      </trkpt>
      <trkpt lat="45.96432" lon="4.87142">
        <ele>281</ele>
        <time>2018-02-23T10:48:28Z</time>
      </trkpt>
      <trkpt lat="45.96437" lon="4.87136">
        <ele>281</ele>
        <time>2018-02-23T10:48:29Z</time>
      </trkpt>
      <trkpt lat="45.9644" lon="4.87132">
        <ele>281</ele>
        <time>2018-02-23T10:48:30Z</time>
      </trkpt>
      <trkpt lat="45.96443" lon="4.87127">
        <ele>281</ele>
        <time>2018-02-23T10:48:31Z</time>
      </trkpt>
      <trkpt lat="45.96448" lon="4.87118">
        <ele>281</ele>
        <time>2018-02-23T10:48:33Z</time>
      </trkpt>
      <trkpt lat="45.9645" lon="4.87115">
        <ele>281</ele>
        <time>2018-02-23T10:48:34Z</time>
      </trkpt>
      <trkpt lat="45.96455" lon="4.87107">
        <ele>281</ele>
        <time>2018-02-23T10:48:36Z</time>
      </trkpt>
      <trkpt lat="45.96458" lon="4.87103">
        <ele>281</ele>
        <time>2018-02-23T10:48:37Z</time>
      </trkpt>
      <trkpt lat="45.96462" lon="4.87098">
        <ele>282</ele>
        <time>2018-02-23T10:48:38Z</time>
      </trkpt>
      <trkpt lat="45.96465" lon="4.87093">
        <ele>282</ele>
        <time>2018-02-23T10:48:39Z</time>
      </trkpt>
      <trkpt lat="45.96473" lon="4.87087">
        <ele>282</ele>
        <time>2018-02-23T10:48:41Z</time>
      </trkpt>
      <trkpt lat="45.96476" lon="4.87082">
        <ele>282</ele>
        <time>2018-02-23T10:48:42Z</time>
      </trkpt>
      <trkpt lat="45.9648" lon="4.87079">
        <ele>282</ele>
        <time>2018-02-23T10:48:43Z</time>
      </trkpt>
      <trkpt lat="45.96484" lon="4.87074">
        <ele>282</ele>
        <time>2018-02-23T10:48:44Z</time>
      </trkpt>
      <trkpt lat="45.9649" lon="4.87067">
        <ele>282</ele>
        <time>2018-02-23T10:48:46Z</time>
      </trkpt>
      <trkpt lat="45.96494" lon="4.87063">
        <ele>282</ele>
        <time>2018-02-23T10:48:47Z</time>
      </trkpt>
      <trkpt lat="45.96499" lon="4.87056">
        <ele>281</ele>
        <time>2018-02-23T10:48:49Z</time>
      </trkpt>
      <trkpt lat="45.96502" lon="4.87052">
        <ele>282</ele>
        <time>2018-02-23T10:48:50Z</time>
      </trkpt>
      <trkpt lat="45.96509" lon="4.87048">
        <ele>283</ele>
        <time>2018-02-23T10:48:54Z</time>
      </trkpt>
      <trkpt lat="45.96511" lon="4.87049">
        <ele>283</ele>
        <time>2018-02-23T10:48:55Z</time>
      </trkpt>
      <trkpt lat="45.96516" lon="4.87057">
        <ele>283</ele>
        <time>2018-02-23T10:48:58Z</time>
      </trkpt>
      <trkpt lat="45.96518" lon="4.8706">
        <ele>283</ele>
        <time>2018-02-23T10:48:59Z</time>
      </trkpt>
      <trkpt lat="45.96524" lon="4.87066">
        <ele>283</ele>
        <time>2018-02-23T10:49:02Z</time>
      </trkpt>
      <trkpt lat="45.96526" lon="4.87067">
        <ele>283</ele>
        <time>2018-02-23T10:49:03Z</time>
      </trkpt>
      <trkpt lat="45.96534" lon="4.87067">
        <ele>283</ele>
        <time>2018-02-23T10:49:09Z</time>
      </trkpt>
      <trkpt lat="45.96535" lon="4.87067">
        <ele>283</ele>
        <time>2018-02-23T10:49:10Z</time>
      </trkpt>
      <trkpt lat="45.9654" lon="4.87078">
        <ele>283</ele>
        <time>2018-02-23T10:49:16Z</time>
      </trkpt>
      <trkpt lat="45.96541" lon="4.87079">
        <ele>283</ele>
        <time>2018-02-23T10:49:17Z</time>
      </trkpt>
      <trkpt lat="45.96548" lon="4.87079">
        <ele>283</ele>
        <time>2018-02-23T10:49:21Z</time>
      </trkpt>
      <trkpt lat="45.96551" lon="4.87078">
        <ele>283</ele>
        <time>2018-02-23T10:49:22Z</time>
      </trkpt>
      <trkpt lat="45.96555" lon="4.8707">
        <ele>283</ele>
        <time>2018-02-23T10:49:25Z</time>
      </trkpt>
      <trkpt lat="45.96555" lon="4.87065">
        <ele>283</ele>
        <time>2018-02-23T10:49:26Z</time>
      </trkpt>
      <trkpt lat="45.96555" lon="4.87055">
        <ele>283</ele>
        <time>2018-02-23T10:49:28Z</time>
      </trkpt>
      <trkpt lat="45.96554" lon="4.8705">
        <ele>283</ele>
        <time>2018-02-23T10:49:29Z</time>
      </trkpt>
      <trkpt lat="45.96553" lon="4.8704">
        <ele>283</ele>
        <time>2018-02-23T10:49:31Z</time>
      </trkpt>
      <trkpt lat="45.96552" lon="4.87035">
        <ele>283</ele>
        <time>2018-02-23T10:49:32Z</time>
      </trkpt>
      <trkpt lat="45.96547" lon="4.87026">
        <ele>283</ele>
        <time>2018-02-23T10:49:35Z</time>
      </trkpt>
      <trkpt lat="45.96545" lon="4.87025">
        <ele>283</ele>
        <time>2018-02-23T10:49:36Z</time>
      </trkpt>
      <trkpt lat="45.96542" lon="4.87016">
        <ele>283</ele>
        <time>2018-02-23T11:01:50Z</time>
      </trkpt>
      <trkpt lat="45.96542" lon="4.87012">
        <ele>283</ele>
        <time>2018-02-23T11:01:51Z</time>
      </trkpt>
      <trkpt lat="45.96541" lon="4.87002">
        <ele>283</ele>
        <time>2018-02-23T11:01:54Z</time>
      </trkpt>
      <trkpt lat="45.96542" lon="4.86998">
        <ele>283</ele>
        <time>2018-02-23T11:01:55Z</time>
      </trkpt>
      <trkpt lat="45.96546" lon="4.86988">
        <ele>283</ele>
        <time>2018-02-23T11:01:58Z</time>
      </trkpt>
      <trkpt lat="45.96548" lon="4.86985">
        <ele>283</ele>
        <time>2018-02-23T11:01:59Z</time>
      </trkpt>
      <trkpt lat="45.96554" lon="4.86976">
        <ele>283</ele>
        <time>2018-02-23T11:02:02Z</time>
      </trkpt>
      <trkpt lat="45.96556" lon="4.86973">
        <ele>283</ele>
        <time>2018-02-23T11:02:03Z</time>
      </trkpt>
      <trkpt lat="45.9656" lon="4.86967">
        <ele>283</ele>
        <time>2018-02-23T11:02:05Z</time>
      </trkpt>
      <trkpt lat="45.96562" lon="4.86964">
        <ele>283</ele>
        <time>2018-02-23T11:02:06Z</time>
      </trkpt>
      <trkpt lat="45.96566" lon="4.86957">
        <ele>284</ele>
        <time>2018-02-23T11:02:08Z</time>
      </trkpt>
      <trkpt lat="45.96568" lon="4.86953">
        <ele>284</ele>
        <time>2018-02-23T11:02:09Z</time>
      </trkpt>
      <trkpt lat="45.96572" lon="4.86946">
        <ele>284</ele>
        <time>2018-02-23T11:02:11Z</time>
      </trkpt>
      <trkpt lat="45.96574" lon="4.86943">
        <ele>284</ele>
        <time>2018-02-23T11:02:12Z</time>
      </trkpt>
      <trkpt lat="45.96578" lon="4.86935">
        <ele>284</ele>
        <time>2018-02-23T11:02:14Z</time>
      </trkpt>
      <trkpt lat="45.9658" lon="4.86931">
        <ele>284</ele>
        <time>2018-02-23T11:02:15Z</time>
      </trkpt>
      <trkpt lat="45.96585" lon="4.86923">
        <ele>285</ele>
        <time>2018-02-23T11:02:17Z</time>
      </trkpt>
      <trkpt lat="45.96592" lon="4.86911">
        <ele>286</ele>
        <time>2018-02-23T11:02:18Z</time>
      </trkpt>
      <trkpt lat="45.96597" lon="4.86902">
        <ele>286</ele>
        <time>2018-02-23T11:02:20Z</time>
      </trkpt>
      <trkpt lat="45.96599" lon="4.869">
        <ele>286</ele>
        <time>2018-02-23T11:02:21Z</time>
      </trkpt>
      <trkpt lat="45.96602" lon="4.86892">
        <ele>286</ele>
        <time>2018-02-23T11:02:24Z</time>
      </trkpt>
      <trkpt lat="45.96603" lon="4.86889">
        <ele>287</ele>
        <time>2018-02-23T11:02:25Z</time>
      </trkpt>
      <trkpt lat="45.96607" lon="4.86882">
        <ele>287</ele>
        <time>2018-02-23T11:02:27Z</time>
      </trkpt>
      <trkpt lat="45.96613" lon="4.86873">
        <ele>287</ele>
        <time>2018-02-23T11:02:28Z</time>
      </trkpt>
      <trkpt lat="45.96617" lon="4.86865">
        <ele>287</ele>
        <time>2018-02-23T11:02:31Z</time>
      </trkpt>
      <trkpt lat="45.96618" lon="4.86862">
        <ele>287</ele>
        <time>2018-02-23T11:02:32Z</time>
      </trkpt>
      <trkpt lat="45.96621" lon="4.86858">
        <ele>287</ele>
        <time>2018-02-23T11:02:34Z</time>
      </trkpt>
      <trkpt lat="45.96627" lon="4.8685">
        <ele>287</ele>
        <time>2018-02-23T11:02:35Z</time>
      </trkpt>
      <trkpt lat="45.96632" lon="4.86843">
        <ele>287</ele>
        <time>2018-02-23T11:02:38Z</time>
      </trkpt>
      <trkpt lat="45.96639" lon="4.86836">
        <ele>287</ele>
        <time>2018-02-23T11:02:39Z</time>
      </trkpt>
      <trkpt lat="45.96645" lon="4.8683">
        <ele>288</ele>
        <time>2018-02-23T11:02:41Z</time>
      </trkpt>
      <trkpt lat="45.96648" lon="4.86826">
        <ele>288</ele>
        <time>2018-02-23T11:02:42Z</time>
      </trkpt>
      <trkpt lat="45.96653" lon="4.86817">
        <ele>288</ele>
        <time>2018-02-23T11:02:44Z</time>
      </trkpt>
      <trkpt lat="45.96656" lon="4.86813">
        <ele>288</ele>
        <time>2018-02-23T11:02:45Z</time>
      </trkpt>
      <trkpt lat="45.96661" lon="4.86804">
        <ele>288</ele>
        <time>2018-02-23T11:02:48Z</time>
      </trkpt>
      <trkpt lat="45.96665" lon="4.86797">
        <ele>288</ele>
        <time>2018-02-23T11:02:49Z</time>
      </trkpt>
      <trkpt lat="45.9667" lon="4.86788">
        <ele>289</ele>
        <time>2018-02-23T11:02:51Z</time>
      </trkpt>
      <trkpt lat="45.96672" lon="4.86786">
        <ele>289</ele>
        <time>2018-02-23T11:02:52Z</time>
      </trkpt>
      <trkpt lat="45.96676" lon="4.86778">
        <ele>289</ele>
        <time>2018-02-23T11:02:54Z</time>
      </trkpt>
      <trkpt lat="45.96677" lon="4.86776">
        <ele>289</ele>
        <time>2018-02-23T11:02:55Z</time>
      </trkpt>
      <trkpt lat="45.96678" lon="4.86773">
        <ele>289</ele>
        <time>2018-02-23T11:02:56Z</time>
      </trkpt>
      <trkpt lat="45.96682" lon="4.86765">
        <ele>289</ele>
        <time>2018-02-23T11:02:57Z</time>
      </trkpt>
      <trkpt lat="45.96687" lon="4.86756">
        <ele>289</ele>
        <time>2018-02-23T11:02:59Z</time>
      </trkpt>
      <trkpt lat="45.96689" lon="4.86752">
        <ele>289</ele>
        <time>2018-02-23T11:03:00Z</time>
      </trkpt>
      <trkpt lat="45.96694" lon="4.86745">
        <ele>289</ele>
        <time>2018-02-23T11:03:02Z</time>
      </trkpt>
      <trkpt lat="45.96697" lon="4.86741">
        <ele>289</ele>
        <time>2018-02-23T11:03:03Z</time>
      </trkpt>
      <trkpt lat="45.96702" lon="4.86732">
        <ele>289</ele>
        <time>2018-02-23T11:03:05Z</time>
      </trkpt>
      <trkpt lat="45.96704" lon="4.86727">
        <ele>289</ele>
        <time>2018-02-23T11:03:06Z</time>
      </trkpt>
      <trkpt lat="45.96709" lon="4.86719">
        <ele>289</ele>
        <time>2018-02-23T11:03:08Z</time>
      </trkpt>
      <trkpt lat="45.96712" lon="4.86715">
        <ele>289</ele>
        <time>2018-02-23T11:03:09Z</time>
      </trkpt>
      <trkpt lat="45.96716" lon="4.86707">
        <ele>289</ele>
        <time>2018-02-23T11:03:11Z</time>
      </trkpt>
      <trkpt lat="45.96718" lon="4.86705">
        <ele>289</ele>
        <time>2018-02-23T11:03:12Z</time>
      </trkpt>
      <trkpt lat="45.96719" lon="4.86702">
        <ele>289</ele>
        <time>2018-02-23T11:03:13Z</time>
      </trkpt>
      <trkpt lat="45.96724" lon="4.86694">
        <ele>289</ele>
        <time>2018-02-23T11:03:14Z</time>
      </trkpt>
      <trkpt lat="45.96729" lon="4.86685">
        <ele>289</ele>
        <time>2018-02-23T11:03:16Z</time>
      </trkpt>
      <trkpt lat="45.96732" lon="4.86681">
        <ele>290</ele>
        <time>2018-02-23T11:03:17Z</time>
      </trkpt>
      <trkpt lat="45.96737" lon="4.86672">
        <ele>290</ele>
        <time>2018-02-23T11:03:19Z</time>
      </trkpt>
      <trkpt lat="45.9674" lon="4.86667">
        <ele>290</ele>
        <time>2018-02-23T11:03:20Z</time>
      </trkpt>
      <trkpt lat="45.96743" lon="4.86661">
        <ele>290</ele>
        <time>2018-02-23T11:03:22Z</time>
      </trkpt>
      <trkpt lat="45.96747" lon="4.86656">
        <ele>290</ele>
        <time>2018-02-23T11:03:23Z</time>
      </trkpt>
      <trkpt lat="45.96753" lon="4.86647">
        <ele>290</ele>
        <time>2018-02-23T11:03:25Z</time>
      </trkpt>
      <trkpt lat="45.96755" lon="4.86643">
        <ele>290</ele>
        <time>2018-02-23T11:03:26Z</time>
      </trkpt>
      <trkpt lat="45.96758" lon="4.86637">
        <ele>290</ele>
        <time>2018-02-23T11:03:27Z</time>
      </trkpt>
      <trkpt lat="45.96761" lon="4.86632">
        <ele>289</ele>
        <time>2018-02-23T11:03:28Z</time>
      </trkpt>
      <trkpt lat="45.96766" lon="4.86623">
        <ele>289</ele>
        <time>2018-02-23T11:03:30Z</time>
      </trkpt>
      <trkpt lat="45.96769" lon="4.86618">
        <ele>289</ele>
        <time>2018-02-23T11:03:31Z</time>
      </trkpt>
      <trkpt lat="45.96772" lon="4.86613">
        <ele>289</ele>
        <time>2018-02-23T11:03:32Z</time>
      </trkpt>
      <trkpt lat="45.96776" lon="4.86608">
        <ele>289</ele>
        <time>2018-02-23T11:03:33Z</time>
      </trkpt>
      <trkpt lat="45.96782" lon="4.86599">
        <ele>289</ele>
        <time>2018-02-23T11:03:35Z</time>
      </trkpt>
      <trkpt lat="45.96785" lon="4.86594">
        <ele>289</ele>
        <time>2018-02-23T11:03:36Z</time>
      </trkpt>
      <trkpt lat="45.9679" lon="4.86585">
        <ele>289</ele>
        <time>2018-02-23T11:03:38Z</time>
      </trkpt>
      <trkpt lat="45.96793" lon="4.86581">
        <ele>290</ele>
        <time>2018-02-23T11:03:39Z</time>
      </trkpt>
      <trkpt lat="45.96798" lon="4.86572">
        <ele>290</ele>
        <time>2018-02-23T11:03:41Z</time>
      </trkpt>
      <trkpt lat="45.96801" lon="4.86568">
        <ele>290</ele>
        <time>2018-02-23T11:03:42Z</time>
      </trkpt>
      <trkpt lat="45.96806" lon="4.86559">
        <ele>290</ele>
        <time>2018-02-23T11:03:44Z</time>
      </trkpt>
      <trkpt lat="45.96809" lon="4.86555">
        <ele>290</ele>
        <time>2018-02-23T11:03:45Z</time>
      </trkpt>
      <trkpt lat="45.96814" lon="4.86547">
        <ele>290</ele>
        <time>2018-02-23T11:03:47Z</time>
      </trkpt>
      <trkpt lat="45.96816" lon="4.86543">
        <ele>290</ele>
        <time>2018-02-23T11:03:48Z</time>
      </trkpt>
      <trkpt lat="45.96821" lon="4.86534">
        <ele>290</ele>
        <time>2018-02-23T11:03:50Z</time>
      </trkpt>
      <trkpt lat="45.96823" lon="4.8653">
        <ele>289</ele>
        <time>2018-02-23T11:03:51Z</time>
      </trkpt>
      <trkpt lat="45.96827" lon="4.86522">
        <ele>289</ele>
        <time>2018-02-23T11:03:53Z</time>
      </trkpt>
      <trkpt lat="45.9683" lon="4.86517">
        <ele>289</ele>
        <time>2018-02-23T11:03:54Z</time>
      </trkpt>
      <trkpt lat="45.96834" lon="4.86508">
        <ele>289</ele>
        <time>2018-02-23T11:03:56Z</time>
      </trkpt>
      <trkpt lat="45.96836" lon="4.86503">
        <ele>289</ele>
        <time>2018-02-23T11:03:57Z</time>
      </trkpt>
      <trkpt lat="45.9684" lon="4.86492">
        <ele>289</ele>
        <time>2018-02-23T11:03:59Z</time>
      </trkpt>
      <trkpt lat="45.96842" lon="4.86487">
        <ele>289</ele>
        <time>2018-02-23T11:04:00Z</time>
      </trkpt>
      <trkpt lat="45.96846" lon="4.86478">
        <ele>289</ele>
        <time>2018-02-23T11:04:02Z</time>
      </trkpt>
      <trkpt lat="45.96848" lon="4.86472">
        <ele>289</ele>
        <time>2018-02-23T11:04:03Z</time>
      </trkpt>
      <trkpt lat="45.96851" lon="4.86462">
        <ele>289</ele>
        <time>2018-02-23T11:04:05Z</time>
      </trkpt>
      <trkpt lat="45.96852" lon="4.86456">
        <ele>289</ele>
        <time>2018-02-23T11:04:06Z</time>
      </trkpt>
      <trkpt lat="45.96855" lon="4.86445">
        <ele>289</ele>
        <time>2018-02-23T11:04:08Z</time>
      </trkpt>
      <trkpt lat="45.96856" lon="4.8644">
        <ele>290</ele>
        <time>2018-02-23T11:04:09Z</time>
      </trkpt>
      <trkpt lat="45.96858" lon="4.86429">
        <ele>290</ele>
        <time>2018-02-23T11:04:11Z</time>
      </trkpt>
      <trkpt lat="45.9686" lon="4.86424">
        <ele>290</ele>
        <time>2018-02-23T11:04:12Z</time>
      </trkpt>
      <trkpt lat="45.96861" lon="4.86412">
        <ele>290</ele>
        <time>2018-02-23T11:04:14Z</time>
      </trkpt>
      <trkpt lat="45.96862" lon="4.86407">
        <ele>290</ele>
        <time>2018-02-23T11:04:15Z</time>
      </trkpt>
      <trkpt lat="45.96864" lon="4.86395">
        <ele>290</ele>
        <time>2018-02-23T11:04:17Z</time>
      </trkpt>
      <trkpt lat="45.96865" lon="4.8639">
        <ele>290</ele>
        <time>2018-02-23T11:04:18Z</time>
      </trkpt>
      <trkpt lat="45.96867" lon="4.86379">
        <ele>290</ele>
        <time>2018-02-23T11:04:20Z</time>
      </trkpt>
      <trkpt lat="45.96867" lon="4.86373">
        <ele>290</ele>
        <time>2018-02-23T11:04:21Z</time>
      </trkpt>
      <trkpt lat="45.96869" lon="4.86362">
        <ele>290</ele>
        <time>2018-02-23T11:04:23Z</time>
      </trkpt>
      <trkpt lat="45.96869" lon="4.86356">
        <ele>290</ele>
        <time>2018-02-23T11:04:24Z</time>
      </trkpt>
      <trkpt lat="45.96871" lon="4.86344">
        <ele>290</ele>
        <time>2018-02-23T11:04:26Z</time>
      </trkpt>
      <trkpt lat="45.96871" lon="4.86338">
        <ele>290</ele>
        <time>2018-02-23T11:04:27Z</time>
      </trkpt>
      <trkpt lat="45.96872" lon="4.86326">
        <ele>289</ele>
        <time>2018-02-23T11:04:29Z</time>
      </trkpt>
      <trkpt lat="45.96873" lon="4.8632">
        <ele>289</ele>
        <time>2018-02-23T11:04:30Z</time>
      </trkpt>
      <trkpt lat="45.96874" lon="4.86309">
        <ele>289</ele>
        <time>2018-02-23T11:04:32Z</time>
      </trkpt>
      <trkpt lat="45.96874" lon="4.86303">
        <ele>289</ele>
        <time>2018-02-23T11:04:33Z</time>
      </trkpt>
      <trkpt lat="45.96876" lon="4.8629">
        <ele>289</ele>
        <time>2018-02-23T11:04:35Z</time>
      </trkpt>
      <trkpt lat="45.96876" lon="4.86284">
        <ele>289</ele>
        <time>2018-02-23T11:04:36Z</time>
      </trkpt>
      <trkpt lat="45.96878" lon="4.86272">
        <ele>289</ele>
        <time>2018-02-23T11:04:38Z</time>
      </trkpt>
      <trkpt lat="45.96879" lon="4.86264">
        <ele>288</ele>
        <time>2018-02-23T11:04:39Z</time>
      </trkpt>
      <trkpt lat="45.96882" lon="4.86252">
        <ele>288</ele>
        <time>2018-02-23T11:04:41Z</time>
      </trkpt>
      <trkpt lat="45.96883" lon="4.86245">
        <ele>288</ele>
        <time>2018-02-23T11:04:42Z</time>
      </trkpt>
      <trkpt lat="45.96884" lon="4.86238">
        <ele>288</ele>
        <time>2018-02-23T11:04:43Z</time>
      </trkpt>
      <trkpt lat="45.96885" lon="4.86231">
        <ele>289</ele>
        <time>2018-02-23T11:04:44Z</time>
      </trkpt>
      <trkpt lat="45.96886" lon="4.86224">
        <ele>289</ele>
        <time>2018-02-23T11:04:45Z</time>
      </trkpt>
      <trkpt lat="45.96886" lon="4.86216">
        <ele>289</ele>
        <time>2018-02-23T11:04:46Z</time>
      </trkpt>
      <trkpt lat="45.96887" lon="4.86209">
        <ele>289</ele>
        <time>2018-02-23T11:04:47Z</time>
      </trkpt>
      <trkpt lat="45.96888" lon="4.86202">
        <ele>289</ele>
        <time>2018-02-23T11:04:48Z</time>
      </trkpt>
      <trkpt lat="45.9689" lon="4.8619">
        <ele>289</ele>
        <time>2018-02-23T11:04:50Z</time>
      </trkpt>
      <trkpt lat="45.9689" lon="4.86184">
        <ele>289</ele>
        <time>2018-02-23T11:04:51Z</time>
      </trkpt>
      <trkpt lat="45.96891" lon="4.86177">
        <ele>289</ele>
        <time>2018-02-23T11:04:52Z</time>
      </trkpt>
      <trkpt lat="45.96892" lon="4.8617">
        <ele>289</ele>
        <time>2018-02-23T11:04:53Z</time>
      </trkpt>
      <trkpt lat="45.96893" lon="4.86162">
        <ele>289</ele>
        <time>2018-02-23T11:04:54Z</time>
      </trkpt>
      <trkpt lat="45.96894" lon="4.86155">
        <ele>289</ele>
        <time>2018-02-23T11:04:55Z</time>
      </trkpt>
      <trkpt lat="45.96896" lon="4.86148">
        <ele>289</ele>
        <time>2018-02-23T11:04:56Z</time>
      </trkpt>
      <trkpt lat="45.96897" lon="4.8614">
        <ele>289</ele>
        <time>2018-02-23T11:04:57Z</time>
      </trkpt>
      <trkpt lat="45.96898" lon="4.86133">
        <ele>289</ele>
        <time>2018-02-23T11:04:58Z</time>
      </trkpt>
      <trkpt lat="45.96899" lon="4.86125">
        <ele>289</ele>
        <time>2018-02-23T11:04:59Z</time>
      </trkpt>
      <trkpt lat="45.969" lon="4.86118">
        <ele>289</ele>
        <time>2018-02-23T11:05:00Z</time>
      </trkpt>
      <trkpt lat="45.96901" lon="4.86112">
        <ele>289</ele>
        <time>2018-02-23T11:05:01Z</time>
      </trkpt>
      <trkpt lat="45.96901" lon="4.86105">
        <ele>289</ele>
        <time>2018-02-23T11:05:02Z</time>
      </trkpt>
      <trkpt lat="45.96902" lon="4.86096">
        <ele>288</ele>
        <time>2018-02-23T11:05:03Z</time>
      </trkpt>
      <trkpt lat="45.96904" lon="4.86086">
        <ele>288</ele>
        <time>2018-02-23T11:05:04Z</time>
      </trkpt>
      <trkpt lat="45.96905" lon="4.86078">
        <ele>288</ele>
        <time>2018-02-23T11:05:05Z</time>
      </trkpt>
      <trkpt lat="45.96906" lon="4.86069">
        <ele>288</ele>
        <time>2018-02-23T11:05:06Z</time>
      </trkpt>
      <trkpt lat="45.96907" lon="4.8606">
        <ele>288</ele>
        <time>2018-02-23T11:05:07Z</time>
      </trkpt>
      <trkpt lat="45.96908" lon="4.86051">
        <ele>289</ele>
        <time>2018-02-23T11:05:08Z</time>
      </trkpt>
      <trkpt lat="45.96908" lon="4.86043">
        <ele>289</ele>
        <time>2018-02-23T11:05:09Z</time>
      </trkpt>
      <trkpt lat="45.96909" lon="4.86035">
        <ele>289</ele>
        <time>2018-02-23T11:05:10Z</time>
      </trkpt>
      <trkpt lat="45.9691" lon="4.86027">
        <ele>289</ele>
        <time>2018-02-23T11:05:11Z</time>
      </trkpt>
      <trkpt lat="45.9691" lon="4.86019">
        <ele>289</ele>
        <time>2018-02-23T11:05:12Z</time>
      </trkpt>
      <trkpt lat="45.96913" lon="4.86011">
        <ele>288</ele>
        <time>2018-02-23T11:05:13Z</time>
      </trkpt>
      <trkpt lat="45.96914" lon="4.86003">
        <ele>288</ele>
        <time>2018-02-23T11:05:14Z</time>
      </trkpt>
      <trkpt lat="45.96917" lon="4.85995">
        <ele>288</ele>
        <time>2018-02-23T11:05:15Z</time>
      </trkpt>
      <trkpt lat="45.96919" lon="4.85987">
        <ele>287</ele>
        <time>2018-02-23T11:05:16Z</time>
      </trkpt>
      <trkpt lat="45.96921" lon="4.85979">
        <ele>287</ele>
        <time>2018-02-23T11:05:17Z</time>
      </trkpt>
      <trkpt lat="45.96923" lon="4.8597">
        <ele>287</ele>
        <time>2018-02-23T11:05:18Z</time>
      </trkpt>
      <trkpt lat="45.96925" lon="4.85962">
        <ele>287</ele>
        <time>2018-02-23T11:05:19Z</time>
      </trkpt>
      <trkpt lat="45.96927" lon="4.85954">
        <ele>287</ele>
        <time>2018-02-23T11:05:20Z</time>
      </trkpt>
      <trkpt lat="45.96928" lon="4.85946">
        <ele>286</ele>
        <time>2018-02-23T11:05:21Z</time>
      </trkpt>
      <trkpt lat="45.96929" lon="4.85938">
        <ele>286</ele>
        <time>2018-02-23T11:05:22Z</time>
      </trkpt>
      <trkpt lat="45.96932" lon="4.85929">
        <ele>286</ele>
        <time>2018-02-23T11:05:23Z</time>
      </trkpt>
      <trkpt lat="45.96934" lon="4.85922">
        <ele>286</ele>
        <time>2018-02-23T11:05:24Z</time>
      </trkpt>
      <trkpt lat="45.96936" lon="4.85913">
        <ele>286</ele>
        <time>2018-02-23T11:05:25Z</time>
      </trkpt>
      <trkpt lat="45.96938" lon="4.85905">
        <ele>286</ele>
        <time>2018-02-23T11:05:26Z</time>
      </trkpt>
      <trkpt lat="45.9694" lon="4.85898">
        <ele>285</ele>
        <time>2018-02-23T11:05:27Z</time>
      </trkpt>
      <trkpt lat="45.96942" lon="4.85889">
        <ele>285</ele>
        <time>2018-02-23T11:05:28Z</time>
      </trkpt>
      <trkpt lat="45.96944" lon="4.85881">
        <ele>285</ele>
        <time>2018-02-23T11:05:29Z</time>
      </trkpt>
      <trkpt lat="45.96946" lon="4.85874">
        <ele>285</ele>
        <time>2018-02-23T11:05:30Z</time>
      </trkpt>
      <trkpt lat="45.96949" lon="4.85865">
        <ele>285</ele>
        <time>2018-02-23T11:05:31Z</time>
      </trkpt>
      <trkpt lat="45.9695" lon="4.85858">
        <ele>285</ele>
        <time>2018-02-23T11:05:32Z</time>
      </trkpt>
      <trkpt lat="45.96952" lon="4.8585">
        <ele>285</ele>
        <time>2018-02-23T11:05:33Z</time>
      </trkpt>
      <trkpt lat="45.96954" lon="4.85843">
        <ele>285</ele>
        <time>2018-02-23T11:05:34Z</time>
      </trkpt>
      <trkpt lat="45.96956" lon="4.85836">
        <ele>285</ele>
        <time>2018-02-23T11:05:35Z</time>
      </trkpt>
      <trkpt lat="45.96958" lon="4.85829">
        <ele>285</ele>
        <time>2018-02-23T11:05:36Z</time>
      </trkpt>
      <trkpt lat="45.96961" lon="4.85823">
        <ele>285</ele>
        <time>2018-02-23T11:05:37Z</time>
      </trkpt>
      <trkpt lat="45.96963" lon="4.85816">
        <ele>285</ele>
        <time>2018-02-23T11:05:38Z</time>
      </trkpt>
      <trkpt lat="45.96964" lon="4.85809">
        <ele>285</ele>
        <time>2018-02-23T11:05:39Z</time>
      </trkpt>
      <trkpt lat="45.96966" lon="4.85802">
        <ele>285</ele>
        <time>2018-02-23T11:05:40Z</time>
      </trkpt>
      <trkpt lat="45.96967" lon="4.85795">
        <ele>285</ele>
        <time>2018-02-23T11:05:41Z</time>
      </trkpt>
      <trkpt lat="45.96969" lon="4.85788">
        <ele>285</ele>
        <time>2018-02-23T11:05:42Z</time>
      </trkpt>
      <trkpt lat="45.96972" lon="4.85781">
        <ele>285</ele>
        <time>2018-02-23T11:05:43Z</time>
      </trkpt>
      <trkpt lat="45.96974" lon="4.85774">
        <ele>285</ele>
        <time>2018-02-23T11:05:44Z</time>
      </trkpt>
      <trkpt lat="45.96976" lon="4.85767">
        <ele>285</ele>
        <time>2018-02-23T11:05:45Z</time>
      </trkpt>
      <trkpt lat="45.96978" lon="4.8576">
        <ele>285</ele>
        <time>2018-02-23T11:05:46Z</time>
      </trkpt>
      <trkpt lat="45.9698" lon="4.85752">
        <ele>285</ele>
        <time>2018-02-23T11:05:47Z</time>
      </trkpt>
      <trkpt lat="45.96982" lon="4.85744">
        <ele>285</ele>
        <time>2018-02-23T11:05:48Z</time>
      </trkpt>
      <trkpt lat="45.96984" lon="4.85735">
        <ele>285</ele>
        <time>2018-02-23T11:05:49Z</time>
      </trkpt>
      <trkpt lat="45.96988" lon="4.85727">
        <ele>285</ele>
        <time>2018-02-23T11:05:50Z</time>
      </trkpt>
      <trkpt lat="45.9699" lon="4.85719">
        <ele>285</ele>
        <time>2018-02-23T11:05:51Z</time>
      </trkpt>
      <trkpt lat="45.96992" lon="4.85711">
        <ele>285</ele>
        <time>2018-02-23T11:05:52Z</time>
      </trkpt>
      <trkpt lat="45.96994" lon="4.85703">
        <ele>285</ele>
        <time>2018-02-23T11:05:53Z</time>
      </trkpt>
      <trkpt lat="45.96997" lon="4.85695">
        <ele>285</ele>
        <time>2018-02-23T11:05:54Z</time>
      </trkpt>
      <trkpt lat="45.96999" lon="4.85687">
        <ele>285</ele>
        <time>2018-02-23T11:05:55Z</time>
      </trkpt>
      <trkpt lat="45.97001" lon="4.85678">
        <ele>285</ele>
        <time>2018-02-23T11:05:56Z</time>
      </trkpt>
      <trkpt lat="45.97003" lon="4.85671">
        <ele>286</ele>
        <time>2018-02-23T11:05:57Z</time>
      </trkpt>
      <trkpt lat="45.97005" lon="4.85662">
        <ele>285</ele>
        <time>2018-02-23T11:05:58Z</time>
      </trkpt>
      <trkpt lat="45.97007" lon="4.85653">
        <ele>285</ele>
        <time>2018-02-23T11:05:59Z</time>
      </trkpt>
      <trkpt lat="45.97009" lon="4.85646">
        <ele>284</ele>
        <time>2018-02-23T11:06:00Z</time>
      </trkpt>
      <trkpt lat="45.97011" lon="4.85637">
        <ele>284</ele>
        <time>2018-02-23T11:06:01Z</time>
      </trkpt>
      <trkpt lat="45.97012" lon="4.8563">
        <ele>284</ele>
        <time>2018-02-23T11:06:02Z</time>
      </trkpt>
      <trkpt lat="45.97014" lon="4.85623">
        <ele>284</ele>
        <time>2018-02-23T11:06:03Z</time>
      </trkpt>
      <trkpt lat="45.97016" lon="4.85615">
        <ele>284</ele>
        <time>2018-02-23T11:06:04Z</time>
      </trkpt>
      <trkpt lat="45.97018" lon="4.85607">
        <ele>284</ele>
        <time>2018-02-23T11:06:05Z</time>
      </trkpt>
      <trkpt lat="45.97019" lon="4.856">
        <ele>284</ele>
        <time>2018-02-23T11:06:06Z</time>
      </trkpt>
      <trkpt lat="45.97021" lon="4.85594">
        <ele>284</ele>
        <time>2018-02-23T11:06:07Z</time>
      </trkpt>
      <trkpt lat="45.97023" lon="4.85586">
        <ele>284</ele>
        <time>2018-02-23T11:06:08Z</time>
      </trkpt>
      <trkpt lat="45.97025" lon="4.85577">
        <ele>283</ele>
        <time>2018-02-23T11:06:09Z</time>
      </trkpt>
      <trkpt lat="45.97027" lon="4.8557">
        <ele>283</ele>
        <time>2018-02-23T11:06:10Z</time>
      </trkpt>
      <trkpt lat="45.97029" lon="4.85562">
        <ele>283</ele>
        <time>2018-02-23T11:06:11Z</time>
      </trkpt>
      <trkpt lat="45.97031" lon="4.85553">
        <ele>283</ele>
        <time>2018-02-23T11:06:12Z</time>
      </trkpt>
      <trkpt lat="45.97034" lon="4.85544">
        <ele>282</ele>
        <time>2018-02-23T11:06:13Z</time>
      </trkpt>
      <trkpt lat="45.97037" lon="4.85536">
        <ele>282</ele>
        <time>2018-02-23T11:06:14Z</time>
      </trkpt>
      <trkpt lat="45.97039" lon="4.85527">
        <ele>282</ele>
        <time>2018-02-23T11:06:15Z</time>
      </trkpt>
      <trkpt lat="45.97042" lon="4.85519">
        <ele>282</ele>
        <time>2018-02-23T11:06:16Z</time>
      </trkpt>
      <trkpt lat="45.97044" lon="4.85511">
        <ele>282</ele>
        <time>2018-02-23T11:06:17Z</time>
      </trkpt>
      <trkpt lat="45.97046" lon="4.85505">
        <ele>282</ele>
        <time>2018-02-23T11:06:18Z</time>
      </trkpt>
      <trkpt lat="45.97048" lon="4.85498">
        <ele>281</ele>
        <time>2018-02-23T11:06:19Z</time>
      </trkpt>
      <trkpt lat="45.9705" lon="4.85491">
        <ele>281</ele>
        <time>2018-02-23T11:06:20Z</time>
      </trkpt>
      <trkpt lat="45.97054" lon="4.85485">
        <ele>281</ele>
        <time>2018-02-23T11:06:21Z</time>
      </trkpt>
      <trkpt lat="45.97056" lon="4.85478">
        <ele>281</ele>
        <time>2018-02-23T11:06:22Z</time>
      </trkpt>
      <trkpt lat="45.97059" lon="4.85472">
        <ele>281</ele>
        <time>2018-02-23T11:06:23Z</time>
      </trkpt>
      <trkpt lat="45.97061" lon="4.85466">
        <ele>281</ele>
        <time>2018-02-23T11:06:24Z</time>
      </trkpt>
      <trkpt lat="45.97063" lon="4.8546">
        <ele>281</ele>
        <time>2018-02-23T11:06:25Z</time>
      </trkpt>
      <trkpt lat="45.97064" lon="4.85453">
        <ele>281</ele>
        <time>2018-02-23T11:06:26Z</time>
      </trkpt>
      <trkpt lat="45.97066" lon="4.85446">
        <ele>281</ele>
        <time>2018-02-23T11:06:27Z</time>
      </trkpt>
      <trkpt lat="45.97068" lon="4.8544">
        <ele>281</ele>
        <time>2018-02-23T11:06:28Z</time>
      </trkpt>
      <trkpt lat="45.97069" lon="4.85434">
        <ele>281</ele>
        <time>2018-02-23T11:06:29Z</time>
      </trkpt>
      <trkpt lat="45.97073" lon="4.85422">
        <ele>281</ele>
        <time>2018-02-23T11:06:31Z</time>
      </trkpt>
      <trkpt lat="45.97076" lon="4.85417">
        <ele>280</ele>
        <time>2018-02-23T11:06:32Z</time>
      </trkpt>
      <trkpt lat="45.97078" lon="4.85411">
        <ele>280</ele>
        <time>2018-02-23T11:06:33Z</time>
      </trkpt>
      <trkpt lat="45.97079" lon="4.85404">
        <ele>281</ele>
        <time>2018-02-23T11:06:34Z</time>
      </trkpt>
      <trkpt lat="45.97082" lon="4.85397">
        <ele>281</ele>
        <time>2018-02-23T11:06:35Z</time>
      </trkpt>
      <trkpt lat="45.97083" lon="4.8539">
        <ele>281</ele>
        <time>2018-02-23T11:06:36Z</time>
      </trkpt>
      <trkpt lat="45.97086" lon="4.85383">
        <ele>280</ele>
        <time>2018-02-23T11:06:37Z</time>
      </trkpt>
      <trkpt lat="45.97088" lon="4.85376">
        <ele>280</ele>
        <time>2018-02-23T11:06:38Z</time>
      </trkpt>
      <trkpt lat="45.9709" lon="4.85369">
        <ele>280</ele>
        <time>2018-02-23T11:06:39Z</time>
      </trkpt>
      <trkpt lat="45.97093" lon="4.85362">
        <ele>280</ele>
        <time>2018-02-23T11:06:40Z</time>
      </trkpt>
      <trkpt lat="45.97094" lon="4.85354">
        <ele>280</ele>
        <time>2018-02-23T11:06:41Z</time>
      </trkpt>
      <trkpt lat="45.97096" lon="4.85345">
        <ele>280</ele>
        <time>2018-02-23T11:06:42Z</time>
      </trkpt>
      <trkpt lat="45.97099" lon="4.85338">
        <ele>280</ele>
        <time>2018-02-23T11:06:43Z</time>
      </trkpt>
      <trkpt lat="45.97102" lon="4.8533">
        <ele>280</ele>
        <time>2018-02-23T11:06:44Z</time>
      </trkpt>
      <trkpt lat="45.97105" lon="4.85323">
        <ele>280</ele>
        <time>2018-02-23T11:06:45Z</time>
      </trkpt>
      <trkpt lat="45.97108" lon="4.85315">
        <ele>280</ele>
        <time>2018-02-23T11:06:46Z</time>
      </trkpt>
      <trkpt lat="45.97111" lon="4.85308">
        <ele>280</ele>
        <time>2018-02-23T11:06:47Z</time>
      </trkpt>
      <trkpt lat="45.97114" lon="4.85301">
        <ele>280</ele>
        <time>2018-02-23T11:06:48Z</time>
      </trkpt>
      <trkpt lat="45.97117" lon="4.85293">
        <ele>280</ele>
        <time>2018-02-23T11:06:49Z</time>
      </trkpt>
      <trkpt lat="45.97121" lon="4.85286">
        <ele>280</ele>
        <time>2018-02-23T11:06:50Z</time>
      </trkpt>
      <trkpt lat="45.97125" lon="4.85279">
        <ele>280</ele>
        <time>2018-02-23T11:06:51Z</time>
      </trkpt>
      <trkpt lat="45.97128" lon="4.85272">
        <ele>279</ele>
        <time>2018-02-23T11:06:52Z</time>
      </trkpt>
      <trkpt lat="45.97131" lon="4.85266">
        <ele>279</ele>
        <time>2018-02-23T11:06:53Z</time>
      </trkpt>
      <trkpt lat="45.97134" lon="4.85259">
        <ele>279</ele>
        <time>2018-02-23T11:06:54Z</time>
      </trkpt>
      <trkpt lat="45.97138" lon="4.85252">
        <ele>279</ele>
        <time>2018-02-23T11:06:55Z</time>
      </trkpt>
      <trkpt lat="45.97141" lon="4.85246">
        <ele>279</ele>
        <time>2018-02-23T11:06:56Z</time>
      </trkpt>
      <trkpt lat="45.97144" lon="4.8524">
        <ele>279</ele>
        <time>2018-02-23T11:06:57Z</time>
      </trkpt>
      <trkpt lat="45.97147" lon="4.85233">
        <ele>279</ele>
        <time>2018-02-23T11:06:58Z</time>
      </trkpt>
      <trkpt lat="45.9715" lon="4.85227">
        <ele>279</ele>
        <time>2018-02-23T11:06:59Z</time>
      </trkpt>
      <trkpt lat="45.97154" lon="4.85221">
        <ele>279</ele>
        <time>2018-02-23T11:07:00Z</time>
      </trkpt>
      <trkpt lat="45.97156" lon="4.85215">
        <ele>279</ele>
        <time>2018-02-23T11:07:01Z</time>
      </trkpt>
      <trkpt lat="45.9716" lon="4.85209">
        <ele>279</ele>
        <time>2018-02-23T11:07:02Z</time>
      </trkpt>
      <trkpt lat="45.97163" lon="4.85203">
        <ele>279</ele>
        <time>2018-02-23T11:07:03Z</time>
      </trkpt>
      <trkpt lat="45.97166" lon="4.85197">
        <ele>279</ele>
        <time>2018-02-23T11:07:04Z</time>
      </trkpt>
      <trkpt lat="45.97169" lon="4.85192">
        <ele>278</ele>
        <time>2018-02-23T11:07:05Z</time>
      </trkpt>
      <trkpt lat="45.97173" lon="4.85186">
        <ele>278</ele>
        <time>2018-02-23T11:07:06Z</time>
      </trkpt>
      <trkpt lat="45.97176" lon="4.8518">
        <ele>278</ele>
        <time>2018-02-23T11:07:07Z</time>
      </trkpt>
      <trkpt lat="45.97179" lon="4.85174">
        <ele>278</ele>
        <time>2018-02-23T11:07:08Z</time>
      </trkpt>
      <trkpt lat="45.97182" lon="4.85168">
        <ele>278</ele>
        <time>2018-02-23T11:07:09Z</time>
      </trkpt>
      <trkpt lat="45.97185" lon="4.85162">
        <ele>278</ele>
        <time>2018-02-23T11:07:10Z</time>
      </trkpt>
      <trkpt lat="45.97188" lon="4.85155">
        <ele>278</ele>
        <time>2018-02-23T11:07:11Z</time>
      </trkpt>
      <trkpt lat="45.97191" lon="4.85149">
        <ele>278</ele>
        <time>2018-02-23T11:07:12Z</time>
      </trkpt>
      <trkpt lat="45.97194" lon="4.85143">
        <ele>278</ele>
        <time>2018-02-23T11:07:13Z</time>
      </trkpt>
      <trkpt lat="45.97198" lon="4.85136">
        <ele>278</ele>
        <time>2018-02-23T11:07:14Z</time>
      </trkpt>
      <trkpt lat="45.972" lon="4.8513">
        <ele>278</ele>
        <time>2018-02-23T11:07:15Z</time>
      </trkpt>
      <trkpt lat="45.97203" lon="4.85124">
        <ele>278</ele>
        <time>2018-02-23T11:07:16Z</time>
      </trkpt>
      <trkpt lat="45.97205" lon="4.85118">
        <ele>278</ele>
        <time>2018-02-23T11:07:17Z</time>
      </trkpt>
      <trkpt lat="45.97209" lon="4.85112">
        <ele>278</ele>
        <time>2018-02-23T11:07:18Z</time>
      </trkpt>
      <trkpt lat="45.97211" lon="4.85106">
        <ele>278</ele>
        <time>2018-02-23T11:07:19Z</time>
      </trkpt>
      <trkpt lat="45.97215" lon="4.851">
        <ele>278</ele>
        <time>2018-02-23T11:07:20Z</time>
      </trkpt>
      <trkpt lat="45.97217" lon="4.85094">
        <ele>278</ele>
        <time>2018-02-23T11:07:21Z</time>
      </trkpt>
      <trkpt lat="45.9722" lon="4.85087">
        <ele>278</ele>
        <time>2018-02-23T11:07:22Z</time>
      </trkpt>
      <trkpt lat="45.97223" lon="4.8508">
        <ele>278</ele>
        <time>2018-02-23T11:07:23Z</time>
      </trkpt>
      <trkpt lat="45.97225" lon="4.85073">
        <ele>278</ele>
        <time>2018-02-23T11:07:24Z</time>
      </trkpt>
      <trkpt lat="45.97228" lon="4.85067">
        <ele>278</ele>
        <time>2018-02-23T11:07:25Z</time>
      </trkpt>
      <trkpt lat="45.97233" lon="4.85057">
        <ele>279</ele>
        <time>2018-02-23T11:07:26Z</time>
      </trkpt>
      <trkpt lat="45.97236" lon="4.8505">
        <ele>279</ele>
        <time>2018-02-23T11:07:27Z</time>
      </trkpt>
      <trkpt lat="45.97239" lon="4.85042">
        <ele>279</ele>
        <time>2018-02-23T11:07:28Z</time>
      </trkpt>
      <trkpt lat="45.97242" lon="4.85036">
        <ele>279</ele>
        <time>2018-02-23T11:07:29Z</time>
      </trkpt>
      <trkpt lat="45.97246" lon="4.85028">
        <ele>279</ele>
        <time>2018-02-23T11:07:30Z</time>
      </trkpt>
      <trkpt lat="45.97249" lon="4.85021">
        <ele>279</ele>
        <time>2018-02-23T11:07:31Z</time>
      </trkpt>
      <trkpt lat="45.97252" lon="4.85014">
        <ele>279</ele>
        <time>2018-02-23T11:07:32Z</time>
      </trkpt>
      <trkpt lat="45.97255" lon="4.85007">
        <ele>279</ele>
        <time>2018-02-23T11:07:33Z</time>
      </trkpt>
      <trkpt lat="45.97259" lon="4.84999">
        <ele>279</ele>
        <time>2018-02-23T11:07:34Z</time>
      </trkpt>
      <trkpt lat="45.97262" lon="4.84992">
        <ele>279</ele>
        <time>2018-02-23T11:07:35Z</time>
      </trkpt>
      <trkpt lat="45.97265" lon="4.84985">
        <ele>279</ele>
        <time>2018-02-23T11:07:36Z</time>
      </trkpt>
      <trkpt lat="45.97268" lon="4.84978">
        <ele>279</ele>
        <time>2018-02-23T11:07:37Z</time>
      </trkpt>
      <trkpt lat="45.9727" lon="4.84971">
        <ele>279</ele>
        <time>2018-02-23T11:07:38Z</time>
      </trkpt>
      <trkpt lat="45.97273" lon="4.84965">
        <ele>278</ele>
        <time>2018-02-23T11:07:39Z</time>
      </trkpt>
      <trkpt lat="45.97276" lon="4.84958">
        <ele>278</ele>
        <time>2018-02-23T11:07:40Z</time>
      </trkpt>
      <trkpt lat="45.97282" lon="4.84949">
        <ele>278</ele>
        <time>2018-02-23T11:07:41Z</time>
      </trkpt>
      <trkpt lat="45.97285" lon="4.84943">
        <ele>278</ele>
        <time>2018-02-23T11:07:42Z</time>
      </trkpt>
      <trkpt lat="45.9729" lon="4.84937">
        <ele>278</ele>
        <time>2018-02-23T11:07:43Z</time>
      </trkpt>
      <trkpt lat="45.97294" lon="4.8493">
        <ele>278</ele>
        <time>2018-02-23T11:07:44Z</time>
      </trkpt>
      <trkpt lat="45.97297" lon="4.84924">
        <ele>278</ele>
        <time>2018-02-23T11:07:45Z</time>
      </trkpt>
      <trkpt lat="45.97301" lon="4.84919">
        <ele>278</ele>
        <time>2018-02-23T11:07:46Z</time>
      </trkpt>
      <trkpt lat="45.97306" lon="4.84912">
        <ele>278</ele>
        <time>2018-02-23T11:07:47Z</time>
      </trkpt>
      <trkpt lat="45.97312" lon="4.84904">
        <ele>278</ele>
        <time>2018-02-23T11:07:48Z</time>
      </trkpt>
      <trkpt lat="45.97316" lon="4.84896">
        <ele>278</ele>
        <time>2018-02-23T11:07:49Z</time>
      </trkpt>
      <trkpt lat="45.9732" lon="4.8489">
        <ele>278</ele>
        <time>2018-02-23T11:07:50Z</time>
      </trkpt>
      <trkpt lat="45.97323" lon="4.84883">
        <ele>278</ele>
        <time>2018-02-23T11:07:51Z</time>
      </trkpt>
      <trkpt lat="45.97327" lon="4.84877">
        <ele>278</ele>
        <time>2018-02-23T11:07:52Z</time>
      </trkpt>
      <trkpt lat="45.97331" lon="4.8487">
        <ele>278</ele>
        <time>2018-02-23T11:07:53Z</time>
      </trkpt>
      <trkpt lat="45.97334" lon="4.84863">
        <ele>277</ele>
        <time>2018-02-23T11:07:54Z</time>
      </trkpt>
      <trkpt lat="45.97337" lon="4.84856">
        <ele>277</ele>
        <time>2018-02-23T11:07:55Z</time>
      </trkpt>
      <trkpt lat="45.9734" lon="4.84849">
        <ele>277</ele>
        <time>2018-02-23T11:07:56Z</time>
      </trkpt>
      <trkpt lat="45.97343" lon="4.84842">
        <ele>277</ele>
        <time>2018-02-23T11:07:57Z</time>
      </trkpt>
      <trkpt lat="45.97346" lon="4.84836">
        <ele>277</ele>
        <time>2018-02-23T11:07:58Z</time>
      </trkpt>
      <trkpt lat="45.97349" lon="4.84829">
        <ele>278</ele>
        <time>2018-02-23T11:07:59Z</time>
      </trkpt>
      <trkpt lat="45.97352" lon="4.84822">
        <ele>278</ele>
        <time>2018-02-23T11:08:00Z</time>
      </trkpt>
      <trkpt lat="45.97355" lon="4.84815">
        <ele>278</ele>
        <time>2018-02-23T11:08:01Z</time>
      </trkpt>
      <trkpt lat="45.97358" lon="4.84809">
        <ele>278</ele>
        <time>2018-02-23T11:08:02Z</time>
      </trkpt>
      <trkpt lat="45.97361" lon="4.84803">
        <ele>278</ele>
        <time>2018-02-23T11:08:03Z</time>
      </trkpt>
      <trkpt lat="45.97363" lon="4.84795">
        <ele>278</ele>
        <time>2018-02-23T11:08:04Z</time>
      </trkpt>
      <trkpt lat="45.97365" lon="4.84788">
        <ele>278</ele>
        <time>2018-02-23T11:08:05Z</time>
      </trkpt>
      <trkpt lat="45.97368" lon="4.84781">
        <ele>278</ele>
        <time>2018-02-23T11:08:06Z</time>
      </trkpt>
      <trkpt lat="45.97372" lon="4.84774">
        <ele>278</ele>
        <time>2018-02-23T11:08:07Z</time>
      </trkpt>
      <trkpt lat="45.97374" lon="4.84766">
        <ele>278</ele>
        <time>2018-02-23T11:08:08Z</time>
      </trkpt>
      <trkpt lat="45.97378" lon="4.8476">
        <ele>278</ele>
        <time>2018-02-23T11:08:09Z</time>
      </trkpt>
      <trkpt lat="45.9738" lon="4.84753">
        <ele>278</ele>
        <time>2018-02-23T11:08:10Z</time>
      </trkpt>
      <trkpt lat="45.97383" lon="4.84746">
        <ele>278</ele>
        <time>2018-02-23T11:08:11Z</time>
      </trkpt>
      <trkpt lat="45.97385" lon="4.84739">
        <ele>278</ele>
        <time>2018-02-23T11:08:12Z</time>
      </trkpt>
      <trkpt lat="45.97387" lon="4.84732">
        <ele>278</ele>
        <time>2018-02-23T11:08:13Z</time>
      </trkpt>
      <trkpt lat="45.97389" lon="4.84725">
        <ele>278</ele>
        <time>2018-02-23T11:08:14Z</time>
      </trkpt>
      <trkpt lat="45.97391" lon="4.84719">
        <ele>278</ele>
        <time>2018-02-23T11:08:15Z</time>
      </trkpt>
      <trkpt lat="45.97394" lon="4.84712">
        <ele>278</ele>
        <time>2018-02-23T11:08:16Z</time>
      </trkpt>
      <trkpt lat="45.97397" lon="4.84706">
        <ele>278</ele>
        <time>2018-02-23T11:08:17Z</time>
      </trkpt>
      <trkpt lat="45.97399" lon="4.84699">
        <ele>278</ele>
        <time>2018-02-23T11:08:18Z</time>
      </trkpt>
      <trkpt lat="45.97401" lon="4.84691">
        <ele>278</ele>
        <time>2018-02-23T11:08:19Z</time>
      </trkpt>
      <trkpt lat="45.97403" lon="4.84683">
        <ele>278</ele>
        <time>2018-02-23T11:08:20Z</time>
      </trkpt>
      <trkpt lat="45.97405" lon="4.84676">
        <ele>277</ele>
        <time>2018-02-23T11:08:21Z</time>
      </trkpt>
      <trkpt lat="45.97407" lon="4.84668">
        <ele>277</ele>
        <time>2018-02-23T11:08:22Z</time>
      </trkpt>
      <trkpt lat="45.97409" lon="4.8466">
        <ele>277</ele>
        <time>2018-02-23T11:08:23Z</time>
      </trkpt>
      <trkpt lat="45.97413" lon="4.84651">
        <ele>277</ele>
        <time>2018-02-23T11:08:24Z</time>
      </trkpt>
      <trkpt lat="45.97415" lon="4.84643">
        <ele>278</ele>
        <time>2018-02-23T11:08:25Z</time>
      </trkpt>
      <trkpt lat="45.97416" lon="4.84635">
        <ele>278</ele>
        <time>2018-02-23T11:08:26Z</time>
      </trkpt>
      <trkpt lat="45.97418" lon="4.84627">
        <ele>276</ele>
        <time>2018-02-23T11:08:27Z</time>
      </trkpt>
      <trkpt lat="45.9742" lon="4.84618">
        <ele>276</ele>
        <time>2018-02-23T11:08:28Z</time>
      </trkpt>
      <trkpt lat="45.97421" lon="4.8461">
        <ele>276</ele>
        <time>2018-02-23T11:08:29Z</time>
      </trkpt>
      <trkpt lat="45.97424" lon="4.84601">
        <ele>276</ele>
        <time>2018-02-23T11:08:30Z</time>
      </trkpt>
      <trkpt lat="45.97425" lon="4.84593">
        <ele>277</ele>
        <time>2018-02-23T11:08:31Z</time>
      </trkpt>
      <trkpt lat="45.97427" lon="4.84585">
        <ele>277</ele>
        <time>2018-02-23T11:08:32Z</time>
      </trkpt>
      <trkpt lat="45.97428" lon="4.84576">
        <ele>277</ele>
        <time>2018-02-23T11:08:33Z</time>
      </trkpt>
      <trkpt lat="45.97429" lon="4.84568">
        <ele>277</ele>
        <time>2018-02-23T11:08:34Z</time>
      </trkpt>
      <trkpt lat="45.97429" lon="4.8456">
        <ele>277</ele>
        <time>2018-02-23T11:08:35Z</time>
      </trkpt>
      <trkpt lat="45.97431" lon="4.84553">
        <ele>277</ele>
        <time>2018-02-23T11:08:36Z</time>
      </trkpt>
      <trkpt lat="45.97432" lon="4.84544">
        <ele>277</ele>
        <time>2018-02-23T11:08:37Z</time>
      </trkpt>
      <trkpt lat="45.97432" lon="4.84536">
        <ele>277</ele>
        <time>2018-02-23T11:08:38Z</time>
      </trkpt>
      <trkpt lat="45.97434" lon="4.84527">
        <ele>277</ele>
        <time>2018-02-23T11:08:39Z</time>
      </trkpt>
      <trkpt lat="45.97435" lon="4.84519">
        <ele>277</ele>
        <time>2018-02-23T11:08:40Z</time>
      </trkpt>
      <trkpt lat="45.97436" lon="4.84512">
        <ele>277</ele>
        <time>2018-02-23T11:08:41Z</time>
      </trkpt>
      <trkpt lat="45.97437" lon="4.84504">
        <ele>277</ele>
        <time>2018-02-23T11:08:42Z</time>
      </trkpt>
      <trkpt lat="45.97438" lon="4.84496">
        <ele>277</ele>
        <time>2018-02-23T11:08:43Z</time>
      </trkpt>
      <trkpt lat="45.97439" lon="4.84488">
        <ele>277</ele>
        <time>2018-02-23T11:08:44Z</time>
      </trkpt>
      <trkpt lat="45.9744" lon="4.84479">
        <ele>277</ele>
        <time>2018-02-23T11:08:45Z</time>
      </trkpt>
      <trkpt lat="45.97441" lon="4.84471">
        <ele>277</ele>
        <time>2018-02-23T11:08:46Z</time>
      </trkpt>
      <trkpt lat="45.97443" lon="4.84463">
        <ele>277</ele>
        <time>2018-02-23T11:08:47Z</time>
      </trkpt>
      <trkpt lat="45.97443" lon="4.84455">
        <ele>278</ele>
        <time>2018-02-23T11:08:48Z</time>
      </trkpt>
      <trkpt lat="45.97445" lon="4.84447">
        <ele>278</ele>
        <time>2018-02-23T11:08:49Z</time>
      </trkpt>
      <trkpt lat="45.97445" lon="4.84439">
        <ele>278</ele>
        <time>2018-02-23T11:08:50Z</time>
      </trkpt>
      <trkpt lat="45.97446" lon="4.84431">
        <ele>278</ele>
        <time>2018-02-23T11:08:51Z</time>
      </trkpt>
      <trkpt lat="45.97448" lon="4.84421">
        <ele>278</ele>
        <time>2018-02-23T11:08:52Z</time>
      </trkpt>
      <trkpt lat="45.97449" lon="4.84413">
        <ele>278</ele>
        <time>2018-02-23T11:08:53Z</time>
      </trkpt>
      <trkpt lat="45.97449" lon="4.84405">
        <ele>278</ele>
        <time>2018-02-23T11:08:54Z</time>
      </trkpt>
      <trkpt lat="45.9745" lon="4.84398">
        <ele>278</ele>
        <time>2018-02-23T11:08:55Z</time>
      </trkpt>
      <trkpt lat="45.97451" lon="4.8439">
        <ele>278</ele>
        <time>2018-02-23T11:08:56Z</time>
      </trkpt>
      <trkpt lat="45.97452" lon="4.84383">
        <ele>278</ele>
        <time>2018-02-23T11:08:57Z</time>
      </trkpt>
      <trkpt lat="45.97453" lon="4.84375">
        <ele>278</ele>
        <time>2018-02-23T11:08:58Z</time>
      </trkpt>
      <trkpt lat="45.97454" lon="4.84367">
        <ele>278</ele>
        <time>2018-02-23T11:08:59Z</time>
      </trkpt>
      <trkpt lat="45.97455" lon="4.8436">
        <ele>277</ele>
        <time>2018-02-23T11:09:00Z</time>
      </trkpt>
      <trkpt lat="45.97455" lon="4.84352">
        <ele>277</ele>
        <time>2018-02-23T11:09:01Z</time>
      </trkpt>
      <trkpt lat="45.97456" lon="4.84345">
        <ele>277</ele>
        <time>2018-02-23T11:09:02Z</time>
      </trkpt>
      <trkpt lat="45.97458" lon="4.84337">
        <ele>277</ele>
        <time>2018-02-23T11:09:03Z</time>
      </trkpt>
      <trkpt lat="45.97459" lon="4.8433">
        <ele>277</ele>
        <time>2018-02-23T11:09:04Z</time>
      </trkpt>
      <trkpt lat="45.97459" lon="4.84323">
        <ele>277</ele>
        <time>2018-02-23T11:09:05Z</time>
      </trkpt>
      <trkpt lat="45.9746" lon="4.84316">
        <ele>278</ele>
        <time>2018-02-23T11:09:06Z</time>
      </trkpt>
      <trkpt lat="45.97461" lon="4.84308">
        <ele>278</ele>
        <time>2018-02-23T11:09:07Z</time>
      </trkpt>
      <trkpt lat="45.97462" lon="4.84301">
        <ele>278</ele>
        <time>2018-02-23T11:09:08Z</time>
      </trkpt>
      <trkpt lat="45.97463" lon="4.84294">
        <ele>278</ele>
        <time>2018-02-23T11:09:09Z</time>
      </trkpt>
      <trkpt lat="45.97464" lon="4.84286">
        <ele>278</ele>
        <time>2018-02-23T11:09:10Z</time>
      </trkpt>
      <trkpt lat="45.97464" lon="4.84279">
        <ele>278</ele>
        <time>2018-02-23T11:09:11Z</time>
      </trkpt>
      <trkpt lat="45.97465" lon="4.84271">
        <ele>278</ele>
        <time>2018-02-23T11:09:12Z</time>
      </trkpt>
      <trkpt lat="45.97466" lon="4.84264">
        <ele>278</ele>
        <time>2018-02-23T11:09:13Z</time>
      </trkpt>
      <trkpt lat="45.97467" lon="4.84256">
        <ele>278</ele>
        <time>2018-02-23T11:09:14Z</time>
      </trkpt>
      <trkpt lat="45.97468" lon="4.84249">
        <ele>279</ele>
        <time>2018-02-23T11:09:15Z</time>
      </trkpt>
      <trkpt lat="45.97469" lon="4.84241">
        <ele>279</ele>
        <time>2018-02-23T11:09:16Z</time>
      </trkpt>
      <trkpt lat="45.97471" lon="4.84234">
        <ele>279</ele>
        <time>2018-02-23T11:09:17Z</time>
      </trkpt>
      <trkpt lat="45.97472" lon="4.84226">
        <ele>279</ele>
        <time>2018-02-23T11:09:18Z</time>
      </trkpt>
      <trkpt lat="45.97473" lon="4.84219">
        <ele>279</ele>
        <time>2018-02-23T11:09:19Z</time>
      </trkpt>
      <trkpt lat="45.97473" lon="4.84211">
        <ele>279</ele>
        <time>2018-02-23T11:09:20Z</time>
      </trkpt>
      <trkpt lat="45.97475" lon="4.84204">
        <ele>279</ele>
        <time>2018-02-23T11:09:21Z</time>
      </trkpt>
      <trkpt lat="45.97476" lon="4.84196">
        <ele>279</ele>
        <time>2018-02-23T11:09:22Z</time>
      </trkpt>
      <trkpt lat="45.97477" lon="4.84189">
        <ele>279</ele>
        <time>2018-02-23T11:09:23Z</time>
      </trkpt>
      <trkpt lat="45.97478" lon="4.84182">
        <ele>279</ele>
        <time>2018-02-23T11:09:24Z</time>
      </trkpt>
      <trkpt lat="45.97478" lon="4.84175">
        <ele>279</ele>
        <time>2018-02-23T11:09:25Z</time>
      </trkpt>
      <trkpt lat="45.97479" lon="4.84168">
        <ele>279</ele>
        <time>2018-02-23T11:09:26Z</time>
      </trkpt>
      <trkpt lat="45.9748" lon="4.84161">
        <ele>279</ele>
        <time>2018-02-23T11:09:27Z</time>
      </trkpt>
      <trkpt lat="45.97481" lon="4.84154">
        <ele>279</ele>
        <time>2018-02-23T11:09:28Z</time>
      </trkpt>
      <trkpt lat="45.97483" lon="4.84146">
        <ele>279</ele>
        <time>2018-02-23T11:09:29Z</time>
      </trkpt>
      <trkpt lat="45.97484" lon="4.84139">
        <ele>279</ele>
        <time>2018-02-23T11:09:30Z</time>
      </trkpt>
      <trkpt lat="45.97485" lon="4.84131">
        <ele>279</ele>
        <time>2018-02-23T11:09:31Z</time>
      </trkpt>
      <trkpt lat="45.97487" lon="4.84124">
        <ele>279</ele>
        <time>2018-02-23T11:09:32Z</time>
      </trkpt>
      <trkpt lat="45.97489" lon="4.84117">
        <ele>279</ele>
        <time>2018-02-23T11:09:33Z</time>
      </trkpt>
      <trkpt lat="45.9749" lon="4.84109">
        <ele>279</ele>
        <time>2018-02-23T11:09:34Z</time>
      </trkpt>
      <trkpt lat="45.97492" lon="4.84101">
        <ele>279</ele>
        <time>2018-02-23T11:09:35Z</time>
      </trkpt>
      <trkpt lat="45.97493" lon="4.84094">
        <ele>278</ele>
        <time>2018-02-23T11:09:36Z</time>
      </trkpt>
      <trkpt lat="45.97494" lon="4.84086">
        <ele>278</ele>
        <time>2018-02-23T11:09:37Z</time>
      </trkpt>
      <trkpt lat="45.97496" lon="4.84078">
        <ele>278</ele>
        <time>2018-02-23T11:09:38Z</time>
      </trkpt>
      <trkpt lat="45.97497" lon="4.84071">
        <ele>278</ele>
        <time>2018-02-23T11:09:39Z</time>
      </trkpt>
      <trkpt lat="45.97499" lon="4.84063">
        <ele>278</ele>
        <time>2018-02-23T11:09:40Z</time>
      </trkpt>
      <trkpt lat="45.97501" lon="4.84055">
        <ele>277</ele>
        <time>2018-02-23T11:09:41Z</time>
      </trkpt>
      <trkpt lat="45.97503" lon="4.84047">
        <ele>277</ele>
        <time>2018-02-23T11:09:42Z</time>
      </trkpt>
      <trkpt lat="45.97504" lon="4.8404">
        <ele>277</ele>
        <time>2018-02-23T11:09:43Z</time>
      </trkpt>
      <trkpt lat="45.97506" lon="4.84032">
        <ele>277</ele>
        <time>2018-02-23T11:09:44Z</time>
      </trkpt>
      <trkpt lat="45.97507" lon="4.84026">
        <ele>277</ele>
        <time>2018-02-23T11:09:45Z</time>
      </trkpt>
      <trkpt lat="45.97508" lon="4.84018">
        <ele>277</ele>
        <time>2018-02-23T11:09:46Z</time>
      </trkpt>
      <trkpt lat="45.97509" lon="4.84011">
        <ele>277</ele>
        <time>2018-02-23T11:09:47Z</time>
      </trkpt>
      <trkpt lat="45.97512" lon="4.84004">
        <ele>277</ele>
        <time>2018-02-23T11:09:48Z</time>
      </trkpt>
      <trkpt lat="45.97513" lon="4.83997">
        <ele>277</ele>
        <time>2018-02-23T11:09:49Z</time>
      </trkpt>
      <trkpt lat="45.97514" lon="4.8399">
        <ele>277</ele>
        <time>2018-02-23T11:09:50Z</time>
      </trkpt>
      <trkpt lat="45.97516" lon="4.83983">
        <ele>277</ele>
        <time>2018-02-23T11:09:51Z</time>
      </trkpt>
      <trkpt lat="45.97518" lon="4.83976">
        <ele>277</ele>
        <time>2018-02-23T11:09:52Z</time>
      </trkpt>
      <trkpt lat="45.97519" lon="4.83968">
        <ele>277</ele>
        <time>2018-02-23T11:09:53Z</time>
      </trkpt>
      <trkpt lat="45.97521" lon="4.83959">
        <ele>277</ele>
        <time>2018-02-23T11:09:54Z</time>
      </trkpt>
      <trkpt lat="45.97523" lon="4.83952">
        <ele>277</ele>
        <time>2018-02-23T11:09:55Z</time>
      </trkpt>
      <trkpt lat="45.97524" lon="4.83944">
        <ele>277</ele>
        <time>2018-02-23T11:09:56Z</time>
      </trkpt>
      <trkpt lat="45.97526" lon="4.83936">
        <ele>277</ele>
        <time>2018-02-23T11:09:57Z</time>
      </trkpt>
      <trkpt lat="45.97528" lon="4.83929">
        <ele>277</ele>
        <time>2018-02-23T11:09:58Z</time>
      </trkpt>
      <trkpt lat="45.97529" lon="4.83921">
        <ele>277</ele>
        <time>2018-02-23T11:09:59Z</time>
      </trkpt>
      <trkpt lat="45.9753" lon="4.83913">
        <ele>277</ele>
        <time>2018-02-23T11:10:00Z</time>
      </trkpt>
      <trkpt lat="45.97532" lon="4.83906">
        <ele>278</ele>
        <time>2018-02-23T11:10:01Z</time>
      </trkpt>
      <trkpt lat="45.97533" lon="4.83898">
        <ele>278</ele>
        <time>2018-02-23T11:10:02Z</time>
      </trkpt>
      <trkpt lat="45.97535" lon="4.83891">
        <ele>278</ele>
        <time>2018-02-23T11:10:03Z</time>
      </trkpt>
      <trkpt lat="45.97536" lon="4.83883">
        <ele>278</ele>
        <time>2018-02-23T11:10:04Z</time>
      </trkpt>
      <trkpt lat="45.97538" lon="4.83877">
        <ele>278</ele>
        <time>2018-02-23T11:10:05Z</time>
      </trkpt>
      <trkpt lat="45.9754" lon="4.83869">
        <ele>278</ele>
        <time>2018-02-23T11:10:06Z</time>
      </trkpt>
      <trkpt lat="45.97541" lon="4.83861">
        <ele>278</ele>
        <time>2018-02-23T11:10:07Z</time>
      </trkpt>
      <trkpt lat="45.97542" lon="4.83854">
        <ele>278</ele>
        <time>2018-02-23T11:10:08Z</time>
      </trkpt>
      <trkpt lat="45.97543" lon="4.83846">
        <ele>278</ele>
        <time>2018-02-23T11:10:09Z</time>
      </trkpt>
      <trkpt lat="45.97543" lon="4.83838">
        <ele>278</ele>
        <time>2018-02-23T11:10:10Z</time>
      </trkpt>
      <trkpt lat="45.97545" lon="4.83831">
        <ele>278</ele>
        <time>2018-02-23T11:10:11Z</time>
      </trkpt>
      <trkpt lat="45.97546" lon="4.83823">
        <ele>278</ele>
        <time>2018-02-23T11:10:12Z</time>
      </trkpt>
      <trkpt lat="45.97546" lon="4.83816">
        <ele>278</ele>
        <time>2018-02-23T11:10:13Z</time>
      </trkpt>
      <trkpt lat="45.97545" lon="4.83809">
        <ele>278</ele>
        <time>2018-02-23T11:10:14Z</time>
      </trkpt>
      <trkpt lat="45.97545" lon="4.83801">
        <ele>278</ele>
        <time>2018-02-23T11:10:15Z</time>
      </trkpt>
      <trkpt lat="45.97547" lon="4.83794">
        <ele>278</ele>
        <time>2018-02-23T11:10:16Z</time>
      </trkpt>
      <trkpt lat="45.97547" lon="4.83786">
        <ele>278</ele>
        <time>2018-02-23T11:10:17Z</time>
      </trkpt>
      <trkpt lat="45.97546" lon="4.83778">
        <ele>278</ele>
        <time>2018-02-23T11:10:18Z</time>
      </trkpt>
      <trkpt lat="45.97546" lon="4.8377">
        <ele>278</ele>
        <time>2018-02-23T11:10:19Z</time>
      </trkpt>
      <trkpt lat="45.97547" lon="4.83762">
        <ele>278</ele>
        <time>2018-02-23T11:10:20Z</time>
      </trkpt>
      <trkpt lat="45.97546" lon="4.83754">
        <ele>278</ele>
        <time>2018-02-23T11:10:21Z</time>
      </trkpt>
      <trkpt lat="45.97546" lon="4.83746">
        <ele>278</ele>
        <time>2018-02-23T11:10:22Z</time>
      </trkpt>
      <trkpt lat="45.97545" lon="4.83737">
        <ele>278</ele>
        <time>2018-02-23T11:10:23Z</time>
      </trkpt>
      <trkpt lat="45.97544" lon="4.83729">
        <ele>278</ele>
        <time>2018-02-23T11:10:24Z</time>
      </trkpt>
      <trkpt lat="45.97543" lon="4.83721">
        <ele>278</ele>
        <time>2018-02-23T11:10:25Z</time>
      </trkpt>
      <trkpt lat="45.97543" lon="4.83713">
        <ele>278</ele>
        <time>2018-02-23T11:10:26Z</time>
      </trkpt>
      <trkpt lat="45.97542" lon="4.83705">
        <ele>278</ele>
        <time>2018-02-23T11:10:27Z</time>
      </trkpt>
      <trkpt lat="45.97542" lon="4.83697">
        <ele>278</ele>
        <time>2018-02-23T11:10:28Z</time>
      </trkpt>
      <trkpt lat="45.97542" lon="4.83689">
        <ele>278</ele>
        <time>2018-02-23T11:10:29Z</time>
      </trkpt>
      <trkpt lat="45.97541" lon="4.83681">
        <ele>278</ele>
        <time>2018-02-23T11:10:30Z</time>
      </trkpt>
      <trkpt lat="45.97541" lon="4.83675">
        <ele>278</ele>
        <time>2018-02-23T11:10:31Z</time>
      </trkpt>
      <trkpt lat="45.9754" lon="4.83667">
        <ele>277</ele>
        <time>2018-02-23T11:10:32Z</time>
      </trkpt>
      <trkpt lat="45.97539" lon="4.8366">
        <ele>277</ele>
        <time>2018-02-23T11:10:33Z</time>
      </trkpt>
      <trkpt lat="45.97539" lon="4.83653">
        <ele>277</ele>
        <time>2018-02-23T11:10:34Z</time>
      </trkpt>
      <trkpt lat="45.97538" lon="4.83646">
        <ele>277</ele>
        <time>2018-02-23T11:10:35Z</time>
      </trkpt>
      <trkpt lat="45.97538" lon="4.83639">
        <ele>277</ele>
        <time>2018-02-23T11:10:36Z</time>
      </trkpt>
      <trkpt lat="45.97538" lon="4.83632">
        <ele>277</ele>
        <time>2018-02-23T11:10:37Z</time>
      </trkpt>
      <trkpt lat="45.97538" lon="4.83624">
        <ele>277</ele>
        <time>2018-02-23T11:10:38Z</time>
      </trkpt>
      <trkpt lat="45.97539" lon="4.83617">
        <ele>277</ele>
        <time>2018-02-23T11:10:39Z</time>
      </trkpt>
      <trkpt lat="45.97538" lon="4.8361">
        <ele>277</ele>
        <time>2018-02-23T11:10:40Z</time>
      </trkpt>
      <trkpt lat="45.97538" lon="4.83603">
        <ele>277</ele>
        <time>2018-02-23T11:10:41Z</time>
      </trkpt>
      <trkpt lat="45.97539" lon="4.83595">
        <ele>277</ele>
        <time>2018-02-23T11:10:42Z</time>
      </trkpt>
      <trkpt lat="45.97539" lon="4.83588">
        <ele>277</ele>
        <time>2018-02-23T11:10:43Z</time>
      </trkpt>
      <trkpt lat="45.97539" lon="4.83581">
        <ele>276</ele>
        <time>2018-02-23T11:10:44Z</time>
      </trkpt>
      <trkpt lat="45.97539" lon="4.83573">
        <ele>276</ele>
        <time>2018-02-23T11:10:45Z</time>
      </trkpt>
      <trkpt lat="45.97539" lon="4.83566">
        <ele>276</ele>
        <time>2018-02-23T11:10:46Z</time>
      </trkpt>
      <trkpt lat="45.97539" lon="4.83558">
        <ele>276</ele>
        <time>2018-02-23T11:10:47Z</time>
      </trkpt>
      <trkpt lat="45.9754" lon="4.83551">
        <ele>276</ele>
        <time>2018-02-23T11:10:48Z</time>
      </trkpt>
      <trkpt lat="45.9754" lon="4.83544">
        <ele>276</ele>
        <time>2018-02-23T11:10:49Z</time>
      </trkpt>
      <trkpt lat="45.9754" lon="4.83536">
        <ele>276</ele>
        <time>2018-02-23T11:10:50Z</time>
      </trkpt>
      <trkpt lat="45.9754" lon="4.83528">
        <ele>276</ele>
        <time>2018-02-23T11:10:51Z</time>
      </trkpt>
      <trkpt lat="45.9754" lon="4.8352">
        <ele>276</ele>
        <time>2018-02-23T11:10:52Z</time>
      </trkpt>
      <trkpt lat="45.9754" lon="4.83513">
        <ele>276</ele>
        <time>2018-02-23T11:10:53Z</time>
      </trkpt>
      <trkpt lat="45.97541" lon="4.83506">
        <ele>276</ele>
        <time>2018-02-23T11:10:54Z</time>
      </trkpt>
      <trkpt lat="45.97541" lon="4.83499">
        <ele>276</ele>
        <time>2018-02-23T11:10:55Z</time>
      </trkpt>
      <trkpt lat="45.97541" lon="4.83492">
        <ele>276</ele>
        <time>2018-02-23T11:10:56Z</time>
      </trkpt>
      <trkpt lat="45.9754" lon="4.83484">
        <ele>276</ele>
        <time>2018-02-23T11:10:57Z</time>
      </trkpt>
      <trkpt lat="45.97541" lon="4.83478">
        <ele>276</ele>
        <time>2018-02-23T11:10:58Z</time>
      </trkpt>
      <trkpt lat="45.97542" lon="4.83466">
        <ele>276</ele>
        <time>2018-02-23T11:11:00Z</time>
      </trkpt>
      <trkpt lat="45.97541" lon="4.83459">
        <ele>276</ele>
        <time>2018-02-23T11:11:01Z</time>
      </trkpt>
      <trkpt lat="45.97541" lon="4.83452">
        <ele>276</ele>
        <time>2018-02-23T11:11:02Z</time>
      </trkpt>
      <trkpt lat="45.97541" lon="4.83445">
        <ele>276</ele>
        <time>2018-02-23T11:11:03Z</time>
      </trkpt>
      <trkpt lat="45.97542" lon="4.83438">
        <ele>276</ele>
        <time>2018-02-23T11:11:04Z</time>
      </trkpt>
      <trkpt lat="45.97542" lon="4.83431">
        <ele>276</ele>
        <time>2018-02-23T11:11:05Z</time>
      </trkpt>
      <trkpt lat="45.97541" lon="4.83425">
        <ele>276</ele>
        <time>2018-02-23T11:11:06Z</time>
      </trkpt>
      <trkpt lat="45.97541" lon="4.83418">
        <ele>276</ele>
        <time>2018-02-23T11:11:07Z</time>
      </trkpt>
      <trkpt lat="45.97541" lon="4.83412">
        <ele>277</ele>
        <time>2018-02-23T11:11:08Z</time>
      </trkpt>
      <trkpt lat="45.9754" lon="4.83404">
        <ele>277</ele>
        <time>2018-02-23T11:11:09Z</time>
      </trkpt>
      <trkpt lat="45.97541" lon="4.83397">
        <ele>277</ele>
        <time>2018-02-23T11:11:10Z</time>
      </trkpt>
      <trkpt lat="45.97541" lon="4.83389">
        <ele>277</ele>
        <time>2018-02-23T11:11:11Z</time>
      </trkpt>
      <trkpt lat="45.97541" lon="4.83382">
        <ele>277</ele>
        <time>2018-02-23T11:11:12Z</time>
      </trkpt>
      <trkpt lat="45.9754" lon="4.83375">
        <ele>277</ele>
        <time>2018-02-23T11:11:13Z</time>
      </trkpt>
      <trkpt lat="45.9754" lon="4.83368">
        <ele>277</ele>
        <time>2018-02-23T11:11:14Z</time>
      </trkpt>
      <trkpt lat="45.9754" lon="4.83361">
        <ele>277</ele>
        <time>2018-02-23T11:11:15Z</time>
      </trkpt>
      <trkpt lat="45.9754" lon="4.83353">
        <ele>277</ele>
        <time>2018-02-23T11:11:16Z</time>
      </trkpt>
      <trkpt lat="45.9754" lon="4.83346">
        <ele>277</ele>
        <time>2018-02-23T11:11:17Z</time>
      </trkpt>
      <trkpt lat="45.9754" lon="4.83339">
        <ele>277</ele>
        <time>2018-02-23T11:11:18Z</time>
      </trkpt>
      <trkpt lat="45.9754" lon="4.83332">
        <ele>276</ele>
        <time>2018-02-23T11:11:19Z</time>
      </trkpt>
      <trkpt lat="45.9754" lon="4.83324">
        <ele>276</ele>
        <time>2018-02-23T11:11:20Z</time>
      </trkpt>
      <trkpt lat="45.97539" lon="4.83315">
        <ele>276</ele>
        <time>2018-02-23T11:11:21Z</time>
      </trkpt>
      <trkpt lat="45.97539" lon="4.83307">
        <ele>276</ele>
        <time>2018-02-23T11:11:22Z</time>
      </trkpt>
      <trkpt lat="45.97539" lon="4.83298">
        <ele>276</ele>
        <time>2018-02-23T11:11:23Z</time>
      </trkpt>
      <trkpt lat="45.97538" lon="4.83289">
        <ele>276</ele>
        <time>2018-02-23T11:11:24Z</time>
      </trkpt>
      <trkpt lat="45.97538" lon="4.8328">
        <ele>276</ele>
        <time>2018-02-23T11:11:25Z</time>
      </trkpt>
      <trkpt lat="45.97537" lon="4.83271">
        <ele>276</ele>
        <time>2018-02-23T11:11:26Z</time>
      </trkpt>
      <trkpt lat="45.97535" lon="4.83261">
        <ele>276</ele>
        <time>2018-02-23T11:11:27Z</time>
      </trkpt>
      <trkpt lat="45.97534" lon="4.83253">
        <ele>276</ele>
        <time>2018-02-23T11:11:28Z</time>
      </trkpt>
      <trkpt lat="45.97531" lon="4.83243">
        <ele>275</ele>
        <time>2018-02-23T11:11:29Z</time>
      </trkpt>
      <trkpt lat="45.97529" lon="4.83233">
        <ele>275</ele>
        <time>2018-02-23T11:11:30Z</time>
      </trkpt>
      <trkpt lat="45.97527" lon="4.83223">
        <ele>275</ele>
        <time>2018-02-23T11:11:31Z</time>
      </trkpt>
      <trkpt lat="45.97524" lon="4.83215">
        <ele>275</ele>
        <time>2018-02-23T11:11:32Z</time>
      </trkpt>
      <trkpt lat="45.9752" lon="4.83206">
        <ele>275</ele>
        <time>2018-02-23T11:11:33Z</time>
      </trkpt>
      <trkpt lat="45.97517" lon="4.83197">
        <ele>275</ele>
        <time>2018-02-23T11:11:34Z</time>
      </trkpt>
      <trkpt lat="45.97513" lon="4.83189">
        <ele>275</ele>
        <time>2018-02-23T11:11:35Z</time>
      </trkpt>
      <trkpt lat="45.97511" lon="4.83181">
        <ele>275</ele>
        <time>2018-02-23T11:11:36Z</time>
      </trkpt>
      <trkpt lat="45.97507" lon="4.83173">
        <ele>274</ele>
        <time>2018-02-23T11:11:37Z</time>
      </trkpt>
      <trkpt lat="45.97505" lon="4.83165">
        <ele>274</ele>
        <time>2018-02-23T11:11:38Z</time>
      </trkpt>
      <trkpt lat="45.97502" lon="4.83157">
        <ele>274</ele>
        <time>2018-02-23T11:11:39Z</time>
      </trkpt>
      <trkpt lat="45.97498" lon="4.83148">
        <ele>273</ele>
        <time>2018-02-23T11:11:40Z</time>
      </trkpt>
      <trkpt lat="45.97496" lon="4.83139">
        <ele>273</ele>
        <time>2018-02-23T11:11:41Z</time>
      </trkpt>
      <trkpt lat="45.97493" lon="4.83131">
        <ele>273</ele>
        <time>2018-02-23T11:11:42Z</time>
      </trkpt>
      <trkpt lat="45.9749" lon="4.83123">
        <ele>273</ele>
        <time>2018-02-23T11:11:43Z</time>
      </trkpt>
      <trkpt lat="45.97487" lon="4.83114">
        <ele>272</ele>
        <time>2018-02-23T11:11:44Z</time>
      </trkpt>
      <trkpt lat="45.97485" lon="4.83105">
        <ele>272</ele>
        <time>2018-02-23T11:11:45Z</time>
      </trkpt>
      <trkpt lat="45.97482" lon="4.83096">
        <ele>272</ele>
        <time>2018-02-23T11:11:46Z</time>
      </trkpt>
      <trkpt lat="45.9748" lon="4.83087">
        <ele>272</ele>
        <time>2018-02-23T11:11:47Z</time>
      </trkpt>
      <trkpt lat="45.97477" lon="4.83078">
        <ele>271</ele>
        <time>2018-02-23T11:11:48Z</time>
      </trkpt>
      <trkpt lat="45.97476" lon="4.83067">
        <ele>271</ele>
        <time>2018-02-23T11:11:49Z</time>
      </trkpt>
      <trkpt lat="45.97473" lon="4.83058">
        <ele>271</ele>
        <time>2018-02-23T11:11:50Z</time>
      </trkpt>
      <trkpt lat="45.9747" lon="4.83049">
        <ele>271</ele>
        <time>2018-02-23T11:11:51Z</time>
      </trkpt>
      <trkpt lat="45.97467" lon="4.83039">
        <ele>271</ele>
        <time>2018-02-23T11:11:52Z</time>
      </trkpt>
      <trkpt lat="45.97465" lon="4.83029">
        <ele>271</ele>
        <time>2018-02-23T11:11:53Z</time>
      </trkpt>
      <trkpt lat="45.97462" lon="4.83019">
        <ele>270</ele>
        <time>2018-02-23T11:11:54Z</time>
      </trkpt>
      <trkpt lat="45.97459" lon="4.83009">
        <ele>270</ele>
        <time>2018-02-23T11:11:55Z</time>
      </trkpt>
      <trkpt lat="45.97456" lon="4.82999">
        <ele>269</ele>
        <time>2018-02-23T11:11:56Z</time>
      </trkpt>
      <trkpt lat="45.97454" lon="4.8299">
        <ele>269</ele>
        <time>2018-02-23T11:11:57Z</time>
      </trkpt>
      <trkpt lat="45.97453" lon="4.8298">
        <ele>269</ele>
        <time>2018-02-23T11:11:58Z</time>
      </trkpt>
      <trkpt lat="45.9745" lon="4.8297">
        <ele>269</ele>
        <time>2018-02-23T11:11:59Z</time>
      </trkpt>
      <trkpt lat="45.97449" lon="4.82959">
        <ele>269</ele>
        <time>2018-02-23T11:12:00Z</time>
      </trkpt>
      <trkpt lat="45.97448" lon="4.82949">
        <ele>269</ele>
        <time>2018-02-23T11:12:01Z</time>
      </trkpt>
      <trkpt lat="45.97446" lon="4.82939">
        <ele>269</ele>
        <time>2018-02-23T11:12:02Z</time>
      </trkpt>
      <trkpt lat="45.97444" lon="4.82929">
        <ele>268</ele>
        <time>2018-02-23T11:12:03Z</time>
      </trkpt>
      <trkpt lat="45.97442" lon="4.82919">
        <ele>268</ele>
        <time>2018-02-23T11:12:04Z</time>
      </trkpt>
      <trkpt lat="45.97441" lon="4.82908">
        <ele>267</ele>
        <time>2018-02-23T11:12:05Z</time>
      </trkpt>
      <trkpt lat="45.97439" lon="4.82899">
        <ele>267</ele>
        <time>2018-02-23T11:12:06Z</time>
      </trkpt>
      <trkpt lat="45.97437" lon="4.82888">
        <ele>267</ele>
        <time>2018-02-23T11:12:07Z</time>
      </trkpt>
      <trkpt lat="45.97435" lon="4.82879">
        <ele>267</ele>
        <time>2018-02-23T11:12:08Z</time>
      </trkpt>
      <trkpt lat="45.97434" lon="4.82869">
        <ele>267</ele>
        <time>2018-02-23T11:12:09Z</time>
      </trkpt>
      <trkpt lat="45.97433" lon="4.82859">
        <ele>267</ele>
        <time>2018-02-23T11:12:10Z</time>
      </trkpt>
      <trkpt lat="45.97431" lon="4.82849">
        <ele>267</ele>
        <time>2018-02-23T11:12:11Z</time>
      </trkpt>
      <trkpt lat="45.9743" lon="4.8284">
        <ele>267</ele>
        <time>2018-02-23T11:12:12Z</time>
      </trkpt>
      <trkpt lat="45.97429" lon="4.8283">
        <ele>266</ele>
        <time>2018-02-23T11:12:13Z</time>
      </trkpt>
      <trkpt lat="45.97427" lon="4.82821">
        <ele>266</ele>
        <time>2018-02-23T11:12:14Z</time>
      </trkpt>
      <trkpt lat="45.97426" lon="4.82812">
        <ele>265</ele>
        <time>2018-02-23T11:12:15Z</time>
      </trkpt>
      <trkpt lat="45.97425" lon="4.82803">
        <ele>265</ele>
        <time>2018-02-23T11:12:16Z</time>
      </trkpt>
      <trkpt lat="45.97423" lon="4.82794">
        <ele>265</ele>
        <time>2018-02-23T11:12:17Z</time>
      </trkpt>
      <trkpt lat="45.9742" lon="4.82784">
        <ele>265</ele>
        <time>2018-02-23T11:12:18Z</time>
      </trkpt>
      <trkpt lat="45.97418" lon="4.82774">
        <ele>264</ele>
        <time>2018-02-23T11:12:19Z</time>
      </trkpt>
      <trkpt lat="45.97417" lon="4.82765">
        <ele>264</ele>
        <time>2018-02-23T11:12:20Z</time>
      </trkpt>
      <trkpt lat="45.97416" lon="4.82756">
        <ele>263</ele>
        <time>2018-02-23T11:12:21Z</time>
      </trkpt>
      <trkpt lat="45.97415" lon="4.82746">
        <ele>263</ele>
        <time>2018-02-23T11:12:22Z</time>
      </trkpt>
      <trkpt lat="45.97414" lon="4.82736">
        <ele>263</ele>
        <time>2018-02-23T11:12:23Z</time>
      </trkpt>
      <trkpt lat="45.97412" lon="4.82726">
        <ele>263</ele>
        <time>2018-02-23T11:12:24Z</time>
      </trkpt>
      <trkpt lat="45.97411" lon="4.82715">
        <ele>263</ele>
        <time>2018-02-23T11:12:25Z</time>
      </trkpt>
      <trkpt lat="45.97408" lon="4.82705">
        <ele>263</ele>
        <time>2018-02-23T11:12:26Z</time>
      </trkpt>
      <trkpt lat="45.97406" lon="4.82695">
        <ele>263</ele>
        <time>2018-02-23T11:12:27Z</time>
      </trkpt>
      <trkpt lat="45.97404" lon="4.82685">
        <ele>263</ele>
        <time>2018-02-23T11:12:28Z</time>
      </trkpt>
      <trkpt lat="45.97402" lon="4.82676">
        <ele>263</ele>
        <time>2018-02-23T11:12:29Z</time>
      </trkpt>
      <trkpt lat="45.97401" lon="4.82667">
        <ele>263</ele>
        <time>2018-02-23T11:12:30Z</time>
      </trkpt>
      <trkpt lat="45.974" lon="4.82658">
        <ele>262</ele>
        <time>2018-02-23T11:12:31Z</time>
      </trkpt>
      <trkpt lat="45.97398" lon="4.8265">
        <ele>262</ele>
        <time>2018-02-23T11:12:32Z</time>
      </trkpt>
      <trkpt lat="45.97396" lon="4.82641">
        <ele>262</ele>
        <time>2018-02-23T11:12:33Z</time>
      </trkpt>
      <trkpt lat="45.97396" lon="4.82633">
        <ele>262</ele>
        <time>2018-02-23T11:12:34Z</time>
      </trkpt>
      <trkpt lat="45.97394" lon="4.82624">
        <ele>262</ele>
        <time>2018-02-23T11:12:35Z</time>
      </trkpt>
      <trkpt lat="45.97392" lon="4.82615">
        <ele>262</ele>
        <time>2018-02-23T11:12:36Z</time>
      </trkpt>
      <trkpt lat="45.97391" lon="4.82606">
        <ele>262</ele>
        <time>2018-02-23T11:12:37Z</time>
      </trkpt>
      <trkpt lat="45.9739" lon="4.82597">
        <ele>262</ele>
        <time>2018-02-23T11:12:38Z</time>
      </trkpt>
      <trkpt lat="45.97388" lon="4.82587">
        <ele>262</ele>
        <time>2018-02-23T11:12:39Z</time>
      </trkpt>
      <trkpt lat="45.97387" lon="4.82578">
        <ele>262</ele>
        <time>2018-02-23T11:12:40Z</time>
      </trkpt>
      <trkpt lat="45.97385" lon="4.82568">
        <ele>262</ele>
        <time>2018-02-23T11:12:41Z</time>
      </trkpt>
      <trkpt lat="45.97385" lon="4.82558">
        <ele>262</ele>
        <time>2018-02-23T11:12:42Z</time>
      </trkpt>
      <trkpt lat="45.97384" lon="4.82549">
        <ele>262</ele>
        <time>2018-02-23T11:12:43Z</time>
      </trkpt>
      <trkpt lat="45.97383" lon="4.82539">
        <ele>262</ele>
        <time>2018-02-23T11:12:44Z</time>
      </trkpt>
      <trkpt lat="45.97382" lon="4.8253">
        <ele>262</ele>
        <time>2018-02-23T11:12:45Z</time>
      </trkpt>
      <trkpt lat="45.97381" lon="4.8252">
        <ele>262</ele>
        <time>2018-02-23T11:12:46Z</time>
      </trkpt>
      <trkpt lat="45.97381" lon="4.82512">
        <ele>262</ele>
        <time>2018-02-23T11:12:47Z</time>
      </trkpt>
      <trkpt lat="45.9738" lon="4.82503">
        <ele>262</ele>
        <time>2018-02-23T11:12:48Z</time>
      </trkpt>
      <trkpt lat="45.9738" lon="4.82495">
        <ele>262</ele>
        <time>2018-02-23T11:12:49Z</time>
      </trkpt>
      <trkpt lat="45.97379" lon="4.82487">
        <ele>262</ele>
        <time>2018-02-23T11:12:50Z</time>
      </trkpt>
      <trkpt lat="45.9738" lon="4.82479">
        <ele>262</ele>
        <time>2018-02-23T11:12:51Z</time>
      </trkpt>
      <trkpt lat="45.97379" lon="4.82471">
        <ele>262</ele>
        <time>2018-02-23T11:12:52Z</time>
      </trkpt>
      <trkpt lat="45.97379" lon="4.82463">
        <ele>262</ele>
        <time>2018-02-23T11:12:53Z</time>
      </trkpt>
      <trkpt lat="45.97378" lon="4.82455">
        <ele>262</ele>
        <time>2018-02-23T11:12:54Z</time>
      </trkpt>
      <trkpt lat="45.97378" lon="4.82447">
        <ele>262</ele>
        <time>2018-02-23T11:12:55Z</time>
      </trkpt>
      <trkpt lat="45.97378" lon="4.82439">
        <ele>262</ele>
        <time>2018-02-23T11:12:56Z</time>
      </trkpt>
      <trkpt lat="45.97378" lon="4.82431">
        <ele>262</ele>
        <time>2018-02-23T11:12:57Z</time>
      </trkpt>
      <trkpt lat="45.97378" lon="4.82424">
        <ele>262</ele>
        <time>2018-02-23T11:12:58Z</time>
      </trkpt>
      <trkpt lat="45.97379" lon="4.82415">
        <ele>263</ele>
        <time>2018-02-23T11:12:59Z</time>
      </trkpt>
      <trkpt lat="45.97379" lon="4.82408">
        <ele>263</ele>
        <time>2018-02-23T11:13:00Z</time>
      </trkpt>
      <trkpt lat="45.97379" lon="4.82401">
        <ele>263</ele>
        <time>2018-02-23T11:13:01Z</time>
      </trkpt>
      <trkpt lat="45.97379" lon="4.82394">
        <ele>263</ele>
        <time>2018-02-23T11:13:02Z</time>
      </trkpt>
      <trkpt lat="45.97379" lon="4.82386">
        <ele>263</ele>
        <time>2018-02-23T11:13:03Z</time>
      </trkpt>
      <trkpt lat="45.97379" lon="4.8238">
        <ele>263</ele>
        <time>2018-02-23T11:13:04Z</time>
      </trkpt>
      <trkpt lat="45.97379" lon="4.82373">
        <ele>263</ele>
        <time>2018-02-23T11:13:05Z</time>
      </trkpt>
      <trkpt lat="45.97379" lon="4.82365">
        <ele>263</ele>
        <time>2018-02-23T11:13:06Z</time>
      </trkpt>
      <trkpt lat="45.97379" lon="4.82358">
        <ele>263</ele>
        <time>2018-02-23T11:13:07Z</time>
      </trkpt>
      <trkpt lat="45.9738" lon="4.82351">
        <ele>263</ele>
        <time>2018-02-23T11:13:08Z</time>
      </trkpt>
      <trkpt lat="45.97379" lon="4.82344">
        <ele>263</ele>
        <time>2018-02-23T11:13:09Z</time>
      </trkpt>
      <trkpt lat="45.97379" lon="4.82337">
        <ele>263</ele>
        <time>2018-02-23T11:13:10Z</time>
      </trkpt>
      <trkpt lat="45.9738" lon="4.8233">
        <ele>263</ele>
        <time>2018-02-23T11:13:11Z</time>
      </trkpt>
      <trkpt lat="45.9738" lon="4.82324">
        <ele>263</ele>
        <time>2018-02-23T11:13:12Z</time>
      </trkpt>
      <trkpt lat="45.9738" lon="4.82317">
        <ele>263</ele>
        <time>2018-02-23T11:13:13Z</time>
      </trkpt>
      <trkpt lat="45.97381" lon="4.8231">
        <ele>263</ele>
        <time>2018-02-23T11:13:14Z</time>
      </trkpt>
      <trkpt lat="45.97381" lon="4.82303">
        <ele>263</ele>
        <time>2018-02-23T11:13:15Z</time>
      </trkpt>
      <trkpt lat="45.97381" lon="4.82295">
        <ele>263</ele>
        <time>2018-02-23T11:13:16Z</time>
      </trkpt>
      <trkpt lat="45.97382" lon="4.82288">
        <ele>263</ele>
        <time>2018-02-23T11:13:17Z</time>
      </trkpt>
      <trkpt lat="45.97381" lon="4.8228">
        <ele>263</ele>
        <time>2018-02-23T11:13:18Z</time>
      </trkpt>
      <trkpt lat="45.97382" lon="4.82273">
        <ele>263</ele>
        <time>2018-02-23T11:13:19Z</time>
      </trkpt>
      <trkpt lat="45.97382" lon="4.82266">
        <ele>263</ele>
        <time>2018-02-23T11:13:20Z</time>
      </trkpt>
      <trkpt lat="45.97383" lon="4.82258">
        <ele>263</ele>
        <time>2018-02-23T11:13:21Z</time>
      </trkpt>
      <trkpt lat="45.97384" lon="4.82251">
        <ele>263</ele>
        <time>2018-02-23T11:13:22Z</time>
      </trkpt>
      <trkpt lat="45.97385" lon="4.82245">
        <ele>263</ele>
        <time>2018-02-23T11:13:23Z</time>
      </trkpt>
      <trkpt lat="45.97385" lon="4.82238">
        <ele>263</ele>
        <time>2018-02-23T11:13:24Z</time>
      </trkpt>
      <trkpt lat="45.97387" lon="4.8223">
        <ele>263</ele>
        <time>2018-02-23T11:13:25Z</time>
      </trkpt>
      <trkpt lat="45.97389" lon="4.82224">
        <ele>263</ele>
        <time>2018-02-23T11:13:26Z</time>
      </trkpt>
      <trkpt lat="45.97391" lon="4.82217">
        <ele>263</ele>
        <time>2018-02-23T11:13:27Z</time>
      </trkpt>
      <trkpt lat="45.97394" lon="4.8221">
        <ele>263</ele>
        <time>2018-02-23T11:13:28Z</time>
      </trkpt>
      <trkpt lat="45.97396" lon="4.82202">
        <ele>262</ele>
        <time>2018-02-23T11:13:29Z</time>
      </trkpt>
      <trkpt lat="45.97399" lon="4.82196">
        <ele>262</ele>
        <time>2018-02-23T11:13:30Z</time>
      </trkpt>
      <trkpt lat="45.97402" lon="4.8219">
        <ele>262</ele>
        <time>2018-02-23T11:13:31Z</time>
      </trkpt>
      <trkpt lat="45.97405" lon="4.82183">
        <ele>262</ele>
        <time>2018-02-23T11:13:32Z</time>
      </trkpt>
      <trkpt lat="45.9741" lon="4.82178">
        <ele>262</ele>
        <time>2018-02-23T11:13:33Z</time>
      </trkpt>
      <trkpt lat="45.97414" lon="4.82172">
        <ele>261</ele>
        <time>2018-02-23T11:13:34Z</time>
      </trkpt>
      <trkpt lat="45.97418" lon="4.82167">
        <ele>261</ele>
        <time>2018-02-23T11:13:35Z</time>
      </trkpt>
      <trkpt lat="45.97423" lon="4.82161">
        <ele>261</ele>
        <time>2018-02-23T11:13:36Z</time>
      </trkpt>
      <trkpt lat="45.97427" lon="4.82156">
        <ele>261</ele>
        <time>2018-02-23T11:13:37Z</time>
      </trkpt>
      <trkpt lat="45.97431" lon="4.82151">
        <ele>261</ele>
        <time>2018-02-23T11:13:38Z</time>
      </trkpt>
      <trkpt lat="45.97435" lon="4.82146">
        <ele>261</ele>
        <time>2018-02-23T11:13:39Z</time>
      </trkpt>
      <trkpt lat="45.97439" lon="4.8214">
        <ele>261</ele>
        <time>2018-02-23T11:13:40Z</time>
      </trkpt>
      <trkpt lat="45.97443" lon="4.82133">
        <ele>261</ele>
        <time>2018-02-23T11:13:41Z</time>
      </trkpt>
      <trkpt lat="45.97447" lon="4.82126">
        <ele>260</ele>
        <time>2018-02-23T11:13:42Z</time>
      </trkpt>
      <trkpt lat="45.97452" lon="4.8212">
        <ele>260</ele>
        <time>2018-02-23T11:13:43Z</time>
      </trkpt>
      <trkpt lat="45.97455" lon="4.82114">
        <ele>260</ele>
        <time>2018-02-23T11:13:44Z</time>
      </trkpt>
      <trkpt lat="45.97457" lon="4.82105">
        <ele>260</ele>
        <time>2018-02-23T11:13:45Z</time>
      </trkpt>
      <trkpt lat="45.9746" lon="4.82097">
        <ele>260</ele>
        <time>2018-02-23T11:13:46Z</time>
      </trkpt>
      <trkpt lat="45.97462" lon="4.82089">
        <ele>260</ele>
        <time>2018-02-23T11:13:47Z</time>
      </trkpt>
      <trkpt lat="45.97463" lon="4.8208">
        <ele>258</ele>
        <time>2018-02-23T11:13:48Z</time>
      </trkpt>
      <trkpt lat="45.97463" lon="4.82072">
        <ele>258</ele>
        <time>2018-02-23T11:13:49Z</time>
      </trkpt>
      <trkpt lat="45.97464" lon="4.82063">
        <ele>258</ele>
        <time>2018-02-23T11:13:50Z</time>
      </trkpt>
      <trkpt lat="45.97464" lon="4.82053">
        <ele>258</ele>
        <time>2018-02-23T11:13:51Z</time>
      </trkpt>
      <trkpt lat="45.97463" lon="4.82045">
        <ele>258</ele>
        <time>2018-02-23T11:13:52Z</time>
      </trkpt>
      <trkpt lat="45.97462" lon="4.82035">
        <ele>258</ele>
        <time>2018-02-23T11:13:53Z</time>
      </trkpt>
      <trkpt lat="45.97461" lon="4.82025">
        <ele>257</ele>
        <time>2018-02-23T11:13:54Z</time>
      </trkpt>
      <trkpt lat="45.9746" lon="4.82016">
        <ele>257</ele>
        <time>2018-02-23T11:13:55Z</time>
      </trkpt>
      <trkpt lat="45.97459" lon="4.82006">
        <ele>257</ele>
        <time>2018-02-23T11:13:56Z</time>
      </trkpt>
      <trkpt lat="45.97458" lon="4.81996">
        <ele>255</ele>
        <time>2018-02-23T11:13:57Z</time>
      </trkpt>
      <trkpt lat="45.97457" lon="4.81985">
        <ele>255</ele>
        <time>2018-02-23T11:13:58Z</time>
      </trkpt>
      <trkpt lat="45.97455" lon="4.81975">
        <ele>255</ele>
        <time>2018-02-23T11:13:59Z</time>
      </trkpt>
      <trkpt lat="45.97454" lon="4.81964">
        <ele>255</ele>
        <time>2018-02-23T11:14:00Z</time>
      </trkpt>
      <trkpt lat="45.97453" lon="4.81953">
        <ele>255</ele>
        <time>2018-02-23T11:14:01Z</time>
      </trkpt>
      <trkpt lat="45.97451" lon="4.81942">
        <ele>255</ele>
        <time>2018-02-23T11:14:02Z</time>
      </trkpt>
      <trkpt lat="45.9745" lon="4.8193">
        <ele>255</ele>
        <time>2018-02-23T11:14:03Z</time>
      </trkpt>
      <trkpt lat="45.97449" lon="4.8192">
        <ele>254</ele>
        <time>2018-02-23T11:14:04Z</time>
      </trkpt>
      <trkpt lat="45.97447" lon="4.8191">
        <ele>253</ele>
        <time>2018-02-23T11:14:05Z</time>
      </trkpt>
      <trkpt lat="45.97446" lon="4.81899">
        <ele>253</ele>
        <time>2018-02-23T11:14:06Z</time>
      </trkpt>
      <trkpt lat="45.97445" lon="4.81888">
        <ele>253</ele>
        <time>2018-02-23T11:14:07Z</time>
      </trkpt>
      <trkpt lat="45.97444" lon="4.81878">
        <ele>253</ele>
        <time>2018-02-23T11:14:08Z</time>
      </trkpt>
      <trkpt lat="45.97443" lon="4.81867">
        <ele>253</ele>
        <time>2018-02-23T11:14:09Z</time>
      </trkpt>
      <trkpt lat="45.97442" lon="4.81855">
        <ele>253</ele>
        <time>2018-02-23T11:14:10Z</time>
      </trkpt>
      <trkpt lat="45.9744" lon="4.81844">
        <ele>253</ele>
        <time>2018-02-23T11:14:11Z</time>
      </trkpt>
      <trkpt lat="45.97439" lon="4.81833">
        <ele>252</ele>
        <time>2018-02-23T11:14:12Z</time>
      </trkpt>
      <trkpt lat="45.97438" lon="4.81821">
        <ele>252</ele>
        <time>2018-02-23T11:14:13Z</time>
      </trkpt>
      <trkpt lat="45.97436" lon="4.8181">
        <ele>252</ele>
        <time>2018-02-23T11:14:14Z</time>
      </trkpt>
      <trkpt lat="45.97435" lon="4.81798">
        <ele>252</ele>
        <time>2018-02-23T11:14:15Z</time>
      </trkpt>
      <trkpt lat="45.97434" lon="4.81786">
        <ele>252</ele>
        <time>2018-02-23T11:14:16Z</time>
      </trkpt>
      <trkpt lat="45.97434" lon="4.81774">
        <ele>251</ele>
        <time>2018-02-23T11:14:17Z</time>
      </trkpt>
      <trkpt lat="45.97434" lon="4.81761">
        <ele>251</ele>
        <time>2018-02-23T11:14:18Z</time>
      </trkpt>
      <trkpt lat="45.97434" lon="4.81749">
        <ele>250</ele>
        <time>2018-02-23T11:14:19Z</time>
      </trkpt>
      <trkpt lat="45.97434" lon="4.81736">
        <ele>250</ele>
        <time>2018-02-23T11:14:20Z</time>
      </trkpt>
      <trkpt lat="45.97435" lon="4.81723">
        <ele>250</ele>
        <time>2018-02-23T11:14:21Z</time>
      </trkpt>
      <trkpt lat="45.97435" lon="4.81711">
        <ele>250</ele>
        <time>2018-02-23T11:14:22Z</time>
      </trkpt>
      <trkpt lat="45.97435" lon="4.81699">
        <ele>250</ele>
        <time>2018-02-23T11:14:23Z</time>
      </trkpt>
      <trkpt lat="45.97435" lon="4.81687">
        <ele>250</ele>
        <time>2018-02-23T11:14:24Z</time>
      </trkpt>
      <trkpt lat="45.97436" lon="4.81674">
        <ele>249</ele>
        <time>2018-02-23T11:14:25Z</time>
      </trkpt>
      <trkpt lat="45.97436" lon="4.81662">
        <ele>248</ele>
        <time>2018-02-23T11:14:26Z</time>
      </trkpt>
      <trkpt lat="45.97436" lon="4.81649">
        <ele>248</ele>
        <time>2018-02-23T11:14:27Z</time>
      </trkpt>
      <trkpt lat="45.97436" lon="4.81636">
        <ele>248</ele>
        <time>2018-02-23T11:14:28Z</time>
      </trkpt>
      <trkpt lat="45.97437" lon="4.81624">
        <ele>248</ele>
        <time>2018-02-23T11:14:29Z</time>
      </trkpt>
      <trkpt lat="45.97437" lon="4.81611">
        <ele>248</ele>
        <time>2018-02-23T11:14:30Z</time>
      </trkpt>
      <trkpt lat="45.97438" lon="4.81598">
        <ele>248</ele>
        <time>2018-02-23T11:14:31Z</time>
      </trkpt>
      <trkpt lat="45.97437" lon="4.81586">
        <ele>247</ele>
        <time>2018-02-23T11:14:32Z</time>
      </trkpt>
      <trkpt lat="45.97437" lon="4.81574">
        <ele>246</ele>
        <time>2018-02-23T11:14:33Z</time>
      </trkpt>
      <trkpt lat="45.97437" lon="4.81562">
        <ele>246</ele>
        <time>2018-02-23T11:14:34Z</time>
      </trkpt>
      <trkpt lat="45.97437" lon="4.8155">
        <ele>246</ele>
        <time>2018-02-23T11:14:35Z</time>
      </trkpt>
      <trkpt lat="45.97437" lon="4.81538">
        <ele>245</ele>
        <time>2018-02-23T11:14:36Z</time>
      </trkpt>
      <trkpt lat="45.97437" lon="4.81526">
        <ele>245</ele>
        <time>2018-02-23T11:14:37Z</time>
      </trkpt>
      <trkpt lat="45.97437" lon="4.81514">
        <ele>245</ele>
        <time>2018-02-23T11:14:38Z</time>
      </trkpt>
      <trkpt lat="45.97436" lon="4.81503">
        <ele>244</ele>
        <time>2018-02-23T11:14:39Z</time>
      </trkpt>
      <trkpt lat="45.97435" lon="4.81491">
        <ele>243</ele>
        <time>2018-02-23T11:14:40Z</time>
      </trkpt>
      <trkpt lat="45.97434" lon="4.81481">
        <ele>243</ele>
        <time>2018-02-23T11:14:41Z</time>
      </trkpt>
      <trkpt lat="45.9743" lon="4.81471">
        <ele>243</ele>
        <time>2018-02-23T11:14:42Z</time>
      </trkpt>
      <trkpt lat="45.97426" lon="4.81461">
        <ele>243</ele>
        <time>2018-02-23T11:14:43Z</time>
      </trkpt>
      <trkpt lat="45.97422" lon="4.81453">
        <ele>243</ele>
        <time>2018-02-23T11:14:44Z</time>
      </trkpt>
      <trkpt lat="45.97418" lon="4.81446">
        <ele>242</ele>
        <time>2018-02-23T11:14:45Z</time>
      </trkpt>
      <trkpt lat="45.97413" lon="4.81438">
        <ele>241</ele>
        <time>2018-02-23T11:14:46Z</time>
      </trkpt>
      <trkpt lat="45.97408" lon="4.81431">
        <ele>241</ele>
        <time>2018-02-23T11:14:47Z</time>
      </trkpt>
      <trkpt lat="45.97403" lon="4.81423">
        <ele>241</ele>
        <time>2018-02-23T11:14:48Z</time>
      </trkpt>
      <trkpt lat="45.97397" lon="4.81416">
        <ele>240</ele>
        <time>2018-02-23T11:14:49Z</time>
      </trkpt>
      <trkpt lat="45.97392" lon="4.81408">
        <ele>240</ele>
        <time>2018-02-23T11:14:50Z</time>
      </trkpt>
      <trkpt lat="45.97388" lon="4.81399">
        <ele>240</ele>
        <time>2018-02-23T11:14:51Z</time>
      </trkpt>
      <trkpt lat="45.97385" lon="4.81389">
        <ele>240</ele>
        <time>2018-02-23T11:14:52Z</time>
      </trkpt>
      <trkpt lat="45.97382" lon="4.81379">
        <ele>239</ele>
        <time>2018-02-23T11:14:53Z</time>
      </trkpt>
      <trkpt lat="45.9738" lon="4.8137">
        <ele>239</ele>
        <time>2018-02-23T11:14:54Z</time>
      </trkpt>
      <trkpt lat="45.97378" lon="4.8136">
        <ele>239</ele>
        <time>2018-02-23T11:14:55Z</time>
      </trkpt>
      <trkpt lat="45.97377" lon="4.8135">
        <ele>239</ele>
        <time>2018-02-23T11:14:56Z</time>
      </trkpt>
      <trkpt lat="45.97377" lon="4.8134">
        <ele>239</ele>
        <time>2018-02-23T11:14:57Z</time>
      </trkpt>
      <trkpt lat="45.97378" lon="4.8133">
        <ele>238</ele>
        <time>2018-02-23T11:14:58Z</time>
      </trkpt>
      <trkpt lat="45.9738" lon="4.8132">
        <ele>238</ele>
        <time>2018-02-23T11:14:59Z</time>
      </trkpt>
      <trkpt lat="45.97381" lon="4.81311">
        <ele>238</ele>
        <time>2018-02-23T11:15:00Z</time>
      </trkpt>
      <trkpt lat="45.97382" lon="4.81301">
        <ele>238</ele>
        <time>2018-02-23T11:15:01Z</time>
      </trkpt>
      <trkpt lat="45.97385" lon="4.81291">
        <ele>238</ele>
        <time>2018-02-23T11:15:02Z</time>
      </trkpt>
      <trkpt lat="45.97386" lon="4.81281">
        <ele>238</ele>
        <time>2018-02-23T11:15:03Z</time>
      </trkpt>
      <trkpt lat="45.97387" lon="4.81271">
        <ele>238</ele>
        <time>2018-02-23T11:15:04Z</time>
      </trkpt>
      <trkpt lat="45.97389" lon="4.81262">
        <ele>238</ele>
        <time>2018-02-23T11:15:05Z</time>
      </trkpt>
      <trkpt lat="45.97391" lon="4.8125">
        <ele>237</ele>
        <time>2018-02-23T11:15:06Z</time>
      </trkpt>
      <trkpt lat="45.97395" lon="4.81237">
        <ele>237</ele>
        <time>2018-02-23T11:15:07Z</time>
      </trkpt>
      <trkpt lat="45.97395" lon="4.81229">
        <ele>237</ele>
        <time>2018-02-23T11:15:08Z</time>
      </trkpt>
      <trkpt lat="45.97394" lon="4.8122">
        <ele>237</ele>
        <time>2018-02-23T11:15:09Z</time>
      </trkpt>
      <trkpt lat="45.97393" lon="4.81211">
        <ele>237</ele>
        <time>2018-02-23T11:15:10Z</time>
      </trkpt>
      <trkpt lat="45.97392" lon="4.81202">
        <ele>237</ele>
        <time>2018-02-23T11:15:11Z</time>
      </trkpt>
      <trkpt lat="45.97392" lon="4.81194">
        <ele>237</ele>
        <time>2018-02-23T11:15:12Z</time>
      </trkpt>
      <trkpt lat="45.97392" lon="4.81185">
        <ele>237</ele>
        <time>2018-02-23T11:15:13Z</time>
      </trkpt>
      <trkpt lat="45.97392" lon="4.81177">
        <ele>237</ele>
        <time>2018-02-23T11:15:14Z</time>
      </trkpt>
      <trkpt lat="45.97391" lon="4.8117">
        <ele>237</ele>
        <time>2018-02-23T11:15:15Z</time>
      </trkpt>
      <trkpt lat="45.9739" lon="4.81161">
        <ele>236</ele>
        <time>2018-02-23T11:15:16Z</time>
      </trkpt>
      <trkpt lat="45.9739" lon="4.81153">
        <ele>236</ele>
        <time>2018-02-23T11:15:17Z</time>
      </trkpt>
      <trkpt lat="45.9739" lon="4.81145">
        <ele>236</ele>
        <time>2018-02-23T11:15:18Z</time>
      </trkpt>
      <trkpt lat="45.9739" lon="4.81138">
        <ele>236</ele>
        <time>2018-02-23T11:15:19Z</time>
      </trkpt>
      <trkpt lat="45.9739" lon="4.8113">
        <ele>236</ele>
        <time>2018-02-23T11:15:20Z</time>
      </trkpt>
      <trkpt lat="45.97389" lon="4.81123">
        <ele>236</ele>
        <time>2018-02-23T11:15:21Z</time>
      </trkpt>
      <trkpt lat="45.97389" lon="4.81117">
        <ele>235</ele>
        <time>2018-02-23T11:15:22Z</time>
      </trkpt>
      <trkpt lat="45.97389" lon="4.8111">
        <ele>235</ele>
        <time>2018-02-23T11:15:23Z</time>
      </trkpt>
      <trkpt lat="45.97387" lon="4.81097">
        <ele>235</ele>
        <time>2018-02-23T11:15:25Z</time>
      </trkpt>
      <trkpt lat="45.97385" lon="4.81091">
        <ele>235</ele>
        <time>2018-02-23T11:15:26Z</time>
      </trkpt>
      <trkpt lat="45.97383" lon="4.81085">
        <ele>235</ele>
        <time>2018-02-23T11:15:27Z</time>
      </trkpt>
      <trkpt lat="45.97381" lon="4.81078">
        <ele>234</ele>
        <time>2018-02-23T11:15:28Z</time>
      </trkpt>
      <trkpt lat="45.97378" lon="4.81072">
        <ele>234</ele>
        <time>2018-02-23T11:15:29Z</time>
      </trkpt>
      <trkpt lat="45.97375" lon="4.81065">
        <ele>233</ele>
        <time>2018-02-23T11:15:30Z</time>
      </trkpt>
      <trkpt lat="45.97372" lon="4.81057">
        <ele>233</ele>
        <time>2018-02-23T11:15:31Z</time>
      </trkpt>
      <trkpt lat="45.9737" lon="4.8105">
        <ele>233</ele>
        <time>2018-02-23T11:15:32Z</time>
      </trkpt>
      <trkpt lat="45.97367" lon="4.81038">
        <ele>233</ele>
        <time>2018-02-23T11:15:34Z</time>
      </trkpt>
      <trkpt lat="45.97365" lon="4.81032">
        <ele>233</ele>
        <time>2018-02-23T11:15:35Z</time>
      </trkpt>
      <trkpt lat="45.97362" lon="4.8102">
        <ele>233</ele>
        <time>2018-02-23T11:15:37Z</time>
      </trkpt>
      <trkpt lat="45.97361" lon="4.81015">
        <ele>233</ele>
        <time>2018-02-23T11:15:38Z</time>
      </trkpt>
      <trkpt lat="45.97357" lon="4.81003">
        <ele>233</ele>
        <time>2018-02-23T11:15:40Z</time>
      </trkpt>
      <trkpt lat="45.97357" lon="4.81001">
        <ele>233</ele>
        <time>2018-02-23T11:15:41Z</time>
      </trkpt>
      <trkpt lat="45.97356" lon="4.80993">
        <ele>232</ele>
        <time>2018-02-23T11:15:42Z</time>
      </trkpt>
      <trkpt lat="45.97355" lon="4.80987">
        <ele>232</ele>
        <time>2018-02-23T11:15:43Z</time>
      </trkpt>
      <trkpt lat="45.97354" lon="4.80975">
        <ele>232</ele>
        <time>2018-02-23T11:15:45Z</time>
      </trkpt>
      <trkpt lat="45.97353" lon="4.80973">
        <ele>232</ele>
        <time>2018-02-23T11:15:46Z</time>
      </trkpt>
      <trkpt lat="45.97352" lon="4.80965">
        <ele>231</ele>
        <time>2018-02-23T11:15:47Z</time>
      </trkpt>
      <trkpt lat="45.97351" lon="4.80959">
        <ele>231</ele>
        <time>2018-02-23T11:15:48Z</time>
      </trkpt>
      <trkpt lat="45.9735" lon="4.80952">
        <ele>231</ele>
        <time>2018-02-23T11:15:49Z</time>
      </trkpt>
      <trkpt lat="45.97349" lon="4.80945">
        <ele>231</ele>
        <time>2018-02-23T11:15:50Z</time>
      </trkpt>
      <trkpt lat="45.97348" lon="4.80938">
        <ele>231</ele>
        <time>2018-02-23T11:15:51Z</time>
      </trkpt>
      <trkpt lat="45.97347" lon="4.80931">
        <ele>231</ele>
        <time>2018-02-23T11:15:52Z</time>
      </trkpt>
      <trkpt lat="45.97346" lon="4.80924">
        <ele>231</ele>
        <time>2018-02-23T11:15:53Z</time>
      </trkpt>
      <trkpt lat="45.97346" lon="4.80917">
        <ele>231</ele>
        <time>2018-02-23T11:15:54Z</time>
      </trkpt>
      <trkpt lat="45.97344" lon="4.80909">
        <ele>230</ele>
        <time>2018-02-23T11:15:55Z</time>
      </trkpt>
      <trkpt lat="45.97342" lon="4.809">
        <ele>230</ele>
        <time>2018-02-23T11:15:56Z</time>
      </trkpt>
      <trkpt lat="45.97338" lon="4.80893">
        <ele>229</ele>
        <time>2018-02-23T11:15:57Z</time>
      </trkpt>
      <trkpt lat="45.97335" lon="4.80885">
        <ele>229</ele>
        <time>2018-02-23T11:15:58Z</time>
      </trkpt>
      <trkpt lat="45.97331" lon="4.80878">
        <ele>228</ele>
        <time>2018-02-23T11:15:59Z</time>
      </trkpt>
      <trkpt lat="45.97325" lon="4.80872">
        <ele>228</ele>
        <time>2018-02-23T11:16:00Z</time>
      </trkpt>
      <trkpt lat="45.97319" lon="4.80867">
        <ele>228</ele>
        <time>2018-02-23T11:16:01Z</time>
      </trkpt>
      <trkpt lat="45.97313" lon="4.80863">
        <ele>228</ele>
        <time>2018-02-23T11:16:02Z</time>
      </trkpt>
      <trkpt lat="45.97306" lon="4.80861">
        <ele>228</ele>
        <time>2018-02-23T11:16:03Z</time>
      </trkpt>
      <trkpt lat="45.97298" lon="4.80859">
        <ele>228</ele>
        <time>2018-02-23T11:16:04Z</time>
      </trkpt>
      <trkpt lat="45.97291" lon="4.80857">
        <ele>228</ele>
        <time>2018-02-23T11:16:05Z</time>
      </trkpt>
      <trkpt lat="45.97284" lon="4.80855">
        <ele>228</ele>
        <time>2018-02-23T11:16:06Z</time>
      </trkpt>
      <trkpt lat="45.97277" lon="4.80852">
        <ele>227</ele>
        <time>2018-02-23T11:16:07Z</time>
      </trkpt>
      <trkpt lat="45.97272" lon="4.80845">
        <ele>227</ele>
        <time>2018-02-23T11:16:08Z</time>
      </trkpt>
      <trkpt lat="45.97266" lon="4.8084">
        <ele>227</ele>
        <time>2018-02-23T11:16:09Z</time>
      </trkpt>
      <trkpt lat="45.97262" lon="4.80832">
        <ele>227</ele>
        <time>2018-02-23T11:16:10Z</time>
      </trkpt>
      <trkpt lat="45.97259" lon="4.80824">
        <ele>227</ele>
        <time>2018-02-23T11:16:11Z</time>
      </trkpt>
      <trkpt lat="45.97255" lon="4.80816">
        <ele>227</ele>
        <time>2018-02-23T11:16:12Z</time>
      </trkpt>
      <trkpt lat="45.97253" lon="4.80809">
        <ele>227</ele>
        <time>2018-02-23T11:16:13Z</time>
      </trkpt>
      <trkpt lat="45.97251" lon="4.80801">
        <ele>227</ele>
        <time>2018-02-23T11:16:14Z</time>
      </trkpt>
      <trkpt lat="45.97251" lon="4.80794">
        <ele>227</ele>
        <time>2018-02-23T11:16:15Z</time>
      </trkpt>
      <trkpt lat="45.9725" lon="4.80786">
        <ele>227</ele>
        <time>2018-02-23T11:16:16Z</time>
      </trkpt>
      <trkpt lat="45.9725" lon="4.8078">
        <ele>227</ele>
        <time>2018-02-23T11:16:17Z</time>
      </trkpt>
      <trkpt lat="45.9725" lon="4.80773">
        <ele>229</ele>
        <time>2018-02-23T11:16:18Z</time>
      </trkpt>
      <trkpt lat="45.9725" lon="4.80767">
        <ele>229</ele>
        <time>2018-02-23T11:16:19Z</time>
      </trkpt>
      <trkpt lat="45.9725" lon="4.8076">
        <ele>228</ele>
        <time>2018-02-23T11:16:20Z</time>
      </trkpt>
      <trkpt lat="45.9725" lon="4.80753">
        <ele>228</ele>
        <time>2018-02-23T11:16:21Z</time>
      </trkpt>
      <trkpt lat="45.97251" lon="4.80746">
        <ele>228</ele>
        <time>2018-02-23T11:16:22Z</time>
      </trkpt>
      <trkpt lat="45.9725" lon="4.80739">
        <ele>229</ele>
        <time>2018-02-23T11:16:23Z</time>
      </trkpt>
      <trkpt lat="45.9725" lon="4.80732">
        <ele>227</ele>
        <time>2018-02-23T11:16:24Z</time>
      </trkpt>
      <trkpt lat="45.9725" lon="4.80724">
        <ele>229</ele>
        <time>2018-02-23T11:16:25Z</time>
      </trkpt>
      <trkpt lat="45.9725" lon="4.80716">
        <ele>229</ele>
        <time>2018-02-23T11:16:26Z</time>
      </trkpt>
      <trkpt lat="45.9725" lon="4.80709">
        <ele>227</ele>
        <time>2018-02-23T11:16:27Z</time>
      </trkpt>
      <trkpt lat="45.9725" lon="4.80702">
        <ele>229</ele>
        <time>2018-02-23T11:16:28Z</time>
      </trkpt>
      <trkpt lat="45.9725" lon="4.80695">
        <ele>229</ele>
        <time>2018-02-23T11:16:29Z</time>
      </trkpt>
      <trkpt lat="45.97251" lon="4.80688">
        <ele>227</ele>
        <time>2018-02-23T11:16:30Z</time>
      </trkpt>
      <trkpt lat="45.97251" lon="4.8068">
        <ele>227</ele>
        <time>2018-02-23T11:16:31Z</time>
      </trkpt>
      <trkpt lat="45.97251" lon="4.80674">
        <ele>227</ele>
        <time>2018-02-23T11:16:32Z</time>
      </trkpt>
      <trkpt lat="45.97251" lon="4.80667">
        <ele>228</ele>
        <time>2018-02-23T11:16:33Z</time>
      </trkpt>
      <trkpt lat="45.97251" lon="4.8066">
        <ele>227</ele>
        <time>2018-02-23T11:16:34Z</time>
      </trkpt>
      <trkpt lat="45.97249" lon="4.80647">
        <ele>229</ele>
        <time>2018-02-23T11:16:36Z</time>
      </trkpt>
      <trkpt lat="45.97249" lon="4.80641">
        <ele>229</ele>
        <time>2018-02-23T11:16:37Z</time>
      </trkpt>
      <trkpt lat="45.97247" lon="4.80629">
        <ele>229</ele>
        <time>2018-02-23T11:16:39Z</time>
      </trkpt>
      <trkpt lat="45.97246" lon="4.80623">
        <ele>229</ele>
        <time>2018-02-23T11:16:40Z</time>
      </trkpt>
      <trkpt lat="45.97246" lon="4.80611">
        <ele>228</ele>
        <time>2018-02-23T11:16:42Z</time>
      </trkpt>
      <trkpt lat="45.97245" lon="4.80605">
        <ele>228</ele>
        <time>2018-02-23T11:16:43Z</time>
      </trkpt>
      <trkpt lat="45.97243" lon="4.80592">
        <ele>228</ele>
        <time>2018-02-23T11:16:45Z</time>
      </trkpt>
      <trkpt lat="45.97242" lon="4.80586">
        <ele>228</ele>
        <time>2018-02-23T11:16:46Z</time>
      </trkpt>
      <trkpt lat="45.97241" lon="4.80575">
        <ele>227</ele>
        <time>2018-02-23T11:16:48Z</time>
      </trkpt>
      <trkpt lat="45.97239" lon="4.80568">
        <ele>227</ele>
        <time>2018-02-23T11:16:49Z</time>
      </trkpt>
      <trkpt lat="45.97237" lon="4.80561">
        <ele>228</ele>
        <time>2018-02-23T11:16:50Z</time>
      </trkpt>
      <trkpt lat="45.97235" lon="4.80553">
        <ele>228</ele>
        <time>2018-02-23T11:16:51Z</time>
      </trkpt>
      <trkpt lat="45.97234" lon="4.80546">
        <ele>228</ele>
        <time>2018-02-23T11:16:52Z</time>
      </trkpt>
      <trkpt lat="45.97231" lon="4.80539">
        <ele>227</ele>
        <time>2018-02-23T11:16:53Z</time>
      </trkpt>
      <trkpt lat="45.9723" lon="4.80531">
        <ele>227</ele>
        <time>2018-02-23T11:16:54Z</time>
      </trkpt>
      <trkpt lat="45.97228" lon="4.80524">
        <ele>227</ele>
        <time>2018-02-23T11:16:55Z</time>
      </trkpt>
      <trkpt lat="45.97226" lon="4.80517">
        <ele>227</ele>
        <time>2018-02-23T11:16:56Z</time>
      </trkpt>
      <trkpt lat="45.97224" lon="4.80508">
        <ele>227</ele>
        <time>2018-02-23T11:16:57Z</time>
      </trkpt>
      <trkpt lat="45.97222" lon="4.80501">
        <ele>227</ele>
        <time>2018-02-23T11:16:58Z</time>
      </trkpt>
      <trkpt lat="45.9722" lon="4.80494">
        <ele>225</ele>
        <time>2018-02-23T11:16:59Z</time>
      </trkpt>
      <trkpt lat="45.97219" lon="4.80487">
        <ele>225</ele>
        <time>2018-02-23T11:17:00Z</time>
      </trkpt>
      <trkpt lat="45.97217" lon="4.80479">
        <ele>225</ele>
        <time>2018-02-23T11:17:01Z</time>
      </trkpt>
      <trkpt lat="45.97215" lon="4.80471">
        <ele>225</ele>
        <time>2018-02-23T11:17:02Z</time>
      </trkpt>
      <trkpt lat="45.97213" lon="4.80463">
        <ele>225</ele>
        <time>2018-02-23T11:17:03Z</time>
      </trkpt>
      <trkpt lat="45.9721" lon="4.80455">
        <ele>225</ele>
        <time>2018-02-23T11:17:04Z</time>
      </trkpt>
      <trkpt lat="45.97208" lon="4.80446">
        <ele>224</ele>
        <time>2018-02-23T11:17:05Z</time>
      </trkpt>
      <trkpt lat="45.97205" lon="4.80437">
        <ele>224</ele>
        <time>2018-02-23T11:17:06Z</time>
      </trkpt>
      <trkpt lat="45.97203" lon="4.80429">
        <ele>224</ele>
        <time>2018-02-23T11:17:07Z</time>
      </trkpt>
      <trkpt lat="45.972" lon="4.8042">
        <ele>224</ele>
        <time>2018-02-23T11:17:08Z</time>
      </trkpt>
      <trkpt lat="45.97198" lon="4.80412">
        <ele>222</ele>
        <time>2018-02-23T11:17:09Z</time>
      </trkpt>
      <trkpt lat="45.97196" lon="4.80403">
        <ele>222</ele>
        <time>2018-02-23T11:17:10Z</time>
      </trkpt>
      <trkpt lat="45.97193" lon="4.80396">
        <ele>222</ele>
        <time>2018-02-23T11:17:11Z</time>
      </trkpt>
      <trkpt lat="45.97189" lon="4.80387">
        <ele>222</ele>
        <time>2018-02-23T11:17:12Z</time>
      </trkpt>
      <trkpt lat="45.97186" lon="4.80379">
        <ele>222</ele>
        <time>2018-02-23T11:17:13Z</time>
      </trkpt>
      <trkpt lat="45.97184" lon="4.80371">
        <ele>222</ele>
        <time>2018-02-23T11:17:14Z</time>
      </trkpt>
      <trkpt lat="45.97182" lon="4.80363">
        <ele>222</ele>
        <time>2018-02-23T11:17:15Z</time>
      </trkpt>
      <trkpt lat="45.97179" lon="4.80354">
        <ele>222</ele>
        <time>2018-02-23T11:17:16Z</time>
      </trkpt>
      <trkpt lat="45.97177" lon="4.80346">
        <ele>222</ele>
        <time>2018-02-23T11:17:17Z</time>
      </trkpt>
      <trkpt lat="45.97174" lon="4.80338">
        <ele>222</ele>
        <time>2018-02-23T11:17:18Z</time>
      </trkpt>
      <trkpt lat="45.97171" lon="4.8033">
        <ele>222</ele>
        <time>2018-02-23T11:17:19Z</time>
      </trkpt>
      <trkpt lat="45.97168" lon="4.80323">
        <ele>221</ele>
        <time>2018-02-23T11:17:20Z</time>
      </trkpt>
      <trkpt lat="45.97166" lon="4.80315">
        <ele>224</ele>
        <time>2018-02-23T11:17:21Z</time>
      </trkpt>
      <trkpt lat="45.97164" lon="4.80308">
        <ele>224</ele>
        <time>2018-02-23T11:17:22Z</time>
      </trkpt>
      <trkpt lat="45.97161" lon="4.80301">
        <ele>224</ele>
        <time>2018-02-23T11:17:23Z</time>
      </trkpt>
      <trkpt lat="45.97159" lon="4.80294">
        <ele>224</ele>
        <time>2018-02-23T11:17:24Z</time>
      </trkpt>
      <trkpt lat="45.97157" lon="4.80287">
        <ele>224</ele>
        <time>2018-02-23T11:17:25Z</time>
      </trkpt>
      <trkpt lat="45.97154" lon="4.80281">
        <ele>223</ele>
        <time>2018-02-23T11:17:26Z</time>
      </trkpt>
      <trkpt lat="45.97152" lon="4.80274">
        <ele>223</ele>
        <time>2018-02-23T11:17:27Z</time>
      </trkpt>
      <trkpt lat="45.97149" lon="4.80263">
        <ele>222</ele>
        <time>2018-02-23T11:17:29Z</time>
      </trkpt>
      <trkpt lat="45.97146" lon="4.80256">
        <ele>222</ele>
        <time>2018-02-23T11:17:30Z</time>
      </trkpt>
      <trkpt lat="45.97144" lon="4.80249">
        <ele>220</ele>
        <time>2018-02-23T11:17:31Z</time>
      </trkpt>
      <trkpt lat="45.97141" lon="4.80242">
        <ele>220</ele>
        <time>2018-02-23T11:17:32Z</time>
      </trkpt>
      <trkpt lat="45.97137" lon="4.80236">
        <ele>220</ele>
        <time>2018-02-23T11:17:33Z</time>
      </trkpt>
      <trkpt lat="45.97134" lon="4.80229">
        <ele>220</ele>
        <time>2018-02-23T11:17:34Z</time>
      </trkpt>
      <trkpt lat="45.97131" lon="4.80221">
        <ele>220</ele>
        <time>2018-02-23T11:17:35Z</time>
      </trkpt>
      <trkpt lat="45.97127" lon="4.80214">
        <ele>220</ele>
        <time>2018-02-23T11:17:36Z</time>
      </trkpt>
      <trkpt lat="45.97122" lon="4.80207">
        <ele>220</ele>
        <time>2018-02-23T11:17:37Z</time>
      </trkpt>
      <trkpt lat="45.97118" lon="4.802">
        <ele>220</ele>
        <time>2018-02-23T11:17:38Z</time>
      </trkpt>
      <trkpt lat="45.97111" lon="4.80192">
        <ele>220</ele>
        <time>2018-02-23T11:17:39Z</time>
      </trkpt>
      <trkpt lat="45.97105" lon="4.80184">
        <ele>220</ele>
        <time>2018-02-23T11:17:40Z</time>
      </trkpt>
      <trkpt lat="45.971" lon="4.80177">
        <ele>220</ele>
        <time>2018-02-23T11:17:41Z</time>
      </trkpt>
      <trkpt lat="45.97095" lon="4.80169">
        <ele>220</ele>
        <time>2018-02-23T11:17:42Z</time>
      </trkpt>
      <trkpt lat="45.9709" lon="4.80162">
        <ele>218</ele>
        <time>2018-02-23T11:17:43Z</time>
      </trkpt>
      <trkpt lat="45.97084" lon="4.80154">
        <ele>218</ele>
        <time>2018-02-23T11:17:44Z</time>
      </trkpt>
      <trkpt lat="45.97079" lon="4.80147">
        <ele>218</ele>
        <time>2018-02-23T11:17:45Z</time>
      </trkpt>
      <trkpt lat="45.97074" lon="4.8014">
        <ele>218</ele>
        <time>2018-02-23T11:17:46Z</time>
      </trkpt>
      <trkpt lat="45.97069" lon="4.80132">
        <ele>217</ele>
        <time>2018-02-23T11:17:47Z</time>
      </trkpt>
      <trkpt lat="45.97065" lon="4.80124">
        <ele>217</ele>
        <time>2018-02-23T11:17:48Z</time>
      </trkpt>
      <trkpt lat="45.9706" lon="4.80117">
        <ele>217</ele>
        <time>2018-02-23T11:17:49Z</time>
      </trkpt>
      <trkpt lat="45.97054" lon="4.8011">
        <ele>217</ele>
        <time>2018-02-23T11:17:50Z</time>
      </trkpt>
      <trkpt lat="45.9705" lon="4.80104">
        <ele>217</ele>
        <time>2018-02-23T11:17:51Z</time>
      </trkpt>
      <trkpt lat="45.97045" lon="4.80096">
        <ele>216</ele>
        <time>2018-02-23T11:17:52Z</time>
      </trkpt>
      <trkpt lat="45.97041" lon="4.8009">
        <ele>216</ele>
        <time>2018-02-23T11:17:53Z</time>
      </trkpt>
      <trkpt lat="45.97037" lon="4.80084">
        <ele>216</ele>
        <time>2018-02-23T11:17:54Z</time>
      </trkpt>
      <trkpt lat="45.97034" lon="4.80076">
        <ele>215</ele>
        <time>2018-02-23T11:17:55Z</time>
      </trkpt>
      <trkpt lat="45.97031" lon="4.80066">
        <ele>214</ele>
        <time>2018-02-23T11:17:56Z</time>
      </trkpt>
      <trkpt lat="45.97031" lon="4.80057">
        <ele>214</ele>
        <time>2018-02-23T11:17:57Z</time>
      </trkpt>
      <trkpt lat="45.97033" lon="4.80049">
        <ele>214</ele>
        <time>2018-02-23T11:17:58Z</time>
      </trkpt>
      <trkpt lat="45.97037" lon="4.80042">
        <ele>214</ele>
        <time>2018-02-23T11:17:59Z</time>
      </trkpt>
      <trkpt lat="45.97043" lon="4.80036">
        <ele>214</ele>
        <time>2018-02-23T11:18:00Z</time>
      </trkpt>
      <trkpt lat="45.97048" lon="4.80031">
        <ele>214</ele>
        <time>2018-02-23T11:18:01Z</time>
      </trkpt>
      <trkpt lat="45.97053" lon="4.80026">
        <ele>214</ele>
        <time>2018-02-23T11:18:02Z</time>
      </trkpt>
      <trkpt lat="45.97058" lon="4.8002">
        <ele>214</ele>
        <time>2018-02-23T11:18:03Z</time>
      </trkpt>
      <trkpt lat="45.97062" lon="4.80013">
        <ele>214</ele>
        <time>2018-02-23T11:18:04Z</time>
      </trkpt>
      <trkpt lat="45.97067" lon="4.80005">
        <ele>214</ele>
        <time>2018-02-23T11:18:05Z</time>
      </trkpt>
      <trkpt lat="45.97072" lon="4.79998">
        <ele>213</ele>
        <time>2018-02-23T11:18:06Z</time>
      </trkpt>
      <trkpt lat="45.97076" lon="4.79991">
        <ele>213</ele>
        <time>2018-02-23T11:18:07Z</time>
      </trkpt>
      <trkpt lat="45.97079" lon="4.79984">
        <ele>213</ele>
        <time>2018-02-23T11:18:08Z</time>
      </trkpt>
      <trkpt lat="45.97084" lon="4.79976">
        <ele>212</ele>
        <time>2018-02-23T11:18:09Z</time>
      </trkpt>
      <trkpt lat="45.97088" lon="4.79969">
        <ele>212</ele>
        <time>2018-02-23T11:18:10Z</time>
      </trkpt>
      <trkpt lat="45.97094" lon="4.79963">
        <ele>211</ele>
        <time>2018-02-23T11:18:11Z</time>
      </trkpt>
      <trkpt lat="45.971" lon="4.79957">
        <ele>211</ele>
        <time>2018-02-23T11:18:12Z</time>
      </trkpt>
      <trkpt lat="45.97106" lon="4.79953">
        <ele>211</ele>
        <time>2018-02-23T11:18:13Z</time>
      </trkpt>
      <trkpt lat="45.97111" lon="4.7995">
        <ele>211</ele>
        <time>2018-02-23T11:18:14Z</time>
      </trkpt>
      <trkpt lat="45.97117" lon="4.79948">
        <ele>211</ele>
        <time>2018-02-23T11:18:15Z</time>
      </trkpt>
      <trkpt lat="45.97123" lon="4.79945">
        <ele>211</ele>
        <time>2018-02-23T11:18:16Z</time>
      </trkpt>
      <trkpt lat="45.97128" lon="4.79942">
        <ele>211</ele>
        <time>2018-02-23T11:18:17Z</time>
      </trkpt>
      <trkpt lat="45.97133" lon="4.7994">
        <ele>211</ele>
        <time>2018-02-23T11:18:18Z</time>
      </trkpt>
      <trkpt lat="45.97139" lon="4.79939">
        <ele>211</ele>
        <time>2018-02-23T11:18:19Z</time>
      </trkpt>
      <trkpt lat="45.97144" lon="4.79939">
        <ele>211</ele>
        <time>2018-02-23T11:18:20Z</time>
      </trkpt>
      <trkpt lat="45.9715" lon="4.79939">
        <ele>211</ele>
        <time>2018-02-23T11:18:21Z</time>
      </trkpt>
      <trkpt lat="45.97155" lon="4.79938">
        <ele>211</ele>
        <time>2018-02-23T11:18:22Z</time>
      </trkpt>
      <trkpt lat="45.97162" lon="4.79938">
        <ele>211</ele>
        <time>2018-02-23T11:18:23Z</time>
      </trkpt>
      <trkpt lat="45.97168" lon="4.79938">
        <ele>210</ele>
        <time>2018-02-23T11:18:24Z</time>
      </trkpt>
      <trkpt lat="45.97173" lon="4.79937">
        <ele>210</ele>
        <time>2018-02-23T11:18:25Z</time>
      </trkpt>
      <trkpt lat="45.97178" lon="4.79936">
        <ele>210</ele>
        <time>2018-02-23T11:18:26Z</time>
      </trkpt>
      <trkpt lat="45.97184" lon="4.79935">
        <ele>210</ele>
        <time>2018-02-23T11:18:27Z</time>
      </trkpt>
      <trkpt lat="45.97189" lon="4.79934">
        <ele>211</ele>
        <time>2018-02-23T11:18:28Z</time>
      </trkpt>
      <trkpt lat="45.97195" lon="4.79933">
        <ele>211</ele>
        <time>2018-02-23T11:18:29Z</time>
      </trkpt>
      <trkpt lat="45.972" lon="4.79933">
        <ele>211</ele>
        <time>2018-02-23T11:18:30Z</time>
      </trkpt>
      <trkpt lat="45.97206" lon="4.79931">
        <ele>211</ele>
        <time>2018-02-23T11:18:31Z</time>
      </trkpt>
      <trkpt lat="45.97211" lon="4.79931">
        <ele>211</ele>
        <time>2018-02-23T11:18:32Z</time>
      </trkpt>
      <trkpt lat="45.97217" lon="4.7993">
        <ele>211</ele>
        <time>2018-02-23T11:18:33Z</time>
      </trkpt>
      <trkpt lat="45.97222" lon="4.79929">
        <ele>211</ele>
        <time>2018-02-23T11:18:34Z</time>
      </trkpt>
      <trkpt lat="45.97227" lon="4.79928">
        <ele>211</ele>
        <time>2018-02-23T11:18:35Z</time>
      </trkpt>
      <trkpt lat="45.97231" lon="4.79926">
        <ele>211</ele>
        <time>2018-02-23T11:18:36Z</time>
      </trkpt>
      <trkpt lat="45.97236" lon="4.79925">
        <ele>211</ele>
        <time>2018-02-23T11:18:37Z</time>
      </trkpt>
      <trkpt lat="45.97241" lon="4.79924">
        <ele>212</ele>
        <time>2018-02-23T11:18:38Z</time>
      </trkpt>
      <trkpt lat="45.97248" lon="4.79921">
        <ele>212</ele>
        <time>2018-02-23T11:18:40Z</time>
      </trkpt>
      <trkpt lat="45.97252" lon="4.79918">
        <ele>212</ele>
        <time>2018-02-23T11:18:41Z</time>
      </trkpt>
      <trkpt lat="45.97254" lon="4.79912">
        <ele>212</ele>
        <time>2018-02-23T11:18:42Z</time>
      </trkpt>
      <trkpt lat="45.97253" lon="4.79905">
        <ele>213</ele>
        <time>2018-02-23T11:18:43Z</time>
      </trkpt>
      <trkpt lat="45.97252" lon="4.79899">
        <ele>213</ele>
        <time>2018-02-23T11:18:44Z</time>
      </trkpt>
      <trkpt lat="45.9725" lon="4.79892">
        <ele>213</ele>
        <time>2018-02-23T11:18:45Z</time>
      </trkpt>
      <trkpt lat="45.97244" lon="4.79882">
        <ele>211</ele>
        <time>2018-02-23T11:18:47Z</time>
      </trkpt>
      <trkpt lat="45.97243" lon="4.79871">
        <ele>211</ele>
        <time>2018-02-23T11:18:48Z</time>
      </trkpt>
      <trkpt lat="45.97241" lon="4.79863">
        <ele>211</ele>
        <time>2018-02-23T11:18:49Z</time>
      </trkpt>
      <trkpt lat="45.9724" lon="4.79855">
        <ele>211</ele>
        <time>2018-02-23T11:18:50Z</time>
      </trkpt>
      <trkpt lat="45.9724" lon="4.79845">
        <ele>211</ele>
        <time>2018-02-23T11:18:51Z</time>
      </trkpt>
      <trkpt lat="45.9724" lon="4.79836">
        <ele>212</ele>
        <time>2018-02-23T11:18:52Z</time>
      </trkpt>
      <trkpt lat="45.9724" lon="4.79827">
        <ele>211</ele>
        <time>2018-02-23T11:18:53Z</time>
      </trkpt>
      <trkpt lat="45.9724" lon="4.79819">
        <ele>211</ele>
        <time>2018-02-23T11:18:54Z</time>
      </trkpt>
      <trkpt lat="45.97241" lon="4.79811">
        <ele>211</ele>
        <time>2018-02-23T11:18:55Z</time>
      </trkpt>
      <trkpt lat="45.97241" lon="4.79804">
        <ele>210</ele>
        <time>2018-02-23T11:18:56Z</time>
      </trkpt>
      <trkpt lat="45.9724" lon="4.79795">
        <ele>210</ele>
        <time>2018-02-23T11:18:57Z</time>
      </trkpt>
      <trkpt lat="45.9724" lon="4.79787">
        <ele>210</ele>
        <time>2018-02-23T11:18:58Z</time>
      </trkpt>
      <trkpt lat="45.97239" lon="4.7978">
        <ele>210</ele>
        <time>2018-02-23T11:18:59Z</time>
      </trkpt>
      <trkpt lat="45.9724" lon="4.79772">
        <ele>210</ele>
        <time>2018-02-23T11:19:00Z</time>
      </trkpt>
      <trkpt lat="45.9724" lon="4.79764">
        <ele>209</ele>
        <time>2018-02-23T11:19:01Z</time>
      </trkpt>
      <trkpt lat="45.97241" lon="4.79757">
        <ele>209</ele>
        <time>2018-02-23T11:19:02Z</time>
      </trkpt>
      <trkpt lat="45.97242" lon="4.79749">
        <ele>209</ele>
        <time>2018-02-23T11:19:03Z</time>
      </trkpt>
      <trkpt lat="45.97243" lon="4.79742">
        <ele>209</ele>
        <time>2018-02-23T11:19:04Z</time>
      </trkpt>
      <trkpt lat="45.97244" lon="4.79734">
        <ele>209</ele>
        <time>2018-02-23T11:19:05Z</time>
      </trkpt>
      <trkpt lat="45.97245" lon="4.79727">
        <ele>209</ele>
        <time>2018-02-23T11:19:06Z</time>
      </trkpt>
      <trkpt lat="45.97246" lon="4.79719">
        <ele>209</ele>
        <time>2018-02-23T11:19:07Z</time>
      </trkpt>
      <trkpt lat="45.97248" lon="4.79712">
        <ele>209</ele>
        <time>2018-02-23T11:19:08Z</time>
      </trkpt>
      <trkpt lat="45.97249" lon="4.79705">
        <ele>208</ele>
        <time>2018-02-23T11:19:09Z</time>
      </trkpt>
      <trkpt lat="45.9725" lon="4.79698">
        <ele>208</ele>
        <time>2018-02-23T11:19:10Z</time>
      </trkpt>
      <trkpt lat="45.97251" lon="4.79692">
        <ele>212</ele>
        <time>2018-02-23T11:19:11Z</time>
      </trkpt>
      <trkpt lat="45.97253" lon="4.79685">
        <ele>211</ele>
        <time>2018-02-23T11:19:12Z</time>
      </trkpt>
      <trkpt lat="45.97255" lon="4.79678">
        <ele>210</ele>
        <time>2018-02-23T11:19:13Z</time>
      </trkpt>
      <trkpt lat="45.97257" lon="4.7967">
        <ele>210</ele>
        <time>2018-02-23T11:19:14Z</time>
      </trkpt>
      <trkpt lat="45.97257" lon="4.79661">
        <ele>210</ele>
        <time>2018-02-23T11:19:15Z</time>
      </trkpt>
      <trkpt lat="45.97258" lon="4.79653">
        <ele>211</ele>
        <time>2018-02-23T11:19:16Z</time>
      </trkpt>
      <trkpt lat="45.97258" lon="4.79646">
        <ele>212</ele>
        <time>2018-02-23T11:19:17Z</time>
      </trkpt>
      <trkpt lat="45.97258" lon="4.7964">
        <ele>212</ele>
        <time>2018-02-23T11:19:18Z</time>
      </trkpt>
      <trkpt lat="45.97258" lon="4.79632">
        <ele>213</ele>
        <time>2018-02-23T11:19:19Z</time>
      </trkpt>
      <trkpt lat="45.97257" lon="4.79624">
        <ele>213</ele>
        <time>2018-02-23T11:19:20Z</time>
      </trkpt>
      <trkpt lat="45.97257" lon="4.79616">
        <ele>213</ele>
        <time>2018-02-23T11:19:21Z</time>
      </trkpt>
      <trkpt lat="45.97257" lon="4.79608">
        <ele>213</ele>
        <time>2018-02-23T11:19:22Z</time>
      </trkpt>
      <trkpt lat="45.97256" lon="4.79601">
        <ele>212</ele>
        <time>2018-02-23T11:19:23Z</time>
      </trkpt>
      <trkpt lat="45.97256" lon="4.79593">
        <ele>212</ele>
        <time>2018-02-23T11:19:24Z</time>
      </trkpt>
      <trkpt lat="45.97256" lon="4.79581">
        <ele>211</ele>
        <time>2018-02-23T11:19:26Z</time>
      </trkpt>
      <trkpt lat="45.97255" lon="4.79575">
        <ele>212</ele>
        <time>2018-02-23T11:19:27Z</time>
      </trkpt>
      <trkpt lat="45.97254" lon="4.79564">
        <ele>213</ele>
        <time>2018-02-23T11:19:29Z</time>
      </trkpt>
      <trkpt lat="45.97253" lon="4.79558">
        <ele>213</ele>
        <time>2018-02-23T11:19:30Z</time>
      </trkpt>
      <trkpt lat="45.97251" lon="4.79547">
        <ele>214</ele>
        <time>2018-02-23T11:19:32Z</time>
      </trkpt>
      <trkpt lat="45.9725" lon="4.7954">
        <ele>210</ele>
        <time>2018-02-23T11:19:33Z</time>
      </trkpt>
      <trkpt lat="45.97249" lon="4.79528">
        <ele>210</ele>
        <time>2018-02-23T11:19:35Z</time>
      </trkpt>
      <trkpt lat="45.97248" lon="4.79523">
        <ele>210</ele>
        <time>2018-02-23T11:19:36Z</time>
      </trkpt>
      <trkpt lat="45.97247" lon="4.79516">
        <ele>210</ele>
        <time>2018-02-23T11:19:37Z</time>
      </trkpt>
      <trkpt lat="45.97245" lon="4.79509">
        <ele>210</ele>
        <time>2018-02-23T11:19:38Z</time>
      </trkpt>
      <trkpt lat="45.97244" lon="4.79502">
        <ele>211</ele>
        <time>2018-02-23T11:19:39Z</time>
      </trkpt>
      <trkpt lat="45.97242" lon="4.79495">
        <ele>210</ele>
        <time>2018-02-23T11:19:40Z</time>
      </trkpt>
      <trkpt lat="45.97241" lon="4.79487">
        <ele>210</ele>
        <time>2018-02-23T11:19:41Z</time>
      </trkpt>
      <trkpt lat="45.97239" lon="4.79479">
        <ele>209</ele>
        <time>2018-02-23T11:19:42Z</time>
      </trkpt>
      <trkpt lat="45.97237" lon="4.79473">
        <ele>209</ele>
        <time>2018-02-23T11:19:43Z</time>
      </trkpt>
      <trkpt lat="45.97235" lon="4.79466">
        <ele>209</ele>
        <time>2018-02-23T11:19:44Z</time>
      </trkpt>
      <trkpt lat="45.97232" lon="4.7946">
        <ele>209</ele>
        <time>2018-02-23T11:19:45Z</time>
      </trkpt>
      <trkpt lat="45.9723" lon="4.79454">
        <ele>209</ele>
        <time>2018-02-23T11:19:46Z</time>
      </trkpt>
      <trkpt lat="45.97228" lon="4.79447">
        <ele>209</ele>
        <time>2018-02-23T11:19:47Z</time>
      </trkpt>
      <trkpt lat="45.97225" lon="4.7944">
        <ele>209</ele>
        <time>2018-02-23T11:19:48Z</time>
      </trkpt>
      <trkpt lat="45.97224" lon="4.79434">
        <ele>209</ele>
        <time>2018-02-23T11:19:49Z</time>
      </trkpt>
      <trkpt lat="45.97221" lon="4.79427">
        <ele>209</ele>
        <time>2018-02-23T11:19:50Z</time>
      </trkpt>
      <trkpt lat="45.97216" lon="4.79417">
        <ele>208</ele>
        <time>2018-02-23T11:19:52Z</time>
      </trkpt>
      <trkpt lat="45.97214" lon="4.79408">
        <ele>208</ele>
        <time>2018-02-23T11:19:53Z</time>
      </trkpt>
      <trkpt lat="45.9721" lon="4.79403">
        <ele>208</ele>
        <time>2018-02-23T11:19:54Z</time>
      </trkpt>
      <trkpt lat="45.97207" lon="4.79397">
        <ele>208</ele>
        <time>2018-02-23T11:19:55Z</time>
      </trkpt>
      <trkpt lat="45.97205" lon="4.7939">
        <ele>208</ele>
        <time>2018-02-23T11:19:56Z</time>
      </trkpt>
      <trkpt lat="45.97201" lon="4.79383">
        <ele>207</ele>
        <time>2018-02-23T11:19:57Z</time>
      </trkpt>
      <trkpt lat="45.97199" lon="4.79376">
        <ele>207</ele>
        <time>2018-02-23T11:19:58Z</time>
      </trkpt>
      <trkpt lat="45.97196" lon="4.7937">
        <ele>207</ele>
        <time>2018-02-23T11:19:59Z</time>
      </trkpt>
      <trkpt lat="45.97193" lon="4.79362">
        <ele>207</ele>
        <time>2018-02-23T11:20:00Z</time>
      </trkpt>
      <trkpt lat="45.97191" lon="4.79355">
        <ele>207</ele>
        <time>2018-02-23T11:20:01Z</time>
      </trkpt>
      <trkpt lat="45.97188" lon="4.79349">
        <ele>207</ele>
        <time>2018-02-23T11:20:02Z</time>
      </trkpt>
      <trkpt lat="45.97184" lon="4.79342">
        <ele>207</ele>
        <time>2018-02-23T11:20:03Z</time>
      </trkpt>
      <trkpt lat="45.9718" lon="4.79335">
        <ele>206</ele>
        <time>2018-02-23T11:20:04Z</time>
      </trkpt>
      <trkpt lat="45.97176" lon="4.79327">
        <ele>206</ele>
        <time>2018-02-23T11:20:05Z</time>
      </trkpt>
      <trkpt lat="45.97173" lon="4.7932">
        <ele>206</ele>
        <time>2018-02-23T11:20:06Z</time>
      </trkpt>
      <trkpt lat="45.9717" lon="4.79313">
        <ele>207</ele>
        <time>2018-02-23T11:20:07Z</time>
      </trkpt>
      <trkpt lat="45.97168" lon="4.79304">
        <ele>207</ele>
        <time>2018-02-23T11:20:08Z</time>
      </trkpt>
      <trkpt lat="45.97165" lon="4.79297">
        <ele>204</ele>
        <time>2018-02-23T11:20:09Z</time>
      </trkpt>
      <trkpt lat="45.97162" lon="4.79289">
        <ele>204</ele>
        <time>2018-02-23T11:20:10Z</time>
      </trkpt>
      <trkpt lat="45.9716" lon="4.79282">
        <ele>204</ele>
        <time>2018-02-23T11:20:11Z</time>
      </trkpt>
      <trkpt lat="45.97158" lon="4.79274">
        <ele>204</ele>
        <time>2018-02-23T11:20:12Z</time>
      </trkpt>
      <trkpt lat="45.97156" lon="4.79267">
        <ele>204</ele>
        <time>2018-02-23T11:20:13Z</time>
      </trkpt>
      <trkpt lat="45.97153" lon="4.7926">
        <ele>205</ele>
        <time>2018-02-23T11:20:14Z</time>
      </trkpt>
      <trkpt lat="45.97151" lon="4.79253">
        <ele>205</ele>
        <time>2018-02-23T11:20:15Z</time>
      </trkpt>
      <trkpt lat="45.97148" lon="4.79245">
        <ele>205</ele>
        <time>2018-02-23T11:20:16Z</time>
      </trkpt>
      <trkpt lat="45.97145" lon="4.79238">
        <ele>205</ele>
        <time>2018-02-23T11:20:17Z</time>
      </trkpt>
      <trkpt lat="45.97141" lon="4.7923">
        <ele>205</ele>
        <time>2018-02-23T11:20:18Z</time>
      </trkpt>
      <trkpt lat="45.97138" lon="4.79222">
        <ele>205</ele>
        <time>2018-02-23T11:20:19Z</time>
      </trkpt>
      <trkpt lat="45.97135" lon="4.79214">
        <ele>206</ele>
        <time>2018-02-23T11:20:20Z</time>
      </trkpt>
      <trkpt lat="45.97131" lon="4.79206">
        <ele>206</ele>
        <time>2018-02-23T11:20:21Z</time>
      </trkpt>
      <trkpt lat="45.97128" lon="4.79199">
        <ele>206</ele>
        <time>2018-02-23T11:20:22Z</time>
      </trkpt>
      <trkpt lat="45.97125" lon="4.79191">
        <ele>206</ele>
        <time>2018-02-23T11:20:23Z</time>
      </trkpt>
      <trkpt lat="45.9712" lon="4.79182">
        <ele>206</ele>
        <time>2018-02-23T11:20:24Z</time>
      </trkpt>
      <trkpt lat="45.97117" lon="4.79175">
        <ele>206</ele>
        <time>2018-02-23T11:20:25Z</time>
      </trkpt>
      <trkpt lat="45.97114" lon="4.79168">
        <ele>206</ele>
        <time>2018-02-23T11:20:26Z</time>
      </trkpt>
      <trkpt lat="45.9711" lon="4.79162">
        <ele>206</ele>
        <time>2018-02-23T11:20:27Z</time>
      </trkpt>
      <trkpt lat="45.97107" lon="4.79156">
        <ele>206</ele>
        <time>2018-02-23T11:20:28Z</time>
      </trkpt>
      <trkpt lat="45.97103" lon="4.7915">
        <ele>206</ele>
        <time>2018-02-23T11:20:29Z</time>
      </trkpt>
      <trkpt lat="45.971" lon="4.79144">
        <ele>206</ele>
        <time>2018-02-23T11:20:30Z</time>
      </trkpt>
      <trkpt lat="45.97096" lon="4.79138">
        <ele>206</ele>
        <time>2018-02-23T11:20:31Z</time>
      </trkpt>
      <trkpt lat="45.97093" lon="4.79132">
        <ele>206</ele>
        <time>2018-02-23T11:20:32Z</time>
      </trkpt>
      <trkpt lat="45.9709" lon="4.79124">
        <ele>206</ele>
        <time>2018-02-23T11:20:33Z</time>
      </trkpt>
      <trkpt lat="45.97086" lon="4.79117">
        <ele>206</ele>
        <time>2018-02-23T11:20:34Z</time>
      </trkpt>
      <trkpt lat="45.97084" lon="4.7911">
        <ele>206</ele>
        <time>2018-02-23T11:20:35Z</time>
      </trkpt>
      <trkpt lat="45.97082" lon="4.79103">
        <ele>204</ele>
        <time>2018-02-23T11:20:36Z</time>
      </trkpt>
      <trkpt lat="45.97081" lon="4.79096">
        <ele>204</ele>
        <time>2018-02-23T11:20:37Z</time>
      </trkpt>
      <trkpt lat="45.97081" lon="4.79088">
        <ele>204</ele>
        <time>2018-02-23T11:20:38Z</time>
      </trkpt>
      <trkpt lat="45.97078" lon="4.7908">
        <ele>204</ele>
        <time>2018-02-23T11:20:39Z</time>
      </trkpt>
      <trkpt lat="45.97077" lon="4.79074">
        <ele>204</ele>
        <time>2018-02-23T11:20:40Z</time>
      </trkpt>
      <trkpt lat="45.97074" lon="4.79067">
        <ele>204</ele>
        <time>2018-02-23T11:20:41Z</time>
      </trkpt>
      <trkpt lat="45.97073" lon="4.7906">
        <ele>203</ele>
        <time>2018-02-23T11:20:42Z</time>
      </trkpt>
      <trkpt lat="45.9707" lon="4.79053">
        <ele>203</ele>
        <time>2018-02-23T11:20:43Z</time>
      </trkpt>
      <trkpt lat="45.97067" lon="4.79047">
        <ele>203</ele>
        <time>2018-02-23T11:20:44Z</time>
      </trkpt>
      <trkpt lat="45.97065" lon="4.7904">
        <ele>203</ele>
        <time>2018-02-23T11:20:45Z</time>
      </trkpt>
      <trkpt lat="45.97064" lon="4.79034">
        <ele>203</ele>
        <time>2018-02-23T11:20:46Z</time>
      </trkpt>
      <trkpt lat="45.97061" lon="4.79028">
        <ele>203</ele>
        <time>2018-02-23T11:20:47Z</time>
      </trkpt>
      <trkpt lat="45.97058" lon="4.79016">
        <ele>203</ele>
        <time>2018-02-23T11:20:49Z</time>
      </trkpt>
      <trkpt lat="45.97056" lon="4.7901">
        <ele>203</ele>
        <time>2018-02-23T11:20:50Z</time>
      </trkpt>
      <trkpt lat="45.97055" lon="4.78997">
        <ele>205</ele>
        <time>2018-02-23T11:20:52Z</time>
      </trkpt>
      <trkpt lat="45.97052" lon="4.78991">
        <ele>205</ele>
        <time>2018-02-23T11:20:53Z</time>
      </trkpt>
      <trkpt lat="45.9705" lon="4.78984">
        <ele>205</ele>
        <time>2018-02-23T11:20:54Z</time>
      </trkpt>
      <trkpt lat="45.97047" lon="4.78977">
        <ele>205</ele>
        <time>2018-02-23T11:20:55Z</time>
      </trkpt>
      <trkpt lat="45.97044" lon="4.78971">
        <ele>205</ele>
        <time>2018-02-23T11:20:56Z</time>
      </trkpt>
      <trkpt lat="45.97041" lon="4.78964">
        <ele>205</ele>
        <time>2018-02-23T11:20:57Z</time>
      </trkpt>
      <trkpt lat="45.97037" lon="4.78957">
        <ele>205</ele>
        <time>2018-02-23T11:20:58Z</time>
      </trkpt>
      <trkpt lat="45.97032" lon="4.78951">
        <ele>205</ele>
        <time>2018-02-23T11:20:59Z</time>
      </trkpt>
      <trkpt lat="45.97027" lon="4.78944">
        <ele>205</ele>
        <time>2018-02-23T11:21:00Z</time>
      </trkpt>
      <trkpt lat="45.97023" lon="4.78938">
        <ele>205</ele>
        <time>2018-02-23T11:21:01Z</time>
      </trkpt>
      <trkpt lat="45.97019" lon="4.78932">
        <ele>205</ele>
        <time>2018-02-23T11:21:02Z</time>
      </trkpt>
      <trkpt lat="45.97015" lon="4.78926">
        <ele>205</ele>
        <time>2018-02-23T11:21:03Z</time>
      </trkpt>
      <trkpt lat="45.97011" lon="4.7892">
        <ele>204</ele>
        <time>2018-02-23T11:21:04Z</time>
      </trkpt>
      <trkpt lat="45.97006" lon="4.78914">
        <ele>205</ele>
        <time>2018-02-23T11:21:05Z</time>
      </trkpt>
      <trkpt lat="45.97002" lon="4.78907">
        <ele>205</ele>
        <time>2018-02-23T11:21:06Z</time>
      </trkpt>
      <trkpt lat="45.96997" lon="4.78902">
        <ele>204</ele>
        <time>2018-02-23T11:21:07Z</time>
      </trkpt>
      <trkpt lat="45.96993" lon="4.78897">
        <ele>203</ele>
        <time>2018-02-23T11:21:08Z</time>
      </trkpt>
      <trkpt lat="45.96988" lon="4.78891">
        <ele>203</ele>
        <time>2018-02-23T11:21:09Z</time>
      </trkpt>
      <trkpt lat="45.96983" lon="4.78885">
        <ele>203</ele>
        <time>2018-02-23T11:21:10Z</time>
      </trkpt>
      <trkpt lat="45.96979" lon="4.78879">
        <ele>203</ele>
        <time>2018-02-23T11:21:11Z</time>
      </trkpt>
      <trkpt lat="45.96974" lon="4.78875">
        <ele>203</ele>
        <time>2018-02-23T11:21:12Z</time>
      </trkpt>
      <trkpt lat="45.96969" lon="4.78869">
        <ele>203</ele>
        <time>2018-02-23T11:21:13Z</time>
      </trkpt>
      <trkpt lat="45.96965" lon="4.78862">
        <ele>203</ele>
        <time>2018-02-23T11:21:14Z</time>
      </trkpt>
      <trkpt lat="45.9696" lon="4.78856">
        <ele>203</ele>
        <time>2018-02-23T11:21:15Z</time>
      </trkpt>
      <trkpt lat="45.96955" lon="4.78851">
        <ele>203</ele>
        <time>2018-02-23T11:21:16Z</time>
      </trkpt>
      <trkpt lat="45.9695" lon="4.78846">
        <ele>202</ele>
        <time>2018-02-23T11:21:17Z</time>
      </trkpt>
      <trkpt lat="45.96945" lon="4.7884">
        <ele>202</ele>
        <time>2018-02-23T11:21:18Z</time>
      </trkpt>
      <trkpt lat="45.9694" lon="4.78834">
        <ele>202</ele>
        <time>2018-02-23T11:21:19Z</time>
      </trkpt>
      <trkpt lat="45.96935" lon="4.78827">
        <ele>202</ele>
        <time>2018-02-23T11:21:20Z</time>
      </trkpt>
      <trkpt lat="45.9693" lon="4.7882">
        <ele>202</ele>
        <time>2018-02-23T11:21:21Z</time>
      </trkpt>
      <trkpt lat="45.96925" lon="4.78814">
        <ele>202</ele>
        <time>2018-02-23T11:21:22Z</time>
      </trkpt>
      <trkpt lat="45.96921" lon="4.78807">
        <ele>203</ele>
        <time>2018-02-23T11:21:23Z</time>
      </trkpt>
      <trkpt lat="45.96917" lon="4.788">
        <ele>203</ele>
        <time>2018-02-23T11:21:24Z</time>
      </trkpt>
      <trkpt lat="45.96914" lon="4.78792">
        <ele>201</ele>
        <time>2018-02-23T11:21:25Z</time>
      </trkpt>
      <trkpt lat="45.9691" lon="4.78784">
        <ele>201</ele>
        <time>2018-02-23T11:21:26Z</time>
      </trkpt>
      <trkpt lat="45.96907" lon="4.78777">
        <ele>201</ele>
        <time>2018-02-23T11:21:27Z</time>
      </trkpt>
      <trkpt lat="45.96903" lon="4.7877">
        <ele>201</ele>
        <time>2018-02-23T11:21:28Z</time>
      </trkpt>
      <trkpt lat="45.969" lon="4.78763">
        <ele>201</ele>
        <time>2018-02-23T11:21:29Z</time>
      </trkpt>
      <trkpt lat="45.96897" lon="4.78756">
        <ele>201</ele>
        <time>2018-02-23T11:21:30Z</time>
      </trkpt>
      <trkpt lat="45.96893" lon="4.78749">
        <ele>202</ele>
        <time>2018-02-23T11:21:31Z</time>
      </trkpt>
      <trkpt lat="45.9689" lon="4.78742">
        <ele>202</ele>
        <time>2018-02-23T11:21:32Z</time>
      </trkpt>
      <trkpt lat="45.96887" lon="4.78734">
        <ele>202</ele>
        <time>2018-02-23T11:21:33Z</time>
      </trkpt>
      <trkpt lat="45.96884" lon="4.78727">
        <ele>202</ele>
        <time>2018-02-23T11:21:34Z</time>
      </trkpt>
      <trkpt lat="45.9688" lon="4.78721">
        <ele>202</ele>
        <time>2018-02-23T11:21:35Z</time>
      </trkpt>
      <trkpt lat="45.96878" lon="4.78713">
        <ele>202</ele>
        <time>2018-02-23T11:21:36Z</time>
      </trkpt>
      <trkpt lat="45.96875" lon="4.78706">
        <ele>202</ele>
        <time>2018-02-23T11:21:37Z</time>
      </trkpt>
      <trkpt lat="45.96871" lon="4.78699">
        <ele>202</ele>
        <time>2018-02-23T11:21:38Z</time>
      </trkpt>
      <trkpt lat="45.96868" lon="4.78692">
        <ele>202</ele>
        <time>2018-02-23T11:21:39Z</time>
      </trkpt>
      <trkpt lat="45.96865" lon="4.78685">
        <ele>202</ele>
        <time>2018-02-23T11:21:40Z</time>
      </trkpt>
      <trkpt lat="45.96861" lon="4.78678">
        <ele>202</ele>
        <time>2018-02-23T11:21:41Z</time>
      </trkpt>
      <trkpt lat="45.96859" lon="4.78671">
        <ele>202</ele>
        <time>2018-02-23T11:21:42Z</time>
      </trkpt>
      <trkpt lat="45.96855" lon="4.78664">
        <ele>203</ele>
        <time>2018-02-23T11:21:43Z</time>
      </trkpt>
      <trkpt lat="45.96852" lon="4.78658">
        <ele>203</ele>
        <time>2018-02-23T11:21:44Z</time>
      </trkpt>
      <trkpt lat="45.96849" lon="4.78651">
        <ele>203</ele>
        <time>2018-02-23T11:21:45Z</time>
      </trkpt>
      <trkpt lat="45.96845" lon="4.78645">
        <ele>203</ele>
        <time>2018-02-23T11:21:46Z</time>
      </trkpt>
      <trkpt lat="45.96841" lon="4.78638">
        <ele>203</ele>
        <time>2018-02-23T11:21:47Z</time>
      </trkpt>
      <trkpt lat="45.96838" lon="4.78631">
        <ele>203</ele>
        <time>2018-02-23T11:21:48Z</time>
      </trkpt>
      <trkpt lat="45.96835" lon="4.78624">
        <ele>203</ele>
        <time>2018-02-23T11:21:49Z</time>
      </trkpt>
      <trkpt lat="45.96833" lon="4.78616">
        <ele>202</ele>
        <time>2018-02-23T11:21:50Z</time>
      </trkpt>
      <trkpt lat="45.96829" lon="4.78609">
        <ele>202</ele>
        <time>2018-02-23T11:21:51Z</time>
      </trkpt>
      <trkpt lat="45.96827" lon="4.78601">
        <ele>202</ele>
        <time>2018-02-23T11:21:52Z</time>
      </trkpt>
      <trkpt lat="45.96824" lon="4.78594">
        <ele>202</ele>
        <time>2018-02-23T11:21:53Z</time>
      </trkpt>
      <trkpt lat="45.96822" lon="4.78587">
        <ele>202</ele>
        <time>2018-02-23T11:21:54Z</time>
      </trkpt>
      <trkpt lat="45.96817" lon="4.78581">
        <ele>203</ele>
        <time>2018-02-23T11:21:55Z</time>
      </trkpt>
      <trkpt lat="45.96814" lon="4.78575">
        <ele>203</ele>
        <time>2018-02-23T11:21:56Z</time>
      </trkpt>
      <trkpt lat="45.96811" lon="4.7857">
        <ele>203</ele>
        <time>2018-02-23T11:21:57Z</time>
      </trkpt>
      <trkpt lat="45.96806" lon="4.78564">
        <ele>203</ele>
        <time>2018-02-23T11:21:58Z</time>
      </trkpt>
      <trkpt lat="45.96802" lon="4.78558">
        <ele>203</ele>
        <time>2018-02-23T11:21:59Z</time>
      </trkpt>
      <trkpt lat="45.96797" lon="4.78551">
        <ele>203</ele>
        <time>2018-02-23T11:22:00Z</time>
      </trkpt>
      <trkpt lat="45.96792" lon="4.78544">
        <ele>203</ele>
        <time>2018-02-23T11:22:01Z</time>
      </trkpt>
      <trkpt lat="45.96788" lon="4.78536">
        <ele>203</ele>
        <time>2018-02-23T11:22:02Z</time>
      </trkpt>
      <trkpt lat="45.96783" lon="4.78528">
        <ele>203</ele>
        <time>2018-02-23T11:22:03Z</time>
      </trkpt>
      <trkpt lat="45.96778" lon="4.78521">
        <ele>203</ele>
        <time>2018-02-23T11:22:04Z</time>
      </trkpt>
      <trkpt lat="45.96774" lon="4.78514">
        <ele>203</ele>
        <time>2018-02-23T11:22:05Z</time>
      </trkpt>
      <trkpt lat="45.96769" lon="4.78506">
        <ele>203</ele>
        <time>2018-02-23T11:22:06Z</time>
      </trkpt>
      <trkpt lat="45.96765" lon="4.785">
        <ele>204</ele>
        <time>2018-02-23T11:22:07Z</time>
      </trkpt>
      <trkpt lat="45.9676" lon="4.78494">
        <ele>204</ele>
        <time>2018-02-23T11:22:08Z</time>
      </trkpt>
      <trkpt lat="45.96754" lon="4.78489">
        <ele>204</ele>
        <time>2018-02-23T11:22:09Z</time>
      </trkpt>
      <trkpt lat="45.96749" lon="4.78483">
        <ele>203</ele>
        <time>2018-02-23T11:22:10Z</time>
      </trkpt>
      <trkpt lat="45.96745" lon="4.78477">
        <ele>203</ele>
        <time>2018-02-23T11:22:11Z</time>
      </trkpt>
      <trkpt lat="45.9674" lon="4.78473">
        <ele>203</ele>
        <time>2018-02-23T11:22:12Z</time>
      </trkpt>
      <trkpt lat="45.96734" lon="4.78469">
        <ele>203</ele>
        <time>2018-02-23T11:22:13Z</time>
      </trkpt>
      <trkpt lat="45.96729" lon="4.78464">
        <ele>203</ele>
        <time>2018-02-23T11:22:14Z</time>
      </trkpt>
      <trkpt lat="45.96724" lon="4.78459">
        <ele>203</ele>
        <time>2018-02-23T11:22:15Z</time>
      </trkpt>
      <trkpt lat="45.96719" lon="4.78456">
        <ele>203</ele>
        <time>2018-02-23T11:22:16Z</time>
      </trkpt>
      <trkpt lat="45.96715" lon="4.78452">
        <ele>203</ele>
        <time>2018-02-23T11:22:17Z</time>
      </trkpt>
      <trkpt lat="45.9671" lon="4.78447">
        <ele>203</ele>
        <time>2018-02-23T11:22:18Z</time>
      </trkpt>
      <trkpt lat="45.96706" lon="4.78442">
        <ele>203</ele>
        <time>2018-02-23T11:22:19Z</time>
      </trkpt>
      <trkpt lat="45.96703" lon="4.78436">
        <ele>203</ele>
        <time>2018-02-23T11:22:20Z</time>
      </trkpt>
      <trkpt lat="45.96698" lon="4.78431">
        <ele>203</ele>
        <time>2018-02-23T11:22:21Z</time>
      </trkpt>
      <trkpt lat="45.96694" lon="4.78426">
        <ele>202</ele>
        <time>2018-02-23T11:22:22Z</time>
      </trkpt>
      <trkpt lat="45.96689" lon="4.78421">
        <ele>202</ele>
        <time>2018-02-23T11:22:23Z</time>
      </trkpt>
      <trkpt lat="45.96684" lon="4.78417">
        <ele>204</ele>
        <time>2018-02-23T11:22:24Z</time>
      </trkpt>
      <trkpt lat="45.96679" lon="4.78411">
        <ele>203</ele>
        <time>2018-02-23T11:22:25Z</time>
      </trkpt>
      <trkpt lat="45.96673" lon="4.78406">
        <ele>203</ele>
        <time>2018-02-23T11:22:26Z</time>
      </trkpt>
      <trkpt lat="45.96668" lon="4.78401">
        <ele>204</ele>
        <time>2018-02-23T11:22:27Z</time>
      </trkpt>
      <trkpt lat="45.96663" lon="4.78395">
        <ele>201</ele>
        <time>2018-02-23T11:22:28Z</time>
      </trkpt>
      <trkpt lat="45.96658" lon="4.7839">
        <ele>201</ele>
        <time>2018-02-23T11:22:29Z</time>
      </trkpt>
      <trkpt lat="45.96653" lon="4.78385">
        <ele>201</ele>
        <time>2018-02-23T11:22:30Z</time>
      </trkpt>
      <trkpt lat="45.96647" lon="4.7838">
        <ele>201</ele>
        <time>2018-02-23T11:22:31Z</time>
      </trkpt>
      <trkpt lat="45.96642" lon="4.78374">
        <ele>201</ele>
        <time>2018-02-23T11:22:32Z</time>
      </trkpt>
      <trkpt lat="45.96636" lon="4.78369">
        <ele>201</ele>
        <time>2018-02-23T11:22:33Z</time>
      </trkpt>
      <trkpt lat="45.96632" lon="4.78364">
        <ele>201</ele>
        <time>2018-02-23T11:22:34Z</time>
      </trkpt>
      <trkpt lat="45.96627" lon="4.78359">
        <ele>201</ele>
        <time>2018-02-23T11:22:35Z</time>
      </trkpt>
      <trkpt lat="45.96621" lon="4.78354">
        <ele>201</ele>
        <time>2018-02-23T11:22:36Z</time>
      </trkpt>
      <trkpt lat="45.96616" lon="4.78349">
        <ele>201</ele>
        <time>2018-02-23T11:22:37Z</time>
      </trkpt>
      <trkpt lat="45.96611" lon="4.78344">
        <ele>200</ele>
        <time>2018-02-23T11:22:38Z</time>
      </trkpt>
      <trkpt lat="45.96605" lon="4.78339">
        <ele>200</ele>
        <time>2018-02-23T11:22:39Z</time>
      </trkpt>
      <trkpt lat="45.96601" lon="4.78333">
        <ele>202</ele>
        <time>2018-02-23T11:22:40Z</time>
      </trkpt>
      <trkpt lat="45.96596" lon="4.78328">
        <ele>202</ele>
        <time>2018-02-23T11:22:41Z</time>
      </trkpt>
      <trkpt lat="45.9659" lon="4.78322">
        <ele>202</ele>
        <time>2018-02-23T11:22:42Z</time>
      </trkpt>
      <trkpt lat="45.96585" lon="4.78317">
        <ele>202</ele>
        <time>2018-02-23T11:22:43Z</time>
      </trkpt>
      <trkpt lat="45.9658" lon="4.78312">
        <ele>199</ele>
        <time>2018-02-23T11:22:44Z</time>
      </trkpt>
      <trkpt lat="45.96575" lon="4.78308">
        <ele>200</ele>
        <time>2018-02-23T11:22:45Z</time>
      </trkpt>
      <trkpt lat="45.9657" lon="4.78304">
        <ele>200</ele>
        <time>2018-02-23T11:22:46Z</time>
      </trkpt>
      <trkpt lat="45.96565" lon="4.78299">
        <ele>200</ele>
        <time>2018-02-23T11:22:47Z</time>
      </trkpt>
      <trkpt lat="45.9656" lon="4.78294">
        <ele>200</ele>
        <time>2018-02-23T11:22:48Z</time>
      </trkpt>
      <trkpt lat="45.96553" lon="4.78289">
        <ele>200</ele>
        <time>2018-02-23T11:22:49Z</time>
      </trkpt>
      <trkpt lat="45.9655" lon="4.78283">
        <ele>200</ele>
        <time>2018-02-23T11:22:50Z</time>
      </trkpt>
      <trkpt lat="45.96547" lon="4.78276">
        <ele>200</ele>
        <time>2018-02-23T11:22:51Z</time>
      </trkpt>
      <trkpt lat="45.96542" lon="4.7827">
        <ele>200</ele>
        <time>2018-02-23T11:22:52Z</time>
      </trkpt>
      <trkpt lat="45.96537" lon="4.78264">
        <ele>200</ele>
        <time>2018-02-23T11:22:53Z</time>
      </trkpt>
      <trkpt lat="45.96533" lon="4.78258">
        <ele>200</ele>
        <time>2018-02-23T11:22:54Z</time>
      </trkpt>
      <trkpt lat="45.96528" lon="4.7825">
        <ele>200</ele>
        <time>2018-02-23T11:22:55Z</time>
      </trkpt>
      <trkpt lat="45.96524" lon="4.78243">
        <ele>203</ele>
        <time>2018-02-23T11:22:56Z</time>
      </trkpt>
      <trkpt lat="45.96521" lon="4.78236">
        <ele>204</ele>
        <time>2018-02-23T11:22:57Z</time>
      </trkpt>
      <trkpt lat="45.96517" lon="4.7823">
        <ele>204</ele>
        <time>2018-02-23T11:22:58Z</time>
      </trkpt>
      <trkpt lat="45.96513" lon="4.78223">
        <ele>204</ele>
        <time>2018-02-23T11:22:59Z</time>
      </trkpt>
      <trkpt lat="45.96509" lon="4.78218">
        <ele>204</ele>
        <time>2018-02-23T11:23:00Z</time>
      </trkpt>
      <trkpt lat="45.96504" lon="4.78212">
        <ele>205</ele>
        <time>2018-02-23T11:23:01Z</time>
      </trkpt>
      <trkpt lat="45.965" lon="4.78206">
        <ele>200</ele>
        <time>2018-02-23T11:23:02Z</time>
      </trkpt>
      <trkpt lat="45.96494" lon="4.78201">
        <ele>200</ele>
        <time>2018-02-23T11:23:03Z</time>
      </trkpt>
      <trkpt lat="45.96488" lon="4.78198">
        <ele>200</ele>
        <time>2018-02-23T11:23:04Z</time>
      </trkpt>
      <trkpt lat="45.96482" lon="4.78195">
        <ele>200</ele>
        <time>2018-02-23T11:23:05Z</time>
      </trkpt>
      <trkpt lat="45.96475" lon="4.78191">
        <ele>200</ele>
        <time>2018-02-23T11:23:06Z</time>
      </trkpt>
      <trkpt lat="45.96468" lon="4.78187">
        <ele>200</ele>
        <time>2018-02-23T11:23:07Z</time>
      </trkpt>
      <trkpt lat="45.96462" lon="4.78183">
        <ele>200</ele>
        <time>2018-02-23T11:23:08Z</time>
      </trkpt>
      <trkpt lat="45.96456" lon="4.78178">
        <ele>200</ele>
        <time>2018-02-23T11:23:09Z</time>
      </trkpt>
      <trkpt lat="45.96451" lon="4.78172">
        <ele>199</ele>
        <time>2018-02-23T11:23:10Z</time>
      </trkpt>
      <trkpt lat="45.96445" lon="4.78166">
        <ele>203</ele>
        <time>2018-02-23T11:23:11Z</time>
      </trkpt>
      <trkpt lat="45.96441" lon="4.78161">
        <ele>203</ele>
        <time>2018-02-23T11:23:12Z</time>
      </trkpt>
      <trkpt lat="45.96435" lon="4.78156">
        <ele>202</ele>
        <time>2018-02-23T11:23:13Z</time>
      </trkpt>
      <trkpt lat="45.9643" lon="4.78151">
        <ele>202</ele>
        <time>2018-02-23T11:23:14Z</time>
      </trkpt>
      <trkpt lat="45.96425" lon="4.78147">
        <ele>202</ele>
        <time>2018-02-23T11:23:15Z</time>
      </trkpt>
      <trkpt lat="45.96419" lon="4.78141">
        <ele>203</ele>
        <time>2018-02-23T11:23:16Z</time>
      </trkpt>
      <trkpt lat="45.96414" lon="4.78137">
        <ele>199</ele>
        <time>2018-02-23T11:23:17Z</time>
      </trkpt>
      <trkpt lat="45.96409" lon="4.78132">
        <ele>199</ele>
        <time>2018-02-23T11:23:18Z</time>
      </trkpt>
      <trkpt lat="45.96404" lon="4.78128">
        <ele>199</ele>
        <time>2018-02-23T11:23:19Z</time>
      </trkpt>
      <trkpt lat="45.964" lon="4.78124">
        <ele>200</ele>
        <time>2018-02-23T11:23:20Z</time>
      </trkpt>
      <trkpt lat="45.96394" lon="4.78119">
        <ele>200</ele>
        <time>2018-02-23T11:23:21Z</time>
      </trkpt>
      <trkpt lat="45.96389" lon="4.78114">
        <ele>200</ele>
        <time>2018-02-23T11:23:22Z</time>
      </trkpt>
      <trkpt lat="45.96385" lon="4.78109">
        <ele>200</ele>
        <time>2018-02-23T11:23:23Z</time>
      </trkpt>
      <trkpt lat="45.9638" lon="4.78104">
        <ele>200</ele>
        <time>2018-02-23T11:23:24Z</time>
      </trkpt>
      <trkpt lat="45.96376" lon="4.781">
        <ele>200</ele>
        <time>2018-02-23T11:23:25Z</time>
      </trkpt>
      <trkpt lat="45.96371" lon="4.78096">
        <ele>199</ele>
        <time>2018-02-23T11:23:26Z</time>
      </trkpt>
      <trkpt lat="45.96366" lon="4.78092">
        <ele>199</ele>
        <time>2018-02-23T11:23:27Z</time>
      </trkpt>
      <trkpt lat="45.96362" lon="4.78087">
        <ele>199</ele>
        <time>2018-02-23T11:23:28Z</time>
      </trkpt>
      <trkpt lat="45.96357" lon="4.78083">
        <ele>202</ele>
        <time>2018-02-23T11:23:29Z</time>
      </trkpt>
      <trkpt lat="45.96353" lon="4.78077">
        <ele>201</ele>
        <time>2018-02-23T11:23:30Z</time>
      </trkpt>
      <trkpt lat="45.96347" lon="4.78072">
        <ele>201</ele>
        <time>2018-02-23T11:23:31Z</time>
      </trkpt>
      <trkpt lat="45.96343" lon="4.78066">
        <ele>201</ele>
        <time>2018-02-23T11:23:32Z</time>
      </trkpt>
      <trkpt lat="45.96339" lon="4.78061">
        <ele>202</ele>
        <time>2018-02-23T11:23:33Z</time>
      </trkpt>
      <trkpt lat="45.96335" lon="4.78055">
        <ele>202</ele>
        <time>2018-02-23T11:23:34Z</time>
      </trkpt>
      <trkpt lat="45.96331" lon="4.7805">
        <ele>199</ele>
        <time>2018-02-23T11:23:35Z</time>
      </trkpt>
      <trkpt lat="45.96326" lon="4.78045">
        <ele>199</ele>
        <time>2018-02-23T11:23:36Z</time>
      </trkpt>
      <trkpt lat="45.96321" lon="4.7804">
        <ele>199</ele>
        <time>2018-02-23T11:23:37Z</time>
      </trkpt>
      <trkpt lat="45.96316" lon="4.78033">
        <ele>200</ele>
        <time>2018-02-23T11:23:38Z</time>
      </trkpt>
      <trkpt lat="45.96311" lon="4.78028">
        <ele>200</ele>
        <time>2018-02-23T11:23:39Z</time>
      </trkpt>
      <trkpt lat="45.96306" lon="4.78023">
        <ele>200</ele>
        <time>2018-02-23T11:23:40Z</time>
      </trkpt>
      <trkpt lat="45.963" lon="4.78018">
        <ele>199</ele>
        <time>2018-02-23T11:23:41Z</time>
      </trkpt>
      <trkpt lat="45.96295" lon="4.78012">
        <ele>199</ele>
        <time>2018-02-23T11:23:42Z</time>
      </trkpt>
      <trkpt lat="45.96291" lon="4.78007">
        <ele>199</ele>
        <time>2018-02-23T11:23:43Z</time>
      </trkpt>
      <trkpt lat="45.96285" lon="4.78004">
        <ele>199</ele>
        <time>2018-02-23T11:23:44Z</time>
      </trkpt>
      <trkpt lat="45.9628" lon="4.77998">
        <ele>203</ele>
        <time>2018-02-23T11:23:45Z</time>
      </trkpt>
      <trkpt lat="45.96274" lon="4.77994">
        <ele>202</ele>
        <time>2018-02-23T11:23:46Z</time>
      </trkpt>
      <trkpt lat="45.96269" lon="4.7799">
        <ele>202</ele>
        <time>2018-02-23T11:23:47Z</time>
      </trkpt>
      <trkpt lat="45.96264" lon="4.77987">
        <ele>201</ele>
        <time>2018-02-23T11:23:48Z</time>
      </trkpt>
      <trkpt lat="45.9626" lon="4.77985">
        <ele>201</ele>
        <time>2018-02-23T11:23:49Z</time>
      </trkpt>
      <trkpt lat="45.96253" lon="4.7798">
        <ele>202</ele>
        <time>2018-02-23T11:23:51Z</time>
      </trkpt>
      <trkpt lat="45.96249" lon="4.77973">
        <ele>198</ele>
        <time>2018-02-23T11:23:52Z</time>
      </trkpt>
      <trkpt lat="45.96246" lon="4.77968">
        <ele>198</ele>
        <time>2018-02-23T11:23:53Z</time>
      </trkpt>
      <trkpt lat="45.96242" lon="4.77964">
        <ele>199</ele>
        <time>2018-02-23T11:23:54Z</time>
      </trkpt>
      <trkpt lat="45.96238" lon="4.77959">
        <ele>199</ele>
        <time>2018-02-23T11:23:55Z</time>
      </trkpt>
      <trkpt lat="45.96235" lon="4.77954">
        <ele>199</ele>
        <time>2018-02-23T11:23:56Z</time>
      </trkpt>
      <trkpt lat="45.96228" lon="4.77946">
        <ele>200</ele>
        <time>2018-02-23T11:23:58Z</time>
      </trkpt>
      <trkpt lat="45.96224" lon="4.7794">
        <ele>200</ele>
        <time>2018-02-23T11:23:59Z</time>
      </trkpt>
      <trkpt lat="45.96219" lon="4.77936">
        <ele>200</ele>
        <time>2018-02-23T11:24:00Z</time>
      </trkpt>
      <trkpt lat="45.96216" lon="4.7793">
        <ele>200</ele>
        <time>2018-02-23T11:24:01Z</time>
      </trkpt>
      <trkpt lat="45.96212" lon="4.77925">
        <ele>199</ele>
        <time>2018-02-23T11:24:02Z</time>
      </trkpt>
      <trkpt lat="45.96209" lon="4.77918">
        <ele>199</ele>
        <time>2018-02-23T11:24:03Z</time>
      </trkpt>
      <trkpt lat="45.96206" lon="4.77912">
        <ele>202</ele>
        <time>2018-02-23T11:24:04Z</time>
      </trkpt>
      <trkpt lat="45.96202" lon="4.77904">
        <ele>202</ele>
        <time>2018-02-23T11:24:05Z</time>
      </trkpt>
      <trkpt lat="45.96199" lon="4.77898">
        <ele>201</ele>
        <time>2018-02-23T11:24:06Z</time>
      </trkpt>
      <trkpt lat="45.96195" lon="4.77891">
        <ele>201</ele>
        <time>2018-02-23T11:24:07Z</time>
      </trkpt>
      <trkpt lat="45.96191" lon="4.77885">
        <ele>201</ele>
        <time>2018-02-23T11:24:08Z</time>
      </trkpt>
      <trkpt lat="45.96186" lon="4.77877">
        <ele>201</ele>
        <time>2018-02-23T11:24:09Z</time>
      </trkpt>
      <trkpt lat="45.96182" lon="4.7787">
        <ele>201</ele>
        <time>2018-02-23T11:24:10Z</time>
      </trkpt>
      <trkpt lat="45.96178" lon="4.77862">
        <ele>201</ele>
        <time>2018-02-23T11:24:11Z</time>
      </trkpt>
      <trkpt lat="45.96174" lon="4.77855">
        <ele>201</ele>
        <time>2018-02-23T11:24:12Z</time>
      </trkpt>
      <trkpt lat="45.96169" lon="4.77849">
        <ele>201</ele>
        <time>2018-02-23T11:24:13Z</time>
      </trkpt>
      <trkpt lat="45.96165" lon="4.77841">
        <ele>198</ele>
        <time>2018-02-23T11:24:14Z</time>
      </trkpt>
      <trkpt lat="45.96161" lon="4.77834">
        <ele>198</ele>
        <time>2018-02-23T11:24:15Z</time>
      </trkpt>
      <trkpt lat="45.96157" lon="4.77828">
        <ele>198</ele>
        <time>2018-02-23T11:24:16Z</time>
      </trkpt>
      <trkpt lat="45.96153" lon="4.7782">
        <ele>198</ele>
        <time>2018-02-23T11:24:17Z</time>
      </trkpt>
      <trkpt lat="45.9615" lon="4.77813">
        <ele>198</ele>
        <time>2018-02-23T11:24:18Z</time>
      </trkpt>
      <trkpt lat="45.96148" lon="4.77807">
        <ele>198</ele>
        <time>2018-02-23T11:24:19Z</time>
      </trkpt>
      <trkpt lat="45.96145" lon="4.77801">
        <ele>198</ele>
        <time>2018-02-23T11:24:20Z</time>
      </trkpt>
      <trkpt lat="45.96142" lon="4.77794">
        <ele>198</ele>
        <time>2018-02-23T11:24:21Z</time>
      </trkpt>
      <trkpt lat="45.96139" lon="4.77789">
        <ele>198</ele>
        <time>2018-02-23T11:24:22Z</time>
      </trkpt>
      <trkpt lat="45.96134" lon="4.77783">
        <ele>198</ele>
        <time>2018-02-23T11:24:23Z</time>
      </trkpt>
      <trkpt lat="45.9613" lon="4.77777">
        <ele>198</ele>
        <time>2018-02-23T11:24:24Z</time>
      </trkpt>
      <trkpt lat="45.96125" lon="4.77771">
        <ele>198</ele>
        <time>2018-02-23T11:24:25Z</time>
      </trkpt>
      <trkpt lat="45.96121" lon="4.77764">
        <ele>197</ele>
        <time>2018-02-23T11:24:26Z</time>
      </trkpt>
      <trkpt lat="45.96117" lon="4.77757">
        <ele>197</ele>
        <time>2018-02-23T11:24:27Z</time>
      </trkpt>
      <trkpt lat="45.96114" lon="4.77751">
        <ele>197</ele>
        <time>2018-02-23T11:24:28Z</time>
      </trkpt>
      <trkpt lat="45.96111" lon="4.77744">
        <ele>199</ele>
        <time>2018-02-23T11:24:29Z</time>
      </trkpt>
      <trkpt lat="45.96107" lon="4.77734">
        <ele>199</ele>
        <time>2018-02-23T11:24:31Z</time>
      </trkpt>
      <trkpt lat="45.96102" lon="4.77727">
        <ele>199</ele>
        <time>2018-02-23T11:24:32Z</time>
      </trkpt>
      <trkpt lat="45.96098" lon="4.77722">
        <ele>199</ele>
        <time>2018-02-23T11:24:33Z</time>
      </trkpt>
      <trkpt lat="45.96094" lon="4.77715">
        <ele>200</ele>
        <time>2018-02-23T11:24:34Z</time>
      </trkpt>
      <trkpt lat="45.9609" lon="4.77709">
        <ele>200</ele>
        <time>2018-02-23T11:24:35Z</time>
      </trkpt>
      <trkpt lat="45.96086" lon="4.77703">
        <ele>200</ele>
        <time>2018-02-23T11:24:36Z</time>
      </trkpt>
      <trkpt lat="45.96082" lon="4.77696">
        <ele>197</ele>
        <time>2018-02-23T11:24:37Z</time>
      </trkpt>
      <trkpt lat="45.96077" lon="4.7769">
        <ele>198</ele>
        <time>2018-02-23T11:24:38Z</time>
      </trkpt>
      <trkpt lat="45.96072" lon="4.77684">
        <ele>198</ele>
        <time>2018-02-23T11:24:39Z</time>
      </trkpt>
      <trkpt lat="45.96068" lon="4.77678">
        <ele>198</ele>
        <time>2018-02-23T11:24:40Z</time>
      </trkpt>
      <trkpt lat="45.96063" lon="4.77673">
        <ele>198</ele>
        <time>2018-02-23T11:24:41Z</time>
      </trkpt>
      <trkpt lat="45.96059" lon="4.77667">
        <ele>198</ele>
        <time>2018-02-23T11:24:42Z</time>
      </trkpt>
      <trkpt lat="45.96054" lon="4.77661">
        <ele>200</ele>
        <time>2018-02-23T11:24:43Z</time>
      </trkpt>
      <trkpt lat="45.9605" lon="4.77655">
        <ele>200</ele>
        <time>2018-02-23T11:24:44Z</time>
      </trkpt>
      <trkpt lat="45.96045" lon="4.7765">
        <ele>199</ele>
        <time>2018-02-23T11:24:45Z</time>
      </trkpt>
      <trkpt lat="45.96039" lon="4.77644">
        <ele>199</ele>
        <time>2018-02-23T11:24:46Z</time>
      </trkpt>
      <trkpt lat="45.96034" lon="4.77639">
        <ele>199</ele>
        <time>2018-02-23T11:24:47Z</time>
      </trkpt>
      <trkpt lat="45.9603" lon="4.77634">
        <ele>199</ele>
        <time>2018-02-23T11:24:48Z</time>
      </trkpt>
      <trkpt lat="45.96026" lon="4.77629">
        <ele>199</ele>
        <time>2018-02-23T11:24:49Z</time>
      </trkpt>
      <trkpt lat="45.96021" lon="4.77623">
        <ele>199</ele>
        <time>2018-02-23T11:24:50Z</time>
      </trkpt>
      <trkpt lat="45.96016" lon="4.77618">
        <ele>199</ele>
        <time>2018-02-23T11:24:51Z</time>
      </trkpt>
      <trkpt lat="45.96011" lon="4.77612">
        <ele>199</ele>
        <time>2018-02-23T11:24:52Z</time>
      </trkpt>
      <trkpt lat="45.96006" lon="4.77606">
        <ele>198</ele>
        <time>2018-02-23T11:24:53Z</time>
      </trkpt>
      <trkpt lat="45.96002" lon="4.776">
        <ele>198</ele>
        <time>2018-02-23T11:24:54Z</time>
      </trkpt>
      <trkpt lat="45.95997" lon="4.77593">
        <ele>196</ele>
        <time>2018-02-23T11:24:55Z</time>
      </trkpt>
      <trkpt lat="45.95993" lon="4.77586">
        <ele>196</ele>
        <time>2018-02-23T11:24:56Z</time>
      </trkpt>
      <trkpt lat="45.9599" lon="4.77578">
        <ele>196</ele>
        <time>2018-02-23T11:24:57Z</time>
      </trkpt>
      <trkpt lat="45.95987" lon="4.77571">
        <ele>196</ele>
        <time>2018-02-23T11:24:58Z</time>
      </trkpt>
      <trkpt lat="45.95984" lon="4.77563">
        <ele>196</ele>
        <time>2018-02-23T11:24:59Z</time>
      </trkpt>
      <trkpt lat="45.95981" lon="4.77557">
        <ele>196</ele>
        <time>2018-02-23T11:25:00Z</time>
      </trkpt>
      <trkpt lat="45.95979" lon="4.7755">
        <ele>196</ele>
        <time>2018-02-23T11:25:01Z</time>
      </trkpt>
      <trkpt lat="45.95978" lon="4.77544">
        <ele>196</ele>
        <time>2018-02-23T11:25:02Z</time>
      </trkpt>
      <trkpt lat="45.95972" lon="4.77534">
        <ele>196</ele>
        <time>2018-02-23T11:25:04Z</time>
      </trkpt>
      <trkpt lat="45.9597" lon="4.77527">
        <ele>195</ele>
        <time>2018-02-23T11:25:05Z</time>
      </trkpt>
      <trkpt lat="45.95967" lon="4.7752">
        <ele>195</ele>
        <time>2018-02-23T11:25:06Z</time>
      </trkpt>
      <trkpt lat="45.95963" lon="4.77512">
        <ele>195</ele>
        <time>2018-02-23T11:25:07Z</time>
      </trkpt>
      <trkpt lat="45.9596" lon="4.77504">
        <ele>195</ele>
        <time>2018-02-23T11:25:08Z</time>
      </trkpt>
      <trkpt lat="45.95958" lon="4.77496">
        <ele>196</ele>
        <time>2018-02-23T11:25:09Z</time>
      </trkpt>
      <trkpt lat="45.95955" lon="4.77486">
        <ele>196</ele>
        <time>2018-02-23T11:25:10Z</time>
      </trkpt>
      <trkpt lat="45.95952" lon="4.77478">
        <ele>196</ele>
        <time>2018-02-23T11:25:11Z</time>
      </trkpt>
      <trkpt lat="45.95949" lon="4.77468">
        <ele>196</ele>
        <time>2018-02-23T11:25:12Z</time>
      </trkpt>
      <trkpt lat="45.95945" lon="4.7746">
        <ele>196</ele>
        <time>2018-02-23T11:25:13Z</time>
      </trkpt>
      <trkpt lat="45.95942" lon="4.77452">
        <ele>196</ele>
        <time>2018-02-23T11:25:14Z</time>
      </trkpt>
      <trkpt lat="45.95939" lon="4.77443">
        <ele>196</ele>
        <time>2018-02-23T11:25:15Z</time>
      </trkpt>
      <trkpt lat="45.95935" lon="4.77435">
        <ele>195</ele>
        <time>2018-02-23T11:25:16Z</time>
      </trkpt>
      <trkpt lat="45.95933" lon="4.77426">
        <ele>195</ele>
        <time>2018-02-23T11:25:17Z</time>
      </trkpt>
      <trkpt lat="45.95929" lon="4.77419">
        <ele>195</ele>
        <time>2018-02-23T11:25:18Z</time>
      </trkpt>
      <trkpt lat="45.95927" lon="4.7741">
        <ele>195</ele>
        <time>2018-02-23T11:25:19Z</time>
      </trkpt>
      <trkpt lat="45.95924" lon="4.77403">
        <ele>195</ele>
        <time>2018-02-23T11:25:20Z</time>
      </trkpt>
      <trkpt lat="45.95921" lon="4.77394">
        <ele>196</ele>
        <time>2018-02-23T11:25:21Z</time>
      </trkpt>
      <trkpt lat="45.95918" lon="4.77386">
        <ele>196</ele>
        <time>2018-02-23T11:25:22Z</time>
      </trkpt>
      <trkpt lat="45.95915" lon="4.77378">
        <ele>193</ele>
        <time>2018-02-23T11:25:23Z</time>
      </trkpt>
      <trkpt lat="45.95913" lon="4.77369">
        <ele>193</ele>
        <time>2018-02-23T11:25:24Z</time>
      </trkpt>
      <trkpt lat="45.95909" lon="4.77361">
        <ele>193</ele>
        <time>2018-02-23T11:25:25Z</time>
      </trkpt>
      <trkpt lat="45.95906" lon="4.77352">
        <ele>193</ele>
        <time>2018-02-23T11:25:26Z</time>
      </trkpt>
      <trkpt lat="45.95903" lon="4.77343">
        <ele>193</ele>
        <time>2018-02-23T11:25:27Z</time>
      </trkpt>
      <trkpt lat="45.959" lon="4.77335">
        <ele>193</ele>
        <time>2018-02-23T11:25:28Z</time>
      </trkpt>
      <trkpt lat="45.95898" lon="4.77326">
        <ele>194</ele>
        <time>2018-02-23T11:25:29Z</time>
      </trkpt>
      <trkpt lat="45.95895" lon="4.77317">
        <ele>193</ele>
        <time>2018-02-23T11:25:30Z</time>
      </trkpt>
      <trkpt lat="45.95894" lon="4.77307">
        <ele>193</ele>
        <time>2018-02-23T11:25:31Z</time>
      </trkpt>
      <trkpt lat="45.95892" lon="4.77297">
        <ele>193</ele>
        <time>2018-02-23T11:25:32Z</time>
      </trkpt>
      <trkpt lat="45.95889" lon="4.77288">
        <ele>193</ele>
        <time>2018-02-23T11:25:33Z</time>
      </trkpt>
      <trkpt lat="45.95887" lon="4.77279">
        <ele>193</ele>
        <time>2018-02-23T11:25:34Z</time>
      </trkpt>
      <trkpt lat="45.95884" lon="4.7727">
        <ele>193</ele>
        <time>2018-02-23T11:25:35Z</time>
      </trkpt>
      <trkpt lat="45.95882" lon="4.77262">
        <ele>193</ele>
        <time>2018-02-23T11:25:36Z</time>
      </trkpt>
      <trkpt lat="45.95881" lon="4.77252">
        <ele>193</ele>
        <time>2018-02-23T11:25:37Z</time>
      </trkpt>
      <trkpt lat="45.95878" lon="4.77242">
        <ele>193</ele>
        <time>2018-02-23T11:25:38Z</time>
      </trkpt>
      <trkpt lat="45.95877" lon="4.77233">
        <ele>193</ele>
        <time>2018-02-23T11:25:39Z</time>
      </trkpt>
      <trkpt lat="45.95875" lon="4.77224">
        <ele>193</ele>
        <time>2018-02-23T11:25:40Z</time>
      </trkpt>
      <trkpt lat="45.95872" lon="4.77216">
        <ele>193</ele>
        <time>2018-02-23T11:25:41Z</time>
      </trkpt>
      <trkpt lat="45.9587" lon="4.77206">
        <ele>193</ele>
        <time>2018-02-23T11:25:42Z</time>
      </trkpt>
      <trkpt lat="45.95868" lon="4.77197">
        <ele>193</ele>
        <time>2018-02-23T11:25:43Z</time>
      </trkpt>
      <trkpt lat="45.95865" lon="4.77189">
        <ele>193</ele>
        <time>2018-02-23T11:25:44Z</time>
      </trkpt>
      <trkpt lat="45.95862" lon="4.7718">
        <ele>192</ele>
        <time>2018-02-23T11:25:45Z</time>
      </trkpt>
      <trkpt lat="45.95859" lon="4.77172">
        <ele>192</ele>
        <time>2018-02-23T11:25:46Z</time>
      </trkpt>
      <trkpt lat="45.95858" lon="4.77163">
        <ele>192</ele>
        <time>2018-02-23T11:25:47Z</time>
      </trkpt>
      <trkpt lat="45.95855" lon="4.77154">
        <ele>192</ele>
        <time>2018-02-23T11:25:48Z</time>
      </trkpt>
      <trkpt lat="45.95854" lon="4.77144">
        <ele>193</ele>
        <time>2018-02-23T11:25:49Z</time>
      </trkpt>
      <trkpt lat="45.95851" lon="4.77134">
        <ele>193</ele>
        <time>2018-02-23T11:25:50Z</time>
      </trkpt>
      <trkpt lat="45.95849" lon="4.77124">
        <ele>193</ele>
        <time>2018-02-23T11:25:51Z</time>
      </trkpt>
      <trkpt lat="45.95846" lon="4.77114">
        <ele>193</ele>
        <time>2018-02-23T11:25:52Z</time>
      </trkpt>
      <trkpt lat="45.95843" lon="4.77104">
        <ele>193</ele>
        <time>2018-02-23T11:25:53Z</time>
      </trkpt>
      <trkpt lat="45.95839" lon="4.77094">
        <ele>193</ele>
        <time>2018-02-23T11:25:54Z</time>
      </trkpt>
      <trkpt lat="45.95835" lon="4.77086">
        <ele>192</ele>
        <time>2018-02-23T11:25:55Z</time>
      </trkpt>
      <trkpt lat="45.95832" lon="4.77077">
        <ele>191</ele>
        <time>2018-02-23T11:25:56Z</time>
      </trkpt>
      <trkpt lat="45.95828" lon="4.77069">
        <ele>191</ele>
        <time>2018-02-23T11:25:57Z</time>
      </trkpt>
      <trkpt lat="45.95826" lon="4.77061">
        <ele>191</ele>
        <time>2018-02-23T11:25:58Z</time>
      </trkpt>
      <trkpt lat="45.95822" lon="4.77054">
        <ele>190</ele>
        <time>2018-02-23T11:25:59Z</time>
      </trkpt>
      <trkpt lat="45.95819" lon="4.77046">
        <ele>190</ele>
        <time>2018-02-23T11:26:00Z</time>
      </trkpt>
      <trkpt lat="45.95816" lon="4.7704">
        <ele>190</ele>
        <time>2018-02-23T11:26:01Z</time>
      </trkpt>
      <trkpt lat="45.95813" lon="4.77033">
        <ele>190</ele>
        <time>2018-02-23T11:26:02Z</time>
      </trkpt>
      <trkpt lat="45.95811" lon="4.77026">
        <ele>190</ele>
        <time>2018-02-23T11:26:03Z</time>
      </trkpt>
      <trkpt lat="45.95809" lon="4.77018">
        <ele>190</ele>
        <time>2018-02-23T11:26:04Z</time>
      </trkpt>
      <trkpt lat="45.95806" lon="4.77011">
        <ele>190</ele>
        <time>2018-02-23T11:26:05Z</time>
      </trkpt>
      <trkpt lat="45.95805" lon="4.77003">
        <ele>190</ele>
        <time>2018-02-23T11:26:06Z</time>
      </trkpt>
      <trkpt lat="45.95804" lon="4.76994">
        <ele>190</ele>
        <time>2018-02-23T11:26:07Z</time>
      </trkpt>
      <trkpt lat="45.95803" lon="4.76987">
        <ele>189</ele>
        <time>2018-02-23T11:26:08Z</time>
      </trkpt>
      <trkpt lat="45.95804" lon="4.76979">
        <ele>189</ele>
        <time>2018-02-23T11:26:09Z</time>
      </trkpt>
      <trkpt lat="45.95805" lon="4.76971">
        <ele>189</ele>
        <time>2018-02-23T11:26:10Z</time>
      </trkpt>
      <trkpt lat="45.95806" lon="4.76962">
        <ele>189</ele>
        <time>2018-02-23T11:26:11Z</time>
      </trkpt>
      <trkpt lat="45.95808" lon="4.76953">
        <ele>189</ele>
        <time>2018-02-23T11:26:12Z</time>
      </trkpt>
      <trkpt lat="45.95809" lon="4.76946">
        <ele>189</ele>
        <time>2018-02-23T11:26:13Z</time>
      </trkpt>
      <trkpt lat="45.95811" lon="4.76938">
        <ele>189</ele>
        <time>2018-02-23T11:26:14Z</time>
      </trkpt>
      <trkpt lat="45.95812" lon="4.76931">
        <ele>189</ele>
        <time>2018-02-23T11:26:15Z</time>
      </trkpt>
      <trkpt lat="45.95814" lon="4.76924">
        <ele>189</ele>
        <time>2018-02-23T11:26:16Z</time>
      </trkpt>
      <trkpt lat="45.95815" lon="4.76916">
        <ele>189</ele>
        <time>2018-02-23T11:26:17Z</time>
      </trkpt>
      <trkpt lat="45.95817" lon="4.76908">
        <ele>189</ele>
        <time>2018-02-23T11:26:18Z</time>
      </trkpt>
      <trkpt lat="45.95817" lon="4.76899">
        <ele>189</ele>
        <time>2018-02-23T11:26:19Z</time>
      </trkpt>
      <trkpt lat="45.95819" lon="4.76891">
        <ele>189</ele>
        <time>2018-02-23T11:26:20Z</time>
      </trkpt>
      <trkpt lat="45.9582" lon="4.76883">
        <ele>189</ele>
        <time>2018-02-23T11:26:21Z</time>
      </trkpt>
      <trkpt lat="45.95822" lon="4.76875">
        <ele>189</ele>
        <time>2018-02-23T11:26:22Z</time>
      </trkpt>
      <trkpt lat="45.95824" lon="4.76868">
        <ele>189</ele>
        <time>2018-02-23T11:26:23Z</time>
      </trkpt>
      <trkpt lat="45.95825" lon="4.7686">
        <ele>189</ele>
        <time>2018-02-23T11:26:24Z</time>
      </trkpt>
      <trkpt lat="45.95827" lon="4.76853">
        <ele>190</ele>
        <time>2018-02-23T11:26:25Z</time>
      </trkpt>
      <trkpt lat="45.95828" lon="4.76846">
        <ele>190</ele>
        <time>2018-02-23T11:26:26Z</time>
      </trkpt>
      <trkpt lat="45.9583" lon="4.76838">
        <ele>190</ele>
        <time>2018-02-23T11:26:27Z</time>
      </trkpt>
      <trkpt lat="45.95831" lon="4.76831">
        <ele>190</ele>
        <time>2018-02-23T11:26:28Z</time>
      </trkpt>
      <trkpt lat="45.95832" lon="4.76824">
        <ele>190</ele>
        <time>2018-02-23T11:26:29Z</time>
      </trkpt>
      <trkpt lat="45.95833" lon="4.76817">
        <ele>190</ele>
        <time>2018-02-23T11:26:30Z</time>
      </trkpt>
      <trkpt lat="45.95834" lon="4.76811">
        <ele>190</ele>
        <time>2018-02-23T11:26:31Z</time>
      </trkpt>
      <trkpt lat="45.95835" lon="4.76803">
        <ele>191</ele>
        <time>2018-02-23T11:26:32Z</time>
      </trkpt>
      <trkpt lat="45.95835" lon="4.76795">
        <ele>191</ele>
        <time>2018-02-23T11:26:33Z</time>
      </trkpt>
      <trkpt lat="45.95835" lon="4.76789">
        <ele>191</ele>
        <time>2018-02-23T11:26:34Z</time>
      </trkpt>
      <trkpt lat="45.95834" lon="4.76782">
        <ele>191</ele>
        <time>2018-02-23T11:26:35Z</time>
      </trkpt>
      <trkpt lat="45.95832" lon="4.76775">
        <ele>190</ele>
        <time>2018-02-23T11:26:36Z</time>
      </trkpt>
      <trkpt lat="45.95829" lon="4.76769">
        <ele>190</ele>
        <time>2018-02-23T11:26:37Z</time>
      </trkpt>
      <trkpt lat="45.95828" lon="4.76761">
        <ele>190</ele>
        <time>2018-02-23T11:26:38Z</time>
      </trkpt>
      <trkpt lat="45.95826" lon="4.76753">
        <ele>191</ele>
        <time>2018-02-23T11:26:39Z</time>
      </trkpt>
      <trkpt lat="45.95825" lon="4.76746">
        <ele>190</ele>
        <time>2018-02-23T11:26:40Z</time>
      </trkpt>
      <trkpt lat="45.95824" lon="4.76737">
        <ele>190</ele>
        <time>2018-02-23T11:26:41Z</time>
      </trkpt>
      <trkpt lat="45.95824" lon="4.7673">
        <ele>190</ele>
        <time>2018-02-23T11:26:42Z</time>
      </trkpt>
      <trkpt lat="45.95823" lon="4.76722">
        <ele>190</ele>
        <time>2018-02-23T11:26:43Z</time>
      </trkpt>
      <trkpt lat="45.95822" lon="4.76714">
        <ele>189</ele>
        <time>2018-02-23T11:26:44Z</time>
      </trkpt>
      <trkpt lat="45.95821" lon="4.76706">
        <ele>189</ele>
        <time>2018-02-23T11:26:45Z</time>
      </trkpt>
      <trkpt lat="45.95821" lon="4.76699">
        <ele>189</ele>
        <time>2018-02-23T11:26:46Z</time>
      </trkpt>
      <trkpt lat="45.95819" lon="4.76692">
        <ele>189</ele>
        <time>2018-02-23T11:26:47Z</time>
      </trkpt>
      <trkpt lat="45.95818" lon="4.76685">
        <ele>189</ele>
        <time>2018-02-23T11:26:48Z</time>
      </trkpt>
      <trkpt lat="45.95817" lon="4.76679">
        <ele>189</ele>
        <time>2018-02-23T11:26:49Z</time>
      </trkpt>
      <trkpt lat="45.95816" lon="4.7667">
        <ele>189</ele>
        <time>2018-02-23T11:26:50Z</time>
      </trkpt>
      <trkpt lat="45.95813" lon="4.76664">
        <ele>188</ele>
        <time>2018-02-23T11:26:51Z</time>
      </trkpt>
      <trkpt lat="45.95812" lon="4.76655">
        <ele>188</ele>
        <time>2018-02-23T11:26:52Z</time>
      </trkpt>
      <trkpt lat="45.95811" lon="4.76647">
        <ele>188</ele>
        <time>2018-02-23T11:26:53Z</time>
      </trkpt>
      <trkpt lat="45.9581" lon="4.76639">
        <ele>188</ele>
        <time>2018-02-23T11:26:54Z</time>
      </trkpt>
      <trkpt lat="45.95809" lon="4.7663">
        <ele>188</ele>
        <time>2018-02-23T11:26:55Z</time>
      </trkpt>
      <trkpt lat="45.95807" lon="4.76622">
        <ele>188</ele>
        <time>2018-02-23T11:26:56Z</time>
      </trkpt>
      <trkpt lat="45.95806" lon="4.76613">
        <ele>188</ele>
        <time>2018-02-23T11:26:57Z</time>
      </trkpt>
      <trkpt lat="45.95806" lon="4.76605">
        <ele>188</ele>
        <time>2018-02-23T11:26:58Z</time>
      </trkpt>
      <trkpt lat="45.95804" lon="4.76597">
        <ele>188</ele>
        <time>2018-02-23T11:26:59Z</time>
      </trkpt>
      <trkpt lat="45.95803" lon="4.7659">
        <ele>187</ele>
        <time>2018-02-23T11:27:00Z</time>
      </trkpt>
      <trkpt lat="45.95801" lon="4.76583">
        <ele>187</ele>
        <time>2018-02-23T11:27:01Z</time>
      </trkpt>
      <trkpt lat="45.958" lon="4.76575">
        <ele>187</ele>
        <time>2018-02-23T11:27:02Z</time>
      </trkpt>
      <trkpt lat="45.95798" lon="4.76567">
        <ele>187</ele>
        <time>2018-02-23T11:27:03Z</time>
      </trkpt>
      <trkpt lat="45.95797" lon="4.76559">
        <ele>187</ele>
        <time>2018-02-23T11:27:04Z</time>
      </trkpt>
      <trkpt lat="45.95796" lon="4.76551">
        <ele>187</ele>
        <time>2018-02-23T11:27:05Z</time>
      </trkpt>
      <trkpt lat="45.95794" lon="4.76544">
        <ele>187</ele>
        <time>2018-02-23T11:27:06Z</time>
      </trkpt>
      <trkpt lat="45.95793" lon="4.76536">
        <ele>187</ele>
        <time>2018-02-23T11:27:07Z</time>
      </trkpt>
      <trkpt lat="45.95792" lon="4.76528">
        <ele>187</ele>
        <time>2018-02-23T11:27:08Z</time>
      </trkpt>
      <trkpt lat="45.95791" lon="4.76521">
        <ele>187</ele>
        <time>2018-02-23T11:27:09Z</time>
      </trkpt>
      <trkpt lat="45.9579" lon="4.76514">
        <ele>187</ele>
        <time>2018-02-23T11:27:10Z</time>
      </trkpt>
      <trkpt lat="45.9579" lon="4.76507">
        <ele>187</ele>
        <time>2018-02-23T11:27:11Z</time>
      </trkpt>
      <trkpt lat="45.95789" lon="4.765">
        <ele>186</ele>
        <time>2018-02-23T11:27:12Z</time>
      </trkpt>
      <trkpt lat="45.95787" lon="4.76492">
        <ele>186</ele>
        <time>2018-02-23T11:27:13Z</time>
      </trkpt>
      <trkpt lat="45.95786" lon="4.76484">
        <ele>186</ele>
        <time>2018-02-23T11:27:14Z</time>
      </trkpt>
      <trkpt lat="45.95786" lon="4.76477">
        <ele>186</ele>
        <time>2018-02-23T11:27:15Z</time>
      </trkpt>
      <trkpt lat="45.95785" lon="4.76469">
        <ele>186</ele>
        <time>2018-02-23T11:27:16Z</time>
      </trkpt>
      <trkpt lat="45.95783" lon="4.7646">
        <ele>186</ele>
        <time>2018-02-23T11:27:17Z</time>
      </trkpt>
      <trkpt lat="45.95782" lon="4.76452">
        <ele>186</ele>
        <time>2018-02-23T11:27:18Z</time>
      </trkpt>
      <trkpt lat="45.95781" lon="4.76444">
        <ele>186</ele>
        <time>2018-02-23T11:27:19Z</time>
      </trkpt>
      <trkpt lat="45.9578" lon="4.76436">
        <ele>186</ele>
        <time>2018-02-23T11:27:20Z</time>
      </trkpt>
      <trkpt lat="45.95779" lon="4.76428">
        <ele>186</ele>
        <time>2018-02-23T11:27:21Z</time>
      </trkpt>
      <trkpt lat="45.95778" lon="4.76419">
        <ele>186</ele>
        <time>2018-02-23T11:27:22Z</time>
      </trkpt>
      <trkpt lat="45.95777" lon="4.76411">
        <ele>186</ele>
        <time>2018-02-23T11:27:23Z</time>
      </trkpt>
      <trkpt lat="45.95777" lon="4.76402">
        <ele>186</ele>
        <time>2018-02-23T11:27:24Z</time>
      </trkpt>
      <trkpt lat="45.95776" lon="4.76394">
        <ele>186</ele>
        <time>2018-02-23T11:27:25Z</time>
      </trkpt>
      <trkpt lat="45.95775" lon="4.76385">
        <ele>186</ele>
        <time>2018-02-23T11:27:26Z</time>
      </trkpt>
      <trkpt lat="45.95775" lon="4.76376">
        <ele>186</ele>
        <time>2018-02-23T11:27:27Z</time>
      </trkpt>
      <trkpt lat="45.95774" lon="4.76368">
        <ele>186</ele>
        <time>2018-02-23T11:27:28Z</time>
      </trkpt>
      <trkpt lat="45.95774" lon="4.7636">
        <ele>186</ele>
        <time>2018-02-23T11:27:29Z</time>
      </trkpt>
      <trkpt lat="45.95773" lon="4.76351">
        <ele>186</ele>
        <time>2018-02-23T11:27:30Z</time>
      </trkpt>
      <trkpt lat="45.95772" lon="4.76343">
        <ele>186</ele>
        <time>2018-02-23T11:27:31Z</time>
      </trkpt>
      <trkpt lat="45.95772" lon="4.76334">
        <ele>186</ele>
        <time>2018-02-23T11:27:32Z</time>
      </trkpt>
      <trkpt lat="45.95771" lon="4.76325">
        <ele>185</ele>
        <time>2018-02-23T11:27:33Z</time>
      </trkpt>
      <trkpt lat="45.95771" lon="4.76316">
        <ele>185</ele>
        <time>2018-02-23T11:27:34Z</time>
      </trkpt>
      <trkpt lat="45.95771" lon="4.76308">
        <ele>186</ele>
        <time>2018-02-23T11:27:35Z</time>
      </trkpt>
      <trkpt lat="45.9577" lon="4.763">
        <ele>186</ele>
        <time>2018-02-23T11:27:36Z</time>
      </trkpt>
      <trkpt lat="45.9577" lon="4.76292">
        <ele>186</ele>
        <time>2018-02-23T11:27:37Z</time>
      </trkpt>
      <trkpt lat="45.95769" lon="4.76283">
        <ele>186</ele>
        <time>2018-02-23T11:27:38Z</time>
      </trkpt>
      <trkpt lat="45.9577" lon="4.76273">
        <ele>186</ele>
        <time>2018-02-23T11:27:39Z</time>
      </trkpt>
      <trkpt lat="45.9577" lon="4.76265">
        <ele>186</ele>
        <time>2018-02-23T11:27:40Z</time>
      </trkpt>
      <trkpt lat="45.95769" lon="4.76257">
        <ele>185</ele>
        <time>2018-02-23T11:27:41Z</time>
      </trkpt>
      <trkpt lat="45.95768" lon="4.76249">
        <ele>186</ele>
        <time>2018-02-23T11:27:42Z</time>
      </trkpt>
      <trkpt lat="45.95768" lon="4.76239">
        <ele>186</ele>
        <time>2018-02-23T11:27:43Z</time>
      </trkpt>
      <trkpt lat="45.95767" lon="4.76231">
        <ele>186</ele>
        <time>2018-02-23T11:27:44Z</time>
      </trkpt>
      <trkpt lat="45.95767" lon="4.76221">
        <ele>186</ele>
        <time>2018-02-23T11:27:45Z</time>
      </trkpt>
      <trkpt lat="45.95767" lon="4.76212">
        <ele>186</ele>
        <time>2018-02-23T11:27:46Z</time>
      </trkpt>
      <trkpt lat="45.95767" lon="4.76203">
        <ele>186</ele>
        <time>2018-02-23T11:27:47Z</time>
      </trkpt>
      <trkpt lat="45.95767" lon="4.76193">
        <ele>186</ele>
        <time>2018-02-23T11:27:48Z</time>
      </trkpt>
      <trkpt lat="45.95766" lon="4.76183">
        <ele>186</ele>
        <time>2018-02-23T11:27:49Z</time>
      </trkpt>
      <trkpt lat="45.95765" lon="4.76174">
        <ele>185</ele>
        <time>2018-02-23T11:27:50Z</time>
      </trkpt>
      <trkpt lat="45.95764" lon="4.76165">
        <ele>186</ele>
        <time>2018-02-23T11:27:51Z</time>
      </trkpt>
      <trkpt lat="45.95763" lon="4.76155">
        <ele>186</ele>
        <time>2018-02-23T11:27:52Z</time>
      </trkpt>
      <trkpt lat="45.95762" lon="4.76146">
        <ele>186</ele>
        <time>2018-02-23T11:27:53Z</time>
      </trkpt>
      <trkpt lat="45.95762" lon="4.76136">
        <ele>186</ele>
        <time>2018-02-23T11:27:54Z</time>
      </trkpt>
      <trkpt lat="45.95761" lon="4.76127">
        <ele>186</ele>
        <time>2018-02-23T11:27:55Z</time>
      </trkpt>
      <trkpt lat="45.9576" lon="4.76119">
        <ele>186</ele>
        <time>2018-02-23T11:27:56Z</time>
      </trkpt>
      <trkpt lat="45.95758" lon="4.7611">
        <ele>186</ele>
        <time>2018-02-23T11:27:57Z</time>
      </trkpt>
      <trkpt lat="45.95756" lon="4.76103">
        <ele>186</ele>
        <time>2018-02-23T11:27:58Z</time>
      </trkpt>
      <trkpt lat="45.95754" lon="4.76094">
        <ele>186</ele>
        <time>2018-02-23T11:27:59Z</time>
      </trkpt>
      <trkpt lat="45.95751" lon="4.76086">
        <ele>185</ele>
        <time>2018-02-23T11:28:00Z</time>
      </trkpt>
      <trkpt lat="45.95748" lon="4.76078">
        <ele>185</ele>
        <time>2018-02-23T11:28:01Z</time>
      </trkpt>
      <trkpt lat="45.95745" lon="4.7607">
        <ele>185</ele>
        <time>2018-02-23T11:28:02Z</time>
      </trkpt>
      <trkpt lat="45.95741" lon="4.76062">
        <ele>184</ele>
        <time>2018-02-23T11:28:03Z</time>
      </trkpt>
      <trkpt lat="45.95738" lon="4.76055">
        <ele>184</ele>
        <time>2018-02-23T11:28:04Z</time>
      </trkpt>
      <trkpt lat="45.95734" lon="4.76047">
        <ele>184</ele>
        <time>2018-02-23T11:28:05Z</time>
      </trkpt>
      <trkpt lat="45.95729" lon="4.76038">
        <ele>184</ele>
        <time>2018-02-23T11:28:06Z</time>
      </trkpt>
      <trkpt lat="45.95725" lon="4.76031">
        <ele>184</ele>
        <time>2018-02-23T11:28:07Z</time>
      </trkpt>
      <trkpt lat="45.95721" lon="4.76023">
        <ele>184</ele>
        <time>2018-02-23T11:28:08Z</time>
      </trkpt>
      <trkpt lat="45.95717" lon="4.76016">
        <ele>184</ele>
        <time>2018-02-23T11:28:09Z</time>
      </trkpt>
      <trkpt lat="45.95714" lon="4.76008">
        <ele>184</ele>
        <time>2018-02-23T11:28:10Z</time>
      </trkpt>
      <trkpt lat="45.9571" lon="4.76">
        <ele>185</ele>
        <time>2018-02-23T11:28:11Z</time>
      </trkpt>
      <trkpt lat="45.95707" lon="4.75992">
        <ele>185</ele>
        <time>2018-02-23T11:28:12Z</time>
      </trkpt>
      <trkpt lat="45.95704" lon="4.75983">
        <ele>185</ele>
        <time>2018-02-23T11:28:13Z</time>
      </trkpt>
      <trkpt lat="45.957" lon="4.75975">
        <ele>185</ele>
        <time>2018-02-23T11:28:14Z</time>
      </trkpt>
      <trkpt lat="45.95697" lon="4.75967">
        <ele>185</ele>
        <time>2018-02-23T11:28:15Z</time>
      </trkpt>
      <trkpt lat="45.95694" lon="4.7596">
        <ele>185</ele>
        <time>2018-02-23T11:28:16Z</time>
      </trkpt>
      <trkpt lat="45.95691" lon="4.75953">
        <ele>185</ele>
        <time>2018-02-23T11:28:17Z</time>
      </trkpt>
      <trkpt lat="45.95687" lon="4.75945">
        <ele>185</ele>
        <time>2018-02-23T11:28:18Z</time>
      </trkpt>
      <trkpt lat="45.95684" lon="4.75937">
        <ele>185</ele>
        <time>2018-02-23T11:28:19Z</time>
      </trkpt>
      <trkpt lat="45.95681" lon="4.75929">
        <ele>185</ele>
        <time>2018-02-23T11:28:20Z</time>
      </trkpt>
      <trkpt lat="45.95678" lon="4.75921">
        <ele>185</ele>
        <time>2018-02-23T11:28:21Z</time>
      </trkpt>
      <trkpt lat="45.95674" lon="4.75912">
        <ele>185</ele>
        <time>2018-02-23T11:28:22Z</time>
      </trkpt>
      <trkpt lat="45.95671" lon="4.75904">
        <ele>185</ele>
        <time>2018-02-23T11:28:23Z</time>
      </trkpt>
      <trkpt lat="45.95669" lon="4.75897">
        <ele>185</ele>
        <time>2018-02-23T11:28:24Z</time>
      </trkpt>
      <trkpt lat="45.95666" lon="4.75889">
        <ele>184</ele>
        <time>2018-02-23T11:28:25Z</time>
      </trkpt>
      <trkpt lat="45.95664" lon="4.75881">
        <ele>184</ele>
        <time>2018-02-23T11:28:26Z</time>
      </trkpt>
      <trkpt lat="45.9566" lon="4.75873">
        <ele>184</ele>
        <time>2018-02-23T11:28:27Z</time>
      </trkpt>
      <trkpt lat="45.95658" lon="4.75866">
        <ele>184</ele>
        <time>2018-02-23T11:28:28Z</time>
      </trkpt>
      <trkpt lat="45.95656" lon="4.75858">
        <ele>184</ele>
        <time>2018-02-23T11:28:29Z</time>
      </trkpt>
      <trkpt lat="45.95653" lon="4.7585">
        <ele>185</ele>
        <time>2018-02-23T11:28:30Z</time>
      </trkpt>
      <trkpt lat="45.95652" lon="4.75843">
        <ele>185</ele>
        <time>2018-02-23T11:28:31Z</time>
      </trkpt>
      <trkpt lat="45.9565" lon="4.75835">
        <ele>185</ele>
        <time>2018-02-23T11:28:32Z</time>
      </trkpt>
      <trkpt lat="45.95648" lon="4.75827">
        <ele>185</ele>
        <time>2018-02-23T11:28:33Z</time>
      </trkpt>
      <trkpt lat="45.95646" lon="4.75818">
        <ele>185</ele>
        <time>2018-02-23T11:28:34Z</time>
      </trkpt>
      <trkpt lat="45.95645" lon="4.75811">
        <ele>185</ele>
        <time>2018-02-23T11:28:35Z</time>
      </trkpt>
      <trkpt lat="45.95644" lon="4.75803">
        <ele>185</ele>
        <time>2018-02-23T11:28:36Z</time>
      </trkpt>
      <trkpt lat="45.95643" lon="4.75796">
        <ele>185</ele>
        <time>2018-02-23T11:28:37Z</time>
      </trkpt>
      <trkpt lat="45.95642" lon="4.75788">
        <ele>185</ele>
        <time>2018-02-23T11:28:38Z</time>
      </trkpt>
      <trkpt lat="45.9564" lon="4.75781">
        <ele>186</ele>
        <time>2018-02-23T11:28:39Z</time>
      </trkpt>
      <trkpt lat="45.95639" lon="4.75773">
        <ele>186</ele>
        <time>2018-02-23T11:28:40Z</time>
      </trkpt>
      <trkpt lat="45.95638" lon="4.75765">
        <ele>186</ele>
        <time>2018-02-23T11:28:41Z</time>
      </trkpt>
      <trkpt lat="45.95637" lon="4.75757">
        <ele>186</ele>
        <time>2018-02-23T11:28:42Z</time>
      </trkpt>
      <trkpt lat="45.95636" lon="4.7575">
        <ele>186</ele>
        <time>2018-02-23T11:28:43Z</time>
      </trkpt>
      <trkpt lat="45.95634" lon="4.75744">
        <ele>187</ele>
        <time>2018-02-23T11:28:44Z</time>
      </trkpt>
      <trkpt lat="45.95634" lon="4.75736">
        <ele>187</ele>
        <time>2018-02-23T11:28:45Z</time>
      </trkpt>
      <trkpt lat="45.95632" lon="4.7573">
        <ele>187</ele>
        <time>2018-02-23T11:28:46Z</time>
      </trkpt>
      <trkpt lat="45.95631" lon="4.75722">
        <ele>187</ele>
        <time>2018-02-23T11:28:47Z</time>
      </trkpt>
      <trkpt lat="45.95631" lon="4.75714">
        <ele>187</ele>
        <time>2018-02-23T11:28:48Z</time>
      </trkpt>
      <trkpt lat="45.95629" lon="4.75706">
        <ele>187</ele>
        <time>2018-02-23T11:28:49Z</time>
      </trkpt>
      <trkpt lat="45.95628" lon="4.757">
        <ele>187</ele>
        <time>2018-02-23T11:28:50Z</time>
      </trkpt>
      <trkpt lat="45.95627" lon="4.75693">
        <ele>187</ele>
        <time>2018-02-23T11:28:51Z</time>
      </trkpt>
      <trkpt lat="45.95626" lon="4.75685">
        <ele>187</ele>
        <time>2018-02-23T11:28:52Z</time>
      </trkpt>
      <trkpt lat="45.95625" lon="4.75678">
        <ele>187</ele>
        <time>2018-02-23T11:28:53Z</time>
      </trkpt>
      <trkpt lat="45.95624" lon="4.7567">
        <ele>187</ele>
        <time>2018-02-23T11:28:54Z</time>
      </trkpt>
      <trkpt lat="45.95622" lon="4.75663">
        <ele>188</ele>
        <time>2018-02-23T11:28:55Z</time>
      </trkpt>
      <trkpt lat="45.9562" lon="4.75655">
        <ele>188</ele>
        <time>2018-02-23T11:28:56Z</time>
      </trkpt>
      <trkpt lat="45.95619" lon="4.75648">
        <ele>188</ele>
        <time>2018-02-23T11:28:57Z</time>
      </trkpt>
      <trkpt lat="45.95617" lon="4.7564">
        <ele>188</ele>
        <time>2018-02-23T11:28:58Z</time>
      </trkpt>
      <trkpt lat="45.95615" lon="4.75633">
        <ele>188</ele>
        <time>2018-02-23T11:28:59Z</time>
      </trkpt>
      <trkpt lat="45.95613" lon="4.75626">
        <ele>188</ele>
        <time>2018-02-23T11:29:00Z</time>
      </trkpt>
      <trkpt lat="45.95611" lon="4.75619">
        <ele>188</ele>
        <time>2018-02-23T11:29:01Z</time>
      </trkpt>
      <trkpt lat="45.95609" lon="4.75612">
        <ele>188</ele>
        <time>2018-02-23T11:29:02Z</time>
      </trkpt>
      <trkpt lat="45.95607" lon="4.75605">
        <ele>187</ele>
        <time>2018-02-23T11:29:03Z</time>
      </trkpt>
      <trkpt lat="45.95603" lon="4.75598">
        <ele>187</ele>
        <time>2018-02-23T11:29:04Z</time>
      </trkpt>
      <trkpt lat="45.956" lon="4.7559">
        <ele>187</ele>
        <time>2018-02-23T11:29:05Z</time>
      </trkpt>
      <trkpt lat="45.95596" lon="4.75584">
        <ele>187</ele>
        <time>2018-02-23T11:29:06Z</time>
      </trkpt>
      <trkpt lat="45.95593" lon="4.75577">
        <ele>187</ele>
        <time>2018-02-23T11:29:07Z</time>
      </trkpt>
      <trkpt lat="45.9559" lon="4.7557">
        <ele>188</ele>
        <time>2018-02-23T11:29:08Z</time>
      </trkpt>
      <trkpt lat="45.95587" lon="4.75564">
        <ele>188</ele>
        <time>2018-02-23T11:29:09Z</time>
      </trkpt>
      <trkpt lat="45.95583" lon="4.75558">
        <ele>186</ele>
        <time>2018-02-23T11:29:10Z</time>
      </trkpt>
      <trkpt lat="45.95579" lon="4.75552">
        <ele>186</ele>
        <time>2018-02-23T11:29:11Z</time>
      </trkpt>
      <trkpt lat="45.95575" lon="4.75547">
        <ele>186</ele>
        <time>2018-02-23T11:29:12Z</time>
      </trkpt>
      <trkpt lat="45.95571" lon="4.75542">
        <ele>186</ele>
        <time>2018-02-23T11:29:13Z</time>
      </trkpt>
      <trkpt lat="45.95566" lon="4.75537">
        <ele>186</ele>
        <time>2018-02-23T11:29:14Z</time>
      </trkpt>
      <trkpt lat="45.95562" lon="4.75532">
        <ele>186</ele>
        <time>2018-02-23T11:29:15Z</time>
      </trkpt>
      <trkpt lat="45.95556" lon="4.75526">
        <ele>186</ele>
        <time>2018-02-23T11:29:16Z</time>
      </trkpt>
      <trkpt lat="45.95552" lon="4.75521">
        <ele>186</ele>
        <time>2018-02-23T11:29:17Z</time>
      </trkpt>
      <trkpt lat="45.95548" lon="4.75516">
        <ele>186</ele>
        <time>2018-02-23T11:29:18Z</time>
      </trkpt>
      <trkpt lat="45.95543" lon="4.7551">
        <ele>186</ele>
        <time>2018-02-23T11:29:19Z</time>
      </trkpt>
      <trkpt lat="45.95539" lon="4.75504">
        <ele>186</ele>
        <time>2018-02-23T11:29:20Z</time>
      </trkpt>
      <trkpt lat="45.95536" lon="4.75496">
        <ele>187</ele>
        <time>2018-02-23T11:29:21Z</time>
      </trkpt>
      <trkpt lat="45.95535" lon="4.75489">
        <ele>187</ele>
        <time>2018-02-23T11:29:22Z</time>
      </trkpt>
      <trkpt lat="45.95535" lon="4.7548">
        <ele>187</ele>
        <time>2018-02-23T11:29:23Z</time>
      </trkpt>
      <trkpt lat="45.95534" lon="4.75473">
        <ele>187</ele>
        <time>2018-02-23T11:29:24Z</time>
      </trkpt>
      <trkpt lat="45.95533" lon="4.75466">
        <ele>187</ele>
        <time>2018-02-23T11:29:25Z</time>
      </trkpt>
      <trkpt lat="45.9553" lon="4.7546">
        <ele>187</ele>
        <time>2018-02-23T11:29:26Z</time>
      </trkpt>
      <trkpt lat="45.95526" lon="4.75454">
        <ele>187</ele>
        <time>2018-02-23T11:29:27Z</time>
      </trkpt>
      <trkpt lat="45.95522" lon="4.75448">
        <ele>187</ele>
        <time>2018-02-23T11:29:28Z</time>
      </trkpt>
      <trkpt lat="45.95518" lon="4.75441">
        <ele>187</ele>
        <time>2018-02-23T11:29:29Z</time>
      </trkpt>
      <trkpt lat="45.95514" lon="4.75433">
        <ele>186</ele>
        <time>2018-02-23T11:29:30Z</time>
      </trkpt>
      <trkpt lat="45.95511" lon="4.75426">
        <ele>186</ele>
        <time>2018-02-23T11:29:31Z</time>
      </trkpt>
      <trkpt lat="45.95508" lon="4.75418">
        <ele>186</ele>
        <time>2018-02-23T11:29:32Z</time>
      </trkpt>
      <trkpt lat="45.95506" lon="4.75411">
        <ele>186</ele>
        <time>2018-02-23T11:29:33Z</time>
      </trkpt>
      <trkpt lat="45.95504" lon="4.75403">
        <ele>187</ele>
        <time>2018-02-23T11:29:34Z</time>
      </trkpt>
      <trkpt lat="45.95502" lon="4.75397">
        <ele>187</ele>
        <time>2018-02-23T11:29:35Z</time>
      </trkpt>
      <trkpt lat="45.95499" lon="4.75389">
        <ele>185</ele>
        <time>2018-02-23T11:29:36Z</time>
      </trkpt>
      <trkpt lat="45.95496" lon="4.75382">
        <ele>185</ele>
        <time>2018-02-23T11:29:37Z</time>
      </trkpt>
      <trkpt lat="45.95492" lon="4.75376">
        <ele>185</ele>
        <time>2018-02-23T11:29:38Z</time>
      </trkpt>
      <trkpt lat="45.95489" lon="4.75369">
        <ele>186</ele>
        <time>2018-02-23T11:29:39Z</time>
      </trkpt>
      <trkpt lat="45.95486" lon="4.75362">
        <ele>186</ele>
        <time>2018-02-23T11:29:40Z</time>
      </trkpt>
      <trkpt lat="45.95483" lon="4.75355">
        <ele>186</ele>
        <time>2018-02-23T11:29:41Z</time>
      </trkpt>
      <trkpt lat="45.9548" lon="4.75348">
        <ele>186</ele>
        <time>2018-02-23T11:29:42Z</time>
      </trkpt>
      <trkpt lat="45.95477" lon="4.75342">
        <ele>186</ele>
        <time>2018-02-23T11:29:43Z</time>
      </trkpt>
      <trkpt lat="45.95474" lon="4.75335">
        <ele>186</ele>
        <time>2018-02-23T11:29:44Z</time>
      </trkpt>
      <trkpt lat="45.95471" lon="4.7533">
        <ele>188</ele>
        <time>2018-02-23T11:29:45Z</time>
      </trkpt>
      <trkpt lat="45.95467" lon="4.75324">
        <ele>188</ele>
        <time>2018-02-23T11:29:46Z</time>
      </trkpt>
      <trkpt lat="45.95465" lon="4.75318">
        <ele>188</ele>
        <time>2018-02-23T11:29:47Z</time>
      </trkpt>
      <trkpt lat="45.95462" lon="4.75312">
        <ele>188</ele>
        <time>2018-02-23T11:29:48Z</time>
      </trkpt>
      <trkpt lat="45.95459" lon="4.75307">
        <ele>188</ele>
        <time>2018-02-23T11:29:49Z</time>
      </trkpt>
      <trkpt lat="45.95456" lon="4.75302">
        <ele>188</ele>
        <time>2018-02-23T11:29:50Z</time>
      </trkpt>
      <trkpt lat="45.95453" lon="4.75296">
        <ele>188</ele>
        <time>2018-02-23T11:29:51Z</time>
      </trkpt>
      <trkpt lat="45.95451" lon="4.7529">
        <ele>188</ele>
        <time>2018-02-23T11:29:52Z</time>
      </trkpt>
      <trkpt lat="45.95448" lon="4.75285">
        <ele>188</ele>
        <time>2018-02-23T11:29:53Z</time>
      </trkpt>
      <trkpt lat="45.95445" lon="4.75279">
        <ele>189</ele>
        <time>2018-02-23T11:29:54Z</time>
      </trkpt>
      <trkpt lat="45.95441" lon="4.75274">
        <ele>189</ele>
        <time>2018-02-23T11:29:55Z</time>
      </trkpt>
      <trkpt lat="45.95439" lon="4.75268">
        <ele>189</ele>
        <time>2018-02-23T11:29:56Z</time>
      </trkpt>
      <trkpt lat="45.95436" lon="4.75263">
        <ele>189</ele>
        <time>2018-02-23T11:29:57Z</time>
      </trkpt>
      <trkpt lat="45.95431" lon="4.75252">
        <ele>189</ele>
        <time>2018-02-23T11:29:59Z</time>
      </trkpt>
      <trkpt lat="45.95427" lon="4.75247">
        <ele>190</ele>
        <time>2018-02-23T11:30:00Z</time>
      </trkpt>
      <trkpt lat="45.95425" lon="4.75242">
        <ele>190</ele>
        <time>2018-02-23T11:30:01Z</time>
      </trkpt>
      <trkpt lat="45.95421" lon="4.75236">
        <ele>190</ele>
        <time>2018-02-23T11:30:02Z</time>
      </trkpt>
      <trkpt lat="45.95418" lon="4.7523">
        <ele>190</ele>
        <time>2018-02-23T11:30:03Z</time>
      </trkpt>
      <trkpt lat="45.95415" lon="4.75223">
        <ele>189</ele>
        <time>2018-02-23T11:30:04Z</time>
      </trkpt>
      <trkpt lat="45.95412" lon="4.75217">
        <ele>189</ele>
        <time>2018-02-23T11:30:05Z</time>
      </trkpt>
      <trkpt lat="45.95409" lon="4.75212">
        <ele>189</ele>
        <time>2018-02-23T11:30:06Z</time>
      </trkpt>
      <trkpt lat="45.95406" lon="4.75205">
        <ele>189</ele>
        <time>2018-02-23T11:30:07Z</time>
      </trkpt>
      <trkpt lat="45.95403" lon="4.752">
        <ele>189</ele>
        <time>2018-02-23T11:30:08Z</time>
      </trkpt>
      <trkpt lat="45.95399" lon="4.75194">
        <ele>189</ele>
        <time>2018-02-23T11:30:09Z</time>
      </trkpt>
      <trkpt lat="45.95397" lon="4.75189">
        <ele>189</ele>
        <time>2018-02-23T11:30:10Z</time>
      </trkpt>
      <trkpt lat="45.95394" lon="4.75183">
        <ele>189</ele>
        <time>2018-02-23T11:30:11Z</time>
      </trkpt>
      <trkpt lat="45.95391" lon="4.75177">
        <ele>189</ele>
        <time>2018-02-23T11:30:12Z</time>
      </trkpt>
      <trkpt lat="45.95388" lon="4.75172">
        <ele>189</ele>
        <time>2018-02-23T11:30:13Z</time>
      </trkpt>
      <trkpt lat="45.95385" lon="4.75166">
        <ele>191</ele>
        <time>2018-02-23T11:30:14Z</time>
      </trkpt>
      <trkpt lat="45.95381" lon="4.7516">
        <ele>191</ele>
        <time>2018-02-23T11:30:15Z</time>
      </trkpt>
      <trkpt lat="45.95378" lon="4.75155">
        <ele>191</ele>
        <time>2018-02-23T11:30:16Z</time>
      </trkpt>
      <trkpt lat="45.95374" lon="4.7515">
        <ele>191</ele>
        <time>2018-02-23T11:30:17Z</time>
      </trkpt>
      <trkpt lat="45.95371" lon="4.75144">
        <ele>191</ele>
        <time>2018-02-23T11:30:18Z</time>
      </trkpt>
      <trkpt lat="45.95368" lon="4.75139">
        <ele>191</ele>
        <time>2018-02-23T11:30:19Z</time>
      </trkpt>
      <trkpt lat="45.95364" lon="4.75134">
        <ele>191</ele>
        <time>2018-02-23T11:30:20Z</time>
      </trkpt>
      <trkpt lat="45.95361" lon="4.75128">
        <ele>191</ele>
        <time>2018-02-23T11:30:21Z</time>
      </trkpt>
      <trkpt lat="45.95357" lon="4.75123">
        <ele>191</ele>
        <time>2018-02-23T11:30:22Z</time>
      </trkpt>
      <trkpt lat="45.95354" lon="4.75118">
        <ele>192</ele>
        <time>2018-02-23T11:30:23Z</time>
      </trkpt>
      <trkpt lat="45.95351" lon="4.75112">
        <ele>192</ele>
        <time>2018-02-23T11:30:24Z</time>
      </trkpt>
      <trkpt lat="45.95348" lon="4.75106">
        <ele>192</ele>
        <time>2018-02-23T11:30:25Z</time>
      </trkpt>
      <trkpt lat="45.95345" lon="4.75101">
        <ele>192</ele>
        <time>2018-02-23T11:30:26Z</time>
      </trkpt>
      <trkpt lat="45.95342" lon="4.75097">
        <ele>192</ele>
        <time>2018-02-23T11:30:27Z</time>
      </trkpt>
      <trkpt lat="45.95339" lon="4.75092">
        <ele>192</ele>
        <time>2018-02-23T11:30:28Z</time>
      </trkpt>
      <trkpt lat="45.95335" lon="4.75086">
        <ele>193</ele>
        <time>2018-02-23T11:30:29Z</time>
      </trkpt>
      <trkpt lat="45.95332" lon="4.7508">
        <ele>193</ele>
        <time>2018-02-23T11:30:30Z</time>
      </trkpt>
      <trkpt lat="45.95328" lon="4.75076">
        <ele>192</ele>
        <time>2018-02-23T11:30:31Z</time>
      </trkpt>
      <trkpt lat="45.95324" lon="4.7507">
        <ele>192</ele>
        <time>2018-02-23T11:30:32Z</time>
      </trkpt>
      <trkpt lat="45.9532" lon="4.75064">
        <ele>192</ele>
        <time>2018-02-23T11:30:33Z</time>
      </trkpt>
      <trkpt lat="45.95316" lon="4.75058">
        <ele>192</ele>
        <time>2018-02-23T11:30:34Z</time>
      </trkpt>
      <trkpt lat="45.95311" lon="4.75053">
        <ele>192</ele>
        <time>2018-02-23T11:30:35Z</time>
      </trkpt>
      <trkpt lat="45.95308" lon="4.75047">
        <ele>192</ele>
        <time>2018-02-23T11:30:36Z</time>
      </trkpt>
      <trkpt lat="45.95304" lon="4.75042">
        <ele>192</ele>
        <time>2018-02-23T11:30:37Z</time>
      </trkpt>
      <trkpt lat="45.95301" lon="4.75037">
        <ele>191</ele>
        <time>2018-02-23T11:30:38Z</time>
      </trkpt>
      <trkpt lat="45.95298" lon="4.75032">
        <ele>191</ele>
        <time>2018-02-23T11:30:39Z</time>
      </trkpt>
      <trkpt lat="45.95293" lon="4.75026">
        <ele>191</ele>
        <time>2018-02-23T11:30:40Z</time>
      </trkpt>
      <trkpt lat="45.95291" lon="4.75021">
        <ele>191</ele>
        <time>2018-02-23T11:30:41Z</time>
      </trkpt>
      <trkpt lat="45.95288" lon="4.75015">
        <ele>191</ele>
        <time>2018-02-23T11:30:42Z</time>
      </trkpt>
      <trkpt lat="45.95284" lon="4.7501">
        <ele>191</ele>
        <time>2018-02-23T11:30:43Z</time>
      </trkpt>
      <trkpt lat="45.9528" lon="4.75005">
        <ele>191</ele>
        <time>2018-02-23T11:30:44Z</time>
      </trkpt>
      <trkpt lat="45.95277" lon="4.74999">
        <ele>192</ele>
        <time>2018-02-23T11:30:45Z</time>
      </trkpt>
      <trkpt lat="45.95272" lon="4.74994">
        <ele>192</ele>
        <time>2018-02-23T11:30:46Z</time>
      </trkpt>
      <trkpt lat="45.95269" lon="4.74988">
        <ele>192</ele>
        <time>2018-02-23T11:30:47Z</time>
      </trkpt>
      <trkpt lat="45.95266" lon="4.74982">
        <ele>192</ele>
        <time>2018-02-23T11:30:48Z</time>
      </trkpt>
      <trkpt lat="45.95263" lon="4.74976">
        <ele>192</ele>
        <time>2018-02-23T11:30:49Z</time>
      </trkpt>
      <trkpt lat="45.9526" lon="4.74971">
        <ele>192</ele>
        <time>2018-02-23T11:30:50Z</time>
      </trkpt>
      <trkpt lat="45.95257" lon="4.74966">
        <ele>192</ele>
        <time>2018-02-23T11:30:51Z</time>
      </trkpt>
      <trkpt lat="45.95253" lon="4.74959">
        <ele>192</ele>
        <time>2018-02-23T11:30:52Z</time>
      </trkpt>
      <trkpt lat="45.9525" lon="4.74953">
        <ele>192</ele>
        <time>2018-02-23T11:30:53Z</time>
      </trkpt>
      <trkpt lat="45.95247" lon="4.74948">
        <ele>192</ele>
        <time>2018-02-23T11:30:54Z</time>
      </trkpt>
      <trkpt lat="45.95242" lon="4.74943">
        <ele>192</ele>
        <time>2018-02-23T11:30:55Z</time>
      </trkpt>
      <trkpt lat="45.95238" lon="4.74937">
        <ele>192</ele>
        <time>2018-02-23T11:30:56Z</time>
      </trkpt>
      <trkpt lat="45.95235" lon="4.74932">
        <ele>192</ele>
        <time>2018-02-23T11:30:57Z</time>
      </trkpt>
      <trkpt lat="45.95232" lon="4.74926">
        <ele>192</ele>
        <time>2018-02-23T11:30:58Z</time>
      </trkpt>
      <trkpt lat="45.95228" lon="4.74921">
        <ele>192</ele>
        <time>2018-02-23T11:30:59Z</time>
      </trkpt>
      <trkpt lat="45.95225" lon="4.74915">
        <ele>193</ele>
        <time>2018-02-23T11:31:00Z</time>
      </trkpt>
      <trkpt lat="45.95221" lon="4.74909">
        <ele>193</ele>
        <time>2018-02-23T11:31:01Z</time>
      </trkpt>
      <trkpt lat="45.95217" lon="4.74904">
        <ele>193</ele>
        <time>2018-02-23T11:31:02Z</time>
      </trkpt>
      <trkpt lat="45.95213" lon="4.74898">
        <ele>193</ele>
        <time>2018-02-23T11:31:03Z</time>
      </trkpt>
      <trkpt lat="45.95208" lon="4.74892">
        <ele>194</ele>
        <time>2018-02-23T11:31:04Z</time>
      </trkpt>
      <trkpt lat="45.95204" lon="4.74886">
        <ele>194</ele>
        <time>2018-02-23T11:31:05Z</time>
      </trkpt>
      <trkpt lat="45.95201" lon="4.7488">
        <ele>194</ele>
        <time>2018-02-23T11:31:06Z</time>
      </trkpt>
      <trkpt lat="45.95197" lon="4.74874">
        <ele>194</ele>
        <time>2018-02-23T11:31:07Z</time>
      </trkpt>
      <trkpt lat="45.95193" lon="4.74868">
        <ele>194</ele>
        <time>2018-02-23T11:31:08Z</time>
      </trkpt>
      <trkpt lat="45.95189" lon="4.74862">
        <ele>194</ele>
        <time>2018-02-23T11:31:09Z</time>
      </trkpt>
      <trkpt lat="45.95186" lon="4.74856">
        <ele>194</ele>
        <time>2018-02-23T11:31:10Z</time>
      </trkpt>
      <trkpt lat="45.95182" lon="4.7485">
        <ele>194</ele>
        <time>2018-02-23T11:31:11Z</time>
      </trkpt>
      <trkpt lat="45.95178" lon="4.74843">
        <ele>194</ele>
        <time>2018-02-23T11:31:12Z</time>
      </trkpt>
      <trkpt lat="45.95174" lon="4.74836">
        <ele>194</ele>
        <time>2018-02-23T11:31:13Z</time>
      </trkpt>
      <trkpt lat="45.95171" lon="4.74829">
        <ele>194</ele>
        <time>2018-02-23T11:31:14Z</time>
      </trkpt>
      <trkpt lat="45.95167" lon="4.74823">
        <ele>194</ele>
        <time>2018-02-23T11:31:15Z</time>
      </trkpt>
      <trkpt lat="45.95163" lon="4.74817">
        <ele>194</ele>
        <time>2018-02-23T11:31:16Z</time>
      </trkpt>
      <trkpt lat="45.95159" lon="4.74812">
        <ele>194</ele>
        <time>2018-02-23T11:31:17Z</time>
      </trkpt>
      <trkpt lat="45.95155" lon="4.74806">
        <ele>194</ele>
        <time>2018-02-23T11:31:18Z</time>
      </trkpt>
      <trkpt lat="45.95152" lon="4.74799">
        <ele>194</ele>
        <time>2018-02-23T11:31:19Z</time>
      </trkpt>
      <trkpt lat="45.95149" lon="4.74793">
        <ele>194</ele>
        <time>2018-02-23T11:31:20Z</time>
      </trkpt>
      <trkpt lat="45.95146" lon="4.74787">
        <ele>194</ele>
        <time>2018-02-23T11:31:21Z</time>
      </trkpt>
      <trkpt lat="45.95143" lon="4.74781">
        <ele>194</ele>
        <time>2018-02-23T11:31:22Z</time>
      </trkpt>
      <trkpt lat="45.9514" lon="4.74775">
        <ele>194</ele>
        <time>2018-02-23T11:31:23Z</time>
      </trkpt>
      <trkpt lat="45.95136" lon="4.74769">
        <ele>194</ele>
        <time>2018-02-23T11:31:24Z</time>
      </trkpt>
      <trkpt lat="45.95132" lon="4.74763">
        <ele>194</ele>
        <time>2018-02-23T11:31:25Z</time>
      </trkpt>
      <trkpt lat="45.95128" lon="4.74758">
        <ele>194</ele>
        <time>2018-02-23T11:31:26Z</time>
      </trkpt>
      <trkpt lat="45.95123" lon="4.74752">
        <ele>194</ele>
        <time>2018-02-23T11:31:27Z</time>
      </trkpt>
      <trkpt lat="45.9512" lon="4.74746">
        <ele>194</ele>
        <time>2018-02-23T11:31:28Z</time>
      </trkpt>
      <trkpt lat="45.95117" lon="4.7474">
        <ele>194</ele>
        <time>2018-02-23T11:31:29Z</time>
      </trkpt>
      <trkpt lat="45.95112" lon="4.74733">
        <ele>194</ele>
        <time>2018-02-23T11:31:30Z</time>
      </trkpt>
      <trkpt lat="45.95109" lon="4.74726">
        <ele>194</ele>
        <time>2018-02-23T11:31:31Z</time>
      </trkpt>
      <trkpt lat="45.95104" lon="4.7472">
        <ele>194</ele>
        <time>2018-02-23T11:31:32Z</time>
      </trkpt>
      <trkpt lat="45.95101" lon="4.74713">
        <ele>194</ele>
        <time>2018-02-23T11:31:33Z</time>
      </trkpt>
      <trkpt lat="45.95097" lon="4.74707">
        <ele>194</ele>
        <time>2018-02-23T11:31:34Z</time>
      </trkpt>
      <trkpt lat="45.95093" lon="4.747">
        <ele>194</ele>
        <time>2018-02-23T11:31:35Z</time>
      </trkpt>
      <trkpt lat="45.95088" lon="4.74695">
        <ele>194</ele>
        <time>2018-02-23T11:31:36Z</time>
      </trkpt>
      <trkpt lat="45.95083" lon="4.74688">
        <ele>194</ele>
        <time>2018-02-23T11:31:37Z</time>
      </trkpt>
      <trkpt lat="45.95079" lon="4.74681">
        <ele>194</ele>
        <time>2018-02-23T11:31:38Z</time>
      </trkpt>
      <trkpt lat="45.95074" lon="4.74674">
        <ele>194</ele>
        <time>2018-02-23T11:31:39Z</time>
      </trkpt>
      <trkpt lat="45.95071" lon="4.74667">
        <ele>194</ele>
        <time>2018-02-23T11:31:40Z</time>
      </trkpt>
      <trkpt lat="45.95067" lon="4.7466">
        <ele>195</ele>
        <time>2018-02-23T11:31:41Z</time>
      </trkpt>
      <trkpt lat="45.95063" lon="4.74653">
        <ele>195</ele>
        <time>2018-02-23T11:31:42Z</time>
      </trkpt>
      <trkpt lat="45.9506" lon="4.74647">
        <ele>194</ele>
        <time>2018-02-23T11:31:43Z</time>
      </trkpt>
      <trkpt lat="45.95055" lon="4.7464">
        <ele>194</ele>
        <time>2018-02-23T11:31:44Z</time>
      </trkpt>
      <trkpt lat="45.95051" lon="4.74633">
        <ele>194</ele>
        <time>2018-02-23T11:31:45Z</time>
      </trkpt>
      <trkpt lat="45.95048" lon="4.74627">
        <ele>194</ele>
        <time>2018-02-23T11:31:46Z</time>
      </trkpt>
      <trkpt lat="45.95045" lon="4.7462">
        <ele>194</ele>
        <time>2018-02-23T11:31:47Z</time>
      </trkpt>
      <trkpt lat="45.95041" lon="4.74612">
        <ele>194</ele>
        <time>2018-02-23T11:31:48Z</time>
      </trkpt>
      <trkpt lat="45.95037" lon="4.74605">
        <ele>194</ele>
        <time>2018-02-23T11:31:49Z</time>
      </trkpt>
      <trkpt lat="45.95034" lon="4.74597">
        <ele>194</ele>
        <time>2018-02-23T11:31:50Z</time>
      </trkpt>
      <trkpt lat="45.9503" lon="4.74589">
        <ele>194</ele>
        <time>2018-02-23T11:31:51Z</time>
      </trkpt>
      <trkpt lat="45.95026" lon="4.74583">
        <ele>194</ele>
        <time>2018-02-23T11:31:52Z</time>
      </trkpt>
      <trkpt lat="45.95022" lon="4.74575">
        <ele>194</ele>
        <time>2018-02-23T11:31:53Z</time>
      </trkpt>
      <trkpt lat="45.95016" lon="4.74568">
        <ele>194</ele>
        <time>2018-02-23T11:31:54Z</time>
      </trkpt>
      <trkpt lat="45.95012" lon="4.7456">
        <ele>194</ele>
        <time>2018-02-23T11:31:55Z</time>
      </trkpt>
      <trkpt lat="45.95008" lon="4.74552">
        <ele>194</ele>
        <time>2018-02-23T11:31:56Z</time>
      </trkpt>
      <trkpt lat="45.95005" lon="4.74544">
        <ele>194</ele>
        <time>2018-02-23T11:31:57Z</time>
      </trkpt>
      <trkpt lat="45.95001" lon="4.74536">
        <ele>194</ele>
        <time>2018-02-23T11:31:58Z</time>
      </trkpt>
      <trkpt lat="45.94997" lon="4.74529">
        <ele>193</ele>
        <time>2018-02-23T11:31:59Z</time>
      </trkpt>
      <trkpt lat="45.94992" lon="4.74521">
        <ele>193</ele>
        <time>2018-02-23T11:32:00Z</time>
      </trkpt>
      <trkpt lat="45.94987" lon="4.74512">
        <ele>193</ele>
        <time>2018-02-23T11:32:01Z</time>
      </trkpt>
      <trkpt lat="45.94983" lon="4.74504">
        <ele>193</ele>
        <time>2018-02-23T11:32:02Z</time>
      </trkpt>
      <trkpt lat="45.94979" lon="4.74496">
        <ele>193</ele>
        <time>2018-02-23T11:32:03Z</time>
      </trkpt>
      <trkpt lat="45.94974" lon="4.74488">
        <ele>193</ele>
        <time>2018-02-23T11:32:04Z</time>
      </trkpt>
      <trkpt lat="45.9497" lon="4.7448">
        <ele>193</ele>
        <time>2018-02-23T11:32:05Z</time>
      </trkpt>
      <trkpt lat="45.94965" lon="4.74471">
        <ele>193</ele>
        <time>2018-02-23T11:32:06Z</time>
      </trkpt>
      <trkpt lat="45.94961" lon="4.74462">
        <ele>193</ele>
        <time>2018-02-23T11:32:07Z</time>
      </trkpt>
      <trkpt lat="45.94955" lon="4.74454">
        <ele>192</ele>
        <time>2018-02-23T11:32:08Z</time>
      </trkpt>
      <trkpt lat="45.94951" lon="4.74445">
        <ele>192</ele>
        <time>2018-02-23T11:32:09Z</time>
      </trkpt>
      <trkpt lat="45.94947" lon="4.74437">
        <ele>192</ele>
        <time>2018-02-23T11:32:10Z</time>
      </trkpt>
      <trkpt lat="45.94942" lon="4.74428">
        <ele>192</ele>
        <time>2018-02-23T11:32:11Z</time>
      </trkpt>
      <trkpt lat="45.94938" lon="4.74419">
        <ele>192</ele>
        <time>2018-02-23T11:32:12Z</time>
      </trkpt>
      <trkpt lat="45.94934" lon="4.7441">
        <ele>192</ele>
        <time>2018-02-23T11:32:13Z</time>
      </trkpt>
      <trkpt lat="45.94929" lon="4.74402">
        <ele>192</ele>
        <time>2018-02-23T11:32:14Z</time>
      </trkpt>
      <trkpt lat="45.94925" lon="4.74393">
        <ele>192</ele>
        <time>2018-02-23T11:32:15Z</time>
      </trkpt>
      <trkpt lat="45.9492" lon="4.74384">
        <ele>192</ele>
        <time>2018-02-23T11:32:16Z</time>
      </trkpt>
      <trkpt lat="45.94915" lon="4.74376">
        <ele>191</ele>
        <time>2018-02-23T11:32:17Z</time>
      </trkpt>
      <trkpt lat="45.94911" lon="4.74368">
        <ele>191</ele>
        <time>2018-02-23T11:32:18Z</time>
      </trkpt>
      <trkpt lat="45.94906" lon="4.7436">
        <ele>191</ele>
        <time>2018-02-23T11:32:19Z</time>
      </trkpt>
      <trkpt lat="45.94902" lon="4.74352">
        <ele>191</ele>
        <time>2018-02-23T11:32:20Z</time>
      </trkpt>
      <trkpt lat="45.94899" lon="4.74344">
        <ele>191</ele>
        <time>2018-02-23T11:32:21Z</time>
      </trkpt>
      <trkpt lat="45.94895" lon="4.74336">
        <ele>191</ele>
        <time>2018-02-23T11:32:22Z</time>
      </trkpt>
      <trkpt lat="45.94891" lon="4.74328">
        <ele>191</ele>
        <time>2018-02-23T11:32:23Z</time>
      </trkpt>
      <trkpt lat="45.94887" lon="4.74321">
        <ele>191</ele>
        <time>2018-02-23T11:32:24Z</time>
      </trkpt>
      <trkpt lat="45.94884" lon="4.74312">
        <ele>191</ele>
        <time>2018-02-23T11:32:25Z</time>
      </trkpt>
      <trkpt lat="45.9488" lon="4.74305">
        <ele>191</ele>
        <time>2018-02-23T11:32:26Z</time>
      </trkpt>
      <trkpt lat="45.94876" lon="4.74297">
        <ele>191</ele>
        <time>2018-02-23T11:32:27Z</time>
      </trkpt>
      <trkpt lat="45.94872" lon="4.7429">
        <ele>191</ele>
        <time>2018-02-23T11:32:28Z</time>
      </trkpt>
      <trkpt lat="45.94868" lon="4.74284">
        <ele>191</ele>
        <time>2018-02-23T11:32:29Z</time>
      </trkpt>
      <trkpt lat="45.94864" lon="4.74278">
        <ele>191</ele>
        <time>2018-02-23T11:32:30Z</time>
      </trkpt>
      <trkpt lat="45.9486" lon="4.7427">
        <ele>190</ele>
        <time>2018-02-23T11:32:31Z</time>
      </trkpt>
      <trkpt lat="45.94856" lon="4.74263">
        <ele>190</ele>
        <time>2018-02-23T11:32:32Z</time>
      </trkpt>
      <trkpt lat="45.94853" lon="4.74256">
        <ele>190</ele>
        <time>2018-02-23T11:32:33Z</time>
      </trkpt>
      <trkpt lat="45.9485" lon="4.74248">
        <ele>190</ele>
        <time>2018-02-23T11:32:34Z</time>
      </trkpt>
      <trkpt lat="45.94846" lon="4.7424">
        <ele>190</ele>
        <time>2018-02-23T11:32:35Z</time>
      </trkpt>
      <trkpt lat="45.94843" lon="4.74232">
        <ele>190</ele>
        <time>2018-02-23T11:32:36Z</time>
      </trkpt>
      <trkpt lat="45.9484" lon="4.74225">
        <ele>190</ele>
        <time>2018-02-23T11:32:37Z</time>
      </trkpt>
      <trkpt lat="45.94834" lon="4.74217">
        <ele>190</ele>
        <time>2018-02-23T11:32:38Z</time>
      </trkpt>
      <trkpt lat="45.9483" lon="4.74211">
        <ele>189</ele>
        <time>2018-02-23T11:32:39Z</time>
      </trkpt>
      <trkpt lat="45.94827" lon="4.74205">
        <ele>189</ele>
        <time>2018-02-23T11:32:40Z</time>
      </trkpt>
      <trkpt lat="45.94822" lon="4.74198">
        <ele>189</ele>
        <time>2018-02-23T11:32:41Z</time>
      </trkpt>
      <trkpt lat="45.94819" lon="4.74191">
        <ele>189</ele>
        <time>2018-02-23T11:32:42Z</time>
      </trkpt>
      <trkpt lat="45.94814" lon="4.74186">
        <ele>189</ele>
        <time>2018-02-23T11:32:43Z</time>
      </trkpt>
      <trkpt lat="45.94811" lon="4.74179">
        <ele>189</ele>
        <time>2018-02-23T11:32:44Z</time>
      </trkpt>
      <trkpt lat="45.94807" lon="4.74172">
        <ele>189</ele>
        <time>2018-02-23T11:32:45Z</time>
      </trkpt>
      <trkpt lat="45.94805" lon="4.74166">
        <ele>189</ele>
        <time>2018-02-23T11:32:46Z</time>
      </trkpt>
      <trkpt lat="45.94801" lon="4.74159">
        <ele>189</ele>
        <time>2018-02-23T11:32:47Z</time>
      </trkpt>
      <trkpt lat="45.94797" lon="4.74153">
        <ele>189</ele>
        <time>2018-02-23T11:32:48Z</time>
      </trkpt>
      <trkpt lat="45.94793" lon="4.74146">
        <ele>189</ele>
        <time>2018-02-23T11:32:49Z</time>
      </trkpt>
      <trkpt lat="45.94789" lon="4.7414">
        <ele>189</ele>
        <time>2018-02-23T11:32:50Z</time>
      </trkpt>
      <trkpt lat="45.94785" lon="4.74134">
        <ele>189</ele>
        <time>2018-02-23T11:32:51Z</time>
      </trkpt>
      <trkpt lat="45.94782" lon="4.74129">
        <ele>189</ele>
        <time>2018-02-23T11:32:52Z</time>
      </trkpt>
      <trkpt lat="45.94779" lon="4.74124">
        <ele>189</ele>
        <time>2018-02-23T11:32:53Z</time>
      </trkpt>
      <trkpt lat="45.94775" lon="4.74118">
        <ele>189</ele>
        <time>2018-02-23T11:32:54Z</time>
      </trkpt>
      <trkpt lat="45.94772" lon="4.74112">
        <ele>189</ele>
        <time>2018-02-23T11:32:55Z</time>
      </trkpt>
      <trkpt lat="45.94769" lon="4.74107">
        <ele>189</ele>
        <time>2018-02-23T11:32:56Z</time>
      </trkpt>
      <trkpt lat="45.94765" lon="4.74102">
        <ele>189</ele>
        <time>2018-02-23T11:32:57Z</time>
      </trkpt>
      <trkpt lat="45.94762" lon="4.74096">
        <ele>189</ele>
        <time>2018-02-23T11:32:58Z</time>
      </trkpt>
      <trkpt lat="45.94758" lon="4.74091">
        <ele>189</ele>
        <time>2018-02-23T11:32:59Z</time>
      </trkpt>
      <trkpt lat="45.94756" lon="4.74085">
        <ele>189</ele>
        <time>2018-02-23T11:33:00Z</time>
      </trkpt>
      <trkpt lat="45.9475" lon="4.74079">
        <ele>189</ele>
        <time>2018-02-23T11:33:01Z</time>
      </trkpt>
      <trkpt lat="45.94746" lon="4.74075">
        <ele>188</ele>
        <time>2018-02-23T11:33:02Z</time>
      </trkpt>
      <trkpt lat="45.94742" lon="4.74069">
        <ele>188</ele>
        <time>2018-02-23T11:33:03Z</time>
      </trkpt>
      <trkpt lat="45.94739" lon="4.74063">
        <ele>188</ele>
        <time>2018-02-23T11:33:04Z</time>
      </trkpt>
      <trkpt lat="45.94735" lon="4.74057">
        <ele>188</ele>
        <time>2018-02-23T11:33:05Z</time>
      </trkpt>
      <trkpt lat="45.94731" lon="4.74052">
        <ele>188</ele>
        <time>2018-02-23T11:33:06Z</time>
      </trkpt>
      <trkpt lat="45.94727" lon="4.74047">
        <ele>188</ele>
        <time>2018-02-23T11:33:07Z</time>
      </trkpt>
      <trkpt lat="45.94723" lon="4.74041">
        <ele>187</ele>
        <time>2018-02-23T11:33:08Z</time>
      </trkpt>
      <trkpt lat="45.94719" lon="4.74036">
        <ele>187</ele>
        <time>2018-02-23T11:33:09Z</time>
      </trkpt>
      <trkpt lat="45.94715" lon="4.74031">
        <ele>187</ele>
        <time>2018-02-23T11:33:10Z</time>
      </trkpt>
      <trkpt lat="45.9471" lon="4.74026">
        <ele>187</ele>
        <time>2018-02-23T11:33:11Z</time>
      </trkpt>
      <trkpt lat="45.94707" lon="4.74021">
        <ele>187</ele>
        <time>2018-02-23T11:33:12Z</time>
      </trkpt>
      <trkpt lat="45.94703" lon="4.74016">
        <ele>187</ele>
        <time>2018-02-23T11:33:13Z</time>
      </trkpt>
      <trkpt lat="45.947" lon="4.74012">
        <ele>187</ele>
        <time>2018-02-23T11:33:14Z</time>
      </trkpt>
      <trkpt lat="45.94697" lon="4.74006">
        <ele>187</ele>
        <time>2018-02-23T11:33:15Z</time>
      </trkpt>
      <trkpt lat="45.94693" lon="4.74">
        <ele>187</ele>
        <time>2018-02-23T11:33:16Z</time>
      </trkpt>
      <trkpt lat="45.9469" lon="4.73995">
        <ele>187</ele>
        <time>2018-02-23T11:33:17Z</time>
      </trkpt>
      <trkpt lat="45.94685" lon="4.7399">
        <ele>187</ele>
        <time>2018-02-23T11:33:18Z</time>
      </trkpt>
      <trkpt lat="45.94681" lon="4.73985">
        <ele>187</ele>
        <time>2018-02-23T11:33:19Z</time>
      </trkpt>
      <trkpt lat="45.94676" lon="4.73979">
        <ele>187</ele>
        <time>2018-02-23T11:33:20Z</time>
      </trkpt>
      <trkpt lat="45.94672" lon="4.73974">
        <ele>187</ele>
        <time>2018-02-23T11:33:21Z</time>
      </trkpt>
      <trkpt lat="45.94668" lon="4.73969">
        <ele>187</ele>
        <time>2018-02-23T11:33:22Z</time>
      </trkpt>
      <trkpt lat="45.94664" lon="4.73963">
        <ele>187</ele>
        <time>2018-02-23T11:33:23Z</time>
      </trkpt>
      <trkpt lat="45.9466" lon="4.73958">
        <ele>187</ele>
        <time>2018-02-23T11:33:24Z</time>
      </trkpt>
      <trkpt lat="45.94656" lon="4.73954">
        <ele>187</ele>
        <time>2018-02-23T11:33:25Z</time>
      </trkpt>
      <trkpt lat="45.94652" lon="4.73948">
        <ele>187</ele>
        <time>2018-02-23T11:33:26Z</time>
      </trkpt>
      <trkpt lat="45.94649" lon="4.73943">
        <ele>187</ele>
        <time>2018-02-23T11:33:27Z</time>
      </trkpt>
      <trkpt lat="45.94645" lon="4.73938">
        <ele>187</ele>
        <time>2018-02-23T11:33:28Z</time>
      </trkpt>
      <trkpt lat="45.94641" lon="4.73933">
        <ele>187</ele>
        <time>2018-02-23T11:33:29Z</time>
      </trkpt>
      <trkpt lat="45.94637" lon="4.73928">
        <ele>187</ele>
        <time>2018-02-23T11:33:30Z</time>
      </trkpt>
      <trkpt lat="45.94632" lon="4.73922">
        <ele>187</ele>
        <time>2018-02-23T11:33:31Z</time>
      </trkpt>
      <trkpt lat="45.94627" lon="4.73917">
        <ele>187</ele>
        <time>2018-02-23T11:33:32Z</time>
      </trkpt>
      <trkpt lat="45.94622" lon="4.73912">
        <ele>187</ele>
        <time>2018-02-23T11:33:33Z</time>
      </trkpt>
      <trkpt lat="45.94618" lon="4.73907">
        <ele>187</ele>
        <time>2018-02-23T11:33:34Z</time>
      </trkpt>
      <trkpt lat="45.94614" lon="4.73902">
        <ele>187</ele>
        <time>2018-02-23T11:33:35Z</time>
      </trkpt>
      <trkpt lat="45.94609" lon="4.73897">
        <ele>187</ele>
        <time>2018-02-23T11:33:36Z</time>
      </trkpt>
      <trkpt lat="45.94605" lon="4.73892">
        <ele>187</ele>
        <time>2018-02-23T11:33:37Z</time>
      </trkpt>
      <trkpt lat="45.946" lon="4.73887">
        <ele>187</ele>
        <time>2018-02-23T11:33:38Z</time>
      </trkpt>
      <trkpt lat="45.94596" lon="4.73881">
        <ele>187</ele>
        <time>2018-02-23T11:33:39Z</time>
      </trkpt>
      <trkpt lat="45.94592" lon="4.73873">
        <ele>187</ele>
        <time>2018-02-23T11:33:40Z</time>
      </trkpt>
      <trkpt lat="45.94587" lon="4.73867">
        <ele>187</ele>
        <time>2018-02-23T11:33:41Z</time>
      </trkpt>
      <trkpt lat="45.94582" lon="4.73863">
        <ele>186</ele>
        <time>2018-02-23T11:33:42Z</time>
      </trkpt>
      <trkpt lat="45.94576" lon="4.73857">
        <ele>186</ele>
        <time>2018-02-23T11:33:43Z</time>
      </trkpt>
      <trkpt lat="45.94571" lon="4.73852">
        <ele>186</ele>
        <time>2018-02-23T11:33:44Z</time>
      </trkpt>
      <trkpt lat="45.94566" lon="4.73847">
        <ele>186</ele>
        <time>2018-02-23T11:33:45Z</time>
      </trkpt>
      <trkpt lat="45.94562" lon="4.73842">
        <ele>186</ele>
        <time>2018-02-23T11:33:46Z</time>
      </trkpt>
      <trkpt lat="45.94558" lon="4.73838">
        <ele>186</ele>
        <time>2018-02-23T11:33:47Z</time>
      </trkpt>
      <trkpt lat="45.94553" lon="4.73833">
        <ele>186</ele>
        <time>2018-02-23T11:33:48Z</time>
      </trkpt>
      <trkpt lat="45.94549" lon="4.73828">
        <ele>186</ele>
        <time>2018-02-23T11:33:49Z</time>
      </trkpt>
      <trkpt lat="45.94543" lon="4.73824">
        <ele>186</ele>
        <time>2018-02-23T11:33:50Z</time>
      </trkpt>
      <trkpt lat="45.94538" lon="4.73819">
        <ele>186</ele>
        <time>2018-02-23T11:33:51Z</time>
      </trkpt>
      <trkpt lat="45.94533" lon="4.73815">
        <ele>186</ele>
        <time>2018-02-23T11:33:52Z</time>
      </trkpt>
      <trkpt lat="45.94528" lon="4.7381">
        <ele>186</ele>
        <time>2018-02-23T11:33:53Z</time>
      </trkpt>
      <trkpt lat="45.94523" lon="4.73805">
        <ele>186</ele>
        <time>2018-02-23T11:33:54Z</time>
      </trkpt>
      <trkpt lat="45.9452" lon="4.738">
        <ele>186</ele>
        <time>2018-02-23T11:33:55Z</time>
      </trkpt>
      <trkpt lat="45.94514" lon="4.73795">
        <ele>186</ele>
        <time>2018-02-23T11:33:56Z</time>
      </trkpt>
      <trkpt lat="45.94509" lon="4.7379">
        <ele>186</ele>
        <time>2018-02-23T11:33:57Z</time>
      </trkpt>
      <trkpt lat="45.94505" lon="4.73786">
        <ele>186</ele>
        <time>2018-02-23T11:33:58Z</time>
      </trkpt>
      <trkpt lat="45.945" lon="4.7378">
        <ele>186</ele>
        <time>2018-02-23T11:33:59Z</time>
      </trkpt>
      <trkpt lat="45.94497" lon="4.73775">
        <ele>186</ele>
        <time>2018-02-23T11:34:00Z</time>
      </trkpt>
      <trkpt lat="45.94493" lon="4.73768">
        <ele>186</ele>
        <time>2018-02-23T11:34:01Z</time>
      </trkpt>
      <trkpt lat="45.9449" lon="4.73762">
        <ele>186</ele>
        <time>2018-02-23T11:34:02Z</time>
      </trkpt>
      <trkpt lat="45.94488" lon="4.73755">
        <ele>186</ele>
        <time>2018-02-23T11:34:03Z</time>
      </trkpt>
      <trkpt lat="45.94487" lon="4.73747">
        <ele>186</ele>
        <time>2018-02-23T11:34:04Z</time>
      </trkpt>
      <trkpt lat="45.94488" lon="4.73739">
        <ele>186</ele>
        <time>2018-02-23T11:34:05Z</time>
      </trkpt>
      <trkpt lat="45.94488" lon="4.7373">
        <ele>186</ele>
        <time>2018-02-23T11:34:06Z</time>
      </trkpt>
      <trkpt lat="45.94488" lon="4.73722">
        <ele>186</ele>
        <time>2018-02-23T11:34:07Z</time>
      </trkpt>
      <trkpt lat="45.9449" lon="4.73714">
        <ele>186</ele>
        <time>2018-02-23T11:34:08Z</time>
      </trkpt>
      <trkpt lat="45.94491" lon="4.73705">
        <ele>186</ele>
        <time>2018-02-23T11:34:09Z</time>
      </trkpt>
      <trkpt lat="45.94492" lon="4.73698">
        <ele>186</ele>
        <time>2018-02-23T11:34:10Z</time>
      </trkpt>
      <trkpt lat="45.94493" lon="4.73689">
        <ele>186</ele>
        <time>2018-02-23T11:34:11Z</time>
      </trkpt>
      <trkpt lat="45.94495" lon="4.73682">
        <ele>185</ele>
        <time>2018-02-23T11:34:12Z</time>
      </trkpt>
      <trkpt lat="45.94496" lon="4.73674">
        <ele>185</ele>
        <time>2018-02-23T11:34:13Z</time>
      </trkpt>
      <trkpt lat="45.94498" lon="4.73664">
        <ele>185</ele>
        <time>2018-02-23T11:34:14Z</time>
      </trkpt>
      <trkpt lat="45.94499" lon="4.73656">
        <ele>185</ele>
        <time>2018-02-23T11:34:15Z</time>
      </trkpt>
      <trkpt lat="45.945" lon="4.73647">
        <ele>185</ele>
        <time>2018-02-23T11:34:16Z</time>
      </trkpt>
      <trkpt lat="45.94501" lon="4.73638">
        <ele>184</ele>
        <time>2018-02-23T11:34:17Z</time>
      </trkpt>
      <trkpt lat="45.94502" lon="4.7363">
        <ele>184</ele>
        <time>2018-02-23T11:34:18Z</time>
      </trkpt>
      <trkpt lat="45.94503" lon="4.73622">
        <ele>184</ele>
        <time>2018-02-23T11:34:19Z</time>
      </trkpt>
      <trkpt lat="45.94504" lon="4.73613">
        <ele>184</ele>
        <time>2018-02-23T11:34:20Z</time>
      </trkpt>
      <trkpt lat="45.94504" lon="4.73605">
        <ele>184</ele>
        <time>2018-02-23T11:34:21Z</time>
      </trkpt>
      <trkpt lat="45.94504" lon="4.73597">
        <ele>184</ele>
        <time>2018-02-23T11:34:22Z</time>
      </trkpt>
      <trkpt lat="45.94505" lon="4.73589">
        <ele>185</ele>
        <time>2018-02-23T11:34:23Z</time>
      </trkpt>
      <trkpt lat="45.94505" lon="4.73581">
        <ele>184</ele>
        <time>2018-02-23T11:34:24Z</time>
      </trkpt>
      <trkpt lat="45.94505" lon="4.73572">
        <ele>184</ele>
        <time>2018-02-23T11:34:25Z</time>
      </trkpt>
      <trkpt lat="45.94506" lon="4.73563">
        <ele>184</ele>
        <time>2018-02-23T11:34:26Z</time>
      </trkpt>
      <trkpt lat="45.94506" lon="4.73555">
        <ele>183</ele>
        <time>2018-02-23T11:34:27Z</time>
      </trkpt>
      <trkpt lat="45.94507" lon="4.73546">
        <ele>183</ele>
        <time>2018-02-23T11:34:28Z</time>
      </trkpt>
      <trkpt lat="45.94507" lon="4.73537">
        <ele>183</ele>
        <time>2018-02-23T11:34:29Z</time>
      </trkpt>
      <trkpt lat="45.94508" lon="4.73528">
        <ele>183</ele>
        <time>2018-02-23T11:34:30Z</time>
      </trkpt>
      <trkpt lat="45.94508" lon="4.7352">
        <ele>183</ele>
        <time>2018-02-23T11:34:31Z</time>
      </trkpt>
      <trkpt lat="45.94508" lon="4.73511">
        <ele>183</ele>
        <time>2018-02-23T11:34:32Z</time>
      </trkpt>
      <trkpt lat="45.94508" lon="4.73501">
        <ele>183</ele>
        <time>2018-02-23T11:34:33Z</time>
      </trkpt>
      <trkpt lat="45.94507" lon="4.73492">
        <ele>182</ele>
        <time>2018-02-23T11:34:34Z</time>
      </trkpt>
      <trkpt lat="45.94508" lon="4.73482">
        <ele>182</ele>
        <time>2018-02-23T11:34:35Z</time>
      </trkpt>
      <trkpt lat="45.94508" lon="4.73474">
        <ele>182</ele>
        <time>2018-02-23T11:34:36Z</time>
      </trkpt>
      <trkpt lat="45.94508" lon="4.73465">
        <ele>181</ele>
        <time>2018-02-23T11:34:37Z</time>
      </trkpt>
      <trkpt lat="45.94508" lon="4.73456">
        <ele>181</ele>
        <time>2018-02-23T11:34:38Z</time>
      </trkpt>
      <trkpt lat="45.94508" lon="4.73446">
        <ele>181</ele>
        <time>2018-02-23T11:34:39Z</time>
      </trkpt>
      <trkpt lat="45.94507" lon="4.73436">
        <ele>181</ele>
        <time>2018-02-23T11:34:40Z</time>
      </trkpt>
      <trkpt lat="45.94506" lon="4.73427">
        <ele>180</ele>
        <time>2018-02-23T11:34:41Z</time>
      </trkpt>
      <trkpt lat="45.94505" lon="4.73418">
        <ele>180</ele>
        <time>2018-02-23T11:34:42Z</time>
      </trkpt>
      <trkpt lat="45.94504" lon="4.73409">
        <ele>179</ele>
        <time>2018-02-23T11:34:43Z</time>
      </trkpt>
      <trkpt lat="45.94503" lon="4.73399">
        <ele>179</ele>
        <time>2018-02-23T11:34:44Z</time>
      </trkpt>
      <trkpt lat="45.94502" lon="4.7339">
        <ele>179</ele>
        <time>2018-02-23T11:34:45Z</time>
      </trkpt>
      <trkpt lat="45.94502" lon="4.73381">
        <ele>179</ele>
        <time>2018-02-23T11:34:46Z</time>
      </trkpt>
      <trkpt lat="45.94501" lon="4.73372">
        <ele>178</ele>
        <time>2018-02-23T11:34:47Z</time>
      </trkpt>
      <trkpt lat="45.94499" lon="4.73362">
        <ele>179</ele>
        <time>2018-02-23T11:34:48Z</time>
      </trkpt>
      <trkpt lat="45.94499" lon="4.73352">
        <ele>178</ele>
        <time>2018-02-23T11:34:49Z</time>
      </trkpt>
      <trkpt lat="45.94498" lon="4.73341">
        <ele>178</ele>
        <time>2018-02-23T11:34:50Z</time>
      </trkpt>
      <trkpt lat="45.94497" lon="4.73331">
        <ele>177</ele>
        <time>2018-02-23T11:34:51Z</time>
      </trkpt>
      <trkpt lat="45.94496" lon="4.73322">
        <ele>177</ele>
        <time>2018-02-23T11:34:52Z</time>
      </trkpt>
      <trkpt lat="45.94493" lon="4.73311">
        <ele>177</ele>
        <time>2018-02-23T11:34:53Z</time>
      </trkpt>
      <trkpt lat="45.94492" lon="4.733">
        <ele>177</ele>
        <time>2018-02-23T11:34:54Z</time>
      </trkpt>
      <trkpt lat="45.94491" lon="4.7329">
        <ele>177</ele>
        <time>2018-02-23T11:34:55Z</time>
      </trkpt>
      <trkpt lat="45.94488" lon="4.7328">
        <ele>177</ele>
        <time>2018-02-23T11:34:56Z</time>
      </trkpt>
      <trkpt lat="45.94486" lon="4.7327">
        <ele>177</ele>
        <time>2018-02-23T11:34:57Z</time>
      </trkpt>
      <trkpt lat="45.94485" lon="4.73262">
        <ele>176</ele>
        <time>2018-02-23T11:34:58Z</time>
      </trkpt>
      <trkpt lat="45.94483" lon="4.73254">
        <ele>176</ele>
        <time>2018-02-23T11:34:59Z</time>
      </trkpt>
      <trkpt lat="45.94482" lon="4.73246">
        <ele>175</ele>
        <time>2018-02-23T11:35:00Z</time>
      </trkpt>
      <trkpt lat="45.94481" lon="4.73237">
        <ele>175</ele>
        <time>2018-02-23T11:35:01Z</time>
      </trkpt>
      <trkpt lat="45.9448" lon="4.73228">
        <ele>175</ele>
        <time>2018-02-23T11:35:02Z</time>
      </trkpt>
      <trkpt lat="45.94479" lon="4.73219">
        <ele>175</ele>
        <time>2018-02-23T11:35:03Z</time>
      </trkpt>
      <trkpt lat="45.94478" lon="4.73209">
        <ele>175</ele>
        <time>2018-02-23T11:35:04Z</time>
      </trkpt>
      <trkpt lat="45.94477" lon="4.73199">
        <ele>174</ele>
        <time>2018-02-23T11:35:05Z</time>
      </trkpt>
      <trkpt lat="45.94476" lon="4.73189">
        <ele>174</ele>
        <time>2018-02-23T11:35:06Z</time>
      </trkpt>
      <trkpt lat="45.94474" lon="4.73178">
        <ele>174</ele>
        <time>2018-02-23T11:35:07Z</time>
      </trkpt>
      <trkpt lat="45.94472" lon="4.73169">
        <ele>174</ele>
        <time>2018-02-23T11:35:08Z</time>
      </trkpt>
      <trkpt lat="45.94471" lon="4.7316">
        <ele>172</ele>
        <time>2018-02-23T11:35:09Z</time>
      </trkpt>
      <trkpt lat="45.9447" lon="4.73151">
        <ele>172</ele>
        <time>2018-02-23T11:35:10Z</time>
      </trkpt>
      <trkpt lat="45.94469" lon="4.73143">
        <ele>172</ele>
        <time>2018-02-23T11:35:11Z</time>
      </trkpt>
      <trkpt lat="45.94468" lon="4.73135">
        <ele>172</ele>
        <time>2018-02-23T11:35:12Z</time>
      </trkpt>
      <trkpt lat="45.94467" lon="4.73127">
        <ele>172</ele>
        <time>2018-02-23T11:35:13Z</time>
      </trkpt>
      <trkpt lat="45.94467" lon="4.73119">
        <ele>172</ele>
        <time>2018-02-23T11:35:14Z</time>
      </trkpt>
      <trkpt lat="45.94466" lon="4.73112">
        <ele>172</ele>
        <time>2018-02-23T11:35:15Z</time>
      </trkpt>
      <trkpt lat="45.94465" lon="4.73105">
        <ele>172</ele>
        <time>2018-02-23T11:35:16Z</time>
      </trkpt>
      <trkpt lat="45.94464" lon="4.73097">
        <ele>171</ele>
        <time>2018-02-23T11:35:17Z</time>
      </trkpt>
      <trkpt lat="45.94462" lon="4.73089">
        <ele>171</ele>
        <time>2018-02-23T11:35:18Z</time>
      </trkpt>
      <trkpt lat="45.94459" lon="4.73081">
        <ele>170</ele>
        <time>2018-02-23T11:35:19Z</time>
      </trkpt>
      <trkpt lat="45.94458" lon="4.73073">
        <ele>170</ele>
        <time>2018-02-23T11:35:20Z</time>
      </trkpt>
      <trkpt lat="45.94456" lon="4.73065">
        <ele>170</ele>
        <time>2018-02-23T11:35:21Z</time>
      </trkpt>
      <trkpt lat="45.94455" lon="4.73057">
        <ele>170</ele>
        <time>2018-02-23T11:35:22Z</time>
      </trkpt>
      <trkpt lat="45.94454" lon="4.73049">
        <ele>169</ele>
        <time>2018-02-23T11:35:23Z</time>
      </trkpt>
      <trkpt lat="45.94454" lon="4.73042">
        <ele>169</ele>
        <time>2018-02-23T11:35:24Z</time>
      </trkpt>
      <trkpt lat="45.94453" lon="4.73035">
        <ele>169</ele>
        <time>2018-02-23T11:35:25Z</time>
      </trkpt>
      <trkpt lat="45.94452" lon="4.73029">
        <ele>169</ele>
        <time>2018-02-23T11:35:26Z</time>
      </trkpt>
      <trkpt lat="45.94451" lon="4.73021">
        <ele>169</ele>
        <time>2018-02-23T11:35:27Z</time>
      </trkpt>
      <trkpt lat="45.94451" lon="4.73015">
        <ele>169</ele>
        <time>2018-02-23T11:35:28Z</time>
      </trkpt>
      <trkpt lat="45.94451" lon="4.73009">
        <ele>169</ele>
        <time>2018-02-23T11:35:29Z</time>
      </trkpt>
      <trkpt lat="45.94451" lon="4.73002">
        <ele>169</ele>
        <time>2018-02-23T11:35:30Z</time>
      </trkpt>
      <trkpt lat="45.94451" lon="4.72994">
        <ele>167</ele>
        <time>2018-02-23T11:35:31Z</time>
      </trkpt>
      <trkpt lat="45.9445" lon="4.72987">
        <ele>167</ele>
        <time>2018-02-23T11:35:32Z</time>
      </trkpt>
      <trkpt lat="45.94448" lon="4.72981">
        <ele>167</ele>
        <time>2018-02-23T11:35:33Z</time>
      </trkpt>
      <trkpt lat="45.94447" lon="4.72974">
        <ele>167</ele>
        <time>2018-02-23T11:35:34Z</time>
      </trkpt>
      <trkpt lat="45.94447" lon="4.72968">
        <ele>167</ele>
        <time>2018-02-23T11:35:35Z</time>
      </trkpt>
      <trkpt lat="45.94446" lon="4.72961">
        <ele>167</ele>
        <time>2018-02-23T11:35:36Z</time>
      </trkpt>
      <trkpt lat="45.94444" lon="4.7295">
        <ele>167</ele>
        <time>2018-02-23T11:35:38Z</time>
      </trkpt>
      <trkpt lat="45.94443" lon="4.72944">
        <ele>167</ele>
        <time>2018-02-23T11:35:39Z</time>
      </trkpt>
      <trkpt lat="45.94441" lon="4.72932">
        <ele>167</ele>
        <time>2018-02-23T11:35:41Z</time>
      </trkpt>
      <trkpt lat="45.9444" lon="4.72925">
        <ele>167</ele>
        <time>2018-02-23T11:35:42Z</time>
      </trkpt>
      <trkpt lat="45.9444" lon="4.72914">
        <ele>166</ele>
        <time>2018-02-23T11:35:44Z</time>
      </trkpt>
      <trkpt lat="45.94439" lon="4.72908">
        <ele>166</ele>
        <time>2018-02-23T11:35:45Z</time>
      </trkpt>
      <trkpt lat="45.94437" lon="4.72895">
        <ele>166</ele>
        <time>2018-02-23T11:35:47Z</time>
      </trkpt>
      <trkpt lat="45.94437" lon="4.72889">
        <ele>166</ele>
        <time>2018-02-23T11:35:48Z</time>
      </trkpt>
      <trkpt lat="45.94436" lon="4.72882">
        <ele>166</ele>
        <time>2018-02-23T11:35:49Z</time>
      </trkpt>
      <trkpt lat="45.94435" lon="4.72876">
        <ele>166</ele>
        <time>2018-02-23T11:35:50Z</time>
      </trkpt>
      <trkpt lat="45.94433" lon="4.72869">
        <ele>166</ele>
        <time>2018-02-23T11:35:51Z</time>
      </trkpt>
      <trkpt lat="45.94431" lon="4.72862">
        <ele>166</ele>
        <time>2018-02-23T11:35:52Z</time>
      </trkpt>
      <trkpt lat="45.9443" lon="4.72855">
        <ele>166</ele>
        <time>2018-02-23T11:35:53Z</time>
      </trkpt>
      <trkpt lat="45.94429" lon="4.72847">
        <ele>166</ele>
        <time>2018-02-23T11:35:54Z</time>
      </trkpt>
      <trkpt lat="45.94428" lon="4.72838">
        <ele>166</ele>
        <time>2018-02-23T11:35:55Z</time>
      </trkpt>
      <trkpt lat="45.94426" lon="4.72829">
        <ele>166</ele>
        <time>2018-02-23T11:35:56Z</time>
      </trkpt>
      <trkpt lat="45.94426" lon="4.7282">
        <ele>167</ele>
        <time>2018-02-23T11:35:57Z</time>
      </trkpt>
      <trkpt lat="45.94425" lon="4.7281">
        <ele>167</ele>
        <time>2018-02-23T11:35:58Z</time>
      </trkpt>
      <trkpt lat="45.94423" lon="4.728">
        <ele>167</ele>
        <time>2018-02-23T11:35:59Z</time>
      </trkpt>
      <trkpt lat="45.94421" lon="4.7279">
        <ele>168</ele>
        <time>2018-02-23T11:36:00Z</time>
      </trkpt>
      <trkpt lat="45.9442" lon="4.72779">
        <ele>168</ele>
        <time>2018-02-23T11:36:01Z</time>
      </trkpt>
      <trkpt lat="45.94418" lon="4.72769">
        <ele>169</ele>
        <time>2018-02-23T11:36:02Z</time>
      </trkpt>
      <trkpt lat="45.94417" lon="4.72759">
        <ele>170</ele>
        <time>2018-02-23T11:36:03Z</time>
      </trkpt>
      <trkpt lat="45.94416" lon="4.72749">
        <ele>171</ele>
        <time>2018-02-23T11:36:04Z</time>
      </trkpt>
      <trkpt lat="45.94415" lon="4.72739">
        <ele>171</ele>
        <time>2018-02-23T11:36:05Z</time>
      </trkpt>
      <trkpt lat="45.94415" lon="4.72728">
        <ele>172</ele>
        <time>2018-02-23T11:36:06Z</time>
      </trkpt>
      <trkpt lat="45.94414" lon="4.72718">
        <ele>172</ele>
        <time>2018-02-23T11:36:07Z</time>
      </trkpt>
      <trkpt lat="45.94413" lon="4.72708">
        <ele>172</ele>
        <time>2018-02-23T11:36:08Z</time>
      </trkpt>
      <trkpt lat="45.94412" lon="4.72698">
        <ele>172</ele>
        <time>2018-02-23T11:36:09Z</time>
      </trkpt>
      <trkpt lat="45.94411" lon="4.72689">
        <ele>173</ele>
        <time>2018-02-23T11:36:10Z</time>
      </trkpt>
      <trkpt lat="45.94409" lon="4.7268">
        <ele>173</ele>
        <time>2018-02-23T11:36:11Z</time>
      </trkpt>
      <trkpt lat="45.94408" lon="4.72671">
        <ele>173</ele>
        <time>2018-02-23T11:36:12Z</time>
      </trkpt>
      <trkpt lat="45.94407" lon="4.72662">
        <ele>174</ele>
        <time>2018-02-23T11:36:13Z</time>
      </trkpt>
      <trkpt lat="45.94406" lon="4.72653">
        <ele>174</ele>
        <time>2018-02-23T11:36:14Z</time>
      </trkpt>
      <trkpt lat="45.94405" lon="4.72644">
        <ele>174</ele>
        <time>2018-02-23T11:36:15Z</time>
      </trkpt>
      <trkpt lat="45.94403" lon="4.72635">
        <ele>174</ele>
        <time>2018-02-23T11:36:16Z</time>
      </trkpt>
      <trkpt lat="45.94403" lon="4.72627">
        <ele>174</ele>
        <time>2018-02-23T11:36:17Z</time>
      </trkpt>
      <trkpt lat="45.94402" lon="4.72619">
        <ele>173</ele>
        <time>2018-02-23T11:36:18Z</time>
      </trkpt>
      <trkpt lat="45.94401" lon="4.72611">
        <ele>173</ele>
        <time>2018-02-23T11:36:19Z</time>
      </trkpt>
      <trkpt lat="45.944" lon="4.72602">
        <ele>173</ele>
        <time>2018-02-23T11:36:20Z</time>
      </trkpt>
      <trkpt lat="45.94398" lon="4.72595">
        <ele>173</ele>
        <time>2018-02-23T11:36:21Z</time>
      </trkpt>
      <trkpt lat="45.94396" lon="4.72586">
        <ele>173</ele>
        <time>2018-02-23T11:36:22Z</time>
      </trkpt>
      <trkpt lat="45.94396" lon="4.7258">
        <ele>173</ele>
        <time>2018-02-23T11:36:23Z</time>
      </trkpt>
      <trkpt lat="45.94394" lon="4.72572">
        <ele>173</ele>
        <time>2018-02-23T11:36:24Z</time>
      </trkpt>
      <trkpt lat="45.94393" lon="4.72564">
        <ele>173</ele>
        <time>2018-02-23T11:36:25Z</time>
      </trkpt>
      <trkpt lat="45.9439" lon="4.72556">
        <ele>173</ele>
        <time>2018-02-23T11:36:26Z</time>
      </trkpt>
      <trkpt lat="45.94387" lon="4.72548">
        <ele>173</ele>
        <time>2018-02-23T11:36:27Z</time>
      </trkpt>
      <trkpt lat="45.94387" lon="4.72539">
        <ele>174</ele>
        <time>2018-02-23T11:36:28Z</time>
      </trkpt>
      <trkpt lat="45.94385" lon="4.72532">
        <ele>174</ele>
        <time>2018-02-23T11:36:29Z</time>
      </trkpt>
      <trkpt lat="45.94383" lon="4.72525">
        <ele>174</ele>
        <time>2018-02-23T11:36:30Z</time>
      </trkpt>
      <trkpt lat="45.94382" lon="4.72519">
        <ele>174</ele>
        <time>2018-02-23T11:36:31Z</time>
      </trkpt>
      <trkpt lat="45.9438" lon="4.72512">
        <ele>174</ele>
        <time>2018-02-23T11:36:32Z</time>
      </trkpt>
      <trkpt lat="45.94378" lon="4.72506">
        <ele>174</ele>
        <time>2018-02-23T11:36:33Z</time>
      </trkpt>
      <trkpt lat="45.94376" lon="4.72499">
        <ele>173</ele>
        <time>2018-02-23T11:36:34Z</time>
      </trkpt>
      <trkpt lat="45.94373" lon="4.72492">
        <ele>173</ele>
        <time>2018-02-23T11:36:35Z</time>
      </trkpt>
      <trkpt lat="45.94371" lon="4.72486">
        <ele>173</ele>
        <time>2018-02-23T11:36:36Z</time>
      </trkpt>
      <trkpt lat="45.9437" lon="4.7248">
        <ele>173</ele>
        <time>2018-02-23T11:36:37Z</time>
      </trkpt>
      <trkpt lat="45.94368" lon="4.72474">
        <ele>173</ele>
        <time>2018-02-23T11:36:38Z</time>
      </trkpt>
      <trkpt lat="45.94365" lon="4.72468">
        <ele>173</ele>
        <time>2018-02-23T11:36:39Z</time>
      </trkpt>
      <trkpt lat="45.94363" lon="4.72463">
        <ele>173</ele>
        <time>2018-02-23T11:36:40Z</time>
      </trkpt>
      <trkpt lat="45.94359" lon="4.72452">
        <ele>173</ele>
        <time>2018-02-23T11:36:42Z</time>
      </trkpt>
      <trkpt lat="45.94358" lon="4.72447">
        <ele>173</ele>
        <time>2018-02-23T11:36:43Z</time>
      </trkpt>
      <trkpt lat="45.94355" lon="4.7244">
        <ele>173</ele>
        <time>2018-02-23T11:36:44Z</time>
      </trkpt>
      <trkpt lat="45.94353" lon="4.72434">
        <ele>173</ele>
        <time>2018-02-23T11:36:45Z</time>
      </trkpt>
      <trkpt lat="45.9435" lon="4.72428">
        <ele>173</ele>
        <time>2018-02-23T11:36:46Z</time>
      </trkpt>
      <trkpt lat="45.94348" lon="4.72421">
        <ele>173</ele>
        <time>2018-02-23T11:36:47Z</time>
      </trkpt>
      <trkpt lat="45.94346" lon="4.72415">
        <ele>173</ele>
        <time>2018-02-23T11:36:48Z</time>
      </trkpt>
      <trkpt lat="45.94343" lon="4.72409">
        <ele>173</ele>
        <time>2018-02-23T11:36:49Z</time>
      </trkpt>
      <trkpt lat="45.94339" lon="4.72401">
        <ele>173</ele>
        <time>2018-02-23T11:36:50Z</time>
      </trkpt>
      <trkpt lat="45.94336" lon="4.72394">
        <ele>172</ele>
        <time>2018-02-23T11:36:51Z</time>
      </trkpt>
      <trkpt lat="45.94332" lon="4.72387">
        <ele>172</ele>
        <time>2018-02-23T11:36:52Z</time>
      </trkpt>
      <trkpt lat="45.94328" lon="4.72381">
        <ele>172</ele>
        <time>2018-02-23T11:36:53Z</time>
      </trkpt>
      <trkpt lat="45.94324" lon="4.72376">
        <ele>172</ele>
        <time>2018-02-23T11:36:54Z</time>
      </trkpt>
      <trkpt lat="45.94321" lon="4.72367">
        <ele>172</ele>
        <time>2018-02-23T11:36:55Z</time>
      </trkpt>
      <trkpt lat="45.94317" lon="4.72361">
        <ele>172</ele>
        <time>2018-02-23T11:36:56Z</time>
      </trkpt>
      <trkpt lat="45.94313" lon="4.72355">
        <ele>172</ele>
        <time>2018-02-23T11:36:57Z</time>
      </trkpt>
      <trkpt lat="45.94309" lon="4.72347">
        <ele>172</ele>
        <time>2018-02-23T11:36:58Z</time>
      </trkpt>
      <trkpt lat="45.94306" lon="4.7234">
        <ele>172</ele>
        <time>2018-02-23T11:36:59Z</time>
      </trkpt>
      <trkpt lat="45.94303" lon="4.72332">
        <ele>171</ele>
        <time>2018-02-23T11:37:00Z</time>
      </trkpt>
      <trkpt lat="45.943" lon="4.72324">
        <ele>171</ele>
        <time>2018-02-23T11:37:01Z</time>
      </trkpt>
      <trkpt lat="45.94297" lon="4.72316">
        <ele>171</ele>
        <time>2018-02-23T11:37:02Z</time>
      </trkpt>
      <trkpt lat="45.94294" lon="4.72308">
        <ele>171</ele>
        <time>2018-02-23T11:37:03Z</time>
      </trkpt>
      <trkpt lat="45.94291" lon="4.723">
        <ele>171</ele>
        <time>2018-02-23T11:37:04Z</time>
      </trkpt>
      <trkpt lat="45.94287" lon="4.72293">
        <ele>171</ele>
        <time>2018-02-23T11:37:05Z</time>
      </trkpt>
      <trkpt lat="45.94284" lon="4.72287">
        <ele>171</ele>
        <time>2018-02-23T11:37:06Z</time>
      </trkpt>
      <trkpt lat="45.94278" lon="4.72282">
        <ele>171</ele>
        <time>2018-02-23T11:37:07Z</time>
      </trkpt>
      <trkpt lat="45.94274" lon="4.72278">
        <ele>171</ele>
        <time>2018-02-23T11:37:08Z</time>
      </trkpt>
      <trkpt lat="45.94269" lon="4.72278">
        <ele>171</ele>
        <time>2018-02-23T11:37:09Z</time>
      </trkpt>
      <trkpt lat="45.94263" lon="4.72279">
        <ele>171</ele>
        <time>2018-02-23T11:37:10Z</time>
      </trkpt>
      <trkpt lat="45.94257" lon="4.72282">
        <ele>171</ele>
        <time>2018-02-23T11:37:11Z</time>
      </trkpt>
      <trkpt lat="45.94252" lon="4.72284">
        <ele>171</ele>
        <time>2018-02-23T11:37:12Z</time>
      </trkpt>
      <trkpt lat="45.94248" lon="4.72286">
        <ele>171</ele>
        <time>2018-02-23T11:37:13Z</time>
      </trkpt>
      <trkpt lat="45.94243" lon="4.72288">
        <ele>171</ele>
        <time>2018-02-23T11:37:14Z</time>
      </trkpt>
      <trkpt lat="45.94238" lon="4.72288">
        <ele>171</ele>
        <time>2018-02-23T11:37:15Z</time>
      </trkpt>
      <trkpt lat="45.94232" lon="4.7229">
        <ele>171</ele>
        <time>2018-02-23T11:37:16Z</time>
      </trkpt>
      <trkpt lat="45.94227" lon="4.72292">
        <ele>171</ele>
        <time>2018-02-23T11:37:17Z</time>
      </trkpt>
      <trkpt lat="45.94221" lon="4.72293">
        <ele>171</ele>
        <time>2018-02-23T11:37:18Z</time>
      </trkpt>
      <trkpt lat="45.94215" lon="4.72295">
        <ele>171</ele>
        <time>2018-02-23T11:37:19Z</time>
      </trkpt>
      <trkpt lat="45.94209" lon="4.72295">
        <ele>171</ele>
        <time>2018-02-23T11:37:20Z</time>
      </trkpt>
      <trkpt lat="45.94203" lon="4.72294">
        <ele>171</ele>
        <time>2018-02-23T11:37:21Z</time>
      </trkpt>
      <trkpt lat="45.94197" lon="4.72294">
        <ele>171</ele>
        <time>2018-02-23T11:37:22Z</time>
      </trkpt>
      <trkpt lat="45.94192" lon="4.72293">
        <ele>171</ele>
        <time>2018-02-23T11:37:23Z</time>
      </trkpt>
      <trkpt lat="45.94186" lon="4.72292">
        <ele>171</ele>
        <time>2018-02-23T11:37:24Z</time>
      </trkpt>
      <trkpt lat="45.94181" lon="4.72292">
        <ele>171</ele>
        <time>2018-02-23T11:37:25Z</time>
      </trkpt>
      <trkpt lat="45.94176" lon="4.72292">
        <ele>171</ele>
        <time>2018-02-23T11:37:26Z</time>
      </trkpt>
      <trkpt lat="45.94169" lon="4.72291">
        <ele>171</ele>
        <time>2018-02-23T11:37:27Z</time>
      </trkpt>
      <trkpt lat="45.94165" lon="4.7229">
        <ele>171</ele>
        <time>2018-02-23T11:37:28Z</time>
      </trkpt>
      <trkpt lat="45.9416" lon="4.72288">
        <ele>171</ele>
        <time>2018-02-23T11:37:29Z</time>
      </trkpt>
      <trkpt lat="45.94154" lon="4.72287">
        <ele>171</ele>
        <time>2018-02-23T11:37:30Z</time>
      </trkpt>
      <trkpt lat="45.94149" lon="4.72285">
        <ele>171</ele>
        <time>2018-02-23T11:37:31Z</time>
      </trkpt>
      <trkpt lat="45.94144" lon="4.72283">
        <ele>171</ele>
        <time>2018-02-23T11:37:32Z</time>
      </trkpt>
      <trkpt lat="45.94139" lon="4.7228">
        <ele>171</ele>
        <time>2018-02-23T11:37:33Z</time>
      </trkpt>
      <trkpt lat="45.94133" lon="4.72278">
        <ele>171</ele>
        <time>2018-02-23T11:37:34Z</time>
      </trkpt>
      <trkpt lat="45.94128" lon="4.72275">
        <ele>171</ele>
        <time>2018-02-23T11:37:35Z</time>
      </trkpt>
      <trkpt lat="45.94123" lon="4.72273">
        <ele>171</ele>
        <time>2018-02-23T11:37:36Z</time>
      </trkpt>
      <trkpt lat="45.94119" lon="4.7227">
        <ele>171</ele>
        <time>2018-02-23T11:37:37Z</time>
      </trkpt>
      <trkpt lat="45.94114" lon="4.72269">
        <ele>171</ele>
        <time>2018-02-23T11:37:38Z</time>
      </trkpt>
      <trkpt lat="45.94108" lon="4.72267">
        <ele>171</ele>
        <time>2018-02-23T11:37:39Z</time>
      </trkpt>
      <trkpt lat="45.94104" lon="4.72266">
        <ele>171</ele>
        <time>2018-02-23T11:37:40Z</time>
      </trkpt>
      <trkpt lat="45.94099" lon="4.72265">
        <ele>171</ele>
        <time>2018-02-23T11:37:41Z</time>
      </trkpt>
      <trkpt lat="45.94094" lon="4.72266">
        <ele>171</ele>
        <time>2018-02-23T11:37:42Z</time>
      </trkpt>
      <trkpt lat="45.94088" lon="4.72266">
        <ele>171</ele>
        <time>2018-02-23T11:37:43Z</time>
      </trkpt>
      <trkpt lat="45.94083" lon="4.72268">
        <ele>171</ele>
        <time>2018-02-23T11:37:44Z</time>
      </trkpt>
      <trkpt lat="45.94078" lon="4.72272">
        <ele>171</ele>
        <time>2018-02-23T11:37:45Z</time>
      </trkpt>
      <trkpt lat="45.94073" lon="4.72276">
        <ele>171</ele>
        <time>2018-02-23T11:37:46Z</time>
      </trkpt>
      <trkpt lat="45.94069" lon="4.7228">
        <ele>171</ele>
        <time>2018-02-23T11:37:47Z</time>
      </trkpt>
      <trkpt lat="45.94064" lon="4.72285">
        <ele>171</ele>
        <time>2018-02-23T11:37:48Z</time>
      </trkpt>
      <trkpt lat="45.9406" lon="4.7229">
        <ele>171</ele>
        <time>2018-02-23T11:37:49Z</time>
      </trkpt>
      <trkpt lat="45.94055" lon="4.72296">
        <ele>171</ele>
        <time>2018-02-23T11:37:50Z</time>
      </trkpt>
      <trkpt lat="45.94051" lon="4.723">
        <ele>171</ele>
        <time>2018-02-23T11:37:51Z</time>
      </trkpt>
      <trkpt lat="45.94046" lon="4.72306">
        <ele>171</ele>
        <time>2018-02-23T11:37:52Z</time>
      </trkpt>
      <trkpt lat="45.94041" lon="4.72311">
        <ele>171</ele>
        <time>2018-02-23T11:37:53Z</time>
      </trkpt>
      <trkpt lat="45.94037" lon="4.72316">
        <ele>171</ele>
        <time>2018-02-23T11:37:54Z</time>
      </trkpt>
      <trkpt lat="45.94033" lon="4.72321">
        <ele>171</ele>
        <time>2018-02-23T11:37:55Z</time>
      </trkpt>
      <trkpt lat="45.94028" lon="4.72327">
        <ele>171</ele>
        <time>2018-02-23T11:37:56Z</time>
      </trkpt>
      <trkpt lat="45.94024" lon="4.72333">
        <ele>171</ele>
        <time>2018-02-23T11:37:57Z</time>
      </trkpt>
      <trkpt lat="45.94021" lon="4.72339">
        <ele>171</ele>
        <time>2018-02-23T11:37:58Z</time>
      </trkpt>
      <trkpt lat="45.94017" lon="4.72345">
        <ele>171</ele>
        <time>2018-02-23T11:37:59Z</time>
      </trkpt>
      <trkpt lat="45.94013" lon="4.7235">
        <ele>171</ele>
        <time>2018-02-23T11:38:00Z</time>
      </trkpt>
      <trkpt lat="45.94009" lon="4.72355">
        <ele>171</ele>
        <time>2018-02-23T11:38:01Z</time>
      </trkpt>
      <trkpt lat="45.94005" lon="4.7236">
        <ele>171</ele>
        <time>2018-02-23T11:38:02Z</time>
      </trkpt>
      <trkpt lat="45.94001" lon="4.72365">
        <ele>171</ele>
        <time>2018-02-23T11:38:03Z</time>
      </trkpt>
      <trkpt lat="45.93997" lon="4.7237">
        <ele>171</ele>
        <time>2018-02-23T11:38:04Z</time>
      </trkpt>
      <trkpt lat="45.93994" lon="4.72373">
        <ele>171</ele>
        <time>2018-02-23T11:38:05Z</time>
      </trkpt>
      <trkpt lat="45.93991" lon="4.72378">
        <ele>171</ele>
        <time>2018-02-23T11:38:06Z</time>
      </trkpt>
      <trkpt lat="45.93987" lon="4.72383">
        <ele>171</ele>
        <time>2018-02-23T11:38:07Z</time>
      </trkpt>
      <trkpt lat="45.93983" lon="4.72388">
        <ele>171</ele>
        <time>2018-02-23T11:38:08Z</time>
      </trkpt>
      <trkpt lat="45.93978" lon="4.72394">
        <ele>171</ele>
        <time>2018-02-23T11:38:09Z</time>
      </trkpt>
      <trkpt lat="45.93974" lon="4.724">
        <ele>171</ele>
        <time>2018-02-23T11:38:10Z</time>
      </trkpt>
      <trkpt lat="45.9397" lon="4.72404">
        <ele>171</ele>
        <time>2018-02-23T11:38:11Z</time>
      </trkpt>
      <trkpt lat="45.93965" lon="4.72409">
        <ele>171</ele>
        <time>2018-02-23T11:38:12Z</time>
      </trkpt>
      <trkpt lat="45.93961" lon="4.72414">
        <ele>171</ele>
        <time>2018-02-23T11:38:13Z</time>
      </trkpt>
      <trkpt lat="45.93957" lon="4.72419">
        <ele>171</ele>
        <time>2018-02-23T11:38:14Z</time>
      </trkpt>
      <trkpt lat="45.93952" lon="4.72424">
        <ele>171</ele>
        <time>2018-02-23T11:38:15Z</time>
      </trkpt>
      <trkpt lat="45.93948" lon="4.72429">
        <ele>171</ele>
        <time>2018-02-23T11:38:16Z</time>
      </trkpt>
      <trkpt lat="45.93944" lon="4.72434">
        <ele>171</ele>
        <time>2018-02-23T11:38:17Z</time>
      </trkpt>
      <trkpt lat="45.9394" lon="4.7244">
        <ele>171</ele>
        <time>2018-02-23T11:38:18Z</time>
      </trkpt>
      <trkpt lat="45.93936" lon="4.72445">
        <ele>171</ele>
        <time>2018-02-23T11:38:19Z</time>
      </trkpt>
      <trkpt lat="45.93932" lon="4.72451">
        <ele>171</ele>
        <time>2018-02-23T11:38:20Z</time>
      </trkpt>
      <trkpt lat="45.93927" lon="4.72456">
        <ele>171</ele>
        <time>2018-02-23T11:38:21Z</time>
      </trkpt>
      <trkpt lat="45.93923" lon="4.72461">
        <ele>171</ele>
        <time>2018-02-23T11:38:22Z</time>
      </trkpt>
      <trkpt lat="45.93919" lon="4.72466">
        <ele>171</ele>
        <time>2018-02-23T11:38:23Z</time>
      </trkpt>
      <trkpt lat="45.93914" lon="4.72471">
        <ele>172</ele>
        <time>2018-02-23T11:38:24Z</time>
      </trkpt>
      <trkpt lat="45.9391" lon="4.72477">
        <ele>172</ele>
        <time>2018-02-23T11:38:25Z</time>
      </trkpt>
      <trkpt lat="45.93905" lon="4.72482">
        <ele>172</ele>
        <time>2018-02-23T11:38:26Z</time>
      </trkpt>
      <trkpt lat="45.93901" lon="4.72488">
        <ele>172</ele>
        <time>2018-02-23T11:38:27Z</time>
      </trkpt>
      <trkpt lat="45.93896" lon="4.72493">
        <ele>172</ele>
        <time>2018-02-23T11:38:28Z</time>
      </trkpt>
      <trkpt lat="45.93892" lon="4.72498">
        <ele>172</ele>
        <time>2018-02-23T11:38:29Z</time>
      </trkpt>
      <trkpt lat="45.93888" lon="4.72504">
        <ele>173</ele>
        <time>2018-02-23T11:38:30Z</time>
      </trkpt>
      <trkpt lat="45.93883" lon="4.72509">
        <ele>173</ele>
        <time>2018-02-23T11:38:31Z</time>
      </trkpt>
      <trkpt lat="45.93878" lon="4.72513">
        <ele>173</ele>
        <time>2018-02-23T11:38:32Z</time>
      </trkpt>
      <trkpt lat="45.93874" lon="4.72516">
        <ele>173</ele>
        <time>2018-02-23T11:38:33Z</time>
      </trkpt>
      <trkpt lat="45.93869" lon="4.72516">
        <ele>173</ele>
        <time>2018-02-23T11:38:34Z</time>
      </trkpt>
      <trkpt lat="45.93864" lon="4.72515">
        <ele>173</ele>
        <time>2018-02-23T11:38:35Z</time>
      </trkpt>
      <trkpt lat="45.9386" lon="4.72514">
        <ele>173</ele>
        <time>2018-02-23T11:38:36Z</time>
      </trkpt>
      <trkpt lat="45.93855" lon="4.72513">
        <ele>173</ele>
        <time>2018-02-23T11:38:37Z</time>
      </trkpt>
      <trkpt lat="45.9385" lon="4.72507">
        <ele>174</ele>
        <time>2018-02-23T11:38:42Z</time>
      </trkpt>
      <trkpt lat="45.93828" lon="4.72484">
        <ele>173</ele>
        <time>2018-02-23T11:38:43Z</time>
      </trkpt>
      <trkpt lat="45.93823" lon="4.72481">
        <ele>173</ele>
        <time>2018-02-23T11:38:44Z</time>
      </trkpt>
      <trkpt lat="45.9382" lon="4.72472">
        <ele>172</ele>
        <time>2018-02-23T11:38:45Z</time>
      </trkpt>
      <trkpt lat="45.93816" lon="4.72469">
        <ele>172</ele>
        <time>2018-02-23T11:38:46Z</time>
      </trkpt>
      <trkpt lat="45.93811" lon="4.72464">
        <ele>172</ele>
        <time>2018-02-23T11:38:47Z</time>
      </trkpt>
      <trkpt lat="45.93805" lon="4.72462">
        <ele>172</ele>
        <time>2018-02-23T11:38:48Z</time>
      </trkpt>
      <trkpt lat="45.93801" lon="4.72456">
        <ele>172</ele>
        <time>2018-02-23T11:38:49Z</time>
      </trkpt>
      <trkpt lat="45.93798" lon="4.7245">
        <ele>172</ele>
        <time>2018-02-23T11:38:50Z</time>
      </trkpt>
      <trkpt lat="45.93794" lon="4.72448">
        <ele>172</ele>
        <time>2018-02-23T11:38:51Z</time>
      </trkpt>
      <trkpt lat="45.93789" lon="4.72441">
        <ele>172</ele>
        <time>2018-02-23T11:38:53Z</time>
      </trkpt>
      <trkpt lat="45.93785" lon="4.72435">
        <ele>172</ele>
        <time>2018-02-23T11:38:54Z</time>
      </trkpt>
      <trkpt lat="45.93778" lon="4.72428">
        <ele>172</ele>
        <time>2018-02-23T11:38:56Z</time>
      </trkpt>
      <trkpt lat="45.93774" lon="4.72424">
        <ele>171</ele>
        <time>2018-02-23T11:38:57Z</time>
      </trkpt>
      <trkpt lat="45.9377" lon="4.7242">
        <ele>171</ele>
        <time>2018-02-23T11:38:58Z</time>
      </trkpt>
      <trkpt lat="45.93767" lon="4.72416">
        <ele>171</ele>
        <time>2018-02-23T11:38:59Z</time>
      </trkpt>
      <trkpt lat="45.93759" lon="4.72411">
        <ele>171</ele>
        <time>2018-02-23T11:39:01Z</time>
      </trkpt>
      <trkpt lat="45.93756" lon="4.72406">
        <ele>171</ele>
        <time>2018-02-23T11:39:02Z</time>
      </trkpt>
      <trkpt lat="45.93749" lon="4.72402">
        <ele>171</ele>
        <time>2018-02-23T11:39:03Z</time>
      </trkpt>
      <trkpt lat="45.93745" lon="4.72399">
        <ele>171</ele>
        <time>2018-02-23T11:39:04Z</time>
      </trkpt>
      <trkpt lat="45.93741" lon="4.72396">
        <ele>171</ele>
        <time>2018-02-23T11:39:05Z</time>
      </trkpt>
      <trkpt lat="45.93737" lon="4.72393">
        <ele>171</ele>
        <time>2018-02-23T11:39:06Z</time>
      </trkpt>
      <trkpt lat="45.93733" lon="4.72389">
        <ele>171</ele>
        <time>2018-02-23T11:39:07Z</time>
      </trkpt>
      <trkpt lat="45.93727" lon="4.72384">
        <ele>171</ele>
        <time>2018-02-23T11:39:08Z</time>
      </trkpt>
      <trkpt lat="45.93723" lon="4.72379">
        <ele>171</ele>
        <time>2018-02-23T11:39:09Z</time>
      </trkpt>
      <trkpt lat="45.93719" lon="4.72375">
        <ele>172</ele>
        <time>2018-02-23T11:39:10Z</time>
      </trkpt>
      <trkpt lat="45.93713" lon="4.72371">
        <ele>172</ele>
        <time>2018-02-23T11:39:11Z</time>
      </trkpt>
      <trkpt lat="45.9371" lon="4.72367">
        <ele>172</ele>
        <time>2018-02-23T11:39:12Z</time>
      </trkpt>
      <trkpt lat="45.93704" lon="4.72358">
        <ele>171</ele>
        <time>2018-02-23T11:39:14Z</time>
      </trkpt>
      <trkpt lat="45.93703" lon="4.72358">
        <ele>171</ele>
        <time>2018-02-23T11:39:15Z</time>
      </trkpt>
      <trkpt lat="45.93699" lon="4.72356">
        <ele>171</ele>
        <time>2018-02-23T11:39:16Z</time>
      </trkpt>
      <trkpt lat="45.93687" lon="4.72348">
        <ele>171</ele>
        <time>2018-02-23T11:39:17Z</time>
      </trkpt>
      <trkpt lat="45.93683" lon="4.72345">
        <ele>171</ele>
        <time>2018-02-23T11:39:18Z</time>
      </trkpt>
      <trkpt lat="45.93678" lon="4.72341">
        <ele>171</ele>
        <time>2018-02-23T11:39:19Z</time>
      </trkpt>
      <trkpt lat="45.93671" lon="4.72333">
        <ele>171</ele>
        <time>2018-02-23T11:39:21Z</time>
      </trkpt>
      <trkpt lat="45.93667" lon="4.7233">
        <ele>171</ele>
        <time>2018-02-23T11:39:22Z</time>
      </trkpt>
      <trkpt lat="45.9366" lon="4.72322">
        <ele>172</ele>
        <time>2018-02-23T11:39:24Z</time>
      </trkpt>
      <trkpt lat="45.93656" lon="4.72318">
        <ele>172</ele>
        <time>2018-02-23T11:39:25Z</time>
      </trkpt>
      <trkpt lat="45.9365" lon="4.72309">
        <ele>172</ele>
        <time>2018-02-23T11:39:27Z</time>
      </trkpt>
      <trkpt lat="45.93645" lon="4.72304">
        <ele>172</ele>
        <time>2018-02-23T11:39:28Z</time>
      </trkpt>
      <trkpt lat="45.93639" lon="4.72299">
        <ele>172</ele>
        <time>2018-02-23T11:39:32Z</time>
      </trkpt>
      <trkpt lat="45.93626" lon="4.72294">
        <ele>172</ele>
        <time>2018-02-23T11:39:33Z</time>
      </trkpt>
      <trkpt lat="45.93621" lon="4.72289">
        <ele>172</ele>
        <time>2018-02-23T11:39:34Z</time>
      </trkpt>
      <trkpt lat="45.93617" lon="4.72283">
        <ele>172</ele>
        <time>2018-02-23T11:39:35Z</time>
      </trkpt>
      <trkpt lat="45.93612" lon="4.72279">
        <ele>172</ele>
        <time>2018-02-23T11:39:36Z</time>
      </trkpt>
      <trkpt lat="45.93606" lon="4.72276">
        <ele>172</ele>
        <time>2018-02-23T11:39:37Z</time>
      </trkpt>
      <trkpt lat="45.93602" lon="4.72269">
        <ele>173</ele>
        <time>2018-02-23T11:39:38Z</time>
      </trkpt>
      <trkpt lat="45.93599" lon="4.72265">
        <ele>173</ele>
        <time>2018-02-23T11:39:39Z</time>
      </trkpt>
      <trkpt lat="45.93598" lon="4.7226">
        <ele>173</ele>
        <time>2018-02-23T11:39:40Z</time>
      </trkpt>
      <trkpt lat="45.93592" lon="4.72255">
        <ele>173</ele>
        <time>2018-02-23T11:39:41Z</time>
      </trkpt>
      <trkpt lat="45.93584" lon="4.72249">
        <ele>173</ele>
        <time>2018-02-23T11:39:43Z</time>
      </trkpt>
      <trkpt lat="45.93579" lon="4.72246">
        <ele>173</ele>
        <time>2018-02-23T11:39:44Z</time>
      </trkpt>
      <trkpt lat="45.93576" lon="4.72241">
        <ele>173</ele>
        <time>2018-02-23T11:39:45Z</time>
      </trkpt>
      <trkpt lat="45.93572" lon="4.72237">
        <ele>173</ele>
        <time>2018-02-23T11:39:46Z</time>
      </trkpt>
      <trkpt lat="45.93566" lon="4.72232">
        <ele>173</ele>
        <time>2018-02-23T11:39:49Z</time>
      </trkpt>
      <trkpt lat="45.93564" lon="4.72231">
        <ele>173</ele>
        <time>2018-02-23T11:39:50Z</time>
      </trkpt>
      <trkpt lat="45.93556" lon="4.72227">
        <ele>173</ele>
        <time>2018-02-23T11:39:54Z</time>
      </trkpt>
      <trkpt lat="45.93554" lon="4.72227">
        <ele>173</ele>
        <time>2018-02-23T11:39:55Z</time>
      </trkpt>
      <trkpt lat="45.93552" lon="4.72229">
        <ele>172</ele>
        <time>2018-02-23T11:39:56Z</time>
      </trkpt>
      <trkpt lat="45.93545" lon="4.72237">
        <ele>172</ele>
        <time>2018-02-23T11:39:57Z</time>
      </trkpt>
      <trkpt lat="45.93541" lon="4.72247">
        <ele>172</ele>
        <time>2018-02-23T11:39:59Z</time>
      </trkpt>
      <trkpt lat="45.93539" lon="4.72252">
        <ele>172</ele>
        <time>2018-02-23T11:40:00Z</time>
      </trkpt>
      <trkpt lat="45.93537" lon="4.72258">
        <ele>172</ele>
        <time>2018-02-23T11:40:01Z</time>
      </trkpt>
      <trkpt lat="45.93535" lon="4.72264">
        <ele>172</ele>
        <time>2018-02-23T11:40:02Z</time>
      </trkpt>
      <trkpt lat="45.93533" lon="4.7227">
        <ele>172</ele>
        <time>2018-02-23T11:40:03Z</time>
      </trkpt>
      <trkpt lat="45.9353" lon="4.72276">
        <ele>172</ele>
        <time>2018-02-23T11:40:04Z</time>
      </trkpt>
      <trkpt lat="45.93527" lon="4.72282">
        <ele>172</ele>
        <time>2018-02-23T11:40:05Z</time>
      </trkpt>
      <trkpt lat="45.93525" lon="4.72289">
        <ele>172</ele>
        <time>2018-02-23T11:40:06Z</time>
      </trkpt>
      <trkpt lat="45.93522" lon="4.72295">
        <ele>172</ele>
        <time>2018-02-23T11:40:07Z</time>
      </trkpt>
      <trkpt lat="45.93518" lon="4.72302">
        <ele>172</ele>
        <time>2018-02-23T11:40:08Z</time>
      </trkpt>
      <trkpt lat="45.93515" lon="4.72309">
        <ele>173</ele>
        <time>2018-02-23T11:40:09Z</time>
      </trkpt>
      <trkpt lat="45.9351" lon="4.72316">
        <ele>173</ele>
        <time>2018-02-23T11:40:10Z</time>
      </trkpt>
      <trkpt lat="45.93505" lon="4.72323">
        <ele>173</ele>
        <time>2018-02-23T11:40:11Z</time>
      </trkpt>
      <trkpt lat="45.935" lon="4.72329">
        <ele>173</ele>
        <time>2018-02-23T11:40:12Z</time>
      </trkpt>
      <trkpt lat="45.93496" lon="4.72335">
        <ele>173</ele>
        <time>2018-02-23T11:40:13Z</time>
      </trkpt>
      <trkpt lat="45.93491" lon="4.72342">
        <ele>173</ele>
        <time>2018-02-23T11:40:14Z</time>
      </trkpt>
      <trkpt lat="45.93487" lon="4.72348">
        <ele>173</ele>
        <time>2018-02-23T11:40:15Z</time>
      </trkpt>
      <trkpt lat="45.93482" lon="4.72354">
        <ele>173</ele>
        <time>2018-02-23T11:40:16Z</time>
      </trkpt>
      <trkpt lat="45.93477" lon="4.7236">
        <ele>173</ele>
        <time>2018-02-23T11:40:17Z</time>
      </trkpt>
      <trkpt lat="45.93472" lon="4.72366">
        <ele>173</ele>
        <time>2018-02-23T11:40:18Z</time>
      </trkpt>
      <trkpt lat="45.93469" lon="4.72373">
        <ele>173</ele>
        <time>2018-02-23T11:40:19Z</time>
      </trkpt>
      <trkpt lat="45.93465" lon="4.72378">
        <ele>173</ele>
        <time>2018-02-23T11:40:20Z</time>
      </trkpt>
      <trkpt lat="45.9346" lon="4.72383">
        <ele>173</ele>
        <time>2018-02-23T11:40:21Z</time>
      </trkpt>
      <trkpt lat="45.93455" lon="4.72388">
        <ele>173</ele>
        <time>2018-02-23T11:40:22Z</time>
      </trkpt>
      <trkpt lat="45.9345" lon="4.72392">
        <ele>173</ele>
        <time>2018-02-23T11:40:23Z</time>
      </trkpt>
      <trkpt lat="45.93445" lon="4.72395">
        <ele>173</ele>
        <time>2018-02-23T11:40:24Z</time>
      </trkpt>
      <trkpt lat="45.9344" lon="4.72398">
        <ele>173</ele>
        <time>2018-02-23T11:40:25Z</time>
      </trkpt>
      <trkpt lat="45.93434" lon="4.72402">
        <ele>174</ele>
        <time>2018-02-23T11:40:26Z</time>
      </trkpt>
      <trkpt lat="45.93429" lon="4.72404">
        <ele>174</ele>
        <time>2018-02-23T11:40:27Z</time>
      </trkpt>
      <trkpt lat="45.93424" lon="4.72407">
        <ele>174</ele>
        <time>2018-02-23T11:40:28Z</time>
      </trkpt>
      <trkpt lat="45.93418" lon="4.7241">
        <ele>174</ele>
        <time>2018-02-23T11:40:29Z</time>
      </trkpt>
      <trkpt lat="45.93412" lon="4.72412">
        <ele>174</ele>
        <time>2018-02-23T11:40:30Z</time>
      </trkpt>
      <trkpt lat="45.93406" lon="4.72412">
        <ele>174</ele>
        <time>2018-02-23T11:40:31Z</time>
      </trkpt>
      <trkpt lat="45.93401" lon="4.72411">
        <ele>174</ele>
        <time>2018-02-23T11:40:32Z</time>
      </trkpt>
      <trkpt lat="45.93396" lon="4.7241">
        <ele>174</ele>
        <time>2018-02-23T11:40:33Z</time>
      </trkpt>
      <trkpt lat="45.9339" lon="4.72412">
        <ele>174</ele>
        <time>2018-02-23T11:40:34Z</time>
      </trkpt>
      <trkpt lat="45.93385" lon="4.7242">
        <ele>173</ele>
        <time>2018-02-23T11:40:36Z</time>
      </trkpt>
      <trkpt lat="45.93384" lon="4.72425">
        <ele>173</ele>
        <time>2018-02-23T11:40:37Z</time>
      </trkpt>
      <trkpt lat="45.93387" lon="4.72432">
        <ele>173</ele>
        <time>2018-02-23T11:40:38Z</time>
      </trkpt>
      <trkpt lat="45.93389" lon="4.72438">
        <ele>173</ele>
        <time>2018-02-23T11:40:39Z</time>
      </trkpt>
      <trkpt lat="45.93391" lon="4.72444">
        <ele>173</ele>
        <time>2018-02-23T11:40:40Z</time>
      </trkpt>
      <trkpt lat="45.93392" lon="4.72451">
        <ele>173</ele>
        <time>2018-02-23T11:40:41Z</time>
      </trkpt>
      <trkpt lat="45.93391" lon="4.72459">
        <ele>173</ele>
        <time>2018-02-23T11:40:42Z</time>
      </trkpt>
      <trkpt lat="45.93389" lon="4.72467">
        <ele>173</ele>
        <time>2018-02-23T11:40:43Z</time>
      </trkpt>
      <trkpt lat="45.93385" lon="4.72474">
        <ele>173</ele>
        <time>2018-02-23T11:40:44Z</time>
      </trkpt>
      <trkpt lat="45.9338" lon="4.72479">
        <ele>173</ele>
        <time>2018-02-23T11:40:45Z</time>
      </trkpt>
      <trkpt lat="45.93376" lon="4.72484">
        <ele>173</ele>
        <time>2018-02-23T11:40:46Z</time>
      </trkpt>
      <trkpt lat="45.9337" lon="4.7249">
        <ele>173</ele>
        <time>2018-02-23T11:40:47Z</time>
      </trkpt>
      <trkpt lat="45.93366" lon="4.72495">
        <ele>173</ele>
        <time>2018-02-23T11:40:48Z</time>
      </trkpt>
      <trkpt lat="45.93362" lon="4.725">
        <ele>173</ele>
        <time>2018-02-23T11:40:49Z</time>
      </trkpt>
      <trkpt lat="45.93358" lon="4.72505">
        <ele>172</ele>
        <time>2018-02-23T11:40:50Z</time>
      </trkpt>
      <trkpt lat="45.93352" lon="4.7251">
        <ele>172</ele>
        <time>2018-02-23T11:40:51Z</time>
      </trkpt>
      <trkpt lat="45.93347" lon="4.72515">
        <ele>172</ele>
        <time>2018-02-23T11:40:52Z</time>
      </trkpt>
      <trkpt lat="45.93342" lon="4.72522">
        <ele>172</ele>
        <time>2018-02-23T11:40:53Z</time>
      </trkpt>
      <trkpt lat="45.93338" lon="4.72527">
        <ele>172</ele>
        <time>2018-02-23T11:40:54Z</time>
      </trkpt>
      <trkpt lat="45.93334" lon="4.72532">
        <ele>172</ele>
        <time>2018-02-23T11:40:55Z</time>
      </trkpt>
      <trkpt lat="45.93329" lon="4.72537">
        <ele>172</ele>
        <time>2018-02-23T11:40:56Z</time>
      </trkpt>
      <trkpt lat="45.93325" lon="4.72542">
        <ele>172</ele>
        <time>2018-02-23T11:40:57Z</time>
      </trkpt>
      <trkpt lat="45.9332" lon="4.72548">
        <ele>172</ele>
        <time>2018-02-23T11:40:58Z</time>
      </trkpt>
      <trkpt lat="45.93316" lon="4.72553">
        <ele>172</ele>
        <time>2018-02-23T11:40:59Z</time>
      </trkpt>
      <trkpt lat="45.93314" lon="4.72559">
        <ele>171</ele>
        <time>2018-02-23T11:41:00Z</time>
      </trkpt>
      <trkpt lat="45.93308" lon="4.72565">
        <ele>171</ele>
        <time>2018-02-23T11:41:01Z</time>
      </trkpt>
      <trkpt lat="45.93303" lon="4.72571">
        <ele>171</ele>
        <time>2018-02-23T11:41:02Z</time>
      </trkpt>
      <trkpt lat="45.93298" lon="4.72577">
        <ele>171</ele>
        <time>2018-02-23T11:41:03Z</time>
      </trkpt>
      <trkpt lat="45.93292" lon="4.72582">
        <ele>171</ele>
        <time>2018-02-23T11:41:04Z</time>
      </trkpt>
      <trkpt lat="45.93287" lon="4.72587">
        <ele>170</ele>
        <time>2018-02-23T11:41:05Z</time>
      </trkpt>
      <trkpt lat="45.93283" lon="4.72592">
        <ele>170</ele>
        <time>2018-02-23T11:41:06Z</time>
      </trkpt>
      <trkpt lat="45.93279" lon="4.72597">
        <ele>170</ele>
        <time>2018-02-23T11:41:07Z</time>
      </trkpt>
      <trkpt lat="45.93274" lon="4.72603">
        <ele>170</ele>
        <time>2018-02-23T11:41:08Z</time>
      </trkpt>
      <trkpt lat="45.9327" lon="4.72608">
        <ele>170</ele>
        <time>2018-02-23T11:41:09Z</time>
      </trkpt>
      <trkpt lat="45.93265" lon="4.72614">
        <ele>170</ele>
        <time>2018-02-23T11:41:10Z</time>
      </trkpt>
      <trkpt lat="45.93261" lon="4.7262">
        <ele>170</ele>
        <time>2018-02-23T11:41:11Z</time>
      </trkpt>
      <trkpt lat="45.93256" lon="4.72626">
        <ele>170</ele>
        <time>2018-02-23T11:41:12Z</time>
      </trkpt>
      <trkpt lat="45.93251" lon="4.72631">
        <ele>170</ele>
        <time>2018-02-23T11:41:13Z</time>
      </trkpt>
      <trkpt lat="45.93246" lon="4.72635">
        <ele>170</ele>
        <time>2018-02-23T11:41:14Z</time>
      </trkpt>
      <trkpt lat="45.93242" lon="4.7264">
        <ele>170</ele>
        <time>2018-02-23T11:41:15Z</time>
      </trkpt>
      <trkpt lat="45.93236" lon="4.72645">
        <ele>170</ele>
        <time>2018-02-23T11:41:16Z</time>
      </trkpt>
      <trkpt lat="45.93232" lon="4.72649">
        <ele>170</ele>
        <time>2018-02-23T11:41:17Z</time>
      </trkpt>
      <trkpt lat="45.93228" lon="4.72655">
        <ele>170</ele>
        <time>2018-02-23T11:41:18Z</time>
      </trkpt>
      <trkpt lat="45.93223" lon="4.7266">
        <ele>170</ele>
        <time>2018-02-23T11:41:19Z</time>
      </trkpt>
      <trkpt lat="45.93219" lon="4.72665">
        <ele>170</ele>
        <time>2018-02-23T11:41:20Z</time>
      </trkpt>
      <trkpt lat="45.93215" lon="4.72671">
        <ele>169</ele>
        <time>2018-02-23T11:41:21Z</time>
      </trkpt>
      <trkpt lat="45.93211" lon="4.72677">
        <ele>169</ele>
        <time>2018-02-23T11:41:22Z</time>
      </trkpt>
      <trkpt lat="45.93207" lon="4.72682">
        <ele>169</ele>
        <time>2018-02-23T11:41:23Z</time>
      </trkpt>
      <trkpt lat="45.93203" lon="4.72687">
        <ele>169</ele>
        <time>2018-02-23T11:41:24Z</time>
      </trkpt>
      <trkpt lat="45.93198" lon="4.72692">
        <ele>169</ele>
        <time>2018-02-23T11:41:25Z</time>
      </trkpt>
      <trkpt lat="45.93193" lon="4.72697">
        <ele>169</ele>
        <time>2018-02-23T11:41:26Z</time>
      </trkpt>
      <trkpt lat="45.93188" lon="4.72703">
        <ele>169</ele>
        <time>2018-02-23T11:41:27Z</time>
      </trkpt>
      <trkpt lat="45.93183" lon="4.72709">
        <ele>169</ele>
        <time>2018-02-23T11:41:28Z</time>
      </trkpt>
      <trkpt lat="45.93178" lon="4.72715">
        <ele>169</ele>
        <time>2018-02-23T11:41:29Z</time>
      </trkpt>
      <trkpt lat="45.93173" lon="4.7272">
        <ele>170</ele>
        <time>2018-02-23T11:41:30Z</time>
      </trkpt>
      <trkpt lat="45.93168" lon="4.72727">
        <ele>170</ele>
        <time>2018-02-23T11:41:31Z</time>
      </trkpt>
      <trkpt lat="45.93163" lon="4.72733">
        <ele>170</ele>
        <time>2018-02-23T11:41:32Z</time>
      </trkpt>
      <trkpt lat="45.93158" lon="4.72739">
        <ele>170</ele>
        <time>2018-02-23T11:41:33Z</time>
      </trkpt>
      <trkpt lat="45.93153" lon="4.72744">
        <ele>170</ele>
        <time>2018-02-23T11:41:34Z</time>
      </trkpt>
      <trkpt lat="45.93148" lon="4.7275">
        <ele>170</ele>
        <time>2018-02-23T11:41:35Z</time>
      </trkpt>
      <trkpt lat="45.93143" lon="4.72757">
        <ele>171</ele>
        <time>2018-02-23T11:41:36Z</time>
      </trkpt>
      <trkpt lat="45.93138" lon="4.72763">
        <ele>171</ele>
        <time>2018-02-23T11:41:37Z</time>
      </trkpt>
      <trkpt lat="45.93133" lon="4.72769">
        <ele>171</ele>
        <time>2018-02-23T11:41:38Z</time>
      </trkpt>
      <trkpt lat="45.93128" lon="4.72775">
        <ele>171</ele>
        <time>2018-02-23T11:41:39Z</time>
      </trkpt>
      <trkpt lat="45.93122" lon="4.72782">
        <ele>171</ele>
        <time>2018-02-23T11:41:40Z</time>
      </trkpt>
      <trkpt lat="45.93117" lon="4.72788">
        <ele>171</ele>
        <time>2018-02-23T11:41:41Z</time>
      </trkpt>
      <trkpt lat="45.93112" lon="4.72794">
        <ele>171</ele>
        <time>2018-02-23T11:41:42Z</time>
      </trkpt>
      <trkpt lat="45.93107" lon="4.728">
        <ele>171</ele>
        <time>2018-02-23T11:41:43Z</time>
      </trkpt>
      <trkpt lat="45.93101" lon="4.72806">
        <ele>171</ele>
        <time>2018-02-23T11:41:44Z</time>
      </trkpt>
      <trkpt lat="45.93095" lon="4.72812">
        <ele>172</ele>
        <time>2018-02-23T11:41:45Z</time>
      </trkpt>
      <trkpt lat="45.9309" lon="4.72818">
        <ele>172</ele>
        <time>2018-02-23T11:41:46Z</time>
      </trkpt>
      <trkpt lat="45.93084" lon="4.72824">
        <ele>172</ele>
        <time>2018-02-23T11:41:47Z</time>
      </trkpt>
      <trkpt lat="45.93079" lon="4.72826">
        <ele>173</ele>
        <time>2018-02-23T11:41:48Z</time>
      </trkpt>
      <trkpt lat="45.9306" lon="4.7285">
        <ele>172</ele>
        <time>2018-02-23T11:41:52Z</time>
      </trkpt>
      <trkpt lat="45.93054" lon="4.72857">
        <ele>172</ele>
        <time>2018-02-23T11:41:53Z</time>
      </trkpt>
      <trkpt lat="45.93049" lon="4.72865">
        <ele>172</ele>
        <time>2018-02-23T11:41:54Z</time>
      </trkpt>
      <trkpt lat="45.93043" lon="4.72872">
        <ele>172</ele>
        <time>2018-02-23T11:41:55Z</time>
      </trkpt>
      <trkpt lat="45.93036" lon="4.72878">
        <ele>172</ele>
        <time>2018-02-23T11:41:56Z</time>
      </trkpt>
      <trkpt lat="45.93032" lon="4.72885">
        <ele>172</ele>
        <time>2018-02-23T11:41:57Z</time>
      </trkpt>
      <trkpt lat="45.93026" lon="4.72892">
        <ele>172</ele>
        <time>2018-02-23T11:41:58Z</time>
      </trkpt>
      <trkpt lat="45.9302" lon="4.72897">
        <ele>172</ele>
        <time>2018-02-23T11:41:59Z</time>
      </trkpt>
      <trkpt lat="45.93014" lon="4.72904">
        <ele>172</ele>
        <time>2018-02-23T11:42:00Z</time>
      </trkpt>
      <trkpt lat="45.93009" lon="4.7291">
        <ele>171</ele>
        <time>2018-02-23T11:42:01Z</time>
      </trkpt>
      <trkpt lat="45.93004" lon="4.72916">
        <ele>171</ele>
        <time>2018-02-23T11:42:02Z</time>
      </trkpt>
      <trkpt lat="45.92999" lon="4.72922">
        <ele>171</ele>
        <time>2018-02-23T11:42:03Z</time>
      </trkpt>
      <trkpt lat="45.92994" lon="4.72928">
        <ele>171</ele>
        <time>2018-02-23T11:42:04Z</time>
      </trkpt>
      <trkpt lat="45.92989" lon="4.72934">
        <ele>171</ele>
        <time>2018-02-23T11:42:05Z</time>
      </trkpt>
      <trkpt lat="45.92983" lon="4.7294">
        <ele>171</ele>
        <time>2018-02-23T11:42:06Z</time>
      </trkpt>
      <trkpt lat="45.92978" lon="4.72946">
        <ele>171</ele>
        <time>2018-02-23T11:42:07Z</time>
      </trkpt>
      <trkpt lat="45.92972" lon="4.72951">
        <ele>171</ele>
        <time>2018-02-23T11:42:08Z</time>
      </trkpt>
      <trkpt lat="45.92967" lon="4.72958">
        <ele>171</ele>
        <time>2018-02-23T11:42:09Z</time>
      </trkpt>
      <trkpt lat="45.92961" lon="4.72964">
        <ele>171</ele>
        <time>2018-02-23T11:42:10Z</time>
      </trkpt>
      <trkpt lat="45.92957" lon="4.7297">
        <ele>171</ele>
        <time>2018-02-23T11:42:11Z</time>
      </trkpt>
      <trkpt lat="45.92952" lon="4.72975">
        <ele>171</ele>
        <time>2018-02-23T11:42:12Z</time>
      </trkpt>
      <trkpt lat="45.92946" lon="4.72982">
        <ele>171</ele>
        <time>2018-02-23T11:42:13Z</time>
      </trkpt>
      <trkpt lat="45.92941" lon="4.72988">
        <ele>171</ele>
        <time>2018-02-23T11:42:14Z</time>
      </trkpt>
      <trkpt lat="45.92936" lon="4.72994">
        <ele>171</ele>
        <time>2018-02-23T11:42:15Z</time>
      </trkpt>
      <trkpt lat="45.92931" lon="4.73">
        <ele>172</ele>
        <time>2018-02-23T11:42:16Z</time>
      </trkpt>
      <trkpt lat="45.92926" lon="4.73006">
        <ele>172</ele>
        <time>2018-02-23T11:42:17Z</time>
      </trkpt>
      <trkpt lat="45.92922" lon="4.73011">
        <ele>172</ele>
        <time>2018-02-23T11:42:18Z</time>
      </trkpt>
      <trkpt lat="45.92917" lon="4.73017">
        <ele>172</ele>
        <time>2018-02-23T11:42:19Z</time>
      </trkpt>
      <trkpt lat="45.92912" lon="4.73023">
        <ele>172</ele>
        <time>2018-02-23T11:42:20Z</time>
      </trkpt>
      <trkpt lat="45.92908" lon="4.73029">
        <ele>172</ele>
        <time>2018-02-23T11:42:21Z</time>
      </trkpt>
      <trkpt lat="45.92904" lon="4.73036">
        <ele>172</ele>
        <time>2018-02-23T11:42:22Z</time>
      </trkpt>
      <trkpt lat="45.92901" lon="4.73042">
        <ele>172</ele>
        <time>2018-02-23T11:42:23Z</time>
      </trkpt>
      <trkpt lat="45.92897" lon="4.73049">
        <ele>172</ele>
        <time>2018-02-23T11:42:24Z</time>
      </trkpt>
      <trkpt lat="45.92893" lon="4.73054">
        <ele>172</ele>
        <time>2018-02-23T11:42:25Z</time>
      </trkpt>
      <trkpt lat="45.92889" lon="4.7306">
        <ele>172</ele>
        <time>2018-02-23T11:42:26Z</time>
      </trkpt>
      <trkpt lat="45.92885" lon="4.73065">
        <ele>172</ele>
        <time>2018-02-23T11:42:27Z</time>
      </trkpt>
      <trkpt lat="45.92881" lon="4.73071">
        <ele>172</ele>
        <time>2018-02-23T11:42:28Z</time>
      </trkpt>
      <trkpt lat="45.92878" lon="4.73077">
        <ele>172</ele>
        <time>2018-02-23T11:42:29Z</time>
      </trkpt>
      <trkpt lat="45.92874" lon="4.73082">
        <ele>172</ele>
        <time>2018-02-23T11:42:30Z</time>
      </trkpt>
      <trkpt lat="45.9287" lon="4.73087">
        <ele>172</ele>
        <time>2018-02-23T11:42:31Z</time>
      </trkpt>
      <trkpt lat="45.92866" lon="4.73092">
        <ele>172</ele>
        <time>2018-02-23T11:42:32Z</time>
      </trkpt>
      <trkpt lat="45.92862" lon="4.73098">
        <ele>171</ele>
        <time>2018-02-23T11:42:33Z</time>
      </trkpt>
      <trkpt lat="45.92858" lon="4.73102">
        <ele>171</ele>
        <time>2018-02-23T11:42:34Z</time>
      </trkpt>
      <trkpt lat="45.92851" lon="4.73105">
        <ele>171</ele>
        <time>2018-02-23T11:42:36Z</time>
      </trkpt>
      <trkpt lat="45.92847" lon="4.73103">
        <ele>171</ele>
        <time>2018-02-23T11:42:37Z</time>
      </trkpt>
      <trkpt lat="45.92844" lon="4.73094">
        <ele>171</ele>
        <time>2018-02-23T11:42:39Z</time>
      </trkpt>
      <trkpt lat="45.92844" lon="4.73088">
        <ele>171</ele>
        <time>2018-02-23T11:42:40Z</time>
      </trkpt>
      <trkpt lat="45.92842" lon="4.73078">
        <ele>171</ele>
        <time>2018-02-23T11:42:41Z</time>
      </trkpt>
      <trkpt lat="45.92841" lon="4.73071">
        <ele>171</ele>
        <time>2018-02-23T11:42:42Z</time>
      </trkpt>
      <trkpt lat="45.92841" lon="4.73063">
        <ele>171</ele>
        <time>2018-02-23T11:42:43Z</time>
      </trkpt>
      <trkpt lat="45.9284" lon="4.73055">
        <ele>171</ele>
        <time>2018-02-23T11:42:44Z</time>
      </trkpt>
      <trkpt lat="45.92839" lon="4.73047">
        <ele>171</ele>
        <time>2018-02-23T11:42:45Z</time>
      </trkpt>
      <trkpt lat="45.92838" lon="4.7304">
        <ele>171</ele>
        <time>2018-02-23T11:42:46Z</time>
      </trkpt>
      <trkpt lat="45.92836" lon="4.73032">
        <ele>171</ele>
        <time>2018-02-23T11:42:47Z</time>
      </trkpt>
      <trkpt lat="45.92834" lon="4.73025">
        <ele>171</ele>
        <time>2018-02-23T11:42:48Z</time>
      </trkpt>
      <trkpt lat="45.92833" lon="4.73017">
        <ele>170</ele>
        <time>2018-02-23T11:42:49Z</time>
      </trkpt>
      <trkpt lat="45.92832" lon="4.73009">
        <ele>170</ele>
        <time>2018-02-23T11:42:50Z</time>
      </trkpt>
      <trkpt lat="45.92831" lon="4.73002">
        <ele>170</ele>
        <time>2018-02-23T11:42:51Z</time>
      </trkpt>
      <trkpt lat="45.9283" lon="4.72995">
        <ele>170</ele>
        <time>2018-02-23T11:42:52Z</time>
      </trkpt>
      <trkpt lat="45.92831" lon="4.72988">
        <ele>170</ele>
        <time>2018-02-23T11:42:53Z</time>
      </trkpt>
      <trkpt lat="45.9283" lon="4.7298">
        <ele>170</ele>
        <time>2018-02-23T11:42:54Z</time>
      </trkpt>
      <trkpt lat="45.92829" lon="4.72973">
        <ele>170</ele>
        <time>2018-02-23T11:42:55Z</time>
      </trkpt>
      <trkpt lat="45.9283" lon="4.72966">
        <ele>170</ele>
        <time>2018-02-23T11:42:56Z</time>
      </trkpt>
      <trkpt lat="45.92828" lon="4.72959">
        <ele>170</ele>
        <time>2018-02-23T11:42:57Z</time>
      </trkpt>
      <trkpt lat="45.92827" lon="4.72952">
        <ele>170</ele>
        <time>2018-02-23T11:42:58Z</time>
      </trkpt>
      <trkpt lat="45.92826" lon="4.72945">
        <ele>170</ele>
        <time>2018-02-23T11:42:59Z</time>
      </trkpt>
      <trkpt lat="45.92825" lon="4.72937">
        <ele>170</ele>
        <time>2018-02-23T11:43:00Z</time>
      </trkpt>
      <trkpt lat="45.92824" lon="4.72929">
        <ele>170</ele>
        <time>2018-02-23T11:43:01Z</time>
      </trkpt>
      <trkpt lat="45.92823" lon="4.72921">
        <ele>170</ele>
        <time>2018-02-23T11:43:02Z</time>
      </trkpt>
      <trkpt lat="45.92822" lon="4.72914">
        <ele>170</ele>
        <time>2018-02-23T11:43:03Z</time>
      </trkpt>
      <trkpt lat="45.92822" lon="4.72906">
        <ele>170</ele>
        <time>2018-02-23T11:43:04Z</time>
      </trkpt>
      <trkpt lat="45.92821" lon="4.72899">
        <ele>170</ele>
        <time>2018-02-23T11:43:05Z</time>
      </trkpt>
      <trkpt lat="45.92819" lon="4.72891">
        <ele>170</ele>
        <time>2018-02-23T11:43:06Z</time>
      </trkpt>
      <trkpt lat="45.92818" lon="4.72884">
        <ele>170</ele>
        <time>2018-02-23T11:43:07Z</time>
      </trkpt>
      <trkpt lat="45.92816" lon="4.72877">
        <ele>170</ele>
        <time>2018-02-23T11:43:08Z</time>
      </trkpt>
      <trkpt lat="45.92814" lon="4.7287">
        <ele>170</ele>
        <time>2018-02-23T11:43:09Z</time>
      </trkpt>
      <trkpt lat="45.92812" lon="4.72863">
        <ele>170</ele>
        <time>2018-02-23T11:43:10Z</time>
      </trkpt>
      <trkpt lat="45.92811" lon="4.72855">
        <ele>170</ele>
        <time>2018-02-23T11:43:11Z</time>
      </trkpt>
      <trkpt lat="45.9281" lon="4.72848">
        <ele>170</ele>
        <time>2018-02-23T11:43:12Z</time>
      </trkpt>
      <trkpt lat="45.92808" lon="4.72841">
        <ele>170</ele>
        <time>2018-02-23T11:43:13Z</time>
      </trkpt>
      <trkpt lat="45.92808" lon="4.72833">
        <ele>171</ele>
        <time>2018-02-23T11:43:14Z</time>
      </trkpt>
      <trkpt lat="45.92808" lon="4.72824">
        <ele>171</ele>
        <time>2018-02-23T11:43:15Z</time>
      </trkpt>
      <trkpt lat="45.92806" lon="4.72817">
        <ele>171</ele>
        <time>2018-02-23T11:43:16Z</time>
      </trkpt>
      <trkpt lat="45.92805" lon="4.72809">
        <ele>171</ele>
        <time>2018-02-23T11:43:17Z</time>
      </trkpt>
      <trkpt lat="45.92803" lon="4.72801">
        <ele>171</ele>
        <time>2018-02-23T11:43:18Z</time>
      </trkpt>
      <trkpt lat="45.92802" lon="4.72793">
        <ele>171</ele>
        <time>2018-02-23T11:43:19Z</time>
      </trkpt>
      <trkpt lat="45.92798" lon="4.72789">
        <ele>171</ele>
        <time>2018-02-23T11:43:20Z</time>
      </trkpt>
      <trkpt lat="45.92791" lon="4.72788">
        <ele>171</ele>
        <time>2018-02-23T11:43:22Z</time>
      </trkpt>
      <trkpt lat="45.92786" lon="4.72791">
        <ele>170</ele>
        <time>2018-02-23T11:43:23Z</time>
      </trkpt>
      <trkpt lat="45.92782" lon="4.72795">
        <ele>170</ele>
        <time>2018-02-23T11:43:24Z</time>
      </trkpt>
      <trkpt lat="45.92778" lon="4.72799">
        <ele>170</ele>
        <time>2018-02-23T11:43:25Z</time>
      </trkpt>
      <trkpt lat="45.92774" lon="4.72803">
        <ele>170</ele>
        <time>2018-02-23T11:43:26Z</time>
      </trkpt>
      <trkpt lat="45.92768" lon="4.72807">
        <ele>170</ele>
        <time>2018-02-23T11:43:27Z</time>
      </trkpt>
      <trkpt lat="45.92764" lon="4.72811">
        <ele>170</ele>
        <time>2018-02-23T11:43:28Z</time>
      </trkpt>
      <trkpt lat="45.9276" lon="4.72814">
        <ele>170</ele>
        <time>2018-02-23T11:43:29Z</time>
      </trkpt>
      <trkpt lat="45.92755" lon="4.72817">
        <ele>170</ele>
        <time>2018-02-23T11:43:30Z</time>
      </trkpt>
      <trkpt lat="45.92751" lon="4.72821">
        <ele>170</ele>
        <time>2018-02-23T11:43:31Z</time>
      </trkpt>
      <trkpt lat="45.92745" lon="4.72824">
        <ele>169</ele>
        <time>2018-02-23T11:43:32Z</time>
      </trkpt>
      <trkpt lat="45.92741" lon="4.72829">
        <ele>169</ele>
        <time>2018-02-23T11:43:33Z</time>
      </trkpt>
      <trkpt lat="45.92736" lon="4.72832">
        <ele>169</ele>
        <time>2018-02-23T11:43:34Z</time>
      </trkpt>
      <trkpt lat="45.92731" lon="4.72837">
        <ele>169</ele>
        <time>2018-02-23T11:43:35Z</time>
      </trkpt>
      <trkpt lat="45.92726" lon="4.72841">
        <ele>169</ele>
        <time>2018-02-23T11:43:36Z</time>
      </trkpt>
      <trkpt lat="45.92722" lon="4.72844">
        <ele>169</ele>
        <time>2018-02-23T11:43:37Z</time>
      </trkpt>
      <trkpt lat="45.92716" lon="4.72848">
        <ele>169</ele>
        <time>2018-02-23T11:43:38Z</time>
      </trkpt>
      <trkpt lat="45.92711" lon="4.72851">
        <ele>169</ele>
        <time>2018-02-23T11:43:39Z</time>
      </trkpt>
      <trkpt lat="45.92706" lon="4.72855">
        <ele>169</ele>
        <time>2018-02-23T11:43:40Z</time>
      </trkpt>
      <trkpt lat="45.92701" lon="4.7286">
        <ele>169</ele>
        <time>2018-02-23T11:43:41Z</time>
      </trkpt>
      <trkpt lat="45.92696" lon="4.72865">
        <ele>169</ele>
        <time>2018-02-23T11:43:42Z</time>
      </trkpt>
      <trkpt lat="45.9269" lon="4.72869">
        <ele>169</ele>
        <time>2018-02-23T11:43:43Z</time>
      </trkpt>
      <trkpt lat="45.92685" lon="4.72874">
        <ele>169</ele>
        <time>2018-02-23T11:43:44Z</time>
      </trkpt>
      <trkpt lat="45.9268" lon="4.72878">
        <ele>170</ele>
        <time>2018-02-23T11:43:45Z</time>
      </trkpt>
      <trkpt lat="45.92674" lon="4.72881">
        <ele>170</ele>
        <time>2018-02-23T11:43:46Z</time>
      </trkpt>
      <trkpt lat="45.92669" lon="4.72885">
        <ele>170</ele>
        <time>2018-02-23T11:43:47Z</time>
      </trkpt>
      <trkpt lat="45.92664" lon="4.72888">
        <ele>169</ele>
        <time>2018-02-23T11:43:48Z</time>
      </trkpt>
      <trkpt lat="45.92659" lon="4.72892">
        <ele>169</ele>
        <time>2018-02-23T11:43:49Z</time>
      </trkpt>
      <trkpt lat="45.92654" lon="4.72896">
        <ele>170</ele>
        <time>2018-02-23T11:43:50Z</time>
      </trkpt>
      <trkpt lat="45.92648" lon="4.729">
        <ele>170</ele>
        <time>2018-02-23T11:43:51Z</time>
      </trkpt>
      <trkpt lat="45.92643" lon="4.72904">
        <ele>169</ele>
        <time>2018-02-23T11:43:52Z</time>
      </trkpt>
      <trkpt lat="45.92638" lon="4.72908">
        <ele>169</ele>
        <time>2018-02-23T11:43:53Z</time>
      </trkpt>
      <trkpt lat="45.92633" lon="4.72912">
        <ele>169</ele>
        <time>2018-02-23T11:43:54Z</time>
      </trkpt>
      <trkpt lat="45.92628" lon="4.72916">
        <ele>169</ele>
        <time>2018-02-23T11:43:55Z</time>
      </trkpt>
      <trkpt lat="45.92623" lon="4.7292">
        <ele>169</ele>
        <time>2018-02-23T11:43:56Z</time>
      </trkpt>
      <trkpt lat="45.92618" lon="4.72924">
        <ele>169</ele>
        <time>2018-02-23T11:43:57Z</time>
      </trkpt>
      <trkpt lat="45.92613" lon="4.72929">
        <ele>169</ele>
        <time>2018-02-23T11:43:58Z</time>
      </trkpt>
      <trkpt lat="45.92608" lon="4.72935">
        <ele>169</ele>
        <time>2018-02-23T11:43:59Z</time>
      </trkpt>
      <trkpt lat="45.92603" lon="4.72941">
        <ele>169</ele>
        <time>2018-02-23T11:44:00Z</time>
      </trkpt>
      <trkpt lat="45.92597" lon="4.72946">
        <ele>169</ele>
        <time>2018-02-23T11:44:01Z</time>
      </trkpt>
      <trkpt lat="45.92592" lon="4.72953">
        <ele>169</ele>
        <time>2018-02-23T11:44:02Z</time>
      </trkpt>
      <trkpt lat="45.92587" lon="4.72959">
        <ele>169</ele>
        <time>2018-02-23T11:44:03Z</time>
      </trkpt>
      <trkpt lat="45.92582" lon="4.72965">
        <ele>169</ele>
        <time>2018-02-23T11:44:04Z</time>
      </trkpt>
      <trkpt lat="45.92578" lon="4.7297">
        <ele>169</ele>
        <time>2018-02-23T11:44:05Z</time>
      </trkpt>
      <trkpt lat="45.92573" lon="4.72975">
        <ele>169</ele>
        <time>2018-02-23T11:44:06Z</time>
      </trkpt>
      <trkpt lat="45.92567" lon="4.72981">
        <ele>169</ele>
        <time>2018-02-23T11:44:07Z</time>
      </trkpt>
      <trkpt lat="45.92562" lon="4.72986">
        <ele>169</ele>
        <time>2018-02-23T11:44:08Z</time>
      </trkpt>
      <trkpt lat="45.92557" lon="4.72992">
        <ele>169</ele>
        <time>2018-02-23T11:44:09Z</time>
      </trkpt>
      <trkpt lat="45.92551" lon="4.72997">
        <ele>169</ele>
        <time>2018-02-23T11:44:10Z</time>
      </trkpt>
      <trkpt lat="45.92546" lon="4.73002">
        <ele>169</ele>
        <time>2018-02-23T11:44:11Z</time>
      </trkpt>
      <trkpt lat="45.9254" lon="4.73008">
        <ele>169</ele>
        <time>2018-02-23T11:44:12Z</time>
      </trkpt>
      <trkpt lat="45.92534" lon="4.73013">
        <ele>169</ele>
        <time>2018-02-23T11:44:13Z</time>
      </trkpt>
      <trkpt lat="45.92528" lon="4.73019">
        <ele>169</ele>
        <time>2018-02-23T11:44:14Z</time>
      </trkpt>
      <trkpt lat="45.92523" lon="4.73025">
        <ele>169</ele>
        <time>2018-02-23T11:44:15Z</time>
      </trkpt>
      <trkpt lat="45.92517" lon="4.7303">
        <ele>169</ele>
        <time>2018-02-23T11:44:16Z</time>
      </trkpt>
      <trkpt lat="45.9251" lon="4.73036">
        <ele>169</ele>
        <time>2018-02-23T11:44:17Z</time>
      </trkpt>
      <trkpt lat="45.92504" lon="4.7304">
        <ele>169</ele>
        <time>2018-02-23T11:44:18Z</time>
      </trkpt>
      <trkpt lat="45.92499" lon="4.73045">
        <ele>170</ele>
        <time>2018-02-23T11:44:19Z</time>
      </trkpt>
      <trkpt lat="45.92492" lon="4.7305">
        <ele>170</ele>
        <time>2018-02-23T11:44:20Z</time>
      </trkpt>
      <trkpt lat="45.92486" lon="4.73055">
        <ele>170</ele>
        <time>2018-02-23T11:44:21Z</time>
      </trkpt>
      <trkpt lat="45.9248" lon="4.7306">
        <ele>170</ele>
        <time>2018-02-23T11:44:22Z</time>
      </trkpt>
      <trkpt lat="45.92474" lon="4.73066">
        <ele>170</ele>
        <time>2018-02-23T11:44:23Z</time>
      </trkpt>
      <trkpt lat="45.92468" lon="4.73072">
        <ele>170</ele>
        <time>2018-02-23T11:44:24Z</time>
      </trkpt>
      <trkpt lat="45.92461" lon="4.73077">
        <ele>170</ele>
        <time>2018-02-23T11:44:25Z</time>
      </trkpt>
      <trkpt lat="45.92455" lon="4.73082">
        <ele>170</ele>
        <time>2018-02-23T11:44:26Z</time>
      </trkpt>
      <trkpt lat="45.92448" lon="4.73088">
        <ele>170</ele>
        <time>2018-02-23T11:44:27Z</time>
      </trkpt>
      <trkpt lat="45.92442" lon="4.73093">
        <ele>170</ele>
        <time>2018-02-23T11:44:28Z</time>
      </trkpt>
      <trkpt lat="45.92435" lon="4.73099">
        <ele>171</ele>
        <time>2018-02-23T11:44:29Z</time>
      </trkpt>
      <trkpt lat="45.92429" lon="4.73104">
        <ele>171</ele>
        <time>2018-02-23T11:44:30Z</time>
      </trkpt>
      <trkpt lat="45.92423" lon="4.73108">
        <ele>170</ele>
        <time>2018-02-23T11:44:31Z</time>
      </trkpt>
      <trkpt lat="45.92417" lon="4.73114">
        <ele>170</ele>
        <time>2018-02-23T11:44:32Z</time>
      </trkpt>
      <trkpt lat="45.92412" lon="4.73119">
        <ele>171</ele>
        <time>2018-02-23T11:44:33Z</time>
      </trkpt>
      <trkpt lat="45.92408" lon="4.73127">
        <ele>171</ele>
        <time>2018-02-23T11:44:34Z</time>
      </trkpt>
      <trkpt lat="45.92406" lon="4.73136">
        <ele>171</ele>
        <time>2018-02-23T11:44:35Z</time>
      </trkpt>
      <trkpt lat="45.92406" lon="4.73145">
        <ele>171</ele>
        <time>2018-02-23T11:44:36Z</time>
      </trkpt>
      <trkpt lat="45.92405" lon="4.73155">
        <ele>171</ele>
        <time>2018-02-23T11:44:37Z</time>
      </trkpt>
      <trkpt lat="45.92405" lon="4.73164">
        <ele>170</ele>
        <time>2018-02-23T11:44:38Z</time>
      </trkpt>
      <trkpt lat="45.92405" lon="4.73174">
        <ele>171</ele>
        <time>2018-02-23T11:44:39Z</time>
      </trkpt>
      <trkpt lat="45.92405" lon="4.73183">
        <ele>171</ele>
        <time>2018-02-23T11:44:40Z</time>
      </trkpt>
      <trkpt lat="45.92405" lon="4.73192">
        <ele>171</ele>
        <time>2018-02-23T11:44:41Z</time>
      </trkpt>
      <trkpt lat="45.92406" lon="4.732">
        <ele>171</ele>
        <time>2018-02-23T11:44:42Z</time>
      </trkpt>
      <trkpt lat="45.92407" lon="4.73209">
        <ele>171</ele>
        <time>2018-02-23T11:44:43Z</time>
      </trkpt>
      <trkpt lat="45.92408" lon="4.73217">
        <ele>171</ele>
        <time>2018-02-23T11:44:44Z</time>
      </trkpt>
      <trkpt lat="45.92408" lon="4.73225">
        <ele>171</ele>
        <time>2018-02-23T11:44:45Z</time>
      </trkpt>
      <trkpt lat="45.92409" lon="4.73233">
        <ele>171</ele>
        <time>2018-02-23T11:44:46Z</time>
      </trkpt>
      <trkpt lat="45.92409" lon="4.73241">
        <ele>171</ele>
        <time>2018-02-23T11:44:47Z</time>
      </trkpt>
      <trkpt lat="45.92409" lon="4.73249">
        <ele>171</ele>
        <time>2018-02-23T11:44:48Z</time>
      </trkpt>
      <trkpt lat="45.92409" lon="4.73257">
        <ele>171</ele>
        <time>2018-02-23T11:44:49Z</time>
      </trkpt>
      <trkpt lat="45.92409" lon="4.73265">
        <ele>171</ele>
        <time>2018-02-23T11:44:50Z</time>
      </trkpt>
      <trkpt lat="45.92409" lon="4.73273">
        <ele>171</ele>
        <time>2018-02-23T11:44:51Z</time>
      </trkpt>
      <trkpt lat="45.9241" lon="4.73281">
        <ele>171</ele>
        <time>2018-02-23T11:44:52Z</time>
      </trkpt>
      <trkpt lat="45.92411" lon="4.73288">
        <ele>171</ele>
        <time>2018-02-23T11:44:53Z</time>
      </trkpt>
      <trkpt lat="45.92411" lon="4.73296">
        <ele>171</ele>
        <time>2018-02-23T11:44:54Z</time>
      </trkpt>
      <trkpt lat="45.92412" lon="4.73304">
        <ele>171</ele>
        <time>2018-02-23T11:44:55Z</time>
      </trkpt>
      <trkpt lat="45.92413" lon="4.73312">
        <ele>171</ele>
        <time>2018-02-23T11:44:56Z</time>
      </trkpt>
      <trkpt lat="45.92413" lon="4.73321">
        <ele>171</ele>
        <time>2018-02-23T11:44:57Z</time>
      </trkpt>
      <trkpt lat="45.92413" lon="4.73329">
        <ele>171</ele>
        <time>2018-02-23T11:44:58Z</time>
      </trkpt>
      <trkpt lat="45.92414" lon="4.73337">
        <ele>171</ele>
        <time>2018-02-23T11:44:59Z</time>
      </trkpt>
      <trkpt lat="45.92415" lon="4.73345">
        <ele>171</ele>
        <time>2018-02-23T11:45:00Z</time>
      </trkpt>
      <trkpt lat="45.92417" lon="4.73353">
        <ele>171</ele>
        <time>2018-02-23T11:45:01Z</time>
      </trkpt>
      <trkpt lat="45.92419" lon="4.73361">
        <ele>172</ele>
        <time>2018-02-23T11:45:02Z</time>
      </trkpt>
      <trkpt lat="45.9242" lon="4.73369">
        <ele>172</ele>
        <time>2018-02-23T11:45:03Z</time>
      </trkpt>
      <trkpt lat="45.92421" lon="4.73376">
        <ele>172</ele>
        <time>2018-02-23T11:45:04Z</time>
      </trkpt>
      <trkpt lat="45.92423" lon="4.73384">
        <ele>172</ele>
        <time>2018-02-23T11:45:05Z</time>
      </trkpt>
      <trkpt lat="45.92424" lon="4.73392">
        <ele>172</ele>
        <time>2018-02-23T11:45:06Z</time>
      </trkpt>
      <trkpt lat="45.92426" lon="4.73399">
        <ele>172</ele>
        <time>2018-02-23T11:45:07Z</time>
      </trkpt>
      <trkpt lat="45.92428" lon="4.73406">
        <ele>172</ele>
        <time>2018-02-23T11:45:08Z</time>
      </trkpt>
      <trkpt lat="45.92432" lon="4.73411">
        <ele>172</ele>
        <time>2018-02-23T11:45:09Z</time>
      </trkpt>
      <trkpt lat="45.92435" lon="4.73416">
        <ele>172</ele>
        <time>2018-02-23T11:45:10Z</time>
      </trkpt>
      <trkpt lat="45.9244" lon="4.73419">
        <ele>173</ele>
        <time>2018-02-23T11:45:11Z</time>
      </trkpt>
      <trkpt lat="45.92445" lon="4.73422">
        <ele>173</ele>
        <time>2018-02-23T11:45:12Z</time>
      </trkpt>
      <trkpt lat="45.92449" lon="4.73426">
        <ele>173</ele>
        <time>2018-02-23T11:45:13Z</time>
      </trkpt>
      <trkpt lat="45.92453" lon="4.7343">
        <ele>173</ele>
        <time>2018-02-23T11:45:14Z</time>
      </trkpt>
      <trkpt lat="45.92457" lon="4.73434">
        <ele>173</ele>
        <time>2018-02-23T11:45:15Z</time>
      </trkpt>
      <trkpt lat="45.92459" lon="4.73438">
        <ele>173</ele>
        <time>2018-02-23T11:45:16Z</time>
      </trkpt>
      <trkpt lat="45.92462" lon="4.73444">
        <ele>173</ele>
        <time>2018-02-23T11:45:17Z</time>
      </trkpt>
      <trkpt lat="45.92464" lon="4.73451">
        <ele>173</ele>
        <time>2018-02-23T11:45:18Z</time>
      </trkpt>
      <trkpt lat="45.92465" lon="4.73459">
        <ele>173</ele>
        <time>2018-02-23T11:45:19Z</time>
      </trkpt>
      <trkpt lat="45.92466" lon="4.73467">
        <ele>173</ele>
        <time>2018-02-23T11:45:20Z</time>
      </trkpt>
      <trkpt lat="45.92468" lon="4.73473">
        <ele>173</ele>
        <time>2018-02-23T11:45:21Z</time>
      </trkpt>
      <trkpt lat="45.92468" lon="4.73481">
        <ele>173</ele>
        <time>2018-02-23T11:45:22Z</time>
      </trkpt>
      <trkpt lat="45.92467" lon="4.73489">
        <ele>173</ele>
        <time>2018-02-23T11:45:23Z</time>
      </trkpt>
      <trkpt lat="45.92467" lon="4.73497">
        <ele>173</ele>
        <time>2018-02-23T11:45:24Z</time>
      </trkpt>
      <trkpt lat="45.92467" lon="4.73506">
        <ele>174</ele>
        <time>2018-02-23T11:45:25Z</time>
      </trkpt>
      <trkpt lat="45.92466" lon="4.73515">
        <ele>174</ele>
        <time>2018-02-23T11:45:26Z</time>
      </trkpt>
      <trkpt lat="45.92465" lon="4.73523">
        <ele>174</ele>
        <time>2018-02-23T11:45:27Z</time>
      </trkpt>
      <trkpt lat="45.92465" lon="4.73531">
        <ele>174</ele>
        <time>2018-02-23T11:45:28Z</time>
      </trkpt>
      <trkpt lat="45.92465" lon="4.73539">
        <ele>174</ele>
        <time>2018-02-23T11:45:29Z</time>
      </trkpt>
      <trkpt lat="45.92465" lon="4.73546">
        <ele>173</ele>
        <time>2018-02-23T11:45:30Z</time>
      </trkpt>
      <trkpt lat="45.92466" lon="4.73553">
        <ele>173</ele>
        <time>2018-02-23T11:45:31Z</time>
      </trkpt>
      <trkpt lat="45.92465" lon="4.73562">
        <ele>173</ele>
        <time>2018-02-23T11:45:33Z</time>
      </trkpt>
      <trkpt lat="45.92466" lon="4.73572">
        <ele>173</ele>
        <time>2018-02-23T11:45:34Z</time>
      </trkpt>
      <trkpt lat="45.92466" lon="4.73582">
        <ele>173</ele>
        <time>2018-02-23T11:45:35Z</time>
      </trkpt>
      <trkpt lat="45.92466" lon="4.7359">
        <ele>174</ele>
        <time>2018-02-23T11:45:36Z</time>
      </trkpt>
      <trkpt lat="45.92466" lon="4.73599">
        <ele>174</ele>
        <time>2018-02-23T11:45:37Z</time>
      </trkpt>
      <trkpt lat="45.92467" lon="4.73608">
        <ele>174</ele>
        <time>2018-02-23T11:45:38Z</time>
      </trkpt>
      <trkpt lat="45.92468" lon="4.73617">
        <ele>174</ele>
        <time>2018-02-23T11:45:39Z</time>
      </trkpt>
      <trkpt lat="45.92468" lon="4.73625">
        <ele>174</ele>
        <time>2018-02-23T11:45:40Z</time>
      </trkpt>
      <trkpt lat="45.92468" lon="4.73632">
        <ele>174</ele>
        <time>2018-02-23T11:45:41Z</time>
      </trkpt>
      <trkpt lat="45.92467" lon="4.7364">
        <ele>174</ele>
        <time>2018-02-23T11:45:42Z</time>
      </trkpt>
      <trkpt lat="45.92467" lon="4.73648">
        <ele>174</ele>
        <time>2018-02-23T11:45:43Z</time>
      </trkpt>
      <trkpt lat="45.92466" lon="4.73655">
        <ele>174</ele>
        <time>2018-02-23T11:45:44Z</time>
      </trkpt>
      <trkpt lat="45.92466" lon="4.73662">
        <ele>174</ele>
        <time>2018-02-23T11:45:45Z</time>
      </trkpt>
      <trkpt lat="45.92466" lon="4.73668">
        <ele>174</ele>
        <time>2018-02-23T11:45:46Z</time>
      </trkpt>
      <trkpt lat="45.92466" lon="4.73676">
        <ele>174</ele>
        <time>2018-02-23T11:45:47Z</time>
      </trkpt>
      <trkpt lat="45.92465" lon="4.73683">
        <ele>174</ele>
        <time>2018-02-23T11:45:48Z</time>
      </trkpt>
      <trkpt lat="45.92466" lon="4.73691">
        <ele>174</ele>
        <time>2018-02-23T11:45:49Z</time>
      </trkpt>
      <trkpt lat="45.92465" lon="4.73696">
        <ele>174</ele>
        <time>2018-02-23T11:45:50Z</time>
      </trkpt>
      <trkpt lat="45.92464" lon="4.73709">
        <ele>174</ele>
        <time>2018-02-23T11:45:55Z</time>
      </trkpt>
      <trkpt lat="45.92464" lon="4.73709">
        <ele>174</ele>
        <time>2018-02-23T11:45:56Z</time>
      </trkpt>
      <trkpt lat="45.92455" lon="4.73707">
        <ele>174</ele>
        <time>2018-02-23T11:46:36Z</time>
      </trkpt>
      <trkpt lat="45.92455" lon="4.73707">
        <ele>174</ele>
        <time>2018-02-23T11:46:37Z</time>
      </trkpt>
      <trkpt lat="45.92453" lon="4.73705">
        <ele>174</ele>
        <time>2018-02-23T11:46:39.871Z</time>
      </trkpt>
    </trkseg>
  </trk>
</gpx>